<?xml version='1.0' encoding='UTF-8'?><gpx version="1.1" creator="JPX - https://github.com/jenetics/jpx" xmlns="http://www.topografix.com/GPX/1/1"><trk><trkseg><trkpt lat="42.08923231016536" lon="11.85251191874275"><ele>300.0</ele><time>2026-04-19T08:58:05Z</time></trkpt><trkpt lat="42.0891468658022" lon="11.852436700915215"><ele>300.0</ele><time>2026-04-19T08:58:07Z</time></trkpt><trkpt lat="42.08907926617804" lon="11.85238452811653"><ele>300.0</ele><time>2026-04-19T08:58:08Z</time></trkpt><trkpt lat="42.08901244590429" lon="11.852326110539378"><ele>300.0</ele><time>2026-04-19T08:58:09Z</time></trkpt><trkpt lat="42.08894666955792" lon="11.852257964784064"><ele>300.0</ele><time>2026-04-19T08:58:10Z</time></trkpt><trkpt lat="42.088890387360856" lon="11.852167923238271"><ele>300.0</ele><time>2026-04-19T08:58:11Z</time></trkpt><trkpt lat="42.088819004309656" lon="11.8521031642279"><ele>298.0</ele><time>2026-04-19T08:58:12Z</time></trkpt><trkpt lat="42.08874386690993" lon="11.852032092150631"><ele>296.0</ele><time>2026-04-19T08:58:13Z</time></trkpt><trkpt lat="42.08867742231821" lon="11.851962140830178"><ele>294.0</ele><time>2026-04-19T08:58:14Z</time></trkpt><trkpt lat="42.08861719511525" lon="11.851875934420606"><ele>292.0</ele><time>2026-04-19T08:58:15Z</time></trkpt><trkpt lat="42.08855397267003" lon="11.851786948193414"><ele>290.0</ele><time>2026-04-19T08:58:16Z</time></trkpt><trkpt lat="42.088484853147186" lon="11.851705362744857"><ele>288.0</ele><time>2026-04-19T08:58:17Z</time></trkpt><trkpt lat="42.08839906561588" lon="11.85164748608502"><ele>288.0</ele><time>2026-04-19T08:58:18Z</time></trkpt><trkpt lat="42.08833291504747" lon="11.851569169696512"><ele>288.0</ele><time>2026-04-19T08:58:19Z</time></trkpt><trkpt lat="42.08823792275373" lon="11.85154019953482"><ele>288.0</ele><time>2026-04-19T08:58:20Z</time></trkpt><trkpt lat="42.08814703288254" lon="11.851480660255676"><ele>288.0</ele><time>2026-04-19T08:58:21Z</time></trkpt><trkpt lat="42.08805211536967" lon="11.851454916546578"><ele>288.0</ele><time>2026-04-19T08:58:22Z</time></trkpt><trkpt lat="42.08795299393905" lon="11.851443760978706"><ele>286.2</ele><time>2026-04-19T08:58:23Z</time></trkpt><trkpt lat="42.087854497112474" lon="11.851451034297702"><ele>284.4</ele><time>2026-04-19T08:58:24Z</time></trkpt><trkpt lat="42.08776411393905" lon="11.851462698293531"><ele>282.59999999999997</ele><time>2026-04-19T08:58:25Z</time></trkpt><trkpt lat="42.087673173400006" lon="11.851506911381403"><ele>280.8</ele><time>2026-04-19T08:58:26Z</time></trkpt><trkpt lat="42.08757714810111" lon="11.85153006788972"><ele>279.0</ele><time>2026-04-19T08:58:27Z</time></trkpt><trkpt lat="42.087483960857824" lon="11.851575839004136"><ele>277.4</ele><time>2026-04-19T08:58:28Z</time></trkpt><trkpt lat="42.08738758591152" lon="11.851626582933134"><ele>275.79999999999995</ele><time>2026-04-19T08:58:29Z</time></trkpt><trkpt lat="42.08729233922284" lon="11.851675752607642"><ele>274.20000000000005</ele><time>2026-04-19T08:58:30Z</time></trkpt><trkpt lat="42.08720239829941" lon="11.851721280057097"><ele>272.6</ele><time>2026-04-19T08:58:31Z</time></trkpt><trkpt lat="42.08710918528013" lon="11.851765238264313"><ele>271.0</ele><time>2026-04-19T08:58:32Z</time></trkpt><trkpt lat="42.08701586220251" lon="11.851812918578588"><ele>269.6</ele><time>2026-04-19T08:58:33Z</time></trkpt><trkpt lat="42.086923902874155" lon="11.85185556802046"><ele>268.20000000000005</ele><time>2026-04-19T08:58:34Z</time></trkpt><trkpt lat="42.086823986071565" lon="11.85190275609361"><ele>266.79999999999995</ele><time>2026-04-19T08:58:35Z</time></trkpt><trkpt lat="42.08671979327228" lon="11.851924531879844"><ele>265.4</ele><time>2026-04-19T08:58:36Z</time></trkpt><trkpt lat="42.086607747250106" lon="11.85197077593481"><ele>264.0</ele><time>2026-04-19T08:58:37Z</time></trkpt><trkpt lat="42.086500175057225" lon="11.852021241303516"><ele>262.0</ele><time>2026-04-19T08:58:38Z</time></trkpt><trkpt lat="42.08640277708712" lon="11.852090573039852"><ele>260.0</ele><time>2026-04-19T08:58:39Z</time></trkpt><trkpt lat="42.08630341350265" lon="11.852138745627569"><ele>258.0</ele><time>2026-04-19T08:58:40Z</time></trkpt><trkpt lat="42.086202697962605" lon="11.852179510155237"><ele>256.0</ele><time>2026-04-19T08:58:41Z</time></trkpt><trkpt lat="42.08610381353412" lon="11.852231993070273"><ele>254.0</ele><time>2026-04-19T08:58:42Z</time></trkpt><trkpt lat="42.085997890181226" lon="11.852262759434105"><ele>254.0</ele><time>2026-04-19T08:58:43Z</time></trkpt><trkpt lat="42.08589742789224" lon="11.852324230710087"><ele>253.99999999999997</ele><time>2026-04-19T08:58:44Z</time></trkpt><trkpt lat="42.085795541150794" lon="11.852382149035092"><ele>253.99999999999997</ele><time>2026-04-19T08:58:45Z</time></trkpt><trkpt lat="42.08569216120473" lon="11.85244031767404"><ele>254.0</ele><time>2026-04-19T08:58:46Z</time></trkpt><trkpt lat="42.08559584868613" lon="11.852511488985185"><ele>254.0</ele><time>2026-04-19T08:58:47Z</time></trkpt><trkpt lat="42.085508449191" lon="11.852576084203632"><ele>252.2</ele><time>2026-04-19T08:58:48Z</time></trkpt><trkpt lat="42.085422691034594" lon="11.85264339353536"><ele>250.39999999999998</ele><time>2026-04-19T08:58:49Z</time></trkpt><trkpt lat="42.085343387060696" lon="11.852695703226944"><ele>248.6</ele><time>2026-04-19T08:58:50Z</time></trkpt><trkpt lat="42.085259060557966" lon="11.852736213688013"><ele>246.8</ele><time>2026-04-19T08:58:51Z</time></trkpt><trkpt lat="42.085171756665666" lon="11.852754300841223"><ele>245.0</ele><time>2026-04-19T08:58:52Z</time></trkpt><trkpt lat="42.085096657629826" lon="11.852700431084118"><ele>245.00000000000003</ele><time>2026-04-19T08:58:53Z</time></trkpt><trkpt lat="42.08502138501102" lon="11.852668184555535"><ele>245.0</ele><time>2026-04-19T08:58:54Z</time></trkpt><trkpt lat="42.084937563690445" lon="11.852631192578354"><ele>245.0</ele><time>2026-04-19T08:58:55Z</time></trkpt><trkpt lat="42.08485189289552" lon="11.852593384948444"><ele>245.0</ele><time>2026-04-19T08:58:56Z</time></trkpt><trkpt lat="42.084771825609536" lon="11.852552582859254"><ele>245.00000000000003</ele><time>2026-04-19T08:58:57Z</time></trkpt><trkpt lat="42.08469641260286" lon="11.852500006421783"><ele>245.0</ele><time>2026-04-19T08:58:58Z</time></trkpt><trkpt lat="42.08461354843606" lon="11.85244183380601"><ele>243.6</ele><time>2026-04-19T08:58:59Z</time></trkpt><trkpt lat="42.0845288625052" lon="11.85238133470822"><ele>242.2</ele><time>2026-04-19T08:59:00Z</time></trkpt><trkpt lat="42.084442481558476" lon="11.85231918438004"><ele>240.8</ele><time>2026-04-19T08:59:01Z</time></trkpt><trkpt lat="42.08435302990475" lon="11.852262502873716"><ele>239.4</ele><time>2026-04-19T08:59:02Z</time></trkpt><trkpt lat="42.08425938446033" lon="11.852215147535297"><ele>238.0</ele><time>2026-04-19T08:59:03Z</time></trkpt><trkpt lat="42.08416729503811" lon="11.852166355777873"><ele>236.0</ele><time>2026-04-19T08:59:04Z</time></trkpt><trkpt lat="42.08408079610806" lon="11.852113548831863"><ele>234.0</ele><time>2026-04-19T08:59:05Z</time></trkpt><trkpt lat="42.08399070856483" lon="11.852046304342473"><ele>232.0</ele><time>2026-04-19T08:59:06Z</time></trkpt><trkpt lat="42.083900490927945" lon="11.8519707724297"><ele>230.0</ele><time>2026-04-19T08:59:07Z</time></trkpt><trkpt lat="42.08381398114677" lon="11.851894032380883"><ele>228.0</ele><time>2026-04-19T08:59:08Z</time></trkpt><trkpt lat="42.083730777764046" lon="11.85181643513635"><ele>229.0</ele><time>2026-04-19T08:59:09Z</time></trkpt><trkpt lat="42.08364771963977" lon="11.851740506596382"><ele>230.0</ele><time>2026-04-19T08:59:10Z</time></trkpt><trkpt lat="42.08356601236121" lon="11.851670614311447"><ele>231.0</ele><time>2026-04-19T08:59:11Z</time></trkpt><trkpt lat="42.08349167687967" lon="11.85160832901045"><ele>232.0</ele><time>2026-04-19T08:59:12Z</time></trkpt><trkpt lat="42.08341389194644" lon="11.85154561270525"><ele>233.0</ele><time>2026-04-19T08:59:13Z</time></trkpt><trkpt lat="42.08333711575222" lon="11.851487556769241"><ele>231.66666666666669</ele><time>2026-04-19T08:59:14Z</time></trkpt><trkpt lat="42.08325973959343" lon="11.85143530857109"><ele>230.33333333333334</ele><time>2026-04-19T08:59:15Z</time></trkpt><trkpt lat="42.08318095697387" lon="11.85138846641843"><ele>229.0</ele><time>2026-04-19T08:59:16Z</time></trkpt><trkpt lat="42.08309584004509" lon="11.851346895052727"><ele>227.66666666666669</ele><time>2026-04-19T08:59:17Z</time></trkpt><trkpt lat="42.083008329826235" lon="11.85131368911157"><ele>226.33333333333334</ele><time>2026-04-19T08:59:18Z</time></trkpt><trkpt lat="42.08291776698456" lon="11.851285048416573"><ele>225.0</ele><time>2026-04-19T08:59:19Z</time></trkpt><trkpt lat="42.08282750107783" lon="11.851257719005726"><ele>225.0</ele><time>2026-04-19T08:59:20Z</time></trkpt><trkpt lat="42.08273412805829" lon="11.85122851587076"><ele>225.0</ele><time>2026-04-19T08:59:21Z</time></trkpt><trkpt lat="42.08263912749558" lon="11.851203210047604"><ele>225.0</ele><time>2026-04-19T08:59:22Z</time></trkpt><trkpt lat="42.08254129861914" lon="11.85117358873998"><ele>225.0</ele><time>2026-04-19T08:59:23Z</time></trkpt><trkpt lat="42.08244667352789" lon="11.851149371371678"><ele>225.0</ele><time>2026-04-19T08:59:24Z</time></trkpt><trkpt lat="42.08235369374541" lon="11.85111853206911"><ele>223.0</ele><time>2026-04-19T08:59:25Z</time></trkpt><trkpt lat="42.08226404191187" lon="11.851084761643603"><ele>221.0</ele><time>2026-04-19T08:59:26Z</time></trkpt><trkpt lat="42.08218337987653" lon="11.851055337386251"><ele>219.0</ele><time>2026-04-19T08:59:27Z</time></trkpt><trkpt lat="42.08211906875009" lon="11.851038725457812"><ele>217.0</ele><time>2026-04-19T08:59:28Z</time></trkpt><trkpt lat="42.082030657146326" lon="11.851024326762584"><ele>215.0</ele><time>2026-04-19T08:59:30Z</time></trkpt><trkpt lat="42.08209639975101" lon="11.851228377818087"><ele>215.0</ele><time>2026-04-19T08:59:35Z</time></trkpt><trkpt lat="42.08218371452713" lon="11.851282436216307"><ele>215.0</ele><time>2026-04-19T08:59:37Z</time></trkpt><trkpt lat="42.082269130075424" lon="11.851358330480885"><ele>215.0</ele><time>2026-04-19T08:59:39Z</time></trkpt><trkpt lat="42.08236097752943" lon="11.851457530090395"><ele>215.0</ele><time>2026-04-19T08:59:41Z</time></trkpt><trkpt lat="42.08241067916712" lon="11.851515299739672"><ele>215.0</ele><time>2026-04-19T08:59:42Z</time></trkpt><trkpt lat="42.08249688624161" lon="11.851637240924811"><ele>215.50000000000003</ele><time>2026-04-19T08:59:44Z</time></trkpt><trkpt lat="42.08254135949241" lon="11.851701514728234"><ele>216.0</ele><time>2026-04-19T08:59:45Z</time></trkpt><trkpt lat="42.08262623545087" lon="11.851842762869412"><ele>216.5</ele><time>2026-04-19T08:59:47Z</time></trkpt><trkpt lat="42.08266368786493" lon="11.851920516030468"><ele>217.0</ele><time>2026-04-19T08:59:48Z</time></trkpt><trkpt lat="42.08270276798059" lon="11.851996248731963"><ele>217.50000000000003</ele><time>2026-04-19T08:59:49Z</time></trkpt><trkpt lat="42.08274822825878" lon="11.852075273136792"><ele>218.0</ele><time>2026-04-19T08:59:50Z</time></trkpt><trkpt lat="42.08282698887343" lon="11.852216289481053"><ele>218.0</ele><time>2026-04-19T08:59:52Z</time></trkpt><trkpt lat="42.08286775224881" lon="11.852287666319443"><ele>218.0</ele><time>2026-04-19T08:59:53Z</time></trkpt><trkpt lat="42.08290737243944" lon="11.852366065654861"><ele>218.0</ele><time>2026-04-19T08:59:54Z</time></trkpt><trkpt lat="42.08294765871678" lon="11.85244870394873"><ele>218.0</ele><time>2026-04-19T08:59:55Z</time></trkpt><trkpt lat="42.08298748208512" lon="11.852535928215515"><ele>218.0</ele><time>2026-04-19T08:59:56Z</time></trkpt><trkpt lat="42.08302383704025" lon="11.852618481619176"><ele>218.0</ele><time>2026-04-19T08:59:57Z</time></trkpt><trkpt lat="42.08306335158924" lon="11.852699527113264"><ele>218.0</ele><time>2026-04-19T08:59:58Z</time></trkpt><trkpt lat="42.08310379914071" lon="11.852780266817211"><ele>218.57142857142858</ele><time>2026-04-19T08:59:59Z</time></trkpt><trkpt lat="42.08314782598863" lon="11.852863232958299"><ele>219.14285714285717</ele><time>2026-04-19T09:00:00Z</time></trkpt><trkpt lat="42.08318629684969" lon="11.852944046112345"><ele>219.71428571428572</ele><time>2026-04-19T09:00:01Z</time></trkpt><trkpt lat="42.0832232521611" lon="11.853030521924822"><ele>220.28571428571428</ele><time>2026-04-19T09:00:02Z</time></trkpt><trkpt lat="42.08325568223933" lon="11.85311439886796"><ele>220.85714285714286</ele><time>2026-04-19T09:00:03Z</time></trkpt><trkpt lat="42.08327563697699" lon="11.853203215286387"><ele>221.42857142857142</ele><time>2026-04-19T09:00:04Z</time></trkpt><trkpt lat="42.08327842459133" lon="11.853317394299639"><ele>222.0</ele><time>2026-04-19T09:00:06Z</time></trkpt><trkpt lat="42.08324390087164" lon="11.853408501485283"><ele>222.83333333333334</ele><time>2026-04-19T09:00:12Z</time></trkpt><trkpt lat="42.08328830976287" lon="11.85349480713318"><ele>223.66666666666669</ele><time>2026-04-19T09:00:15Z</time></trkpt><trkpt lat="42.083261269547776" lon="11.853622561430928"><ele>224.5</ele><time>2026-04-19T09:00:18Z</time></trkpt><trkpt lat="42.08322896627795" lon="11.85372449479263"><ele>225.33333333333334</ele><time>2026-04-19T09:00:20Z</time></trkpt><trkpt lat="42.083205357634434" lon="11.853830629777011"><ele>226.16666666666669</ele><time>2026-04-19T09:00:22Z</time></trkpt><trkpt lat="42.083172707379305" lon="11.8539222171323"><ele>227.0</ele><time>2026-04-19T09:00:24Z</time></trkpt><trkpt lat="42.083166539362445" lon="11.854007065646165"><ele>224.6</ele><time>2026-04-19T09:00:26Z</time></trkpt><trkpt lat="42.083139949082785" lon="11.854106945466604"><ele>222.2</ele><time>2026-04-19T09:00:29Z</time></trkpt><trkpt lat="42.08313387179852" lon="11.854195080369688"><ele>219.8</ele><time>2026-04-19T09:00:32Z</time></trkpt><trkpt lat="42.0831311411962" lon="11.85430447792658"><ele>217.4</ele><time>2026-04-19T09:00:34Z</time></trkpt><trkpt lat="42.083123654792516" lon="11.854441775306517"><ele>215.0</ele><time>2026-04-19T09:00:36Z</time></trkpt><trkpt lat="42.08311487951279" lon="11.854605442938132"><ele>213.42857142857142</ele><time>2026-04-19T09:00:38Z</time></trkpt><trkpt lat="42.083113883560436" lon="11.85469303763485"><ele>211.85714285714286</ele><time>2026-04-19T09:00:39Z</time></trkpt><trkpt lat="42.08311107353701" lon="11.854783186850899"><ele>210.28571428571428</ele><time>2026-04-19T09:00:40Z</time></trkpt><trkpt lat="42.08311284587421" lon="11.85488457589554"><ele>208.71428571428572</ele><time>2026-04-19T09:00:41Z</time></trkpt><trkpt lat="42.08311125114658" lon="11.854985440833614"><ele>207.14285714285717</ele><time>2026-04-19T09:00:42Z</time></trkpt><trkpt lat="42.08308512530309" lon="11.85509212765067"><ele>205.57142857142858</ele><time>2026-04-19T09:00:43Z</time></trkpt><trkpt lat="42.0830543844287" lon="11.855191881636381"><ele>204.0</ele><time>2026-04-19T09:00:44Z</time></trkpt><trkpt lat="42.08302218316785" lon="11.85530029953335"><ele>203.28571428571428</ele><time>2026-04-19T09:00:45Z</time></trkpt><trkpt lat="42.08298260121859" lon="11.855400852900408"><ele>202.57142857142858</ele><time>2026-04-19T09:00:46Z</time></trkpt><trkpt lat="42.0829491464195" lon="11.855503965530383"><ele>201.85714285714283</ele><time>2026-04-19T09:00:47Z</time></trkpt><trkpt lat="42.082914549832296" lon="11.855593559510465"><ele>201.14285714285714</ele><time>2026-04-19T09:00:48Z</time></trkpt><trkpt lat="42.08288426485966" lon="11.855672945623827"><ele>200.42857142857142</ele><time>2026-04-19T09:00:49Z</time></trkpt><trkpt lat="42.082852753365934" lon="11.85575508527755"><ele>199.7142857142857</ele><time>2026-04-19T09:00:50Z</time></trkpt><trkpt lat="42.082823291578485" lon="11.855832855659358"><ele>199.0</ele><time>2026-04-19T09:00:51Z</time></trkpt><trkpt lat="42.082770345984954" lon="11.855972423884872"><ele>197.99999999999997</ele><time>2026-04-19T09:00:53Z</time></trkpt><trkpt lat="42.082756160008636" lon="11.85605838088755"><ele>197.0</ele><time>2026-04-19T09:00:54Z</time></trkpt><trkpt lat="42.0827691655105" lon="11.856220477231298"><ele>196.0</ele><time>2026-04-19T09:00:56Z</time></trkpt><trkpt lat="42.082785691985535" lon="11.856318468313743"><ele>195.0</ele><time>2026-04-19T09:00:57Z</time></trkpt><trkpt lat="42.08280702536891" lon="11.856402669745592"><ele>193.99999999999997</ele><time>2026-04-19T09:00:58Z</time></trkpt><trkpt lat="42.082836708334305" lon="11.856485616394774"><ele>193.0</ele><time>2026-04-19T09:00:59Z</time></trkpt><trkpt lat="42.08286272082074" lon="11.856575235157806"><ele>193.00000000000003</ele><time>2026-04-19T09:01:00Z</time></trkpt><trkpt lat="42.08289241778623" lon="11.856655478780754"><ele>193.0</ele><time>2026-04-19T09:01:01Z</time></trkpt><trkpt lat="42.08293443431485" lon="11.85673729703672"><ele>193.0</ele><time>2026-04-19T09:01:02Z</time></trkpt><trkpt lat="42.0829839462659" lon="11.856816454783381"><ele>193.0</ele><time>2026-04-19T09:01:03Z</time></trkpt><trkpt lat="42.08304424444091" lon="11.856879534277235"><ele>193.0</ele><time>2026-04-19T09:01:04Z</time></trkpt><trkpt lat="42.083108376837636" lon="11.856928813408556"><ele>193.00000000000003</ele><time>2026-04-19T09:01:05Z</time></trkpt><trkpt lat="42.08317575951615" lon="11.856989094864407"><ele>193.0</ele><time>2026-04-19T09:01:06Z</time></trkpt><trkpt lat="42.0832408597171" lon="11.857050567422132"><ele>192.99999999999997</ele><time>2026-04-19T09:01:07Z</time></trkpt><trkpt lat="42.08331266971237" lon="11.857111856889231"><ele>193.0</ele><time>2026-04-19T09:01:08Z</time></trkpt><trkpt lat="42.08337568700363" lon="11.857166088203316"><ele>193.0</ele><time>2026-04-19T09:01:09Z</time></trkpt><trkpt lat="42.08345398376411" lon="11.857236109383981"><ele>193.0</ele><time>2026-04-19T09:01:10Z</time></trkpt><trkpt lat="42.08353130404376" lon="11.85728980179229"><ele>192.99999999999997</ele><time>2026-04-19T09:01:11Z</time></trkpt><trkpt lat="42.083611049467976" lon="11.85732963160244"><ele>193.0</ele><time>2026-04-19T09:01:12Z</time></trkpt><trkpt lat="42.08368443858459" lon="11.857348472734111"><ele>192.99999999999997</ele><time>2026-04-19T09:01:13Z</time></trkpt><trkpt lat="42.08374748449645" lon="11.857353773526771"><ele>193.0</ele><time>2026-04-19T09:01:14Z</time></trkpt><trkpt lat="42.083839233896846" lon="11.857349623506018"><ele>193.0</ele><time>2026-04-19T09:01:16Z</time></trkpt><trkpt lat="42.08382839846727" lon="11.857439227035687"><ele>193.0</ele><time>2026-04-19T09:01:19Z</time></trkpt><trkpt lat="42.083756129004975" lon="11.85745886793049"><ele>192.99999999999997</ele><time>2026-04-19T09:01:21Z</time></trkpt><trkpt lat="42.08365370709653" lon="11.857465089576351"><ele>193.0</ele><time>2026-04-19T09:01:23Z</time></trkpt><trkpt lat="42.0835653155369" lon="11.857496858779852"><ele>193.0</ele><time>2026-04-19T09:01:25Z</time></trkpt><trkpt lat="42.08345147451228" lon="11.857503095035367"><ele>193.0</ele><time>2026-04-19T09:01:27Z</time></trkpt><trkpt lat="42.083316810927045" lon="11.857505102989293"><ele>193.0</ele><time>2026-04-19T09:01:29Z</time></trkpt><trkpt lat="42.083256098957705" lon="11.857474663676072"><ele>193.0</ele><time>2026-04-19T09:01:30Z</time></trkpt><trkpt lat="42.08318862421085" lon="11.857442486329143"><ele>193.0</ele><time>2026-04-19T09:01:31Z</time></trkpt><trkpt lat="42.08312617843585" lon="11.857415803467655"><ele>190.57142857142858</ele><time>2026-04-19T09:01:32Z</time></trkpt><trkpt lat="42.083064994177704" lon="11.857384340058552"><ele>188.14285714285714</ele><time>2026-04-19T09:01:33Z</time></trkpt><trkpt lat="42.082987239059214" lon="11.857369851108576"><ele>185.71428571428572</ele><time>2026-04-19T09:01:34Z</time></trkpt><trkpt lat="42.082912934596806" lon="11.857348736099986"><ele>183.28571428571428</ele><time>2026-04-19T09:01:35Z</time></trkpt><trkpt lat="42.08284189728092" lon="11.857314416034955"><ele>180.85714285714286</ele><time>2026-04-19T09:01:36Z</time></trkpt><trkpt lat="42.08277447445819" lon="11.85727437905266"><ele>178.42857142857144</ele><time>2026-04-19T09:01:37Z</time></trkpt><trkpt lat="42.0827089754469" lon="11.857244821279167"><ele>176.0</ele><time>2026-04-19T09:01:38Z</time></trkpt><trkpt lat="42.08264713527703" lon="11.85721885676626"><ele>176.0</ele><time>2026-04-19T09:01:39Z</time></trkpt><trkpt lat="42.08256670188375" lon="11.85721459422136"><ele>176.0</ele><time>2026-04-19T09:01:40Z</time></trkpt><trkpt lat="42.08250233589241" lon="11.857194913244543"><ele>176.0</ele><time>2026-04-19T09:01:41Z</time></trkpt><trkpt lat="42.082435006676135" lon="11.857152751654588"><ele>176.0</ele><time>2026-04-19T09:01:42Z</time></trkpt><trkpt lat="42.08236113516077" lon="11.857109067314543"><ele>176.0</ele><time>2026-04-19T09:01:43Z</time></trkpt><trkpt lat="42.08230527685437" lon="11.857047345941718"><ele>176.0</ele><time>2026-04-19T09:01:44Z</time></trkpt><trkpt lat="42.082244749944266" lon="11.857003092882843"><ele>176.0</ele><time>2026-04-19T09:01:45Z</time></trkpt><trkpt lat="42.0821166017247" lon="11.856929904460692"><ele>175.16666666666666</ele><time>2026-04-19T09:01:47Z</time></trkpt><trkpt lat="42.08205282540523" lon="11.856896685610941"><ele>174.33333333333331</ele><time>2026-04-19T09:01:48Z</time></trkpt><trkpt lat="42.081924374390276" lon="11.856832763036396"><ele>173.5</ele><time>2026-04-19T09:01:50Z</time></trkpt><trkpt lat="42.08185262306474" lon="11.856817032814952"><ele>172.66666666666666</ele><time>2026-04-19T09:01:51Z</time></trkpt><trkpt lat="42.08178535671396" lon="11.856798339583912"><ele>171.83333333333334</ele><time>2026-04-19T09:01:52Z</time></trkpt><trkpt lat="42.08171784352827" lon="11.856787287250922"><ele>171.0</ele><time>2026-04-19T09:01:53Z</time></trkpt><trkpt lat="42.081619338413546" lon="11.85673049269914"><ele>170.99999999999997</ele><time>2026-04-19T09:01:55Z</time></trkpt><trkpt lat="42.081566432739145" lon="11.85665594809941"><ele>171.0</ele><time>2026-04-19T09:01:57Z</time></trkpt><trkpt lat="42.081551716920636" lon="11.856558043545336"><ele>171.0</ele><time>2026-04-19T09:01:59Z</time></trkpt><trkpt lat="42.08155068520552" lon="11.856460247423371"><ele>171.0</ele><time>2026-04-19T09:02:01Z</time></trkpt><trkpt lat="42.08157495083986" lon="11.856379888349798"><ele>171.0</ele><time>2026-04-19T09:02:03Z</time></trkpt><trkpt lat="42.08154722259368" lon="11.85645911356434"><ele>170.99999999999997</ele><time>2026-04-19T09:02:38Z</time></trkpt><trkpt lat="42.08155690271474" lon="11.85657122671681"><ele>171.0</ele><time>2026-04-19T09:02:41Z</time></trkpt><trkpt lat="42.08160428034602" lon="11.856685508433218"><ele>170.99999999999997</ele><time>2026-04-19T09:02:44Z</time></trkpt><trkpt lat="42.08165462367135" lon="11.856752454997705"><ele>171.0</ele><time>2026-04-19T09:02:46Z</time></trkpt><trkpt lat="42.08171755893917" lon="11.856771357717438"><ele>171.0</ele><time>2026-04-19T09:02:48Z</time></trkpt><trkpt lat="42.0817963070783" lon="11.856788024240283"><ele>171.0</ele><time>2026-04-19T09:02:51Z</time></trkpt><trkpt lat="42.0818664167927" lon="11.85682653237972"><ele>171.0</ele><time>2026-04-19T09:02:54Z</time></trkpt><trkpt lat="42.08193786052759" lon="11.856846440119261"><ele>170.99999999999997</ele><time>2026-04-19T09:02:57Z</time></trkpt><trkpt lat="42.08200929421935" lon="11.856875969183196"><ele>171.0</ele><time>2026-04-19T09:03:00Z</time></trkpt><trkpt lat="42.082085735294484" lon="11.856906062121787"><ele>171.83333333333334</ele><time>2026-04-19T09:03:03Z</time></trkpt><trkpt lat="42.08215705995132" lon="11.856949639047365"><ele>172.66666666666666</ele><time>2026-04-19T09:03:07Z</time></trkpt><trkpt lat="42.082228220694624" lon="11.857003161184233"><ele>173.5</ele><time>2026-04-19T09:03:10Z</time></trkpt><trkpt lat="42.08229929448285" lon="11.857051235256117"><ele>174.33333333333331</ele><time>2026-04-19T09:03:13Z</time></trkpt><trkpt lat="42.08237185642673" lon="11.857118013853043"><ele>175.16666666666666</ele><time>2026-04-19T09:03:16Z</time></trkpt><trkpt lat="42.08242716835967" lon="11.857162537604331"><ele>176.0</ele><time>2026-04-19T09:03:18Z</time></trkpt><trkpt lat="42.082484693418415" lon="11.857203698851775"><ele>176.0</ele><time>2026-04-19T09:03:20Z</time></trkpt><trkpt lat="42.082568673265726" lon="11.857238448101631"><ele>176.0</ele><time>2026-04-19T09:03:23Z</time></trkpt><trkpt lat="42.082655147308586" lon="11.857253609548787"><ele>176.0</ele><time>2026-04-19T09:03:26Z</time></trkpt><trkpt lat="42.082739728917424" lon="11.857278217185016"><ele>176.0</ele><time>2026-04-19T09:03:29Z</time></trkpt><trkpt lat="42.08281421521184" lon="11.857310221776826"><ele>176.0</ele><time>2026-04-19T09:03:32Z</time></trkpt><trkpt lat="42.08287212964563" lon="11.857347838997109"><ele>176.0</ele><time>2026-04-19T09:03:34Z</time></trkpt><trkpt lat="42.08296162887473" lon="11.857385059831588"><ele>176.0</ele><time>2026-04-19T09:03:37Z</time></trkpt><trkpt lat="42.08302889272533" lon="11.857398315713928"><ele>176.0</ele><time>2026-04-19T09:03:40Z</time></trkpt><trkpt lat="42.08309610510194" lon="11.857419883078625"><ele>176.0</ele><time>2026-04-19T09:03:45Z</time></trkpt><trkpt lat="42.08317365488012" lon="11.857464481304117"><ele>176.0</ele><time>2026-04-19T09:03:49Z</time></trkpt><trkpt lat="42.083246691744876" lon="11.857492228728379"><ele>176.0</ele><time>2026-04-19T09:03:52Z</time></trkpt><trkpt lat="42.08331706582441" lon="11.857521249822328"><ele>176.0</ele><time>2026-04-19T09:03:55Z</time></trkpt><trkpt lat="42.083400691747734" lon="11.857536968803473"><ele>178.42857142857144</ele><time>2026-04-19T09:03:58Z</time></trkpt><trkpt lat="42.083479208649365" lon="11.857531884230356"><ele>180.85714285714286</ele><time>2026-04-19T09:04:01Z</time></trkpt><trkpt lat="42.08355191608696" lon="11.85752665592611"><ele>183.28571428571428</ele><time>2026-04-19T09:04:04Z</time></trkpt><trkpt lat="42.0836359691397" lon="11.857499882901692"><ele>185.71428571428572</ele><time>2026-04-19T09:04:08Z</time></trkpt><trkpt lat="42.08370041937969" lon="11.857473016873262"><ele>188.14285714285714</ele><time>2026-04-19T09:04:11Z</time></trkpt><trkpt lat="42.08376838361433" lon="11.857453949233594"><ele>190.57142857142858</ele><time>2026-04-19T09:04:14Z</time></trkpt><trkpt lat="42.083832863581705" lon="11.85742208285532"><ele>193.0</ele><time>2026-04-19T09:04:17Z</time></trkpt><trkpt lat="42.08391285019734" lon="11.857410591267135"><ele>192.99999999999997</ele><time>2026-04-19T09:04:56Z</time></trkpt><trkpt lat="42.083980251437204" lon="11.857422283758172"><ele>193.0</ele><time>2026-04-19T09:04:58Z</time></trkpt><trkpt lat="42.08405240265524" lon="11.857423644313629"><ele>193.0</ele><time>2026-04-19T09:05:00Z</time></trkpt><trkpt lat="42.08414150651493" lon="11.857439032201448"><ele>193.0</ele><time>2026-04-19T09:05:02Z</time></trkpt><trkpt lat="42.084245626006876" lon="11.857462038565673"><ele>192.99999999999997</ele><time>2026-04-19T09:05:04Z</time></trkpt><trkpt lat="42.08433359866945" lon="11.85749902314736"><ele>193.0</ele><time>2026-04-19T09:05:06Z</time></trkpt><trkpt lat="42.08436994553107" lon="11.857600704471011"><ele>194.4</ele><time>2026-04-19T09:05:08Z</time></trkpt><trkpt lat="42.08432855716437" lon="11.85768219999464"><ele>195.8</ele><time>2026-04-19T09:05:10Z</time></trkpt><trkpt lat="42.08427773403973" lon="11.85776525154581"><ele>197.2</ele><time>2026-04-19T09:05:12Z</time></trkpt><trkpt lat="42.08422955212515" lon="11.857873475110026"><ele>198.6</ele><time>2026-04-19T09:05:14Z</time></trkpt><trkpt lat="42.08415616416074" lon="11.85797905928287"><ele>200.0</ele><time>2026-04-19T09:05:16Z</time></trkpt><trkpt lat="42.084083859101646" lon="11.858095812672572"><ele>194.8</ele><time>2026-04-19T09:05:18Z</time></trkpt><trkpt lat="42.084014045067235" lon="11.858239764583411"><ele>189.6</ele><time>2026-04-19T09:05:20Z</time></trkpt><trkpt lat="42.0839707474114" lon="11.858324705632045"><ele>184.39999999999998</ele><time>2026-04-19T09:05:21Z</time></trkpt><trkpt lat="42.083937369374816" lon="11.85840805830791"><ele>179.2</ele><time>2026-04-19T09:05:22Z</time></trkpt><trkpt lat="42.08390775704915" lon="11.858564779381373"><ele>174.0</ele><time>2026-04-19T09:05:24Z</time></trkpt><trkpt lat="42.08390616041008" lon="11.858698966681514"><ele>172.42857142857142</ele><time>2026-04-19T09:05:26Z</time></trkpt><trkpt lat="42.083942548465316" lon="11.85881185059792"><ele>170.85714285714286</ele><time>2026-04-19T09:05:28Z</time></trkpt><trkpt lat="42.083996740736566" lon="11.858856199247565"><ele>169.28571428571428</ele><time>2026-04-19T09:05:29Z</time></trkpt><trkpt lat="42.08405357459444" lon="11.858905912295539"><ele>167.71428571428572</ele><time>2026-04-19T09:05:30Z</time></trkpt><trkpt lat="42.08411092767738" lon="11.858948712952976"><ele>166.14285714285714</ele><time>2026-04-19T09:05:31Z</time></trkpt><trkpt lat="42.08416212794612" lon="11.859005227386525"><ele>164.57142857142858</ele><time>2026-04-19T09:05:32Z</time></trkpt><trkpt lat="42.08420915934497" lon="11.85906938946945"><ele>163.0</ele><time>2026-04-19T09:05:33Z</time></trkpt><trkpt lat="42.08424504253297" lon="11.859147770396207"><ele>163.71428571428572</ele><time>2026-04-19T09:05:34Z</time></trkpt><trkpt lat="42.08428584413261" lon="11.859226270061772"><ele>164.42857142857142</ele><time>2026-04-19T09:05:35Z</time></trkpt><trkpt lat="42.08433468531473" lon="11.85929132716264"><ele>165.14285714285714</ele><time>2026-04-19T09:05:36Z</time></trkpt><trkpt lat="42.08436288543491" lon="11.859372528264954"><ele>165.85714285714286</ele><time>2026-04-19T09:05:37Z</time></trkpt><trkpt lat="42.084384152771364" lon="11.859468126933553"><ele>166.57142857142856</ele><time>2026-04-19T09:05:38Z</time></trkpt><trkpt lat="42.08439056263813" lon="11.859564668428796"><ele>167.28571428571428</ele><time>2026-04-19T09:05:39Z</time></trkpt><trkpt lat="42.084402740382515" lon="11.859673226361714"><ele>168.0</ele><time>2026-04-19T09:05:40Z</time></trkpt><trkpt lat="42.08441052794769" lon="11.859781435369312"><ele>168.0</ele><time>2026-04-19T09:05:41Z</time></trkpt><trkpt lat="42.08442173399541" lon="11.859931158691696"><ele>168.0</ele><time>2026-04-19T09:05:43Z</time></trkpt><trkpt lat="42.084476234242416" lon="11.860046180833065"><ele>168.0</ele><time>2026-04-19T09:05:45Z</time></trkpt><trkpt lat="42.08459866666696" lon="11.860101118962035"><ele>168.0</ele><time>2026-04-19T09:05:47Z</time></trkpt><trkpt lat="42.084673691332604" lon="11.860130325182261"><ele>168.0</ele><time>2026-04-19T09:05:48Z</time></trkpt><trkpt lat="42.084742032524936" lon="11.860145390804583"><ele>166.0</ele><time>2026-04-19T09:05:49Z</time></trkpt><trkpt lat="42.084823465129176" lon="11.860165744552626"><ele>164.0</ele><time>2026-04-19T09:05:50Z</time></trkpt><trkpt lat="42.08490085799513" lon="11.860185936830296"><ele>162.0</ele><time>2026-04-19T09:05:51Z</time></trkpt><trkpt lat="42.084975137012314" lon="11.860215007581157"><ele>160.0</ele><time>2026-04-19T09:05:52Z</time></trkpt><trkpt lat="42.08504978555016" lon="11.860227296585231"><ele>158.0</ele><time>2026-04-19T09:05:53Z</time></trkpt><trkpt lat="42.08513297668118" lon="11.86023146546164"><ele>156.0</ele><time>2026-04-19T09:05:54Z</time></trkpt><trkpt lat="42.085217447119376" lon="11.860237271034888"><ele>156.0</ele><time>2026-04-19T09:05:55Z</time></trkpt><trkpt lat="42.08528985551544" lon="11.86026228864167"><ele>156.0</ele><time>2026-04-19T09:05:56Z</time></trkpt><trkpt lat="42.08535994532896" lon="11.860303111057945"><ele>156.0</ele><time>2026-04-19T09:05:57Z</time></trkpt><trkpt lat="42.08542174725869" lon="11.860362255847754"><ele>156.0</ele><time>2026-04-19T09:05:58Z</time></trkpt><trkpt lat="42.08548119843952" lon="11.860436722544344"><ele>156.0</ele><time>2026-04-19T09:05:59Z</time></trkpt><trkpt lat="42.08554838822981" lon="11.860542250913518"><ele>156.0</ele><time>2026-04-19T09:06:00Z</time></trkpt><trkpt lat="42.08561072943069" lon="11.860646765449806"><ele>156.0</ele><time>2026-04-19T09:06:01Z</time></trkpt><trkpt lat="42.08566876380511" lon="11.860755035058473"><ele>156.0</ele><time>2026-04-19T09:06:02Z</time></trkpt><trkpt lat="42.08572209413324" lon="11.86087567572991"><ele>156.0</ele><time>2026-04-19T09:06:03Z</time></trkpt><trkpt lat="42.08579085834033" lon="11.86098820697727"><ele>156.0</ele><time>2026-04-19T09:06:04Z</time></trkpt><trkpt lat="42.0858650928608" lon="11.861092803304436"><ele>156.0</ele><time>2026-04-19T09:06:05Z</time></trkpt><trkpt lat="42.085932744314725" lon="11.861197828532896"><ele>155.0</ele><time>2026-04-19T09:06:06Z</time></trkpt><trkpt lat="42.0859933468941" lon="11.86130233529974"><ele>154.0</ele><time>2026-04-19T09:06:07Z</time></trkpt><trkpt lat="42.08604695848204" lon="11.861416427857407"><ele>153.0</ele><time>2026-04-19T09:06:08Z</time></trkpt><trkpt lat="42.08610001694096" lon="11.861503674344505"><ele>152.0</ele><time>2026-04-19T09:06:09Z</time></trkpt><trkpt lat="42.08615977082855" lon="11.861576050910715"><ele>151.0</ele><time>2026-04-19T09:06:10Z</time></trkpt><trkpt lat="42.086216508834234" lon="11.861666793569231"><ele>151.0</ele><time>2026-04-19T09:06:11Z</time></trkpt><trkpt lat="42.08625444306714" lon="11.861738908388801"><ele>151.0</ele><time>2026-04-19T09:06:12Z</time></trkpt><trkpt lat="42.08627129447473" lon="11.861871314048667"><ele>151.0</ele><time>2026-04-19T09:06:14Z</time></trkpt><trkpt lat="42.08625761484757" lon="11.862006339116618"><ele>151.0</ele><time>2026-04-19T09:06:16Z</time></trkpt><trkpt lat="42.08624818562139" lon="11.862138741820862"><ele>151.0</ele><time>2026-04-19T09:06:18Z</time></trkpt><trkpt lat="42.086230403641935" lon="11.862272244356365"><ele>149.2</ele><time>2026-04-19T09:06:20Z</time></trkpt><trkpt lat="42.08620388014851" lon="11.862411634609074"><ele>147.39999999999998</ele><time>2026-04-19T09:06:22Z</time></trkpt><trkpt lat="42.086180817408525" lon="11.862546238345653"><ele>145.6</ele><time>2026-04-19T09:06:24Z</time></trkpt><trkpt lat="42.08613877290614" lon="11.86266917590764"><ele>143.79999999999998</ele><time>2026-04-19T09:06:26Z</time></trkpt><trkpt lat="42.08606298209184" lon="11.862758784164859"><ele>142.0</ele><time>2026-04-19T09:06:28Z</time></trkpt><trkpt lat="42.085968615131165" lon="11.862773366214833"><ele>141.2</ele><time>2026-04-19T09:06:30Z</time></trkpt><trkpt lat="42.085868555796154" lon="11.862754773586014"><ele>140.39999999999998</ele><time>2026-04-19T09:06:32Z</time></trkpt><trkpt lat="42.085756679782676" lon="11.862761650710057"><ele>139.60000000000002</ele><time>2026-04-19T09:06:34Z</time></trkpt><trkpt lat="42.08561111042334" lon="11.862773267531955"><ele>138.8</ele><time>2026-04-19T09:06:36Z</time></trkpt><trkpt lat="42.085540497595986" lon="11.862776809047325"><ele>138.0</ele><time>2026-04-19T09:06:37Z</time></trkpt><trkpt lat="42.08547055932752" lon="11.86273569192537"><ele>136.8</ele><time>2026-04-19T09:06:38Z</time></trkpt><trkpt lat="42.085423089552215" lon="11.86267471921002"><ele>135.60000000000002</ele><time>2026-04-19T09:06:39Z</time></trkpt><trkpt lat="42.085361948541085" lon="11.862542479337682"><ele>134.39999999999998</ele><time>2026-04-19T09:06:41Z</time></trkpt><trkpt lat="42.08526269447914" lon="11.862467947073565"><ele>133.2</ele><time>2026-04-19T09:06:43Z</time></trkpt><trkpt lat="42.08519399313654" lon="11.862449154317158"><ele>132.0</ele><time>2026-04-19T09:06:44Z</time></trkpt><trkpt lat="42.08511025225774" lon="11.86242877462219"><ele>132.0</ele><time>2026-04-19T09:06:45Z</time></trkpt><trkpt lat="42.08502606587038" lon="11.862413840490262"><ele>132.0</ele><time>2026-04-19T09:06:46Z</time></trkpt><trkpt lat="42.08494743197046" lon="11.862391210474373"><ele>132.0</ele><time>2026-04-19T09:06:47Z</time></trkpt><trkpt lat="42.08488453850004" lon="11.862384352246417"><ele>132.0</ele><time>2026-04-19T09:06:48Z</time></trkpt><trkpt lat="42.084807666058516" lon="11.862393482334824"><ele>132.0</ele><time>2026-04-19T09:06:49Z</time></trkpt><trkpt lat="42.08473984209179" lon="11.862384728515734"><ele>132.0</ele><time>2026-04-19T09:06:50Z</time></trkpt><trkpt lat="42.084690341510154" lon="11.86232790258161"><ele>132.0</ele><time>2026-04-19T09:06:51Z</time></trkpt><trkpt lat="42.08464320052591" lon="11.862268851759984"><ele>130.2</ele><time>2026-04-19T09:06:52Z</time></trkpt><trkpt lat="42.08453870175326" lon="11.862180368969344"><ele>128.39999999999998</ele><time>2026-04-19T09:06:54Z</time></trkpt><trkpt lat="42.08447945080333" lon="11.862148601094955"><ele>126.60000000000001</ele><time>2026-04-19T09:06:55Z</time></trkpt><trkpt lat="42.08441673994488" lon="11.86212131888248"><ele>124.80000000000001</ele><time>2026-04-19T09:06:56Z</time></trkpt><trkpt lat="42.084300532878764" lon="11.862068950323984"><ele>123.0</ele><time>2026-04-19T09:06:58Z</time></trkpt><trkpt lat="42.0842012706642" lon="11.862034527992744"><ele>123.0</ele><time>2026-04-19T09:07:00Z</time></trkpt><trkpt lat="42.0841360392598" lon="11.862007989956092"><ele>123.0</ele><time>2026-04-19T09:07:02Z</time></trkpt><trkpt lat="42.084062577239166" lon="11.862027726623172"><ele>123.0</ele><time>2026-04-19T09:07:11Z</time></trkpt><trkpt lat="42.08401199177553" lon="11.862087490642223"><ele>123.0</ele><time>2026-04-19T09:07:15Z</time></trkpt><trkpt lat="42.083926313332746" lon="11.862176181520853"><ele>123.0</ele><time>2026-04-19T09:07:18Z</time></trkpt><trkpt lat="42.08383235447093" lon="11.862213929739193"><ele>123.0</ele><time>2026-04-19T09:07:20Z</time></trkpt><trkpt lat="42.083731235575016" lon="11.862221658664721"><ele>121.2</ele><time>2026-04-19T09:07:22Z</time></trkpt><trkpt lat="42.08365358835237" lon="11.862283745161026"><ele>119.4</ele><time>2026-04-19T09:07:28Z</time></trkpt><trkpt lat="42.0836185819954" lon="11.862393345554226"><ele>117.60000000000001</ele><time>2026-04-19T09:07:30Z</time></trkpt><trkpt lat="42.083529428739496" lon="11.862447075034959"><ele>115.80000000000001</ele><time>2026-04-19T09:07:33Z</time></trkpt><trkpt lat="42.083439534187434" lon="11.862469775482348"><ele>114.0</ele><time>2026-04-19T09:07:36Z</time></trkpt><trkpt lat="42.083357451026096" lon="11.862501729868425"><ele>114.0</ele><time>2026-04-19T09:07:39Z</time></trkpt><trkpt lat="42.083278789095786" lon="11.862545006693676"><ele>113.99999999999999</ele><time>2026-04-19T09:07:42Z</time></trkpt><trkpt lat="42.08321593098882" lon="11.862619950748785"><ele>114.0</ele><time>2026-04-19T09:07:48Z</time></trkpt><trkpt lat="42.08318166460962" lon="11.862694294448561"><ele>114.0</ele><time>2026-04-19T09:07:50Z</time></trkpt><trkpt lat="42.083191737557826" lon="11.8627792558506"><ele>113.99999999999999</ele><time>2026-04-19T09:07:52Z</time></trkpt><trkpt lat="42.083195666421226" lon="11.862866081004457"><ele>114.0</ele><time>2026-04-19T09:07:54Z</time></trkpt><trkpt lat="42.08320707057133" lon="11.862957645865924"><ele>114.0</ele><time>2026-04-19T09:07:56Z</time></trkpt><trkpt lat="42.08318795423639" lon="11.863077179498058"><ele>111.66666666666667</ele><time>2026-04-19T09:07:59Z</time></trkpt><trkpt lat="42.0831952116995" lon="11.863170252761998"><ele>109.33333333333334</ele><time>2026-04-19T09:08:01Z</time></trkpt><trkpt lat="42.083203189908126" lon="11.863260087498253"><ele>107.0</ele><time>2026-04-19T09:08:03Z</time></trkpt><trkpt lat="42.08321169065005" lon="11.863371016274739"><ele>104.66666666666667</ele><time>2026-04-19T09:08:05Z</time></trkpt><trkpt lat="42.08322110068561" lon="11.863489258985046"><ele>102.33333333333334</ele><time>2026-04-19T09:08:07Z</time></trkpt><trkpt lat="42.08327230253663" lon="11.86357397436398"><ele>100.0</ele><time>2026-04-19T09:08:10Z</time></trkpt><trkpt lat="42.08329446666994" lon="11.86366929493551"><ele>100.00000000000001</ele><time>2026-04-19T09:08:13Z</time></trkpt><trkpt lat="42.083300145566206" lon="11.863756596263814"><ele>100.0</ele><time>2026-04-19T09:08:15Z</time></trkpt><trkpt lat="42.08330206308174" lon="11.863877472085845"><ele>100.0</ele><time>2026-04-19T09:08:18Z</time></trkpt><trkpt lat="42.08331094044196" lon="11.863991583670657"><ele>100.0</ele><time>2026-04-19T09:08:20Z</time></trkpt><trkpt lat="42.08332111512666" lon="11.864111728333688"><ele>100.00000000000001</ele><time>2026-04-19T09:08:22Z</time></trkpt><trkpt lat="42.083351039569166" lon="11.86424571510604"><ele>100.0</ele><time>2026-04-19T09:08:24Z</time></trkpt><trkpt lat="42.083368091410165" lon="11.864333472343441"><ele>99.57142857142858</ele><time>2026-04-19T09:08:26Z</time></trkpt><trkpt lat="42.08333859252115" lon="11.864419492067599"><ele>99.14285714285714</ele><time>2026-04-19T09:08:29Z</time></trkpt><trkpt lat="42.08326446942222" lon="11.864460387687643"><ele>98.71428571428572</ele><time>2026-04-19T09:08:32Z</time></trkpt><trkpt lat="42.0831921408836" lon="11.864459023592257"><ele>98.28571428571429</ele><time>2026-04-19T09:08:34Z</time></trkpt><trkpt lat="42.083121384723235" lon="11.864439677673747"><ele>97.85714285714286</ele><time>2026-04-19T09:08:36Z</time></trkpt><trkpt lat="42.08305380055173" lon="11.8644816009671"><ele>97.42857142857143</ele><time>2026-04-19T09:08:39Z</time></trkpt><trkpt lat="42.08306286143292" lon="11.864588011495476"><ele>97.0</ele><time>2026-04-19T09:08:51Z</time></trkpt><trkpt lat="42.08309518437737" lon="11.864670157815551"><ele>97.00000000000001</ele><time>2026-04-19T09:08:53Z</time></trkpt><trkpt lat="42.083093398155114" lon="11.864791865866039"><ele>97.0</ele><time>2026-04-19T09:08:55Z</time></trkpt><trkpt lat="42.08308140184813" lon="11.864890854507442"><ele>97.0</ele><time>2026-04-19T09:09:01Z</time></trkpt><trkpt lat="42.08310886074193" lon="11.864982123188854"><ele>97.0</ele><time>2026-04-19T09:09:12Z</time></trkpt><trkpt lat="42.08317301393505" lon="11.865018378504393"><ele>97.00000000000001</ele><time>2026-04-19T09:09:18Z</time></trkpt><trkpt lat="42.08324601399662" lon="11.865071697590173"><ele>97.0</ele><time>2026-04-19T09:09:23Z</time></trkpt><trkpt lat="42.08330636417633" lon="11.86511712251403"><ele>97.42857142857143</ele><time>2026-04-19T09:09:32Z</time></trkpt><trkpt lat="42.08338042338007" lon="11.86515942849335"><ele>97.85714285714286</ele><time>2026-04-19T09:09:36Z</time></trkpt><trkpt lat="42.083441492184456" lon="11.865207119826108"><ele>98.28571428571429</ele><time>2026-04-19T09:09:39Z</time></trkpt><trkpt lat="42.08350747880061" lon="11.865239384794373"><ele>98.71428571428572</ele><time>2026-04-19T09:10:04Z</time></trkpt><trkpt lat="42.083556538601144" lon="11.865295023329171"><ele>99.14285714285714</ele><time>2026-04-19T09:10:12Z</time></trkpt><trkpt lat="42.08359422795856" lon="11.865397099889503"><ele>99.57142857142858</ele><time>2026-04-19T09:10:15Z</time></trkpt><trkpt lat="42.083585523378964" lon="11.865496556071532"><ele>100.0</ele><time>2026-04-19T09:10:18Z</time></trkpt><trkpt lat="42.083591857633444" lon="11.86560697104225"><ele>100.00000000000001</ele><time>2026-04-19T09:10:22Z</time></trkpt><trkpt lat="42.08356210125817" lon="11.86571230047851"><ele>100.0</ele><time>2026-04-19T09:10:26Z</time></trkpt><trkpt lat="42.083497808562136" lon="11.865761327384691"><ele>100.0</ele><time>2026-04-19T09:10:30Z</time></trkpt><trkpt lat="42.08341980783021" lon="11.865734986894518"><ele>100.0</ele><time>2026-04-19T09:10:35Z</time></trkpt><trkpt lat="42.08334354728656" lon="11.865712535008605"><ele>100.00000000000001</ele><time>2026-04-19T09:10:39Z</time></trkpt><trkpt lat="42.08328436807684" lon="11.865768695329887"><ele>100.0</ele><time>2026-04-19T09:10:43Z</time></trkpt><trkpt lat="42.08324862726505" lon="11.865844408642358"><ele>101.50000000000001</ele><time>2026-04-19T09:10:46Z</time></trkpt><trkpt lat="42.08321717160309" lon="11.865921902343919"><ele>103.0</ele><time>2026-04-19T09:10:49Z</time></trkpt><trkpt lat="42.08318316136259" lon="11.866015548607663"><ele>104.5</ele><time>2026-04-19T09:10:53Z</time></trkpt><trkpt lat="42.08315904967117" lon="11.866122533357427"><ele>106.0</ele><time>2026-04-19T09:10:56Z</time></trkpt><trkpt lat="42.08311831695223" lon="11.866198180981891"><ele>107.50000000000001</ele><time>2026-04-19T09:10:59Z</time></trkpt><trkpt lat="42.08306373607934" lon="11.866267554574138"><ele>109.0</ele><time>2026-04-19T09:11:02Z</time></trkpt><trkpt lat="42.082983603840525" lon="11.86629459991673"><ele>110.85714285714286</ele><time>2026-04-19T09:11:05Z</time></trkpt><trkpt lat="42.08291408508104" lon="11.866318195528224"><ele>112.71428571428572</ele><time>2026-04-19T09:11:08Z</time></trkpt><trkpt lat="42.082841345690966" lon="11.86629463556884"><ele>114.57142857142856</ele><time>2026-04-19T09:11:12Z</time></trkpt><trkpt lat="42.08277478078818" lon="11.866300541482044"><ele>116.42857142857142</ele><time>2026-04-19T09:11:16Z</time></trkpt><trkpt lat="42.08270903994382" lon="11.866313074982125"><ele>118.28571428571428</ele><time>2026-04-19T09:11:21Z</time></trkpt><trkpt lat="42.082638626565036" lon="11.86636328271834"><ele>120.14285714285712</ele><time>2026-04-19T09:11:40Z</time></trkpt><trkpt lat="42.08256653136255" lon="11.866351192910733"><ele>121.99999999999999</ele><time>2026-04-19T09:11:44Z</time></trkpt><trkpt lat="42.08248387719405" lon="11.866335534877383"><ele>122.28571428571428</ele><time>2026-04-19T09:11:49Z</time></trkpt><trkpt lat="42.0824184717052" lon="11.866320939088803"><ele>122.57142857142857</ele><time>2026-04-19T09:11:52Z</time></trkpt><trkpt lat="42.08234791524075" lon="11.866286334403616"><ele>122.85714285714286</ele><time>2026-04-19T09:11:56Z</time></trkpt><trkpt lat="42.08230151458994" lon="11.866225671279896"><ele>123.14285714285714</ele><time>2026-04-19T09:11:59Z</time></trkpt><trkpt lat="42.08223026245919" lon="11.866171486547215"><ele>123.42857142857144</ele><time>2026-04-19T09:12:03Z</time></trkpt><trkpt lat="42.08222102921032" lon="11.86608315237466"><ele>123.71428571428572</ele><time>2026-04-19T09:12:06Z</time></trkpt><trkpt lat="42.08219330195103" lon="11.865975699516895"><ele>124.0</ele><time>2026-04-19T09:12:09Z</time></trkpt><trkpt lat="42.08216811513425" lon="11.86589337891866"><ele>124.00000000000001</ele><time>2026-04-19T09:12:12Z</time></trkpt><trkpt lat="42.082174068213654" lon="11.865780668742415"><ele>124.0</ele><time>2026-04-19T09:12:15Z</time></trkpt><trkpt lat="42.082149533896946" lon="11.865684143218106"><ele>124.0</ele><time>2026-04-19T09:12:18Z</time></trkpt><trkpt lat="42.08209685610342" lon="11.865599969612635"><ele>124.0</ele><time>2026-04-19T09:12:21Z</time></trkpt><trkpt lat="42.08202149817656" lon="11.865567381151317"><ele>124.00000000000001</ele><time>2026-04-19T09:12:24Z</time></trkpt><trkpt lat="42.08194800856136" lon="11.865583637834185"><ele>124.0</ele><time>2026-04-19T09:12:27Z</time></trkpt><trkpt lat="42.08187920833505" lon="11.865607121586661"><ele>124.00000000000001</ele><time>2026-04-19T09:12:31Z</time></trkpt><trkpt lat="42.08179291905347" lon="11.865574084013463"><ele>124.0</ele><time>2026-04-19T09:12:37Z</time></trkpt><trkpt lat="42.08173415748528" lon="11.865538281233171"><ele>124.0</ele><time>2026-04-19T09:12:40Z</time></trkpt><trkpt lat="42.081669089529655" lon="11.865492538413589"><ele>124.0</ele><time>2026-04-19T09:12:43Z</time></trkpt><trkpt lat="42.08160250245155" lon="11.865445376653536"><ele>124.00000000000001</ele><time>2026-04-19T09:12:46Z</time></trkpt><trkpt lat="42.08152180069694" lon="11.86545210055693"><ele>124.0</ele><time>2026-04-19T09:12:50Z</time></trkpt><trkpt lat="42.081453450386626" lon="11.865488981627658"><ele>125.00000000000001</ele><time>2026-04-19T09:12:53Z</time></trkpt><trkpt lat="42.08139092980386" lon="11.865525310600692"><ele>126.0</ele><time>2026-04-19T09:12:56Z</time></trkpt><trkpt lat="42.081318858030855" lon="11.865557005085675"><ele>127.0</ele><time>2026-04-19T09:12:59Z</time></trkpt><trkpt lat="42.081235565732854" lon="11.86560484289904"><ele>128.0</ele><time>2026-04-19T09:13:02Z</time></trkpt><trkpt lat="42.08114530642037" lon="11.865624994771036"><ele>129.0</ele><time>2026-04-19T09:13:05Z</time></trkpt><trkpt lat="42.081082008812245" lon="11.865623870219771"><ele>130.0</ele><time>2026-04-19T09:13:07Z</time></trkpt><trkpt lat="42.08101248569951" lon="11.865631519255318"><ele>130.0</ele><time>2026-04-19T09:13:09Z</time></trkpt><trkpt lat="42.08092394434059" lon="11.865647742399181"><ele>130.0</ele><time>2026-04-19T09:13:12Z</time></trkpt><trkpt lat="42.08083974663049" lon="11.865641346058556"><ele>130.0</ele><time>2026-04-19T09:13:15Z</time></trkpt><trkpt lat="42.08076552422945" lon="11.86565753413225"><ele>130.0</ele><time>2026-04-19T09:13:18Z</time></trkpt><trkpt lat="42.08067737664448" lon="11.865680398825218"><ele>130.0</ele><time>2026-04-19T09:13:21Z</time></trkpt><trkpt lat="42.080604965884774" lon="11.865714331890569"><ele>130.0</ele><time>2026-04-19T09:13:23Z</time></trkpt><trkpt lat="42.08053259690468" lon="11.865734332796006"><ele>130.71428571428572</ele><time>2026-04-19T09:13:25Z</time></trkpt><trkpt lat="42.08046988422373" lon="11.865745000266884"><ele>131.42857142857144</ele><time>2026-04-19T09:13:27Z</time></trkpt><trkpt lat="42.08038831334419" lon="11.865753614099226"><ele>132.14285714285714</ele><time>2026-04-19T09:13:30Z</time></trkpt><trkpt lat="42.08031013396355" lon="11.865764178458315"><ele>132.85714285714286</ele><time>2026-04-19T09:13:33Z</time></trkpt><trkpt lat="42.080228817312225" lon="11.865789032738528"><ele>133.57142857142856</ele><time>2026-04-19T09:13:36Z</time></trkpt><trkpt lat="42.080164559503906" lon="11.865808900439417"><ele>134.28571428571428</ele><time>2026-04-19T09:13:38Z</time></trkpt><trkpt lat="42.080091124047016" lon="11.865827139319586"><ele>135.0</ele><time>2026-04-19T09:13:41Z</time></trkpt><trkpt lat="42.08000552260581" lon="11.865835314256122"><ele>134.16666666666666</ele><time>2026-04-19T09:13:45Z</time></trkpt><trkpt lat="42.07992086181979" lon="11.865826708852852"><ele>133.33333333333334</ele><time>2026-04-19T09:13:48Z</time></trkpt><trkpt lat="42.0798564831123" lon="11.865856744566011"><ele>132.5</ele><time>2026-04-19T09:13:50Z</time></trkpt><trkpt lat="42.07979300384265" lon="11.865945415054268"><ele>131.66666666666669</ele><time>2026-04-19T09:13:53Z</time></trkpt><trkpt lat="42.07976540133501" lon="11.866046674513354"><ele>130.83333333333334</ele><time>2026-04-19T09:13:56Z</time></trkpt><trkpt lat="42.07974130797777" lon="11.866149875094138"><ele>130.0</ele><time>2026-04-19T09:14:00Z</time></trkpt><trkpt lat="42.07971917322838" lon="11.866256757821999"><ele>131.83333333333334</ele><time>2026-04-19T09:14:03Z</time></trkpt><trkpt lat="42.079717600820324" lon="11.866350777798191"><ele>133.66666666666669</ele><time>2026-04-19T09:14:06Z</time></trkpt><trkpt lat="42.07973123570229" lon="11.866437526779915"><ele>135.5</ele><time>2026-04-19T09:14:09Z</time></trkpt><trkpt lat="42.07980400998111" lon="11.866479361966853"><ele>137.33333333333334</ele><time>2026-04-19T09:14:12Z</time></trkpt><trkpt lat="42.079886909286394" lon="11.866487571213716"><ele>139.16666666666666</ele><time>2026-04-19T09:14:15Z</time></trkpt><trkpt lat="42.07997818222555" lon="11.866477353664633"><ele>141.0</ele><time>2026-04-19T09:14:18Z</time></trkpt><trkpt lat="42.080067088026226" lon="11.866506763417865"><ele>141.57142857142858</ele><time>2026-04-19T09:14:21Z</time></trkpt><trkpt lat="42.08012348640868" lon="11.866552667138013"><ele>142.14285714285714</ele><time>2026-04-19T09:14:23Z</time></trkpt><trkpt lat="42.08016172482298" lon="11.866628930529949"><ele>142.71428571428572</ele><time>2026-04-19T09:14:25Z</time></trkpt><trkpt lat="42.08019548095673" lon="11.866708107667899"><ele>143.28571428571428</ele><time>2026-04-19T09:14:27Z</time></trkpt><trkpt lat="42.08020978721729" lon="11.866822697715556"><ele>143.85714285714286</ele><time>2026-04-19T09:14:30Z</time></trkpt><trkpt lat="42.080214522590815" lon="11.866926746219654"><ele>144.42857142857144</ele><time>2026-04-19T09:14:33Z</time></trkpt><trkpt lat="42.080196826304935" lon="11.867027377597232"><ele>145.0</ele><time>2026-04-19T09:14:36Z</time></trkpt><trkpt lat="42.080184857859535" lon="11.86712216727535"><ele>146.14285714285714</ele><time>2026-04-19T09:14:39Z</time></trkpt><trkpt lat="42.08017412898239" lon="11.867225506851549"><ele>147.2857142857143</ele><time>2026-04-19T09:14:43Z</time></trkpt><trkpt lat="42.08017071905757" lon="11.867320814081804"><ele>148.42857142857144</ele><time>2026-04-19T09:14:46Z</time></trkpt><trkpt lat="42.08016036752885" lon="11.86742526518031"><ele>149.57142857142858</ele><time>2026-04-19T09:14:49Z</time></trkpt><trkpt lat="42.08016833305495" lon="11.867517516694129"><ele>150.71428571428572</ele><time>2026-04-19T09:14:52Z</time></trkpt><trkpt lat="42.0801533497683" lon="11.867614909633964"><ele>151.85714285714286</ele><time>2026-04-19T09:14:55Z</time></trkpt><trkpt lat="42.08015689731201" lon="11.867703359447374"><ele>153.0</ele><time>2026-04-19T09:14:58Z</time></trkpt><trkpt lat="42.08017019253725" lon="11.86781054967773"><ele>154.0</ele><time>2026-04-19T09:15:01Z</time></trkpt><trkpt lat="42.08017269801077" lon="11.867912553616193"><ele>155.0</ele><time>2026-04-19T09:15:04Z</time></trkpt><trkpt lat="42.080142410535124" lon="11.868000843829392"><ele>156.0</ele><time>2026-04-19T09:15:07Z</time></trkpt><trkpt lat="42.08010009057784" lon="11.868095657093706"><ele>157.0</ele><time>2026-04-19T09:15:10Z</time></trkpt><trkpt lat="42.080056637882905" lon="11.868202168269624"><ele>158.0</ele><time>2026-04-19T09:15:13Z</time></trkpt><trkpt lat="42.080027156602675" lon="11.868280387822132"><ele>159.0</ele><time>2026-04-19T09:15:15Z</time></trkpt><trkpt lat="42.07999012630879" lon="11.868370711202255"><ele>159.42857142857142</ele><time>2026-04-19T09:15:18Z</time></trkpt><trkpt lat="42.07994894658636" lon="11.86844725401047"><ele>159.85714285714286</ele><time>2026-04-19T09:15:21Z</time></trkpt><trkpt lat="42.079925997632046" lon="11.868534374223207"><ele>160.28571428571428</ele><time>2026-04-19T09:15:23Z</time></trkpt><trkpt lat="42.07990168442664" lon="11.86861573533222"><ele>160.71428571428572</ele><time>2026-04-19T09:15:25Z</time></trkpt><trkpt lat="42.07987232945626" lon="11.868705344271316"><ele>161.14285714285714</ele><time>2026-04-19T09:15:28Z</time></trkpt><trkpt lat="42.07984233017767" lon="11.868803406229103"><ele>161.57142857142858</ele><time>2026-04-19T09:15:31Z</time></trkpt><trkpt lat="42.07980470897693" lon="11.868882002122854"><ele>162.0</ele><time>2026-04-19T09:15:34Z</time></trkpt><trkpt lat="42.079779842511535" lon="11.868971462341419"><ele>162.85714285714286</ele><time>2026-04-19T09:15:37Z</time></trkpt><trkpt lat="42.07975132764362" lon="11.869056472409374"><ele>163.71428571428572</ele><time>2026-04-19T09:15:40Z</time></trkpt><trkpt lat="42.07972169595301" lon="11.869143539919763"><ele>164.57142857142856</ele><time>2026-04-19T09:15:43Z</time></trkpt><trkpt lat="42.07969191918561" lon="11.869223817332477"><ele>165.42857142857144</ele><time>2026-04-19T09:15:46Z</time></trkpt><trkpt lat="42.07965198245966" lon="11.869299733271141"><ele>166.28571428571428</ele><time>2026-04-19T09:15:49Z</time></trkpt><trkpt lat="42.0796197145804" lon="11.86938724999442"><ele>167.14285714285714</ele><time>2026-04-19T09:15:52Z</time></trkpt><trkpt lat="42.079584044769675" lon="11.86946688015402"><ele>168.0</ele><time>2026-04-19T09:15:55Z</time></trkpt><trkpt lat="42.07954281857881" lon="11.869555227657822"><ele>169.42857142857142</ele><time>2026-04-19T09:15:58Z</time></trkpt><trkpt lat="42.07950969512055" lon="11.869629006188177"><ele>170.85714285714286</ele><time>2026-04-19T09:16:01Z</time></trkpt><trkpt lat="42.07947817942079" lon="11.869713293643006"><ele>172.28571428571428</ele><time>2026-04-19T09:16:05Z</time></trkpt><trkpt lat="42.07944506719144" lon="11.869786497455156"><ele>173.71428571428572</ele><time>2026-04-19T09:16:09Z</time></trkpt><trkpt lat="42.079417625995326" lon="11.869864605923922"><ele>175.14285714285714</ele><time>2026-04-19T09:16:19Z</time></trkpt><trkpt lat="42.07937697482441" lon="11.86994613239978"><ele>176.57142857142856</ele><time>2026-04-19T09:16:27Z</time></trkpt><trkpt lat="42.07936987535987" lon="11.870036884125964"><ele>178.0</ele><time>2026-04-19T09:16:36Z</time></trkpt><trkpt lat="42.07941159960835" lon="11.870103439665089"><ele>181.33333333333334</ele><time>2026-04-19T09:17:15Z</time></trkpt><trkpt lat="42.079475127122436" lon="11.870142661831737"><ele>184.66666666666669</ele><time>2026-04-19T09:17:24Z</time></trkpt><trkpt lat="42.07953764915562" lon="11.870189341178161"><ele>188.0</ele><time>2026-04-19T09:17:32Z</time></trkpt><trkpt lat="42.07960965530747" lon="11.870238456558189"><ele>191.33333333333334</ele><time>2026-04-19T09:17:35Z</time></trkpt><trkpt lat="42.07965471431058" lon="11.870302778090121"><ele>194.66666666666666</ele><time>2026-04-19T09:17:37Z</time></trkpt><trkpt lat="42.07972849736833" lon="11.870349928480783"><ele>198.0</ele><time>2026-04-19T09:17:40Z</time></trkpt><trkpt lat="42.079808219202725" lon="11.870377468654935"><ele>198.0</ele><time>2026-04-19T09:17:43Z</time></trkpt><trkpt lat="42.0798893085224" lon="11.870427870368795"><ele>198.0</ele><time>2026-04-19T09:17:46Z</time></trkpt><trkpt lat="42.07994915828093" lon="11.870484919476489"><ele>198.0</ele><time>2026-04-19T09:17:49Z</time></trkpt><trkpt lat="42.08001128188864" lon="11.870518086808396"><ele>198.0</ele><time>2026-04-19T09:17:52Z</time></trkpt><trkpt lat="42.080090857367324" lon="11.87050413326055"><ele>198.0</ele><time>2026-04-19T09:17:55Z</time></trkpt><trkpt lat="42.08015641421585" lon="11.87049986296813"><ele>198.0</ele><time>2026-04-19T09:17:58Z</time></trkpt><trkpt lat="42.080233972521995" lon="11.870518548374926"><ele>197.42857142857144</ele><time>2026-04-19T09:18:02Z</time></trkpt><trkpt lat="42.08029837760652" lon="11.870539031582878"><ele>196.85714285714283</ele><time>2026-04-19T09:18:05Z</time></trkpt><trkpt lat="42.08036818910387" lon="11.870560174316818"><ele>196.28571428571428</ele><time>2026-04-19T09:18:08Z</time></trkpt><trkpt lat="42.08043404326526" lon="11.870605628151235"><ele>195.71428571428572</ele><time>2026-04-19T09:18:10.999Z</time></trkpt><trkpt lat="42.080500214035524" lon="11.870653122894689"><ele>195.14285714285717</ele><time>2026-04-19T09:18:13.999Z</time></trkpt><trkpt lat="42.080548636294814" lon="11.870723236434886"><ele>194.57142857142856</ele><time>2026-04-19T09:18:16.999Z</time></trkpt><trkpt lat="42.08059602866173" lon="11.870806983225847"><ele>194.0</ele><time>2026-04-19T09:18:19.999Z</time></trkpt><trkpt lat="42.080630221097344" lon="11.870895827739718"><ele>194.42857142857142</ele><time>2026-04-19T09:18:22.999Z</time></trkpt><trkpt lat="42.080674628289195" lon="11.870969512573195"><ele>194.85714285714286</ele><time>2026-04-19T09:18:25.999Z</time></trkpt><trkpt lat="42.08073711103729" lon="11.871014911120298"><ele>195.28571428571428</ele><time>2026-04-19T09:18:28.999Z</time></trkpt><trkpt lat="42.08080108683691" lon="11.870979576406995"><ele>195.71428571428572</ele><time>2026-04-19T09:18:31.999Z</time></trkpt><trkpt lat="42.080833131266296" lon="11.87087081640089"><ele>196.14285714285717</ele><time>2026-04-19T09:18:34.999Z</time></trkpt><trkpt lat="42.08087761754673" lon="11.870801075546126"><ele>196.57142857142858</ele><time>2026-04-19T09:18:37.999Z</time></trkpt><trkpt lat="42.08093389355535" lon="11.870753694577395"><ele>197.0</ele><time>2026-04-19T09:18:40.999Z</time></trkpt><trkpt lat="42.08099382078653" lon="11.870711981456983"><ele>197.00000000000003</ele><time>2026-04-19T09:18:44.999Z</time></trkpt><trkpt lat="42.081042397167515" lon="11.870636760649548"><ele>197.0</ele><time>2026-04-19T09:18:48Z</time></trkpt><trkpt lat="42.08111806618266" lon="11.870572551751946"><ele>197.0</ele><time>2026-04-19T09:18:51Z</time></trkpt><trkpt lat="42.081178092182455" lon="11.870522422515698"><ele>197.0</ele><time>2026-04-19T09:18:53Z</time></trkpt><trkpt lat="42.08125985123018" lon="11.87047901366258"><ele>197.00000000000003</ele><time>2026-04-19T09:18:56Z</time></trkpt><trkpt lat="42.08132719308472" lon="11.870472243076057"><ele>197.0</ele><time>2026-04-19T09:18:58Z</time></trkpt><trkpt lat="42.08139440570572" lon="11.870459756965616"><ele>197.00000000000003</ele><time>2026-04-19T09:19:00Z</time></trkpt><trkpt lat="42.081457451788545" lon="11.870453165890417"><ele>197.0</ele><time>2026-04-19T09:19:01.999Z</time></trkpt><trkpt lat="42.08154485040982" lon="11.870453706216075"><ele>197.0</ele><time>2026-04-19T09:19:04.999Z</time></trkpt><trkpt lat="42.08162984429465" lon="11.870473727483603"><ele>197.0</ele><time>2026-04-19T09:19:07.999Z</time></trkpt><trkpt lat="42.08171264368111" lon="11.870516335539198"><ele>197.00000000000003</ele><time>2026-04-19T09:19:10.999Z</time></trkpt><trkpt lat="42.08177583835148" lon="11.870548404103632"><ele>197.0</ele><time>2026-04-19T09:19:12.999Z</time></trkpt><trkpt lat="42.081850349037396" lon="11.870571321349876"><ele>198.50000000000003</ele><time>2026-04-19T09:19:14.999Z</time></trkpt><trkpt lat="42.081928006816476" lon="11.870621395453236"><ele>200.0</ele><time>2026-04-19T09:19:16.999Z</time></trkpt><trkpt lat="42.08201435956629" lon="11.870664754491452"><ele>201.5</ele><time>2026-04-19T09:19:18.999Z</time></trkpt><trkpt lat="42.08210598088176" lon="11.870700368867016"><ele>203.0</ele><time>2026-04-19T09:19:20.999Z</time></trkpt><trkpt lat="42.08217630166449" lon="11.8707427549229"><ele>204.50000000000003</ele><time>2026-04-19T09:19:22.999Z</time></trkpt><trkpt lat="42.08225634797605" lon="11.870786643564774"><ele>206.0</ele><time>2026-04-19T09:19:24.999Z</time></trkpt><trkpt lat="42.082314202186794" lon="11.870833057699812"><ele>206.00000000000003</ele><time>2026-04-19T09:19:26.999Z</time></trkpt><trkpt lat="42.08237938510683" lon="11.870864383000546"><ele>206.0</ele><time>2026-04-19T09:19:28.999Z</time></trkpt><trkpt lat="42.082438522389126" lon="11.870908110918617"><ele>206.0</ele><time>2026-04-19T09:19:30.999Z</time></trkpt><trkpt lat="42.08251715459975" lon="11.870948947930069"><ele>206.0</ele><time>2026-04-19T09:19:33.999Z</time></trkpt><trkpt lat="42.082591198730654" lon="11.870972577468553"><ele>206.00000000000003</ele><time>2026-04-19T09:19:35.999Z</time></trkpt><trkpt lat="42.08267343820952" lon="11.871015475099428"><ele>206.0</ele><time>2026-04-19T09:19:38.999Z</time></trkpt><trkpt lat="42.0827617632316" lon="11.871018423133243"><ele>207.7142857142857</ele><time>2026-04-19T09:19:41.999Z</time></trkpt><trkpt lat="42.082845431601484" lon="11.871043155645904"><ele>209.42857142857142</ele><time>2026-04-19T09:19:44.999Z</time></trkpt><trkpt lat="42.08292529205574" lon="11.871078697693921"><ele>211.14285714285714</ele><time>2026-04-19T09:19:47.999Z</time></trkpt><trkpt lat="42.08298142824419" lon="11.871138140058383"><ele>212.85714285714283</ele><time>2026-04-19T09:19:50.999Z</time></trkpt><trkpt lat="42.08304777543378" lon="11.871164913961211"><ele>214.57142857142858</ele><time>2026-04-19T09:19:53.999Z</time></trkpt><trkpt lat="42.08310818252854" lon="11.871202307119495"><ele>216.28571428571428</ele><time>2026-04-19T09:19:56.999Z</time></trkpt><trkpt lat="42.0831668107143" lon="11.871242893800366"><ele>218.0</ele><time>2026-04-19T09:19:59.999Z</time></trkpt><trkpt lat="42.08321746164967" lon="11.871336994509086"><ele>218.00000000000003</ele><time>2026-04-19T09:20:03.999Z</time></trkpt><trkpt lat="42.08329531000427" lon="11.87139319063959"><ele>218.0</ele><time>2026-04-19T09:20:07.999Z</time></trkpt><trkpt lat="42.08336824633643" lon="11.87144362213883"><ele>218.0</ele><time>2026-04-19T09:20:10.999Z</time></trkpt><trkpt lat="42.0834139321973" lon="11.871504825547918"><ele>218.0</ele><time>2026-04-19T09:20:13.999Z</time></trkpt><trkpt lat="42.08347548875057" lon="11.871580640988256"><ele>218.00000000000003</ele><time>2026-04-19T09:20:16.999Z</time></trkpt><trkpt lat="42.083537331287275" lon="11.87163545600298"><ele>218.0</ele><time>2026-04-19T09:20:19.999Z</time></trkpt><trkpt lat="42.08359731802136" lon="11.87169091871332"><ele>218.0</ele><time>2026-04-19T09:20:22.999Z</time></trkpt><trkpt lat="42.08365060971352" lon="11.871744425619172"><ele>218.0</ele><time>2026-04-19T09:20:25.999Z</time></trkpt><trkpt lat="42.08370974903444" lon="11.871802265058756"><ele>218.0</ele><time>2026-04-19T09:20:28.999Z</time></trkpt><trkpt lat="42.083764095475075" lon="11.87187490666095"><ele>218.0</ele><time>2026-04-19T09:20:31.999Z</time></trkpt><trkpt lat="42.08381263694768" lon="11.871938528515635"><ele>218.0</ele><time>2026-04-19T09:20:34.999Z</time></trkpt><trkpt lat="42.0838742557562" lon="11.87200912637209"><ele>218.0</ele><time>2026-04-19T09:20:37.999Z</time></trkpt><trkpt lat="42.083934641350076" lon="11.872067776411642"><ele>218.0</ele><time>2026-04-19T09:20:40.999Z</time></trkpt><trkpt lat="42.08400192044229" lon="11.872129478626189"><ele>219.85714285714286</ele><time>2026-04-19T09:20:44.999Z</time></trkpt><trkpt lat="42.08407425893254" lon="11.872157552882173"><ele>221.71428571428572</ele><time>2026-04-19T09:20:47.999Z</time></trkpt><trkpt lat="42.084132142209725" lon="11.872213559332708"><ele>223.57142857142856</ele><time>2026-04-19T09:20:50.999Z</time></trkpt><trkpt lat="42.08418498547914" lon="11.872298787686846"><ele>225.42857142857144</ele><time>2026-04-19T09:20:54.999Z</time></trkpt><trkpt lat="42.084224385690284" lon="11.872372990918526"><ele>227.28571428571428</ele><time>2026-04-19T09:20:57.999Z</time></trkpt><trkpt lat="42.084302848820485" lon="11.872393169511287"><ele>229.14285714285714</ele><time>2026-04-19T09:21:00.999Z</time></trkpt><trkpt lat="42.084349433491205" lon="11.872459244038184"><ele>231.0</ele><time>2026-04-19T09:21:03.999Z</time></trkpt><trkpt lat="42.08440052023619" lon="11.872517415437407"><ele>231.0</ele><time>2026-04-19T09:21:06.999Z</time></trkpt><trkpt lat="42.08444969234952" lon="11.872580872295607"><ele>231.0</ele><time>2026-04-19T09:21:09.999Z</time></trkpt><trkpt lat="42.08449438077436" lon="11.872644167554855"><ele>231.0</ele><time>2026-04-19T09:21:12.999Z</time></trkpt><trkpt lat="42.08455042240691" lon="11.872700458970435"><ele>231.0</ele><time>2026-04-19T09:21:15.999Z</time></trkpt><trkpt lat="42.08463068549079" lon="11.872718469224777"><ele>231.0</ele><time>2026-04-19T09:21:18.999Z</time></trkpt><trkpt lat="42.08471784828145" lon="11.872685848481066"><ele>231.0</ele><time>2026-04-19T09:21:21.999Z</time></trkpt><trkpt lat="42.0847756350944" lon="11.872620257825943"><ele>231.0</ele><time>2026-04-19T09:21:23.999Z</time></trkpt><trkpt lat="42.0848329526283" lon="11.87255322479087"><ele>231.0</ele><time>2026-04-19T09:21:25.999Z</time></trkpt><trkpt lat="42.0848919519659" lon="11.872504342897942"><ele>231.0</ele><time>2026-04-19T09:21:27.999Z</time></trkpt><trkpt lat="42.08494504200903" lon="11.872447750273786"><ele>231.0</ele><time>2026-04-19T09:21:29.999Z</time></trkpt><trkpt lat="42.085032640694365" lon="11.87239449603272"><ele>231.0</ele><time>2026-04-19T09:21:32.999Z</time></trkpt><trkpt lat="42.08512064691352" lon="11.87235834877708"><ele>231.0</ele><time>2026-04-19T09:21:35.999Z</time></trkpt><trkpt lat="42.0852108948433" lon="11.87232274462729"><ele>231.5</ele><time>2026-04-19T09:21:38.999Z</time></trkpt><trkpt lat="42.08527671324158" lon="11.87229479850767"><ele>232.0</ele><time>2026-04-19T09:21:40.999Z</time></trkpt><trkpt lat="42.08534690071848" lon="11.872266717890652"><ele>232.5</ele><time>2026-04-19T09:21:42.999Z</time></trkpt><trkpt lat="42.085418140451814" lon="11.872230198375249"><ele>233.0</ele><time>2026-04-19T09:21:44.999Z</time></trkpt><trkpt lat="42.085483878015644" lon="11.872184355574175"><ele>233.5</ele><time>2026-04-19T09:21:46.999Z</time></trkpt><trkpt lat="42.085562864433825" lon="11.872122234447701"><ele>234.0</ele><time>2026-04-19T09:21:48.999Z</time></trkpt><trkpt lat="42.08564529834898" lon="11.87204857939952"><ele>234.0</ele><time>2026-04-19T09:21:50.999Z</time></trkpt><trkpt lat="42.08573433023631" lon="11.871967134942722"><ele>234.0</ele><time>2026-04-19T09:21:52.999Z</time></trkpt><trkpt lat="42.08578962647241" lon="11.871910058305822"><ele>234.0</ele><time>2026-04-19T09:21:53.999Z</time></trkpt><trkpt lat="42.085840547170044" lon="11.871848585534112"><ele>234.0</ele><time>2026-04-19T09:21:54.999Z</time></trkpt><trkpt lat="42.08589642248258" lon="11.871795814084276"><ele>234.0</ele><time>2026-04-19T09:21:55.999Z</time></trkpt><trkpt lat="42.08596562635143" lon="11.871746055949426"><ele>234.0</ele><time>2026-04-19T09:21:56.999Z</time></trkpt><trkpt lat="42.0860129873551" lon="11.87168199860624"><ele>234.2</ele><time>2026-04-19T09:21:57.999Z</time></trkpt><trkpt lat="42.086055879325464" lon="11.871609424797265"><ele>234.39999999999998</ele><time>2026-04-19T09:21:58.999Z</time></trkpt><trkpt lat="42.08613667787007" lon="11.871493108688936"><ele>234.6</ele><time>2026-04-19T09:22:00.999Z</time></trkpt><trkpt lat="42.0862223651096" lon="11.87143440489929"><ele>234.8</ele><time>2026-04-19T09:22:02.999Z</time></trkpt><trkpt lat="42.08631752849804" lon="11.871437946666818"><ele>235.0</ele><time>2026-04-19T09:22:04.999Z</time></trkpt><trkpt lat="42.086410862993844" lon="11.871501526625346"><ele>234.99999999999997</ele><time>2026-04-19T09:22:06.999Z</time></trkpt><trkpt lat="42.08652696545281" lon="11.871549549114444"><ele>235.0</ele><time>2026-04-19T09:22:08.999Z</time></trkpt><trkpt lat="42.08659862278431" lon="11.87156714605098"><ele>235.0</ele><time>2026-04-19T09:22:09.999Z</time></trkpt><trkpt lat="42.086669193871806" lon="11.871586194777539"><ele>235.0</ele><time>2026-04-19T09:22:10.999Z</time></trkpt><trkpt lat="42.08674287431572" lon="11.871602175708086"><ele>234.99999999999997</ele><time>2026-04-19T09:22:11.999Z</time></trkpt><trkpt lat="42.08682043750771" lon="11.871605842394601"><ele>235.0</ele><time>2026-04-19T09:22:12.999Z</time></trkpt><trkpt lat="42.08691198714891" lon="11.871619424850406"><ele>235.49999999999997</ele><time>2026-04-19T09:22:13.999Z</time></trkpt><trkpt lat="42.08699491840081" lon="11.871619532587518"><ele>236.0</ele><time>2026-04-19T09:22:14.999Z</time></trkpt><trkpt lat="42.08708296950574" lon="11.871596756692266"><ele>236.5</ele><time>2026-04-19T09:22:15.999Z</time></trkpt><trkpt lat="42.08717664633873" lon="11.871564308446892"><ele>237.0</ele><time>2026-04-19T09:22:16.999Z</time></trkpt><trkpt lat="42.08726398475323" lon="11.871550995636134"><ele>237.49999999999997</ele><time>2026-04-19T09:22:17.999Z</time></trkpt><trkpt lat="42.08735297781734" lon="11.871547531078459"><ele>238.0</ele><time>2026-04-19T09:22:18.999Z</time></trkpt><trkpt lat="42.08743044892124" lon="11.871534684636764"><ele>236.60000000000002</ele><time>2026-04-19T09:22:19.999Z</time></trkpt><trkpt lat="42.08750272973226" lon="11.871522609817754"><ele>235.20000000000002</ele><time>2026-04-19T09:22:20.999Z</time></trkpt><trkpt lat="42.08756799616195" lon="11.87151654492519"><ele>233.8</ele><time>2026-04-19T09:22:21.999Z</time></trkpt><trkpt lat="42.08767443614711" lon="11.871531875512169"><ele>232.4</ele><time>2026-04-19T09:22:23.999Z</time></trkpt><trkpt lat="42.087764877922496" lon="11.871516604582933"><ele>231.0</ele><time>2026-04-19T09:22:25.999Z</time></trkpt><trkpt lat="42.08788323033284" lon="11.87148713933104"><ele>231.0</ele><time>2026-04-19T09:22:27.999Z</time></trkpt><trkpt lat="42.08794628883929" lon="11.871479775099965"><ele>231.00000000000003</ele><time>2026-04-19T09:22:28.999Z</time></trkpt><trkpt lat="42.08800993267276" lon="11.871481206095146"><ele>231.00000000000003</ele><time>2026-04-19T09:22:29.999Z</time></trkpt><trkpt lat="42.088131155299614" lon="11.871486566858191"><ele>231.0</ele><time>2026-04-19T09:22:31.999Z</time></trkpt><trkpt lat="42.088250409617814" lon="11.871510103379878"><ele>231.0</ele><time>2026-04-19T09:22:33.999Z</time></trkpt><trkpt lat="42.088367348650785" lon="11.871541971544401"><ele>230.5</ele><time>2026-04-19T09:22:35.999Z</time></trkpt><trkpt lat="42.08847894674487" lon="11.871589478042493"><ele>230.0</ele><time>2026-04-19T09:22:37.999Z</time></trkpt><trkpt lat="42.08859162109821" lon="11.871659640295539"><ele>229.5</ele><time>2026-04-19T09:22:39.999Z</time></trkpt><trkpt lat="42.08869417929076" lon="11.871728906297621"><ele>229.0</ele><time>2026-04-19T09:22:41.999Z</time></trkpt><trkpt lat="42.088777042596526" lon="11.871807087904294"><ele>227.39999999999998</ele><time>2026-04-19T09:22:43.999Z</time></trkpt><trkpt lat="42.08888175893594" lon="11.871854421077431"><ele>225.79999999999998</ele><time>2026-04-19T09:22:45.999Z</time></trkpt><trkpt lat="42.0889792993504" lon="11.87189143992192"><ele>224.20000000000002</ele><time>2026-04-19T09:22:47.999Z</time></trkpt><trkpt lat="42.08908484396845" lon="11.871917191359126"><ele>222.60000000000002</ele><time>2026-04-19T09:22:49.999Z</time></trkpt><trkpt lat="42.08920079985688" lon="11.871947210318949"><ele>221.0</ele><time>2026-04-19T09:22:51.999Z</time></trkpt><trkpt lat="42.08932650375826" lon="11.87196185246803"><ele>220.60000000000002</ele><time>2026-04-19T09:22:53.999Z</time></trkpt><trkpt lat="42.08942546139959" lon="11.871973379181911"><ele>220.20000000000002</ele><time>2026-04-19T09:22:55.999Z</time></trkpt><trkpt lat="42.089531096704" lon="11.871982105750325"><ele>219.79999999999998</ele><time>2026-04-19T09:22:57.999Z</time></trkpt><trkpt lat="42.089641940079126" lon="11.87203972849587"><ele>219.39999999999998</ele><time>2026-04-19T09:22:59.999Z</time></trkpt><trkpt lat="42.089741568175086" lon="11.872089284158768"><ele>219.0</ele><time>2026-04-19T09:23:01.999Z</time></trkpt><trkpt lat="42.089803863085" lon="11.872158424655966"><ele>219.0</ele><time>2026-04-19T09:23:03.999Z</time></trkpt><trkpt lat="42.089849498751796" lon="11.872250529003995"><ele>218.99999999999997</ele><time>2026-04-19T09:23:05.999Z</time></trkpt><trkpt lat="42.08979859288766" lon="11.872402463904386"><ele>218.99999999999997</ele><time>2026-04-19T09:23:09.999Z</time></trkpt><trkpt lat="42.08972934699535" lon="11.872486875481874"><ele>219.0</ele><time>2026-04-19T09:23:11.999Z</time></trkpt><trkpt lat="42.08967833608804" lon="11.872555934468982"><ele>219.0</ele><time>2026-04-19T09:23:12.999Z</time></trkpt><trkpt lat="42.089622168087054" lon="11.872637510006216"><ele>216.33333333333334</ele><time>2026-04-19T09:23:13.999Z</time></trkpt><trkpt lat="42.089576897390295" lon="11.87270809203056"><ele>213.66666666666669</ele><time>2026-04-19T09:23:14.999Z</time></trkpt><trkpt lat="42.08953832414376" lon="11.87281233034913"><ele>211.0</ele><time>2026-04-19T09:23:15.999Z</time></trkpt><trkpt lat="42.08950014159333" lon="11.872921285376622"><ele>208.33333333333334</ele><time>2026-04-19T09:23:16.999Z</time></trkpt><trkpt lat="42.08945681143905" lon="11.873023314188034"><ele>205.66666666666669</ele><time>2026-04-19T09:23:17.999Z</time></trkpt><trkpt lat="42.08940718073435" lon="11.873108945775636"><ele>203.0</ele><time>2026-04-19T09:23:18.999Z</time></trkpt><trkpt lat="42.08935485377684" lon="11.873204836276122"><ele>203.00000000000003</ele><time>2026-04-19T09:23:19.999Z</time></trkpt><trkpt lat="42.089298563704894" lon="11.873305776052979"><ele>203.0</ele><time>2026-04-19T09:23:20.999Z</time></trkpt><trkpt lat="42.08923931466049" lon="11.87340477003059"><ele>203.0</ele><time>2026-04-19T09:23:21.999Z</time></trkpt><trkpt lat="42.08919398971872" lon="11.873485580355558"><ele>203.0</ele><time>2026-04-19T09:23:22.999Z</time></trkpt><trkpt lat="42.089150730394564" lon="11.873562407789889"><ele>203.00000000000003</ele><time>2026-04-19T09:23:23.999Z</time></trkpt><trkpt lat="42.089108815358934" lon="11.87363923802762"><ele>203.0</ele><time>2026-04-19T09:23:24.999Z</time></trkpt><trkpt lat="42.08907411390086" lon="11.873719647452283"><ele>201.16666666666669</ele><time>2026-04-19T09:23:25.999Z</time></trkpt><trkpt lat="42.08904064848743" lon="11.873795590948045"><ele>199.33333333333334</ele><time>2026-04-19T09:23:26.999Z</time></trkpt><trkpt lat="42.089004278097306" lon="11.873880292582989"><ele>197.5</ele><time>2026-04-19T09:23:27.999Z</time></trkpt><trkpt lat="42.08896372505012" lon="11.873962796889183"><ele>195.66666666666669</ele><time>2026-04-19T09:23:28.999Z</time></trkpt><trkpt lat="42.08892485514486" lon="11.874030046640922"><ele>193.83333333333334</ele><time>2026-04-19T09:23:29.999Z</time></trkpt><trkpt lat="42.08886485265001" lon="11.874160780321455"><ele>192.0</ele><time>2026-04-19T09:23:31.999Z</time></trkpt><trkpt lat="42.08879736839012" lon="11.874293700132124"><ele>188.8</ele><time>2026-04-19T09:23:33.999Z</time></trkpt><trkpt lat="42.08870526147981" lon="11.874438838320819"><ele>185.6</ele><time>2026-04-19T09:23:35.999Z</time></trkpt><trkpt lat="42.088658135045875" lon="11.874507715607164"><ele>182.4</ele><time>2026-04-19T09:23:36.999Z</time></trkpt><trkpt lat="42.08860812572062" lon="11.874570809326164"><ele>179.20000000000002</ele><time>2026-04-19T09:23:37.999Z</time></trkpt><trkpt lat="42.088526758472334" lon="11.874658206206142"><ele>176.0</ele><time>2026-04-19T09:23:38.999Z</time></trkpt><trkpt lat="42.088432888018055" lon="11.874704248881178"><ele>176.0</ele><time>2026-04-19T09:23:39.999Z</time></trkpt><trkpt lat="42.08834812598385" lon="11.874734246094254"><ele>176.0</ele><time>2026-04-19T09:23:40.999Z</time></trkpt><trkpt lat="42.088309613054534" lon="11.874806597713675"><ele>176.0</ele><time>2026-04-19T09:23:41.999Z</time></trkpt><trkpt lat="42.088222104209365" lon="11.874907957863368"><ele>176.0</ele><time>2026-04-19T09:23:43.999Z</time></trkpt><trkpt lat="42.08817150131878" lon="11.87496657052298"><ele>176.0</ele><time>2026-04-19T09:23:44.999Z</time></trkpt><trkpt lat="42.08808388808149" lon="11.874967077204493"><ele>176.0</ele><time>2026-04-19T09:23:45.999Z</time></trkpt><trkpt lat="42.08802745043213" lon="11.875011723334952"><ele>176.20000000000002</ele><time>2026-04-19T09:23:46.999Z</time></trkpt><trkpt lat="42.08792550467445" lon="11.875103593650383"><ele>176.4</ele><time>2026-04-19T09:23:48.999Z</time></trkpt><trkpt lat="42.08786669275345" lon="11.875161098721158"><ele>176.6</ele><time>2026-04-19T09:23:49.999Z</time></trkpt><trkpt lat="42.087807186311075" lon="11.875209124596697"><ele>176.8</ele><time>2026-04-19T09:23:50.999Z</time></trkpt><trkpt lat="42.08774769361154" lon="11.87524709042289"><ele>177.0</ele><time>2026-04-19T09:23:51.999Z</time></trkpt><trkpt lat="42.08763281114136" lon="11.875318210119561"><ele>175.8</ele><time>2026-04-19T09:23:53.999Z</time></trkpt><trkpt lat="42.087590676353955" lon="11.875385222785596"><ele>174.6</ele><time>2026-04-19T09:23:54.999Z</time></trkpt><trkpt lat="42.08756003157768" lon="11.875519094702893"><ele>173.4</ele><time>2026-04-19T09:23:56.999Z</time></trkpt><trkpt lat="42.08754210073865" lon="11.875647062555547"><ele>172.20000000000002</ele><time>2026-04-19T09:23:58.998Z</time></trkpt><trkpt lat="42.087518559308315" lon="11.875774948910324"><ele>171.0</ele><time>2026-04-19T09:24:00.998Z</time></trkpt><trkpt lat="42.087466304115594" lon="11.875912770672882"><ele>168.8</ele><time>2026-04-19T09:24:02.998Z</time></trkpt><trkpt lat="42.087385711505455" lon="11.876023350499468"><ele>166.60000000000002</ele><time>2026-04-19T09:24:04.998Z</time></trkpt><trkpt lat="42.08732281314261" lon="11.876147929981766"><ele>164.4</ele><time>2026-04-19T09:24:06.998Z</time></trkpt><trkpt lat="42.08728548610461" lon="11.876285636209953"><ele>162.2</ele><time>2026-04-19T09:24:08.998Z</time></trkpt><trkpt lat="42.08725154192742" lon="11.876359846862583"><ele>160.0</ele><time>2026-04-19T09:24:09.998Z</time></trkpt><trkpt lat="42.08719521404689" lon="11.87640337147287"><ele>160.0</ele><time>2026-04-19T09:24:10.998Z</time></trkpt><trkpt lat="42.087108984646214" lon="11.876533701203137"><ele>160.0</ele><time>2026-04-19T09:24:12.998Z</time></trkpt><trkpt lat="42.08708429867465" lon="11.876621971613158"><ele>160.0</ele><time>2026-04-19T09:24:13.998Z</time></trkpt><trkpt lat="42.087062937066555" lon="11.876704279890705"><ele>160.0</ele><time>2026-04-19T09:24:14.998Z</time></trkpt><trkpt lat="42.087053144924226" lon="11.876794175894965"><ele>160.0</ele><time>2026-04-19T09:24:15.998Z</time></trkpt><trkpt lat="42.08704607536393" lon="11.876883573032199"><ele>160.0</ele><time>2026-04-19T09:24:16.998Z</time></trkpt><trkpt lat="42.08703020430327" lon="11.876971445600459"><ele>158.2</ele><time>2026-04-19T09:24:17.998Z</time></trkpt><trkpt lat="42.08697985706447" lon="11.877085815308952"><ele>156.4</ele><time>2026-04-19T09:24:19.998Z</time></trkpt><trkpt lat="42.0869334234094" lon="11.877174949284813"><ele>154.6</ele><time>2026-04-19T09:24:20.998Z</time></trkpt><trkpt lat="42.08685465646833" lon="11.87729314699258"><ele>152.8</ele><time>2026-04-19T09:24:22.998Z</time></trkpt><trkpt lat="42.086802347427046" lon="11.877344025361756"><ele>151.0</ele><time>2026-04-19T09:24:23.998Z</time></trkpt><trkpt lat="42.08671691294298" lon="11.877415101389701"><ele>151.0</ele><time>2026-04-19T09:24:25.998Z</time></trkpt><trkpt lat="42.08662341257439" lon="11.877499365622192"><ele>151.0</ele><time>2026-04-19T09:24:27.998Z</time></trkpt><trkpt lat="42.086549710304105" lon="11.877617410515798"><ele>151.0</ele><time>2026-04-19T09:24:29.998Z</time></trkpt><trkpt lat="42.08647539694964" lon="11.87768144624926"><ele>151.0</ele><time>2026-04-19T09:24:31.998Z</time></trkpt><trkpt lat="42.08636696182323" lon="11.877778129778576"><ele>151.0</ele><time>2026-04-19T09:24:33.998Z</time></trkpt><trkpt lat="42.08632779760192" lon="11.877844969712308"><ele>148.5</ele><time>2026-04-19T09:24:34.998Z</time></trkpt><trkpt lat="42.086281135396405" lon="11.877917728978442"><ele>146.0</ele><time>2026-04-19T09:24:35.998Z</time></trkpt><trkpt lat="42.08623930354301" lon="11.877987116849088"><ele>143.5</ele><time>2026-04-19T09:24:36.998Z</time></trkpt><trkpt lat="42.08620149440614" lon="11.878057129011939"><ele>141.0</ele><time>2026-04-19T09:24:37.998Z</time></trkpt><trkpt lat="42.086134554414336" lon="11.878178342641363"><ele>138.5</ele><time>2026-04-19T09:24:39.998Z</time></trkpt><trkpt lat="42.086077652368644" lon="11.878287653380989"><ele>136.0</ele><time>2026-04-19T09:24:41.998Z</time></trkpt><trkpt lat="42.086029801992865" lon="11.87841088424545"><ele>133.75</ele><time>2026-04-19T09:24:43.998Z</time></trkpt><trkpt lat="42.085969709765415" lon="11.878545360029259"><ele>131.5</ele><time>2026-04-19T09:24:45.998Z</time></trkpt><trkpt lat="42.08592093528984" lon="11.878687116942142"><ele>129.25</ele><time>2026-04-19T09:24:47.998Z</time></trkpt><trkpt lat="42.08587853046405" lon="11.878807011835542"><ele>127.0</ele><time>2026-04-19T09:24:49.998Z</time></trkpt><trkpt lat="42.08583700119209" lon="11.878963042435693"><ele>127.0</ele><time>2026-04-19T09:24:51.998Z</time></trkpt><trkpt lat="42.08581206022635" lon="11.879115142349448"><ele>126.99999999999999</ele><time>2026-04-19T09:24:53.998Z</time></trkpt><trkpt lat="42.085809455223476" lon="11.879255703927184"><ele>126.99999999999999</ele><time>2026-04-19T09:24:55.998Z</time></trkpt><trkpt lat="42.085813510442264" lon="11.879361465678356"><ele>127.0</ele><time>2026-04-19T09:24:57.998Z</time></trkpt><trkpt lat="42.085832368377446" lon="11.879489165439475"><ele>127.0</ele><time>2026-04-19T09:24:59.998Z</time></trkpt><trkpt lat="42.08584971083638" lon="11.879609017864727"><ele>124.8</ele><time>2026-04-19T09:25:01.998Z</time></trkpt><trkpt lat="42.085843059843285" lon="11.879768764849528"><ele>122.6</ele><time>2026-04-19T09:25:03.998Z</time></trkpt><trkpt lat="42.08581584626489" lon="11.87990851096706"><ele>120.39999999999999</ele><time>2026-04-19T09:25:05.999Z</time></trkpt><trkpt lat="42.0857632900706" lon="11.880012513526784"><ele>118.19999999999999</ele><time>2026-04-19T09:25:07.999Z</time></trkpt><trkpt lat="42.08572107426533" lon="11.880076874676998"><ele>116.0</ele><time>2026-04-19T09:25:08.999Z</time></trkpt><trkpt lat="42.08566597318884" lon="11.880137185203735"><ele>113.16666666666666</ele><time>2026-04-19T09:25:09.999Z</time></trkpt><trkpt lat="42.085601819669165" lon="11.88019343996714"><ele>110.33333333333333</ele><time>2026-04-19T09:25:10.999Z</time></trkpt><trkpt lat="42.085548072277184" lon="11.880249380805097"><ele>107.5</ele><time>2026-04-19T09:25:11.999Z</time></trkpt><trkpt lat="42.085499959479435" lon="11.880316723065505"><ele>104.66666666666666</ele><time>2026-04-19T09:25:12.999Z</time></trkpt><trkpt lat="42.08541335119985" lon="11.8804333379591"><ele>101.83333333333333</ele><time>2026-04-19T09:25:14.999Z</time></trkpt><trkpt lat="42.085352089623576" lon="11.880551293505164"><ele>99.0</ele><time>2026-04-19T09:25:16.999Z</time></trkpt><trkpt lat="42.085337884843305" lon="11.880711389854218"><ele>99.0</ele><time>2026-04-19T09:25:18.999Z</time></trkpt><trkpt lat="42.08528096365656" lon="11.880859690805977"><ele>99.0</ele><time>2026-04-19T09:25:20.999Z</time></trkpt><trkpt lat="42.08524262690731" lon="11.88093479810089"><ele>99.0</ele><time>2026-04-19T09:25:21.999Z</time></trkpt><trkpt lat="42.08517598057689" lon="11.881076557101874"><ele>99.0</ele><time>2026-04-19T09:25:23.999Z</time></trkpt><trkpt lat="42.08515522563347" lon="11.881191372189038"><ele>99.0</ele><time>2026-04-19T09:25:25.999Z</time></trkpt><trkpt lat="42.08516235263911" lon="11.881308303844552"><ele>97.83333333333333</ele><time>2026-04-19T09:25:27.999Z</time></trkpt><trkpt lat="42.08517453549013" lon="11.881419871648374"><ele>96.66666666666667</ele><time>2026-04-19T09:25:29.999Z</time></trkpt><trkpt lat="42.0851583550103" lon="11.881547518546009"><ele>95.5</ele><time>2026-04-19T09:25:31.999Z</time></trkpt><trkpt lat="42.085151325297915" lon="11.88168173603367"><ele>94.33333333333334</ele><time>2026-04-19T09:25:33.999Z</time></trkpt><trkpt lat="42.08512726404955" lon="11.881781128534856"><ele>93.16666666666667</ele><time>2026-04-19T09:25:35.999Z</time></trkpt><trkpt lat="42.085090799678824" lon="11.881889342788032"><ele>92.0</ele><time>2026-04-19T09:25:37.999Z</time></trkpt><trkpt lat="42.08504648778072" lon="11.881979353203748"><ele>91.83333333333334</ele><time>2026-04-19T09:25:39.999Z</time></trkpt><trkpt lat="42.085008582982056" lon="11.882089734024367"><ele>91.66666666666667</ele><time>2026-04-19T09:25:41.999Z</time></trkpt><trkpt lat="42.084967797254265" lon="11.882210609974512"><ele>91.5</ele><time>2026-04-19T09:25:43.999Z</time></trkpt><trkpt lat="42.08493183349035" lon="11.88232127032918"><ele>91.33333333333333</ele><time>2026-04-19T09:25:45.999Z</time></trkpt><trkpt lat="42.08489806509148" lon="11.882419499925202"><ele>91.16666666666666</ele><time>2026-04-19T09:25:47.999Z</time></trkpt><trkpt lat="42.08484579440271" lon="11.882513085743849"><ele>91.0</ele><time>2026-04-19T09:25:49.999Z</time></trkpt><trkpt lat="42.084792605037265" lon="11.882582910472253"><ele>90.85714285714286</ele><time>2026-04-19T09:25:51.999Z</time></trkpt><trkpt lat="42.084737822092116" lon="11.882635172077375"><ele>90.71428571428572</ele><time>2026-04-19T09:25:54.999Z</time></trkpt><trkpt lat="42.08475775157984" lon="11.88272513762123"><ele>90.57142857142857</ele><time>2026-04-19T09:25:57.999Z</time></trkpt><trkpt lat="42.08480809286254" lon="11.88278151221294"><ele>90.42857142857143</ele><time>2026-04-19T09:25:59.999Z</time></trkpt><trkpt lat="42.08481943039636" lon="11.882896037025015"><ele>90.28571428571429</ele><time>2026-04-19T09:26:02.999Z</time></trkpt><trkpt lat="42.0847903377606" lon="11.882979154603403"><ele>90.14285714285714</ele><time>2026-04-19T09:26:05.999Z</time></trkpt><trkpt lat="42.084744365535805" lon="11.883042288467776"><ele>90.0</ele><time>2026-04-19T09:26:08.999Z</time></trkpt><trkpt lat="42.08469854184864" lon="11.88312497838678"><ele>90.0</ele><time>2026-04-19T09:26:18.999Z</time></trkpt><trkpt lat="42.08469948277324" lon="11.883210501693533"><ele>90.0</ele><time>2026-04-19T09:26:26.999Z</time></trkpt><trkpt lat="42.084731015956585" lon="11.88333239760072"><ele>90.0</ele><time>2026-04-19T09:26:30.999Z</time></trkpt><trkpt lat="42.08477084470501" lon="11.883432624271014"><ele>90.0</ele><time>2026-04-19T09:26:32.999Z</time></trkpt><trkpt lat="42.08480945069748" lon="11.883517723661774"><ele>90.0</ele><time>2026-04-19T09:26:34.999Z</time></trkpt><trkpt lat="42.08485329339541" lon="11.883592622381336"><ele>90.0</ele><time>2026-04-19T09:26:36.999Z</time></trkpt><trkpt lat="42.08489633552839" lon="11.883657474629535"><ele>90.57142857142857</ele><time>2026-04-19T09:26:38.999Z</time></trkpt><trkpt lat="42.08493920197269" lon="11.88373121646659"><ele>91.14285714285715</ele><time>2026-04-19T09:26:40.999Z</time></trkpt><trkpt lat="42.08497545157269" lon="11.883801648924525"><ele>91.71428571428572</ele><time>2026-04-19T09:26:42.999Z</time></trkpt><trkpt lat="42.084964991762455" lon="11.883888164307253"><ele>92.28571428571428</ele><time>2026-04-19T09:26:45.999Z</time></trkpt><trkpt lat="42.08488577854209" lon="11.883942987875141"><ele>92.85714285714286</ele><time>2026-04-19T09:26:48.999Z</time></trkpt><trkpt lat="42.08488295231129" lon="11.884046251828254"><ele>93.42857142857143</ele><time>2026-04-19T09:26:52.999Z</time></trkpt><trkpt lat="42.08494091179368" lon="11.884093007701615"><ele>94.0</ele><time>2026-04-19T09:26:54.999Z</time></trkpt><trkpt lat="42.08500198931682" lon="11.88416025484397"><ele>95.0</ele><time>2026-04-19T09:26:57.999Z</time></trkpt><trkpt lat="42.085060683881146" lon="11.884244589085606"><ele>96.0</ele><time>2026-04-19T09:27:00.999Z</time></trkpt><trkpt lat="42.08511661380162" lon="11.884333184002053"><ele>97.0</ele><time>2026-04-19T09:27:03.999Z</time></trkpt><trkpt lat="42.08517667331895" lon="11.884408211071527"><ele>98.0</ele><time>2026-04-19T09:27:06.999Z</time></trkpt><trkpt lat="42.0852408643085" lon="11.88449639792921"><ele>99.00000000000001</ele><time>2026-04-19T09:27:09.999Z</time></trkpt><trkpt lat="42.08526437235357" lon="11.884577423728054"><ele>100.0</ele><time>2026-04-19T09:27:12Z</time></trkpt><trkpt lat="42.08528423783979" lon="11.884673976473268"><ele>101.28571428571429</ele><time>2026-04-19T09:27:15Z</time></trkpt><trkpt lat="42.08526786833129" lon="11.884764898555833"><ele>102.57142857142857</ele><time>2026-04-19T09:27:18Z</time></trkpt><trkpt lat="42.08526243475305" lon="11.884871978804723"><ele>103.85714285714286</ele><time>2026-04-19T09:27:23Z</time></trkpt><trkpt lat="42.08524142133933" lon="11.884954863907067"><ele>105.14285714285714</ele><time>2026-04-19T09:27:34Z</time></trkpt><trkpt lat="42.08523424052831" lon="11.88504207127612"><ele>106.42857142857143</ele><time>2026-04-19T09:28:00Z</time></trkpt><trkpt lat="42.08523261698868" lon="11.88513409735847"><ele>107.71428571428572</ele><time>2026-04-19T09:28:07Z</time></trkpt><trkpt lat="42.08523055462866" lon="11.885229527171006"><ele>109.0</ele><time>2026-04-19T09:28:27Z</time></trkpt><trkpt lat="42.08522004538363" lon="11.885314218432523"><ele>110.66666666666667</ele><time>2026-04-19T09:28:33Z</time></trkpt><trkpt lat="42.08518161102804" lon="11.88539578705508"><ele>112.33333333333334</ele><time>2026-04-19T09:28:41Z</time></trkpt><trkpt lat="42.08516079914557" lon="11.885484150121998"><ele>114.0</ele><time>2026-04-19T09:28:49.999Z</time></trkpt><trkpt lat="42.08514359788156" lon="11.88557538391327"><ele>115.66666666666666</ele><time>2026-04-19T09:28:52.999Z</time></trkpt><trkpt lat="42.08512183692924" lon="11.88568953624923"><ele>117.33333333333333</ele><time>2026-04-19T09:28:55.999Z</time></trkpt><trkpt lat="42.085106670017936" lon="11.885804611670824"><ele>119.0</ele><time>2026-04-19T09:28:58.999Z</time></trkpt><trkpt lat="42.08510197626059" lon="11.885898445432705"><ele>119.57142857142857</ele><time>2026-04-19T09:29:00.999Z</time></trkpt><trkpt lat="42.08509655929051" lon="11.885989911661508"><ele>120.14285714285714</ele><time>2026-04-19T09:29:02.999Z</time></trkpt><trkpt lat="42.08509711044992" lon="11.886101117679525"><ele>120.71428571428572</ele><time>2026-04-19T09:29:05.999Z</time></trkpt><trkpt lat="42.08509631637713" lon="11.88621671126718"><ele>121.28571428571429</ele><time>2026-04-19T09:29:08.999Z</time></trkpt><trkpt lat="42.085123409627286" lon="11.886299368402462"><ele>121.85714285714286</ele><time>2026-04-19T09:29:10.999Z</time></trkpt><trkpt lat="42.085139745629746" lon="11.886383427901652"><ele>122.42857142857144</ele><time>2026-04-19T09:29:12.999Z</time></trkpt><trkpt lat="42.0851528975619" lon="11.886472863377499"><ele>123.00000000000001</ele><time>2026-04-19T09:29:14.999Z</time></trkpt><trkpt lat="42.08517259266809" lon="11.88656255951461"><ele>123.0</ele><time>2026-04-19T09:29:17Z</time></trkpt><trkpt lat="42.085189977817535" lon="11.886644842319042"><ele>123.0</ele><time>2026-04-19T09:29:19Z</time></trkpt><trkpt lat="42.08520720652972" lon="11.886729010226887"><ele>123.0</ele><time>2026-04-19T09:29:21Z</time></trkpt><trkpt lat="42.08522389768833" lon="11.886850567111523"><ele>123.0</ele><time>2026-04-19T09:29:24Z</time></trkpt><trkpt lat="42.085272923239245" lon="11.886957051062353"><ele>123.0</ele><time>2026-04-19T09:29:27Z</time></trkpt><trkpt lat="42.08530556436253" lon="11.887064443966208"><ele>123.0</ele><time>2026-04-19T09:29:30Z</time></trkpt><trkpt lat="42.085345898304865" lon="11.88717602453782"><ele>123.66666666666667</ele><time>2026-04-19T09:29:33Z</time></trkpt><trkpt lat="42.08538363472233" lon="11.887281131657595"><ele>124.33333333333334</ele><time>2026-04-19T09:29:36Z</time></trkpt><trkpt lat="42.08541314353829" lon="11.887356495583967"><ele>125.0</ele><time>2026-04-19T09:29:38Z</time></trkpt><trkpt lat="42.08544075062279" lon="11.887433894398567"><ele>125.66666666666667</ele><time>2026-04-19T09:29:40Z</time></trkpt><trkpt lat="42.08548740948391" lon="11.887538727526369"><ele>126.33333333333334</ele><time>2026-04-19T09:29:43Z</time></trkpt><trkpt lat="42.08552977821704" lon="11.88764644922852"><ele>127.0</ele><time>2026-04-19T09:29:46Z</time></trkpt><trkpt lat="42.0855776078599" lon="11.88774238439226"><ele>127.66666666666667</ele><time>2026-04-19T09:29:49Z</time></trkpt><trkpt lat="42.08562160495603" lon="11.887835244021563"><ele>128.33333333333334</ele><time>2026-04-19T09:29:52Z</time></trkpt><trkpt lat="42.08567797227724" lon="11.887912728747816"><ele>129.0</ele><time>2026-04-19T09:29:55Z</time></trkpt><trkpt lat="42.08573893073176" lon="11.887978222813542"><ele>129.66666666666666</ele><time>2026-04-19T09:29:58Z</time></trkpt><trkpt lat="42.08580367000712" lon="11.888038379396683"><ele>130.33333333333331</ele><time>2026-04-19T09:30:01Z</time></trkpt><trkpt lat="42.08585558207844" lon="11.888116887794556"><ele>131.0</ele><time>2026-04-19T09:30:04Z</time></trkpt><trkpt lat="42.085902090580184" lon="11.888176680171721"><ele>132.0</ele><time>2026-04-19T09:30:08Z</time></trkpt><trkpt lat="42.085942722603335" lon="11.888262536194885"><ele>133.0</ele><time>2026-04-19T09:30:11Z</time></trkpt><trkpt lat="42.085972907980455" lon="11.888341676292782"><ele>134.0</ele><time>2026-04-19T09:30:14Z</time></trkpt><trkpt lat="42.08600265434804" lon="11.888429549489143"><ele>135.0</ele><time>2026-04-19T09:30:17Z</time></trkpt><trkpt lat="42.08602871876004" lon="11.888509980627182"><ele>136.0</ele><time>2026-04-19T09:30:20Z</time></trkpt><trkpt lat="42.08605786964501" lon="11.88860061609826"><ele>137.0</ele><time>2026-04-19T09:30:23Z</time></trkpt><trkpt lat="42.08609564335203" lon="11.888684846767209"><ele>138.0</ele><time>2026-04-19T09:30:26Z</time></trkpt><trkpt lat="42.086128962221835" lon="11.8887649696289"><ele>139.66666666666666</ele><time>2026-04-19T09:30:29Z</time></trkpt><trkpt lat="42.08617740874845" lon="11.888842422816337"><ele>141.33333333333334</ele><time>2026-04-19T09:30:32Z</time></trkpt><trkpt lat="42.08622827744078" lon="11.88893739207757"><ele>143.0</ele><time>2026-04-19T09:30:35Z</time></trkpt><trkpt lat="42.08627469384354" lon="11.889016916346502"><ele>144.66666666666669</ele><time>2026-04-19T09:30:38Z</time></trkpt><trkpt lat="42.086315681207125" lon="11.8890938566087"><ele>146.33333333333334</ele><time>2026-04-19T09:30:41Z</time></trkpt><trkpt lat="42.0863837884568" lon="11.889149708488791"><ele>148.0</ele><time>2026-04-19T09:30:44Z</time></trkpt><trkpt lat="42.08644531034201" lon="11.889186555249893"><ele>148.0</ele><time>2026-04-19T09:30:46Z</time></trkpt><trkpt lat="42.08653899671341" lon="11.889218357183932"><ele>148.0</ele><time>2026-04-19T09:30:49Z</time></trkpt><trkpt lat="42.08660228090656" lon="11.889253586689113"><ele>148.0</ele><time>2026-04-19T09:30:51Z</time></trkpt><trkpt lat="42.08666542429552" lon="11.889295653298126"><ele>148.0</ele><time>2026-04-19T09:30:53Z</time></trkpt><trkpt lat="42.08672497317853" lon="11.88933930000489"><ele>148.0</ele><time>2026-04-19T09:30:55Z</time></trkpt><trkpt lat="42.08677568815868" lon="11.88939137367851"><ele>148.0</ele><time>2026-04-19T09:30:57Z</time></trkpt><trkpt lat="42.08685767796404" lon="11.889460221081855"><ele>150.42857142857144</ele><time>2026-04-19T09:31:00Z</time></trkpt><trkpt lat="42.0869107835866" lon="11.889506767112225"><ele>152.85714285714286</ele><time>2026-04-19T09:31:02Z</time></trkpt><trkpt lat="42.08698539626054" lon="11.88957761510986"><ele>155.28571428571428</ele><time>2026-04-19T09:31:05Z</time></trkpt><trkpt lat="42.08703417874064" lon="11.88963650568365"><ele>157.71428571428572</ele><time>2026-04-19T09:31:07Z</time></trkpt><trkpt lat="42.0870888175525" lon="11.88967927126682"><ele>160.14285714285714</ele><time>2026-04-19T09:31:09Z</time></trkpt><trkpt lat="42.087158389133045" lon="11.889742572838273"><ele>162.57142857142858</ele><time>2026-04-19T09:31:12Z</time></trkpt><trkpt lat="42.087219305877255" lon="11.889791788840167"><ele>165.0</ele><time>2026-04-19T09:31:15Z</time></trkpt><trkpt lat="42.08723700030273" lon="11.889902689140177"><ele>165.0</ele><time>2026-04-19T09:31:17.999Z</time></trkpt><trkpt lat="42.087245524515474" lon="11.890008278419279"><ele>165.0</ele><time>2026-04-19T09:31:20.999Z</time></trkpt><trkpt lat="42.08724768271595" lon="11.890108423854244"><ele>165.0</ele><time>2026-04-19T09:31:24Z</time></trkpt><trkpt lat="42.087245555256246" lon="11.890206462224487"><ele>165.0</ele><time>2026-04-19T09:31:27Z</time></trkpt><trkpt lat="42.087218460461145" lon="11.890302805608446"><ele>165.0</ele><time>2026-04-19T09:31:31Z</time></trkpt><trkpt lat="42.0871670475176" lon="11.8904034198609"><ele>165.0</ele><time>2026-04-19T09:31:34Z</time></trkpt><trkpt lat="42.08712422994338" lon="11.89049392141854"><ele>166.33333333333334</ele><time>2026-04-19T09:31:37Z</time></trkpt><trkpt lat="42.08709619056468" lon="11.890600688554704"><ele>167.66666666666666</ele><time>2026-04-19T09:31:40Z</time></trkpt><trkpt lat="42.087086648028475" lon="11.890689903279782"><ele>169.0</ele><time>2026-04-19T09:31:42Z</time></trkpt><trkpt lat="42.08707887083061" lon="11.89078617625082"><ele>170.33333333333331</ele><time>2026-04-19T09:31:44Z</time></trkpt><trkpt lat="42.08707728167044" lon="11.890906809320494"><ele>171.66666666666666</ele><time>2026-04-19T09:31:47Z</time></trkpt><trkpt lat="42.087086183300976" lon="11.89101573144724"><ele>173.0</ele><time>2026-04-19T09:31:50Z</time></trkpt><trkpt lat="42.08709481553572" lon="11.891127460004284"><ele>174.0</ele><time>2026-04-19T09:31:53Z</time></trkpt><trkpt lat="42.08710153687361" lon="11.891216061773223"><ele>175.0</ele><time>2026-04-19T09:31:56Z</time></trkpt><trkpt lat="42.08710984267044" lon="11.891306537342428"><ele>176.0</ele><time>2026-04-19T09:31:59Z</time></trkpt><trkpt lat="42.08710420024339" lon="11.891393675881007"><ele>177.0</ele><time>2026-04-19T09:32:02Z</time></trkpt><trkpt lat="42.08711505626068" lon="11.891507784173086"><ele>178.0</ele><time>2026-04-19T09:32:05Z</time></trkpt><trkpt lat="42.08712968518615" lon="11.891627054706252"><ele>179.0</ele><time>2026-04-19T09:32:08Z</time></trkpt><trkpt lat="42.08715847155481" lon="11.891729960723445"><ele>180.33333333333331</ele><time>2026-04-19T09:32:11Z</time></trkpt><trkpt lat="42.087176882470324" lon="11.891813497275777"><ele>181.66666666666666</ele><time>2026-04-19T09:32:13Z</time></trkpt><trkpt lat="42.08722112736368" lon="11.891902365289896"><ele>183.0</ele><time>2026-04-19T09:32:16Z</time></trkpt><trkpt lat="42.08727461314814" lon="11.891974305668702"><ele>184.33333333333334</ele><time>2026-04-19T09:32:19Z</time></trkpt><trkpt lat="42.08733322516831" lon="11.892061759597183"><ele>185.66666666666669</ele><time>2026-04-19T09:32:22Z</time></trkpt><trkpt lat="42.08740888578314" lon="11.892134554999181"><ele>187.0</ele><time>2026-04-19T09:32:26Z</time></trkpt><trkpt lat="42.087452136486384" lon="11.892234870303323"><ele>188.16666666666669</ele><time>2026-04-19T09:32:29Z</time></trkpt><trkpt lat="42.08754037356465" lon="11.89225733415808"><ele>189.33333333333334</ele><time>2026-04-19T09:32:32Z</time></trkpt><trkpt lat="42.08761972610727" lon="11.89230633864376"><ele>190.5</ele><time>2026-04-19T09:32:36Z</time></trkpt><trkpt lat="42.08765012452824" lon="11.892407079791969"><ele>191.66666666666669</ele><time>2026-04-19T09:32:39Z</time></trkpt><trkpt lat="42.08762009898084" lon="11.892501960828103"><ele>192.83333333333334</ele><time>2026-04-19T09:32:42Z</time></trkpt><trkpt lat="42.08760480817003" lon="11.892621818045638"><ele>194.0</ele><time>2026-04-19T09:32:47Z</time></trkpt><trkpt lat="42.08761848958312" lon="11.892720326493091"><ele>195.33333333333334</ele><time>2026-04-19T09:32:49Z</time></trkpt><trkpt lat="42.08763964581783" lon="11.89283051163873"><ele>196.66666666666669</ele><time>2026-04-19T09:32:52Z</time></trkpt><trkpt lat="42.087658691159376" lon="11.8929208631276"><ele>198.0</ele><time>2026-04-19T09:32:54Z</time></trkpt><trkpt lat="42.08770205214606" lon="11.89300813771845"><ele>199.33333333333331</ele><time>2026-04-19T09:32:56Z</time></trkpt><trkpt lat="42.08775012238512" lon="11.89308842708236"><ele>200.66666666666666</ele><time>2026-04-19T09:32:58Z</time></trkpt><trkpt lat="42.087792375801286" lon="11.893167927425678"><ele>202.0</ele><time>2026-04-19T09:33:00Z</time></trkpt><trkpt lat="42.087821295237504" lon="11.893251757175154"><ele>202.0</ele><time>2026-04-19T09:33:02Z</time></trkpt><trkpt lat="42.087856674194796" lon="11.893332521549496"><ele>202.0</ele><time>2026-04-19T09:33:04Z</time></trkpt><trkpt lat="42.08788737906589" lon="11.893413312214918"><ele>202.0</ele><time>2026-04-19T09:33:06Z</time></trkpt><trkpt lat="42.08792497959079" lon="11.893489647282847"><ele>202.0</ele><time>2026-04-19T09:33:08Z</time></trkpt><trkpt lat="42.08795600030996" lon="11.893574472785232"><ele>202.0</ele><time>2026-04-19T09:33:10Z</time></trkpt><trkpt lat="42.087982156995515" lon="11.89365187108436"><ele>202.0</ele><time>2026-04-19T09:33:12Z</time></trkpt><trkpt lat="42.088009632560556" lon="11.89373180209334"><ele>202.0</ele><time>2026-04-19T09:33:14Z</time></trkpt><trkpt lat="42.08804790542746" lon="11.89383828202142"><ele>202.99999999999997</ele><time>2026-04-19T09:33:17Z</time></trkpt><trkpt lat="42.088063507186135" lon="11.893936929232266"><ele>204.0</ele><time>2026-04-19T09:33:20Z</time></trkpt><trkpt lat="42.088072774291575" lon="11.89402715677155"><ele>205.0</ele><time>2026-04-19T09:33:22Z</time></trkpt><trkpt lat="42.08807510003902" lon="11.894129382735501"><ele>206.0</ele><time>2026-04-19T09:33:25Z</time></trkpt><trkpt lat="42.08810906133298" lon="11.894230767485666"><ele>206.99999999999997</ele><time>2026-04-19T09:33:28Z</time></trkpt><trkpt lat="42.08813737991219" lon="11.894311045207237"><ele>208.0</ele><time>2026-04-19T09:33:31Z</time></trkpt><trkpt lat="42.08815785997499" lon="11.894422066110579"><ele>208.85714285714286</ele><time>2026-04-19T09:33:34Z</time></trkpt><trkpt lat="42.08817246593953" lon="11.894515902295685"><ele>209.71428571428572</ele><time>2026-04-19T09:33:37Z</time></trkpt><trkpt lat="42.0881883032367" lon="11.894614941358741"><ele>210.57142857142858</ele><time>2026-04-19T09:33:40Z</time></trkpt><trkpt lat="42.08820559310067" lon="11.89473245847374"><ele>211.42857142857144</ele><time>2026-04-19T09:33:43Z</time></trkpt><trkpt lat="42.08821915057254" lon="11.894826842835403"><ele>212.28571428571428</ele><time>2026-04-19T09:33:46Z</time></trkpt><trkpt lat="42.08821727535052" lon="11.894925138406636"><ele>213.14285714285717</ele><time>2026-04-19T09:33:49Z</time></trkpt><trkpt lat="42.08820817414872" lon="11.895017978560169"><ele>214.0</ele><time>2026-04-19T09:33:52Z</time></trkpt><trkpt lat="42.08817162485901" lon="11.895117458916928"><ele>215.14285714285717</ele><time>2026-04-19T09:33:56Z</time></trkpt><trkpt lat="42.08812522646928" lon="11.895182984801073"><ele>216.28571428571428</ele><time>2026-04-19T09:34:00Z</time></trkpt><trkpt lat="42.088086341253195" lon="11.895262457712295"><ele>217.42857142857144</ele><time>2026-04-19T09:34:03Z</time></trkpt><trkpt lat="42.08804261479638" lon="11.895332916575693"><ele>218.57142857142858</ele><time>2026-04-19T09:34:06Z</time></trkpt><trkpt lat="42.08799452609837" lon="11.895415923085793"><ele>219.71428571428572</ele><time>2026-04-19T09:34:09Z</time></trkpt><trkpt lat="42.08796063859334" lon="11.895517452384519"><ele>220.85714285714286</ele><time>2026-04-19T09:34:12Z</time></trkpt><trkpt lat="42.087935196264816" lon="11.895623500325737"><ele>222.0</ele><time>2026-04-19T09:34:15Z</time></trkpt><trkpt lat="42.087905769950915" lon="11.895721517777499"><ele>222.0</ele><time>2026-04-19T09:34:18Z</time></trkpt><trkpt lat="42.08789073726252" lon="11.895816587279407"><ele>222.0</ele><time>2026-04-19T09:34:21Z</time></trkpt><trkpt lat="42.0878664873587" lon="11.895905019557897"><ele>222.0</ele><time>2026-04-19T09:34:24Z</time></trkpt><trkpt lat="42.087849509519735" lon="11.896006506958939"><ele>222.0</ele><time>2026-04-19T09:34:27Z</time></trkpt><trkpt lat="42.08783634529756" lon="11.896090064173377"><ele>222.0</ele><time>2026-04-19T09:34:30Z</time></trkpt><trkpt lat="42.08779940512865" lon="11.896183349349004"><ele>222.0</ele><time>2026-04-19T09:34:34Z</time></trkpt><trkpt lat="42.0877627637586" lon="11.896264086514046"><ele>222.0</ele><time>2026-04-19T09:34:38Z</time></trkpt><trkpt lat="42.08771248913467" lon="11.896318618332652"><ele>222.28571428571428</ele><time>2026-04-19T09:34:41Z</time></trkpt><trkpt lat="42.08766744047498" lon="11.896380840473041"><ele>222.57142857142858</ele><time>2026-04-19T09:34:44Z</time></trkpt><trkpt lat="42.08761857219862" lon="11.896436417521212"><ele>222.85714285714286</ele><time>2026-04-19T09:34:47Z</time></trkpt><trkpt lat="42.087565090655445" lon="11.896502634651442"><ele>223.14285714285714</ele><time>2026-04-19T09:34:50Z</time></trkpt><trkpt lat="42.08751200350978" lon="11.896563145325816"><ele>223.42857142857144</ele><time>2026-04-19T09:34:53Z</time></trkpt><trkpt lat="42.08746223680894" lon="11.896621964365119"><ele>223.71428571428572</ele><time>2026-04-19T09:34:56Z</time></trkpt><trkpt lat="42.08741719622297" lon="11.89669125093273"><ele>224.0</ele><time>2026-04-19T09:34:59Z</time></trkpt><trkpt lat="42.08735834537186" lon="11.896744245477407"><ele>223.85714285714286</ele><time>2026-04-19T09:35:02Z</time></trkpt><trkpt lat="42.08732008886689" lon="11.896817554190505"><ele>223.71428571428572</ele><time>2026-04-19T09:35:05Z</time></trkpt><trkpt lat="42.087268870365726" lon="11.89690630402828"><ele>223.57142857142856</ele><time>2026-04-19T09:35:09Z</time></trkpt><trkpt lat="42.08727574632986" lon="11.896994912637565"><ele>223.42857142857144</ele><time>2026-04-19T09:35:12Z</time></trkpt><trkpt lat="42.08731787109936" lon="11.89707598303407"><ele>223.28571428571428</ele><time>2026-04-19T09:35:15Z</time></trkpt><trkpt lat="42.08738334788913" lon="11.897116718208233"><ele>223.14285714285714</ele><time>2026-04-19T09:35:18Z</time></trkpt><trkpt lat="42.08744315835374" lon="11.89714705660616"><ele>223.0</ele><time>2026-04-19T09:35:21Z</time></trkpt><trkpt lat="42.087509500895834" lon="11.897158476783936"><ele>225.49999999999997</ele><time>2026-04-19T09:35:24Z</time></trkpt><trkpt lat="42.08758968730211" lon="11.897176745420827"><ele>228.0</ele><time>2026-04-19T09:35:28Z</time></trkpt><trkpt lat="42.08766711842637" lon="11.897159612328872"><ele>230.5</ele><time>2026-04-19T09:35:32Z</time></trkpt><trkpt lat="42.087747305746575" lon="11.897151670349595"><ele>233.0</ele><time>2026-04-19T09:35:36Z</time></trkpt><trkpt lat="42.087823689264916" lon="11.897176896771478"><ele>235.49999999999997</ele><time>2026-04-19T09:35:40Z</time></trkpt><trkpt lat="42.08789334370613" lon="11.897170610510708"><ele>238.0</ele><time>2026-04-19T09:35:44Z</time></trkpt><trkpt lat="42.08796304971132" lon="11.89714929613799"><ele>238.0</ele><time>2026-04-19T09:35:48Z</time></trkpt><trkpt lat="42.08802506143591" lon="11.89710038088407"><ele>238.0</ele><time>2026-04-19T09:35:52Z</time></trkpt><trkpt lat="42.088102698874586" lon="11.897100165643806"><ele>238.0</ele><time>2026-04-19T09:35:56Z</time></trkpt><trkpt lat="42.0881823518271" lon="11.897096209383799"><ele>238.0</ele><time>2026-04-19T09:36:00Z</time></trkpt><trkpt lat="42.08825734201584" lon="11.897079002063965"><ele>238.0</ele><time>2026-04-19T09:36:04Z</time></trkpt><trkpt lat="42.08833321194382" lon="11.897095878839743"><ele>238.0</ele><time>2026-04-19T09:36:08Z</time></trkpt><trkpt lat="42.08839878435585" lon="11.897095161095226"><ele>238.0</ele><time>2026-04-19T09:36:11Z</time></trkpt><trkpt lat="42.088471648014576" lon="11.89710248969886"><ele>240.66666666666666</ele><time>2026-04-19T09:36:14Z</time></trkpt><trkpt lat="42.08855448096551" lon="11.897147059598959"><ele>243.33333333333331</ele><time>2026-04-19T09:36:17Z</time></trkpt><trkpt lat="42.088611052337946" lon="11.897234181789237"><ele>246.0</ele><time>2026-04-19T09:36:20Z</time></trkpt><trkpt lat="42.08867017264335" lon="11.89732636492195"><ele>248.66666666666669</ele><time>2026-04-19T09:36:23Z</time></trkpt><trkpt lat="42.088727425482666" lon="11.89739715723498"><ele>251.33333333333334</ele><time>2026-04-19T09:36:25Z</time></trkpt><trkpt lat="42.08877837115085" lon="11.89750420552247"><ele>254.0</ele><time>2026-04-19T09:36:28Z</time></trkpt><trkpt lat="42.08880871355008" lon="11.897584665358531"><ele>254.33333333333334</ele><time>2026-04-19T09:36:30Z</time></trkpt><trkpt lat="42.088868283345256" lon="11.89768086487001"><ele>254.66666666666669</ele><time>2026-04-19T09:36:33Z</time></trkpt><trkpt lat="42.08893944204722" lon="11.897750607570027"><ele>255.0</ele><time>2026-04-19T09:36:36Z</time></trkpt><trkpt lat="42.089007904389746" lon="11.897802857097014"><ele>255.33333333333331</ele><time>2026-04-19T09:36:39Z</time></trkpt><trkpt lat="42.08904637362041" lon="11.897882152309217"><ele>255.66666666666666</ele><time>2026-04-19T09:36:42Z</time></trkpt><trkpt lat="42.08909538598063" lon="11.897937504804357"><ele>256.0</ele><time>2026-04-19T09:36:45Z</time></trkpt><trkpt lat="42.08914087376352" lon="11.89800689315421"><ele>258.5</ele><time>2026-04-19T09:36:48Z</time></trkpt><trkpt lat="42.0891984052723" lon="11.898078197652815"><ele>261.0</ele><time>2026-04-19T09:36:52Z</time></trkpt><trkpt lat="42.08922416925051" lon="11.898169087277777"><ele>263.5</ele><time>2026-04-19T09:36:56Z</time></trkpt><trkpt lat="42.08927352064702" lon="11.898267486903453"><ele>266.0</ele><time>2026-04-19T09:37:00Z</time></trkpt><trkpt lat="42.08930621892152" lon="11.898376379120819"><ele>268.5</ele><time>2026-04-19T09:37:03Z</time></trkpt><trkpt lat="42.08934959161812" lon="11.898463783410186"><ele>271.0</ele><time>2026-04-19T09:37:06Z</time></trkpt><trkpt lat="42.08937004206981" lon="11.898572110779275"><ele>272.3333333333333</ele><time>2026-04-19T09:37:09Z</time></trkpt><trkpt lat="42.0893825021635" lon="11.898694760349242"><ele>273.66666666666663</ele><time>2026-04-19T09:37:12Z</time></trkpt><trkpt lat="42.0894011957428" lon="11.898814870727897"><ele>275.0</ele><time>2026-04-19T09:37:15Z</time></trkpt><trkpt lat="42.089417292182574" lon="11.898902508468524"><ele>276.3333333333333</ele><time>2026-04-19T09:37:17Z</time></trkpt><trkpt lat="42.08943066037216" lon="11.898987958245089"><ele>277.6666666666667</ele><time>2026-04-19T09:37:20Z</time></trkpt><trkpt lat="42.08945287954467" lon="11.899079461165682"><ele>279.0</ele><time>2026-04-19T09:37:23Z</time></trkpt><trkpt lat="42.08941169610382" lon="11.899159944913427"><ele>279.3333333333333</ele><time>2026-04-19T09:37:26Z</time></trkpt><trkpt lat="42.089351780804364" lon="11.89925206623865"><ele>279.6666666666667</ele><time>2026-04-19T09:37:30Z</time></trkpt><trkpt lat="42.089288225813206" lon="11.899320528856773"><ele>280.0</ele><time>2026-04-19T09:37:33Z</time></trkpt><trkpt lat="42.08921933047468" lon="11.899363925150723"><ele>280.33333333333337</ele><time>2026-04-19T09:37:37Z</time></trkpt><trkpt lat="42.08914689643623" lon="11.899423177168893"><ele>280.6666666666667</ele><time>2026-04-19T09:37:41Z</time></trkpt><trkpt lat="42.08909294455369" lon="11.899489060398999"><ele>281.0</ele><time>2026-04-19T09:37:44Z</time></trkpt><trkpt lat="42.08903235287546" lon="11.89954288022063"><ele>281.00000000000006</ele><time>2026-04-19T09:37:47Z</time></trkpt><trkpt lat="42.08897021343979" lon="11.899610612419533"><ele>281.0</ele><time>2026-04-19T09:37:50Z</time></trkpt><trkpt lat="42.08892713189627" lon="11.899705240863742"><ele>281.0</ele><time>2026-04-19T09:37:54Z</time></trkpt><trkpt lat="42.08889301334904" lon="11.899788085558765"><ele>281.0</ele><time>2026-04-19T09:37:57Z</time></trkpt><trkpt lat="42.08884847916452" lon="11.899849002792505"><ele>281.0</ele><time>2026-04-19T09:38:00Z</time></trkpt><trkpt lat="42.088806333165934" lon="11.899932190859248"><ele>281.00000000000006</ele><time>2026-04-19T09:38:03Z</time></trkpt><trkpt lat="42.08876638324186" lon="11.900011335569141"><ele>281.0</ele><time>2026-04-19T09:38:06Z</time></trkpt><trkpt lat="42.08872343971053" lon="11.900104839584472"><ele>282.8571428571429</ele><time>2026-04-19T09:38:10Z</time></trkpt><trkpt lat="42.08868765237547" lon="11.900192581854144"><ele>284.7142857142857</ele><time>2026-04-19T09:38:13Z</time></trkpt><trkpt lat="42.08865240738683" lon="11.900278769548294"><ele>286.57142857142856</ele><time>2026-04-19T09:38:16Z</time></trkpt><trkpt lat="42.08861878845166" lon="11.900371925678376"><ele>288.42857142857144</ele><time>2026-04-19T09:38:19Z</time></trkpt><trkpt lat="42.088587005846286" lon="11.900465487091987"><ele>290.2857142857143</ele><time>2026-04-19T09:38:22Z</time></trkpt><trkpt lat="42.088556003176635" lon="11.900555607467654"><ele>292.14285714285717</ele><time>2026-04-19T09:38:25Z</time></trkpt><trkpt lat="42.08852159747822" lon="11.900641150836469"><ele>294.0</ele><time>2026-04-19T09:38:28Z</time></trkpt><trkpt lat="42.088493846671774" lon="11.900731601006154"><ele>294.0</ele><time>2026-04-19T09:38:31Z</time></trkpt><trkpt lat="42.08846603387959" lon="11.90081702930991"><ele>294.0</ele><time>2026-04-19T09:38:34Z</time></trkpt><trkpt lat="42.0884444788014" lon="11.900925871969923"><ele>294.0</ele><time>2026-04-19T09:38:37Z</time></trkpt><trkpt lat="42.0884254627266" lon="11.901029541444162"><ele>294.0</ele><time>2026-04-19T09:38:40Z</time></trkpt><trkpt lat="42.08841163021507" lon="11.901130520850328"><ele>294.0</ele><time>2026-04-19T09:38:43Z</time></trkpt><trkpt lat="42.088391830575" lon="11.901233862602048"><ele>294.0</ele><time>2026-04-19T09:38:46Z</time></trkpt><trkpt lat="42.08835850695894" lon="11.901334418301545"><ele>294.85714285714283</ele><time>2026-04-19T09:38:49Z</time></trkpt><trkpt lat="42.088318306752285" lon="11.901412343630893"><ele>295.7142857142857</ele><time>2026-04-19T09:38:52Z</time></trkpt><trkpt lat="42.088275075406344" lon="11.901493974072348"><ele>296.57142857142856</ele><time>2026-04-19T09:38:55Z</time></trkpt><trkpt lat="42.08823180609103" lon="11.90155854250194"><ele>297.42857142857144</ele><time>2026-04-19T09:38:58Z</time></trkpt><trkpt lat="42.08817647667198" lon="11.901647932907096"><ele>298.2857142857143</ele><time>2026-04-19T09:39:02Z</time></trkpt><trkpt lat="42.08811107002395" lon="11.901718156212175"><ele>299.1428571428571</ele><time>2026-04-19T09:39:06Z</time></trkpt><trkpt lat="42.08805869021995" lon="11.901772897133247"><ele>300.0</ele><time>2026-04-19T09:39:09Z</time></trkpt><trkpt lat="42.08800072040209" lon="11.901856817847644"><ele>300.6666666666667</ele><time>2026-04-19T09:39:13Z</time></trkpt><trkpt lat="42.08796808815527" lon="11.901932228775898"><ele>301.3333333333333</ele><time>2026-04-19T09:39:16Z</time></trkpt><trkpt lat="42.08796840117166" lon="11.902047286709205"><ele>302.0</ele><time>2026-04-19T09:39:20Z</time></trkpt><trkpt lat="42.087982377109256" lon="11.90214941712515"><ele>302.66666666666663</ele><time>2026-04-19T09:39:24Z</time></trkpt><trkpt lat="42.08800076045734" lon="11.9022631893396"><ele>303.3333333333333</ele><time>2026-04-19T09:39:28Z</time></trkpt><trkpt lat="42.08805010990172" lon="11.902345402123595"><ele>304.0</ele><time>2026-04-19T09:39:31Z</time></trkpt><trkpt lat="42.08810034540212" lon="11.902426296826652"><ele>304.0</ele><time>2026-04-19T09:39:34Z</time></trkpt><trkpt lat="42.088163984132876" lon="11.902500518233907"><ele>304.0</ele><time>2026-04-19T09:39:37Z</time></trkpt><trkpt lat="42.08823187704123" lon="11.902570485998783"><ele>304.0</ele><time>2026-04-19T09:39:40Z</time></trkpt><trkpt lat="42.088307007990515" lon="11.90262812659574"><ele>304.0</ele><time>2026-04-19T09:39:43Z</time></trkpt><trkpt lat="42.08838361913849" lon="11.902679871574131"><ele>304.0</ele><time>2026-04-19T09:39:46Z</time></trkpt><trkpt lat="42.08844771664243" lon="11.902749725676399"><ele>304.0</ele><time>2026-04-19T09:39:49Z</time></trkpt><trkpt lat="42.08851819980409" lon="11.902818870067396"><ele>304.16666666666663</ele><time>2026-04-19T09:39:52Z</time></trkpt><trkpt lat="42.08859779770459" lon="11.902868033692961"><ele>304.3333333333333</ele><time>2026-04-19T09:39:55Z</time></trkpt><trkpt lat="42.08866700497503" lon="11.902916148148316"><ele>304.5</ele><time>2026-04-19T09:39:58Z</time></trkpt><trkpt lat="42.08873520032936" lon="11.902973175315843"><ele>304.6666666666667</ele><time>2026-04-19T09:40:01Z</time></trkpt><trkpt lat="42.08880341385089" lon="11.903033833427749"><ele>304.83333333333337</ele><time>2026-04-19T09:40:04Z</time></trkpt><trkpt lat="42.08886482739195" lon="11.903100748039192"><ele>305.0</ele><time>2026-04-19T09:40:07Z</time></trkpt><trkpt lat="42.088929870642815" lon="11.903144421628179"><ele>305.0</ele><time>2026-04-19T09:40:10Z</time></trkpt><trkpt lat="42.08901044060897" lon="11.903175718604409"><ele>305.0</ele><time>2026-04-19T09:40:13Z</time></trkpt><trkpt lat="42.08909231797959" lon="11.90320755286462"><ele>305.0</ele><time>2026-04-19T09:40:16Z</time></trkpt><trkpt lat="42.089173194738066" lon="11.90323981689401"><ele>305.0</ele><time>2026-04-19T09:40:19Z</time></trkpt><trkpt lat="42.089262163083866" lon="11.903251317623287"><ele>305.0</ele><time>2026-04-19T09:40:22Z</time></trkpt><trkpt lat="42.08932699965477" lon="11.903257136367406"><ele>305.0</ele><time>2026-04-19T09:40:24Z</time></trkpt><trkpt lat="42.08940058266595" lon="11.903252082910251"><ele>306.8</ele><time>2026-04-19T09:40:26Z</time></trkpt><trkpt lat="42.089484045940424" lon="11.903239096839304"><ele>308.6</ele><time>2026-04-19T09:40:28Z</time></trkpt><trkpt lat="42.08957422691135" lon="11.903198278276488"><ele>310.4</ele><time>2026-04-19T09:40:30Z</time></trkpt><trkpt lat="42.089670166810485" lon="11.903142835604886"><ele>312.2</ele><time>2026-04-19T09:40:32Z</time></trkpt><trkpt lat="42.08977802357068" lon="11.903086112242043"><ele>314.0</ele><time>2026-04-19T09:40:34Z</time></trkpt><trkpt lat="42.08989345926587" lon="11.90305670798491"><ele>313.59999999999997</ele><time>2026-04-19T09:40:36Z</time></trkpt><trkpt lat="42.09000825406107" lon="11.90304691420337"><ele>313.2</ele><time>2026-04-19T09:40:38Z</time></trkpt><trkpt lat="42.09009865932791" lon="11.903078750625015"><ele>312.79999999999995</ele><time>2026-04-19T09:40:40Z</time></trkpt><trkpt lat="42.09018900519274" lon="11.903100451479592"><ele>312.4</ele><time>2026-04-19T09:40:42Z</time></trkpt><trkpt lat="42.090280046399975" lon="11.90313300709595"><ele>312.0</ele><time>2026-04-19T09:40:44Z</time></trkpt><trkpt lat="42.09034548090108" lon="11.903162170828638"><ele>312.0</ele><time>2026-04-19T09:40:45Z</time></trkpt><trkpt lat="42.09041752197079" lon="11.903187298887858"><ele>312.0</ele><time>2026-04-19T09:40:47Z</time></trkpt><trkpt lat="42.09051237702945" lon="11.903206373049471"><ele>312.0</ele><time>2026-04-19T09:40:49Z</time></trkpt><trkpt lat="42.09061352950843" lon="11.903248796715065"><ele>312.0</ele><time>2026-04-19T09:40:51Z</time></trkpt><trkpt lat="42.09070638858623" lon="11.903287870114967"><ele>312.0</ele><time>2026-04-19T09:40:53Z</time></trkpt><trkpt lat="42.090804328189144" lon="11.903321218202635"><ele>312.6</ele><time>2026-04-19T09:40:55Z</time></trkpt><trkpt lat="42.090906801223944" lon="11.903344192843305"><ele>313.2</ele><time>2026-04-19T09:40:57Z</time></trkpt><trkpt lat="42.091004432972476" lon="11.90338065451339"><ele>313.8</ele><time>2026-04-19T09:40:59Z</time></trkpt><trkpt lat="42.09110156678783" lon="11.903405471034933"><ele>314.4</ele><time>2026-04-19T09:41:01Z</time></trkpt><trkpt lat="42.09118025064696" lon="11.903473817008734"><ele>315.0</ele><time>2026-04-19T09:41:03Z</time></trkpt><trkpt lat="42.09125450981618" lon="11.90353964793422"><ele>314.8</ele><time>2026-04-19T09:41:05Z</time></trkpt><trkpt lat="42.091337403512654" lon="11.903630039948274"><ele>314.6</ele><time>2026-04-19T09:41:07Z</time></trkpt><trkpt lat="42.09140551892889" lon="11.903727775409621"><ele>314.4</ele><time>2026-04-19T09:41:10Z</time></trkpt><trkpt lat="42.09147152927848" lon="11.903849992915234"><ele>314.2</ele><time>2026-04-19T09:41:12Z</time></trkpt><trkpt lat="42.0915402562387" lon="11.903954241717877"><ele>314.0</ele><time>2026-04-19T09:41:14Z</time></trkpt><trkpt lat="42.09161635769599" lon="11.904041517298259"><ele>314.0</ele><time>2026-04-19T09:41:16Z</time></trkpt><trkpt lat="42.091682829650345" lon="11.90413008057288"><ele>314.0</ele><time>2026-04-19T09:41:18Z</time></trkpt><trkpt lat="42.091752725874386" lon="11.904222801639058"><ele>314.0</ele><time>2026-04-19T09:41:20Z</time></trkpt><trkpt lat="42.091818447738824" lon="11.90432448512745"><ele>314.0</ele><time>2026-04-19T09:41:22Z</time></trkpt><trkpt lat="42.09189313189216" lon="11.904390220940263"><ele>314.0</ele><time>2026-04-19T09:41:24Z</time></trkpt><trkpt lat="42.09194287903134" lon="11.904469420908356"><ele>312.1666666666667</ele><time>2026-04-19T09:41:26Z</time></trkpt><trkpt lat="42.092006085049995" lon="11.90453377862117"><ele>310.33333333333337</ele><time>2026-04-19T09:41:28Z</time></trkpt><trkpt lat="42.09207290571761" lon="11.904617793680412"><ele>308.5</ele><time>2026-04-19T09:41:30Z</time></trkpt><trkpt lat="42.092139575077404" lon="11.90470453373259"><ele>306.6666666666667</ele><time>2026-04-19T09:41:32Z</time></trkpt><trkpt lat="42.09219239189759" lon="11.904797008071052"><ele>304.8333333333333</ele><time>2026-04-19T09:41:34Z</time></trkpt><trkpt lat="42.0922571297893" lon="11.90489381698021"><ele>303.0</ele><time>2026-04-19T09:41:36Z</time></trkpt><trkpt lat="42.092330485132656" lon="11.904970850074717"><ele>303.0</ele><time>2026-04-19T09:41:38Z</time></trkpt><trkpt lat="42.09240137136419" lon="11.905047249726524"><ele>303.0</ele><time>2026-04-19T09:41:40Z</time></trkpt><trkpt lat="42.09246182226552" lon="11.905150273672332"><ele>303.0</ele><time>2026-04-19T09:41:42Z</time></trkpt><trkpt lat="42.092552251893984" lon="11.90520719920851"><ele>303.0</ele><time>2026-04-19T09:41:44Z</time></trkpt><trkpt lat="42.09263948294696" lon="11.905257099136033"><ele>303.0</ele><time>2026-04-19T09:41:46Z</time></trkpt><trkpt lat="42.09273235676005" lon="11.905303962608354"><ele>303.4</ele><time>2026-04-19T09:41:48Z</time></trkpt><trkpt lat="42.09283840833907" lon="11.905349693948091"><ele>303.8</ele><time>2026-04-19T09:41:50Z</time></trkpt><trkpt lat="42.092959726116085" lon="11.905368419098384"><ele>304.2</ele><time>2026-04-19T09:41:52Z</time></trkpt><trkpt lat="42.093023239173654" lon="11.905388592552507"><ele>304.6</ele><time>2026-04-19T09:41:53Z</time></trkpt><trkpt lat="42.093138041329055" lon="11.905444313844166"><ele>305.0</ele><time>2026-04-19T09:41:55Z</time></trkpt><trkpt lat="42.09320094971347" lon="11.905468991995534"><ele>305.42857142857144</ele><time>2026-04-19T09:41:56Z</time></trkpt><trkpt lat="42.093264759433026" lon="11.905494119846178"><ele>305.85714285714283</ele><time>2026-04-19T09:41:57Z</time></trkpt><trkpt lat="42.093333901761824" lon="11.905518298886635"><ele>306.2857142857143</ele><time>2026-04-19T09:41:58Z</time></trkpt><trkpt lat="42.09339858645032" lon="11.905556182908999"><ele>306.7142857142857</ele><time>2026-04-19T09:41:59Z</time></trkpt><trkpt lat="42.09346206856483" lon="11.905596834131536"><ele>307.1428571428571</ele><time>2026-04-19T09:42:00Z</time></trkpt><trkpt lat="42.09352581990091" lon="11.905626216525636"><ele>307.57142857142856</ele><time>2026-04-19T09:42:01Z</time></trkpt><trkpt lat="42.09359378192225" lon="11.905661514819412"><ele>308.0</ele><time>2026-04-19T09:42:02Z</time></trkpt><trkpt lat="42.09366189853472" lon="11.905687112762514"><ele>308.0</ele><time>2026-04-19T09:42:03Z</time></trkpt><trkpt lat="42.09372723060953" lon="11.905703197999753"><ele>308.0</ele><time>2026-04-19T09:42:04Z</time></trkpt><trkpt lat="42.09379464890381" lon="11.905728820035213"><ele>308.0</ele><time>2026-04-19T09:42:05Z</time></trkpt><trkpt lat="42.09385703170009" lon="11.9057435685053"><ele>308.0</ele><time>2026-04-19T09:42:06Z</time></trkpt><trkpt lat="42.09401957608299" lon="11.905835524583985"><ele>308.0</ele><time>2026-04-19T09:42:09Z</time></trkpt><trkpt lat="42.09412025043658" lon="11.905885260866466"><ele>308.5</ele><time>2026-04-19T09:42:11Z</time></trkpt><trkpt lat="42.09420563334722" lon="11.905969947069547"><ele>309.0</ele><time>2026-04-19T09:42:13Z</time></trkpt><trkpt lat="42.09428537106103" lon="11.906035747534323"><ele>309.5</ele><time>2026-04-19T09:42:15Z</time></trkpt><trkpt lat="42.09435765456358" lon="11.906083653846428"><ele>310.0</ele><time>2026-04-19T09:42:17Z</time></trkpt><trkpt lat="42.09442455821313" lon="11.906150234129019"><ele>310.5</ele><time>2026-04-19T09:42:20Z</time></trkpt><trkpt lat="42.09448894344872" lon="11.906219913331713"><ele>311.0</ele><time>2026-04-19T09:42:23Z</time></trkpt><trkpt lat="42.09453598044472" lon="11.906289801571459"><ele>311.0</ele><time>2026-04-19T09:42:26Z</time></trkpt><trkpt lat="42.09457456001428" lon="11.90635714065964"><ele>311.0</ele><time>2026-04-19T09:42:29Z</time></trkpt><trkpt lat="42.09461619604791" lon="11.906440337693846"><ele>311.0</ele><time>2026-04-19T09:42:32Z</time></trkpt><trkpt lat="42.09464746958455" lon="11.906538012065797"><ele>311.0</ele><time>2026-04-19T09:42:35Z</time></trkpt><trkpt lat="42.09466817910484" lon="11.906631529725342"><ele>311.0</ele><time>2026-04-19T09:42:38Z</time></trkpt><trkpt lat="42.0946919901775" lon="11.90671652194585"><ele>311.0</ele><time>2026-04-19T09:42:41Z</time></trkpt><trkpt lat="42.09471323116408" lon="11.906800149838263"><ele>311.0</ele><time>2026-04-19T09:42:44Z</time></trkpt><trkpt lat="42.094743973251184" lon="11.906890982200112"><ele>311.0</ele><time>2026-04-19T09:42:47Z</time></trkpt><trkpt lat="42.09476620232896" lon="11.906971430743692"><ele>311.0</ele><time>2026-04-19T09:42:50Z</time></trkpt><trkpt lat="42.09479190444592" lon="11.907064640787894"><ele>311.0</ele><time>2026-04-19T09:42:53Z</time></trkpt><trkpt lat="42.094825254948404" lon="11.907149608507167"><ele>311.0</ele><time>2026-04-19T09:42:55.999Z</time></trkpt><trkpt lat="42.09485279752945" lon="11.907238896087263"><ele>311.0</ele><time>2026-04-19T09:42:58.999Z</time></trkpt><trkpt lat="42.09488685124182" lon="11.90732935553477"><ele>311.0</ele><time>2026-04-19T09:43:01.999Z</time></trkpt><trkpt lat="42.094918765198294" lon="11.907413510765252"><ele>311.0</ele><time>2026-04-19T09:43:04.999Z</time></trkpt><trkpt lat="42.09495771066405" lon="11.907488795405834"><ele>312.85714285714283</ele><time>2026-04-19T09:43:07.999Z</time></trkpt><trkpt lat="42.094987926219744" lon="11.907568158469719"><ele>314.7142857142857</ele><time>2026-04-19T09:43:10.999Z</time></trkpt><trkpt lat="42.09504284112529" lon="11.90763380849874"><ele>316.57142857142856</ele><time>2026-04-19T09:43:13.999Z</time></trkpt><trkpt lat="42.09509337688143" lon="11.907707078404481"><ele>318.42857142857144</ele><time>2026-04-19T09:43:16.999Z</time></trkpt><trkpt lat="42.09514875120269" lon="11.907772227522688"><ele>320.2857142857143</ele><time>2026-04-19T09:43:19.999Z</time></trkpt><trkpt lat="42.09521712724761" lon="11.907816046630927"><ele>322.14285714285717</ele><time>2026-04-19T09:43:22.999Z</time></trkpt><trkpt lat="42.095291341452224" lon="11.90785811531116"><ele>324.0</ele><time>2026-04-19T09:43:25.999Z</time></trkpt><trkpt lat="42.09535605765001" lon="11.907920411160367"><ele>324.0</ele><time>2026-04-19T09:43:28.999Z</time></trkpt><trkpt lat="42.09541423005565" lon="11.907995524702597"><ele>324.0</ele><time>2026-04-19T09:43:31.999Z</time></trkpt><trkpt lat="42.095469107379465" lon="11.90805122099729"><ele>324.0</ele><time>2026-04-19T09:43:34.999Z</time></trkpt><trkpt lat="42.09552745479467" lon="11.908119235972642"><ele>324.0</ele><time>2026-04-19T09:43:37.999Z</time></trkpt><trkpt lat="42.09557837959925" lon="11.908188276797713"><ele>324.0</ele><time>2026-04-19T09:43:40.999Z</time></trkpt><trkpt lat="42.09563620382667" lon="11.908265325915709"><ele>324.0</ele><time>2026-04-19T09:43:43.999Z</time></trkpt><trkpt lat="42.09569141446881" lon="11.908346444420985"><ele>324.1666666666667</ele><time>2026-04-19T09:43:46.999Z</time></trkpt><trkpt lat="42.09575146448311" lon="11.90841283600842"><ele>324.3333333333333</ele><time>2026-04-19T09:43:49.999Z</time></trkpt><trkpt lat="42.09581352099744" lon="11.908489521754236"><ele>324.5</ele><time>2026-04-19T09:43:52.999Z</time></trkpt><trkpt lat="42.095867149785505" lon="11.908564737276855"><ele>324.66666666666663</ele><time>2026-04-19T09:43:55.999Z</time></trkpt><trkpt lat="42.095916704379356" lon="11.908640204961191"><ele>324.8333333333333</ele><time>2026-04-19T09:43:58.999Z</time></trkpt><trkpt lat="42.09596073053641" lon="11.908721332509254"><ele>325.0</ele><time>2026-04-19T09:44:01.999Z</time></trkpt><trkpt lat="42.096010381964916" lon="11.908782023453565"><ele>326.4285714285714</ele><time>2026-04-19T09:44:04.999Z</time></trkpt><trkpt lat="42.09605844521346" lon="11.908845619939997"><ele>327.8571428571429</ele><time>2026-04-19T09:44:07.999Z</time></trkpt><trkpt lat="42.09609982624356" lon="11.908930288828484"><ele>329.2857142857143</ele><time>2026-04-19T09:44:10.999Z</time></trkpt><trkpt lat="42.096142009365614" lon="11.909010503604831"><ele>330.71428571428567</ele><time>2026-04-19T09:44:13.999Z</time></trkpt><trkpt lat="42.09618227113223" lon="11.909092661519198"><ele>332.1428571428571</ele><time>2026-04-19T09:44:16.999Z</time></trkpt><trkpt lat="42.096217343835754" lon="11.909175946239449"><ele>333.57142857142856</ele><time>2026-04-19T09:44:19.999Z</time></trkpt><trkpt lat="42.09623963645363" lon="11.909285025715352"><ele>335.0</ele><time>2026-04-19T09:44:22.999Z</time></trkpt><trkpt lat="42.096293636670005" lon="11.909366744653024"><ele>334.99999999999994</ele><time>2026-04-19T09:44:25.999Z</time></trkpt><trkpt lat="42.09634891345471" lon="11.90945153805055"><ele>335.0</ele><time>2026-04-19T09:44:28.999Z</time></trkpt><trkpt lat="42.096411001932104" lon="11.909551024411394"><ele>335.0</ele><time>2026-04-19T09:44:31.999Z</time></trkpt><trkpt lat="42.09644970625064" lon="11.909625488113793"><ele>335.0</ele><time>2026-04-19T09:44:33.999Z</time></trkpt><trkpt lat="42.096481277604134" lon="11.909701584269058"><ele>335.0</ele><time>2026-04-19T09:44:35.999Z</time></trkpt><trkpt lat="42.09651463933539" lon="11.909774727134335"><ele>334.99999999999994</ele><time>2026-04-19T09:44:37.999Z</time></trkpt><trkpt lat="42.096541861188655" lon="11.909857205501263"><ele>335.0</ele><time>2026-04-19T09:44:39.999Z</time></trkpt><trkpt lat="42.09657660369007" lon="11.909929400809027"><ele>336.6666666666667</ele><time>2026-04-19T09:44:41.999Z</time></trkpt><trkpt lat="42.096620426764225" lon="11.909995787481467"><ele>338.33333333333337</ele><time>2026-04-19T09:44:43.999Z</time></trkpt><trkpt lat="42.09665853934609" lon="11.910104648851371"><ele>340.0</ele><time>2026-04-19T09:44:46.999Z</time></trkpt><trkpt lat="42.09669236742785" lon="11.91021044303071"><ele>341.6666666666667</ele><time>2026-04-19T09:44:49.999Z</time></trkpt><trkpt lat="42.09672015390253" lon="11.910312003445279"><ele>343.3333333333333</ele><time>2026-04-19T09:44:52.999Z</time></trkpt><trkpt lat="42.09673508619025" lon="11.910404746103145"><ele>345.0</ele><time>2026-04-19T09:44:55.999Z</time></trkpt><trkpt lat="42.09675893221558" lon="11.910511083104563"><ele>345.2857142857143</ele><time>2026-04-19T09:44:59.999Z</time></trkpt><trkpt lat="42.09678422407701" lon="11.910592973590369"><ele>345.57142857142856</ele><time>2026-04-19T09:45:02.999Z</time></trkpt><trkpt lat="42.09679808774295" lon="11.910682983064499"><ele>345.8571428571429</ele><time>2026-04-19T09:45:05.999Z</time></trkpt><trkpt lat="42.09680086502934" lon="11.91077534846238"><ele>346.1428571428571</ele><time>2026-04-19T09:45:08.999Z</time></trkpt><trkpt lat="42.09680719616096" lon="11.910875504270258"><ele>346.4285714285714</ele><time>2026-04-19T09:45:11.999Z</time></trkpt><trkpt lat="42.09682782562402" lon="11.91096621796929"><ele>346.7142857142857</ele><time>2026-04-19T09:45:14.999Z</time></trkpt><trkpt lat="42.096837507601066" lon="11.911055456393912"><ele>347.0</ele><time>2026-04-19T09:45:17.999Z</time></trkpt><trkpt lat="42.0968599040569" lon="11.911162287992871"><ele>348.7142857142857</ele><time>2026-04-19T09:45:21.999Z</time></trkpt><trkpt lat="42.09687824285379" lon="11.911251080273757"><ele>350.4285714285714</ele><time>2026-04-19T09:45:24.999Z</time></trkpt><trkpt lat="42.096893527242294" lon="11.91133470901801"><ele>352.1428571428571</ele><time>2026-04-19T09:45:27.999Z</time></trkpt><trkpt lat="42.09691276031844" lon="11.911434704529333"><ele>353.8571428571429</ele><time>2026-04-19T09:45:30.999Z</time></trkpt><trkpt lat="42.09695994182403" lon="11.911507508480044"><ele>355.57142857142856</ele><time>2026-04-19T09:45:33.999Z</time></trkpt><trkpt lat="42.09701701803974" lon="11.911566291674685"><ele>357.2857142857143</ele><time>2026-04-19T09:45:36.999Z</time></trkpt><trkpt lat="42.09707835542529" lon="11.911629471593526"><ele>359.0</ele><time>2026-04-19T09:45:39.999Z</time></trkpt><trkpt lat="42.09712919260235" lon="11.911718052035583"><ele>360.6666666666667</ele><time>2026-04-19T09:45:42.999Z</time></trkpt><trkpt lat="42.09717928446035" lon="11.911828250723731"><ele>362.33333333333337</ele><time>2026-04-19T09:45:45.999Z</time></trkpt><trkpt lat="42.0972010731188" lon="11.911912291098183"><ele>364.0</ele><time>2026-04-19T09:45:47.999Z</time></trkpt><trkpt lat="42.097206959090975" lon="11.91200990398336"><ele>365.6666666666667</ele><time>2026-04-19T09:45:49.999Z</time></trkpt><trkpt lat="42.0972092298348" lon="11.912113597768437"><ele>367.3333333333333</ele><time>2026-04-19T09:45:51.999Z</time></trkpt><trkpt lat="42.09721884718468" lon="11.912230901541808"><ele>369.0</ele><time>2026-04-19T09:45:53.999Z</time></trkpt><trkpt lat="42.09722855316464" lon="11.912350331215631"><ele>369.0</ele><time>2026-04-19T09:45:55.999Z</time></trkpt><trkpt lat="42.09723702779835" lon="11.912473553951628"><ele>369.0</ele><time>2026-04-19T09:45:57.999Z</time></trkpt><trkpt lat="42.09725060492817" lon="11.91256188706523"><ele>369.0</ele><time>2026-04-19T09:45:59.999Z</time></trkpt><trkpt lat="42.09728495942251" lon="11.912662196229169"><ele>369.0</ele><time>2026-04-19T09:46:03.999Z</time></trkpt><trkpt lat="42.09733640606777" lon="11.91273647416341"><ele>369.0</ele><time>2026-04-19T09:46:06.999Z</time></trkpt><trkpt lat="42.09737085924274" lon="11.912818057865785"><ele>369.0</ele><time>2026-04-19T09:46:08.999Z</time></trkpt><trkpt lat="42.097417385972875" lon="11.912886353860916"><ele>368.7142857142857</ele><time>2026-04-19T09:46:10.999Z</time></trkpt><trkpt lat="42.09746077598267" lon="11.91295841745817"><ele>368.42857142857144</ele><time>2026-04-19T09:46:12.999Z</time></trkpt><trkpt lat="42.09749807414166" lon="11.913038430780876"><ele>368.1428571428571</ele><time>2026-04-19T09:46:14.999Z</time></trkpt><trkpt lat="42.097529645270775" lon="11.913120895681937"><ele>367.8571428571429</ele><time>2026-04-19T09:46:16.999Z</time></trkpt><trkpt lat="42.097554098968445" lon="11.913216850819058"><ele>367.5714285714286</ele><time>2026-04-19T09:46:18.999Z</time></trkpt><trkpt lat="42.097574393307546" lon="11.91330392285296"><ele>367.2857142857143</ele><time>2026-04-19T09:46:20.999Z</time></trkpt><trkpt lat="42.09759745222181" lon="11.913401722545265"><ele>367.0</ele><time>2026-04-19T09:46:22.999Z</time></trkpt><trkpt lat="42.097619542498336" lon="11.913512137011974"><ele>367.0</ele><time>2026-04-19T09:46:24.999Z</time></trkpt><trkpt lat="42.09765259663165" lon="11.913627906855123"><ele>367.0</ele><time>2026-04-19T09:46:26.999Z</time></trkpt><trkpt lat="42.097687854973465" lon="11.913759024806954"><ele>367.0</ele><time>2026-04-19T09:46:28.999Z</time></trkpt><trkpt lat="42.097720833140876" lon="11.913837974858419"><ele>367.0</ele><time>2026-04-19T09:46:29.999Z</time></trkpt><trkpt lat="42.09776877171565" lon="11.913969170207519"><ele>367.0</ele><time>2026-04-19T09:46:31.999Z</time></trkpt><trkpt lat="42.097800793493164" lon="11.914114486844147"><ele>367.0</ele><time>2026-04-19T09:46:33.999Z</time></trkpt><trkpt lat="42.09786682926173" lon="11.914224807935417"><ele>367.0</ele><time>2026-04-19T09:46:35.999Z</time></trkpt><trkpt lat="42.09793179682422" lon="11.914326467098897"><ele>367.0</ele><time>2026-04-19T09:46:37.999Z</time></trkpt><trkpt lat="42.097982507818344" lon="11.91441495664234"><ele>367.0</ele><time>2026-04-19T09:46:39.999Z</time></trkpt><trkpt lat="42.098056182871375" lon="11.914494857702445"><ele>367.0</ele><time>2026-04-19T09:46:41.999Z</time></trkpt><trkpt lat="42.09813008900636" lon="11.91457835222824"><ele>367.16666666666663</ele><time>2026-04-19T09:46:43.999Z</time></trkpt><trkpt lat="42.09820035908123" lon="11.914659267761111"><ele>367.3333333333333</ele><time>2026-04-19T09:46:45.999Z</time></trkpt><trkpt lat="42.09826296458736" lon="11.914722798184359"><ele>367.5</ele><time>2026-04-19T09:46:47.999Z</time></trkpt><trkpt lat="42.0983255190143" lon="11.914800378719741"><ele>367.6666666666667</ele><time>2026-04-19T09:46:49.999Z</time></trkpt><trkpt lat="42.09838279263276" lon="11.914886714819696"><ele>367.83333333333337</ele><time>2026-04-19T09:46:51.999Z</time></trkpt><trkpt lat="42.09843331386125" lon="11.914988710456711"><ele>368.0</ele><time>2026-04-19T09:46:53.999Z</time></trkpt><trkpt lat="42.09847651872062" lon="11.915112064254632"><ele>365.59999999999997</ele><time>2026-04-19T09:46:55.999Z</time></trkpt><trkpt lat="42.098554474871875" lon="11.915220901930612"><ele>363.2</ele><time>2026-04-19T09:46:57.999Z</time></trkpt><trkpt lat="42.09864279553916" lon="11.9153102886298"><ele>360.8</ele><time>2026-04-19T09:46:59.999Z</time></trkpt><trkpt lat="42.0987045069401" lon="11.915350692453309"><ele>358.4</ele><time>2026-04-19T09:47:00.999Z</time></trkpt><trkpt lat="42.09876397027904" lon="11.915384926948757"><ele>356.0</ele><time>2026-04-19T09:47:01.999Z</time></trkpt><trkpt lat="42.09888276596505" lon="11.915429807442584"><ele>356.0</ele><time>2026-04-19T09:47:03.999Z</time></trkpt><trkpt lat="42.09900214846387" lon="11.91545221524803"><ele>356.0</ele><time>2026-04-19T09:47:05.999Z</time></trkpt><trkpt lat="42.09911439212769" lon="11.915478879029386"><ele>356.0</ele><time>2026-04-19T09:47:07.999Z</time></trkpt><trkpt lat="42.099222073269445" lon="11.915501341877524"><ele>356.0</ele><time>2026-04-19T09:47:09.999Z</time></trkpt><trkpt lat="42.09932682197772" lon="11.91552459683005"><ele>354.75</ele><time>2026-04-19T09:47:11.999Z</time></trkpt><trkpt lat="42.09942959786034" lon="11.915553308411699"><ele>353.5</ele><time>2026-04-19T09:47:13.999Z</time></trkpt><trkpt lat="42.099544165514175" lon="11.915577504114841"><ele>352.25</ele><time>2026-04-19T09:47:15.999Z</time></trkpt><trkpt lat="42.09966185285641" lon="11.91559569919622"><ele>351.0</ele><time>2026-04-19T09:47:17.999Z</time></trkpt><trkpt lat="42.09977951474394" lon="11.91559082953116"><ele>351.0</ele><time>2026-04-19T09:47:19.999Z</time></trkpt><trkpt lat="42.09988972270125" lon="11.915632444139536"><ele>351.0</ele><time>2026-04-19T09:47:21.999Z</time></trkpt><trkpt lat="42.09998824600051" lon="11.915678965929423"><ele>351.0</ele><time>2026-04-19T09:47:23.999Z</time></trkpt><trkpt lat="42.100092923085555" lon="11.915734379198488"><ele>351.0</ele><time>2026-04-19T09:47:25.999Z</time></trkpt><trkpt lat="42.100201211827205" lon="11.9158058360169"><ele>351.5</ele><time>2026-04-19T09:47:27.999Z</time></trkpt><trkpt lat="42.10030992564569" lon="11.915869723006994"><ele>352.0</ele><time>2026-04-19T09:47:29.999Z</time></trkpt><trkpt lat="42.100414777613096" lon="11.915941327042832"><ele>352.5</ele><time>2026-04-19T09:47:31.999Z</time></trkpt><trkpt lat="42.10052236535034" lon="11.916022300280193"><ele>353.0</ele><time>2026-04-19T09:47:33.999Z</time></trkpt><trkpt lat="42.100630423089854" lon="11.916085003912722"><ele>351.4</ele><time>2026-04-19T09:47:35.999Z</time></trkpt><trkpt lat="42.100699113416326" lon="11.916113036855993"><ele>349.79999999999995</ele><time>2026-04-19T09:47:36.999Z</time></trkpt><trkpt lat="42.10077262876655" lon="11.916152578983413"><ele>348.2</ele><time>2026-04-19T09:47:37.999Z</time></trkpt><trkpt lat="42.10088454702678" lon="11.916194194762038"><ele>346.6</ele><time>2026-04-19T09:47:39.999Z</time></trkpt><trkpt lat="42.1009549986533" lon="11.916226521980123"><ele>345.0</ele><time>2026-04-19T09:47:40.999Z</time></trkpt><trkpt lat="42.101070904790866" lon="11.916260267118044"><ele>345.0</ele><time>2026-04-19T09:47:42.999Z</time></trkpt><trkpt lat="42.10117209841873" lon="11.916328212041874"><ele>345.0</ele><time>2026-04-19T09:47:44.999Z</time></trkpt><trkpt lat="42.10128101118351" lon="11.916365701159368"><ele>345.0</ele><time>2026-04-19T09:47:46.999Z</time></trkpt><trkpt lat="42.10137307475747" lon="11.916436487417162"><ele>345.0</ele><time>2026-04-19T09:47:48.999Z</time></trkpt><trkpt lat="42.10145898632135" lon="11.916490955126026"><ele>345.0</ele><time>2026-04-19T09:47:50.999Z</time></trkpt><trkpt lat="42.101545813188864" lon="11.91655309286599"><ele>345.8</ele><time>2026-04-19T09:47:52.999Z</time></trkpt><trkpt lat="42.10163207540129" lon="11.916605119834001"><ele>346.6</ele><time>2026-04-19T09:47:54.999Z</time></trkpt><trkpt lat="42.10171085265242" lon="11.916684577284263"><ele>347.4</ele><time>2026-04-19T09:47:56.999Z</time></trkpt><trkpt lat="42.10180000716027" lon="11.916758001373196"><ele>348.2</ele><time>2026-04-19T09:47:58.999Z</time></trkpt><trkpt lat="42.10189343421082" lon="11.916814386166271"><ele>349.0</ele><time>2026-04-19T09:48:00.999Z</time></trkpt><trkpt lat="42.10197921506262" lon="11.916895748317016"><ele>346.79999999999995</ele><time>2026-04-19T09:48:02.999Z</time></trkpt><trkpt lat="42.1020702999365" lon="11.916978373072718"><ele>344.59999999999997</ele><time>2026-04-19T09:48:04.999Z</time></trkpt><trkpt lat="42.102149783465364" lon="11.91706946133212"><ele>342.4</ele><time>2026-04-19T09:48:06.999Z</time></trkpt><trkpt lat="42.10221364861553" lon="11.917181262683282"><ele>340.2</ele><time>2026-04-19T09:48:08.999Z</time></trkpt><trkpt lat="42.102287798654125" lon="11.917298728585477"><ele>338.0</ele><time>2026-04-19T09:48:10.999Z</time></trkpt><trkpt lat="42.10235900223702" lon="11.917408695784918"><ele>338.4</ele><time>2026-04-19T09:48:12.999Z</time></trkpt><trkpt lat="42.10245026346593" lon="11.917509666089398"><ele>338.79999999999995</ele><time>2026-04-19T09:48:14.999Z</time></trkpt><trkpt lat="42.102541789242224" lon="11.91759721541632"><ele>339.2</ele><time>2026-04-19T09:48:16.999Z</time></trkpt><trkpt lat="42.102611412944604" lon="11.917687568808311"><ele>339.6</ele><time>2026-04-19T09:48:18.999Z</time></trkpt><trkpt lat="42.10268107327434" lon="11.91776058943449"><ele>340.0</ele><time>2026-04-19T09:48:20.999Z</time></trkpt><trkpt lat="42.10274181379203" lon="11.917841377993486"><ele>340.0</ele><time>2026-04-19T09:48:22.999Z</time></trkpt><trkpt lat="42.102806338487625" lon="11.917918468338359"><ele>340.0</ele><time>2026-04-19T09:48:24.999Z</time></trkpt><trkpt lat="42.102868531598375" lon="11.91799518324074"><ele>340.0</ele><time>2026-04-19T09:48:26.999Z</time></trkpt><trkpt lat="42.10293444443187" lon="11.918076696714376"><ele>340.0</ele><time>2026-04-19T09:48:29Z</time></trkpt><trkpt lat="42.10300768220399" lon="11.918162699078652"><ele>340.0</ele><time>2026-04-19T09:48:31Z</time></trkpt><trkpt lat="42.103078820100535" lon="11.918265007014455"><ele>340.0</ele><time>2026-04-19T09:48:33Z</time></trkpt><trkpt lat="42.10314451110045" lon="11.918373856004681"><ele>340.0</ele><time>2026-04-19T09:48:35Z</time></trkpt><trkpt lat="42.1032133164873" lon="11.918494579745316"><ele>340.0</ele><time>2026-04-19T09:48:37Z</time></trkpt><trkpt lat="42.10328511189508" lon="11.918617282405238"><ele>340.0</ele><time>2026-04-19T09:48:39Z</time></trkpt><trkpt lat="42.10333184006528" lon="11.918679693110793"><ele>340.0</ele><time>2026-04-19T09:48:40Z</time></trkpt><trkpt lat="42.10337753399708" lon="11.918747034303198"><ele>339.5714285714286</ele><time>2026-04-19T09:48:41Z</time></trkpt><trkpt lat="42.10342632941994" lon="11.918824305787956"><ele>339.1428571428571</ele><time>2026-04-19T09:48:42Z</time></trkpt><trkpt lat="42.103470852330396" lon="11.918899211704897"><ele>338.7142857142857</ele><time>2026-04-19T09:48:43Z</time></trkpt><trkpt lat="42.10351189944433" lon="11.918983452558146"><ele>338.28571428571433</ele><time>2026-04-19T09:48:44Z</time></trkpt><trkpt lat="42.10354463083006" lon="11.919072699478772"><ele>337.8571428571429</ele><time>2026-04-19T09:48:45Z</time></trkpt><trkpt lat="42.10358206620449" lon="11.919158562303693"><ele>337.42857142857144</ele><time>2026-04-19T09:48:46Z</time></trkpt><trkpt lat="42.1036119998969" lon="11.919241515233967"><ele>337.0</ele><time>2026-04-19T09:48:47Z</time></trkpt><trkpt lat="42.1036408108249" lon="11.919328568726725"><ele>336.8</ele><time>2026-04-19T09:48:48Z</time></trkpt><trkpt lat="42.10365450110492" lon="11.919413732062603"><ele>336.6</ele><time>2026-04-19T09:48:49Z</time></trkpt><trkpt lat="42.103658245027056" lon="11.919573198214076"><ele>336.40000000000003</ele><time>2026-04-19T09:48:51Z</time></trkpt><trkpt lat="42.10367236246083" lon="11.919701762621255"><ele>336.20000000000005</ele><time>2026-04-19T09:48:53Z</time></trkpt><trkpt lat="42.10367843778289" lon="11.919816967514087"><ele>336.0</ele><time>2026-04-19T09:48:55Z</time></trkpt><trkpt lat="42.10367924552634" lon="11.91993090926624"><ele>336.3333333333333</ele><time>2026-04-19T09:48:57Z</time></trkpt><trkpt lat="42.10367607941877" lon="11.920068030924345"><ele>336.6666666666667</ele><time>2026-04-19T09:49:00Z</time></trkpt><trkpt lat="42.10367322349473" lon="11.92016632235678"><ele>337.0</ele><time>2026-04-19T09:49:02Z</time></trkpt><trkpt lat="42.103668127199185" lon="11.920268218139098"><ele>337.33333333333337</ele><time>2026-04-19T09:49:04Z</time></trkpt><trkpt lat="42.103677299074114" lon="11.92037519760574"><ele>337.6666666666667</ele><time>2026-04-19T09:49:06Z</time></trkpt><trkpt lat="42.10366139534997" lon="11.92048529759543"><ele>338.0</ele><time>2026-04-19T09:49:08Z</time></trkpt><trkpt lat="42.10365723593496" lon="11.92058937933311"><ele>338.0</ele><time>2026-04-19T09:49:10Z</time></trkpt><trkpt lat="42.10365245803282" lon="11.920699276028364"><ele>338.0</ele><time>2026-04-19T09:49:12Z</time></trkpt><trkpt lat="42.10365329693723" lon="11.920811257737746"><ele>338.0</ele><time>2026-04-19T09:49:14Z</time></trkpt><trkpt lat="42.103671329204296" lon="11.920918990697272"><ele>338.0</ele><time>2026-04-19T09:49:16Z</time></trkpt><trkpt lat="42.10368584354833" lon="11.921023260149745"><ele>338.0</ele><time>2026-04-19T09:49:18Z</time></trkpt><trkpt lat="42.10368970708085" lon="11.921135538224918"><ele>338.0</ele><time>2026-04-19T09:49:20Z</time></trkpt><trkpt lat="42.10369935968026" lon="11.921237063841488"><ele>338.42857142857144</ele><time>2026-04-19T09:49:22Z</time></trkpt><trkpt lat="42.103709578619934" lon="11.921333557347157"><ele>338.85714285714283</ele><time>2026-04-19T09:49:24Z</time></trkpt><trkpt lat="42.10371204536447" lon="11.92142565972265"><ele>339.2857142857143</ele><time>2026-04-19T09:49:26Z</time></trkpt><trkpt lat="42.103723586697214" lon="11.921511284184659"><ele>339.7142857142857</ele><time>2026-04-19T09:49:28Z</time></trkpt><trkpt lat="42.103738068431795" lon="11.921605992071408"><ele>340.14285714285717</ele><time>2026-04-19T09:49:30Z</time></trkpt><trkpt lat="42.10374486953951" lon="11.921691878190735"><ele>340.57142857142856</ele><time>2026-04-19T09:49:32Z</time></trkpt><trkpt lat="42.103749630432624" lon="11.921817806050864"><ele>341.0</ele><time>2026-04-19T09:49:35Z</time></trkpt><trkpt lat="42.103752512883304" lon="11.921939136874148"><ele>341.5</ele><time>2026-04-19T09:49:38Z</time></trkpt><trkpt lat="42.10378102242786" lon="11.922052658690895"><ele>342.0</ele><time>2026-04-19T09:49:41Z</time></trkpt><trkpt lat="42.10378475789164" lon="11.92216707614545"><ele>342.5</ele><time>2026-04-19T09:49:44Z</time></trkpt><trkpt lat="42.1037964831585" lon="11.922270925557916"><ele>343.0</ele><time>2026-04-19T09:49:47Z</time></trkpt><trkpt lat="42.10381043852098" lon="11.92238296847473"><ele>343.5</ele><time>2026-04-19T09:49:50Z</time></trkpt><trkpt lat="42.103825525650976" lon="11.922495227867405"><ele>344.0</ele><time>2026-04-19T09:49:53Z</time></trkpt><trkpt lat="42.10384298303897" lon="11.92261230323815"><ele>344.0</ele><time>2026-04-19T09:49:56Z</time></trkpt><trkpt lat="42.103873862266916" lon="11.922721251009218"><ele>344.0</ele><time>2026-04-19T09:49:59Z</time></trkpt><trkpt lat="42.10387465410008" lon="11.922835128704449"><ele>344.0</ele><time>2026-04-19T09:50:02Z</time></trkpt><trkpt lat="42.10388944039781" lon="11.922950398568526"><ele>344.0</ele><time>2026-04-19T09:50:05Z</time></trkpt><trkpt lat="42.10390882955121" lon="11.923067648636842"><ele>344.0</ele><time>2026-04-19T09:50:08Z</time></trkpt><trkpt lat="42.10394107092689" lon="11.923180802377628"><ele>344.0</ele><time>2026-04-19T09:50:11Z</time></trkpt><trkpt lat="42.10395472182978" lon="11.923305374641886"><ele>344.0</ele><time>2026-04-19T09:50:14Z</time></trkpt><trkpt lat="42.10396911688939" lon="11.92338985058156"><ele>344.0</ele><time>2026-04-19T09:50:16Z</time></trkpt><trkpt lat="42.10396510708398" lon="11.923517527118685"><ele>344.0</ele><time>2026-04-19T09:50:19Z</time></trkpt><trkpt lat="42.10396254763732" lon="11.923604818254523"><ele>344.0</ele><time>2026-04-19T09:50:21Z</time></trkpt><trkpt lat="42.10397875225856" lon="11.923699020845964"><ele>344.0</ele><time>2026-04-19T09:50:23Z</time></trkpt><trkpt lat="42.10398631808112" lon="11.9238280469754"><ele>344.0</ele><time>2026-04-19T09:50:26Z</time></trkpt><trkpt lat="42.103999399779894" lon="11.923915225235437"><ele>344.1666666666667</ele><time>2026-04-19T09:50:28Z</time></trkpt><trkpt lat="42.103992422705936" lon="11.924031374410006"><ele>344.33333333333337</ele><time>2026-04-19T09:50:31Z</time></trkpt><trkpt lat="42.103989002533005" lon="11.924116343888969"><ele>344.5</ele><time>2026-04-19T09:50:33Z</time></trkpt><trkpt lat="42.10398601096856" lon="11.924244026341235"><ele>344.6666666666667</ele><time>2026-04-19T09:50:36Z</time></trkpt><trkpt lat="42.10397866044384" lon="11.92437079535306"><ele>344.8333333333333</ele><time>2026-04-19T09:50:39Z</time></trkpt><trkpt lat="42.103980478299526" lon="11.924468587500142"><ele>345.0</ele><time>2026-04-19T09:50:41Z</time></trkpt><trkpt lat="42.10398825657753" lon="11.92456586044168"><ele>345.4</ele><time>2026-04-19T09:50:43Z</time></trkpt><trkpt lat="42.10399017916862" lon="11.924681558522682"><ele>345.8</ele><time>2026-04-19T09:50:45Z</time></trkpt><trkpt lat="42.10401330158706" lon="11.924800807407081"><ele>346.20000000000005</ele><time>2026-04-19T09:50:47Z</time></trkpt><trkpt lat="42.104025132073765" lon="11.924918113098057"><ele>346.6</ele><time>2026-04-19T09:50:49Z</time></trkpt><trkpt lat="42.104039403677085" lon="11.925038161323148"><ele>347.0</ele><time>2026-04-19T09:50:51Z</time></trkpt><trkpt lat="42.104039687162796" lon="11.925169147912674"><ele>347.20000000000005</ele><time>2026-04-19T09:50:53Z</time></trkpt><trkpt lat="42.10403432284367" lon="11.925370995871093"><ele>347.4</ele><time>2026-04-19T09:50:56Z</time></trkpt><trkpt lat="42.10403646858067" lon="11.925507315908094"><ele>347.6</ele><time>2026-04-19T09:50:58Z</time></trkpt><trkpt lat="42.104044160947026" lon="11.925630741681417"><ele>347.79999999999995</ele><time>2026-04-19T09:51:00Z</time></trkpt><trkpt lat="42.104041497217615" lon="11.92575230269868"><ele>348.0</ele><time>2026-04-19T09:51:02Z</time></trkpt><trkpt lat="42.10404937956402" lon="11.92587733596383"><ele>348.0</ele><time>2026-04-19T09:51:04Z</time></trkpt><trkpt lat="42.104061630659814" lon="11.926000176427191"><ele>348.0</ele><time>2026-04-19T09:51:06Z</time></trkpt><trkpt lat="42.10406744791914" lon="11.926126505442106"><ele>348.0</ele><time>2026-04-19T09:51:08Z</time></trkpt><trkpt lat="42.10406408632587" lon="11.926254638571134"><ele>348.0</ele><time>2026-04-19T09:51:10Z</time></trkpt><trkpt lat="42.10406935771249" lon="11.926383720431657"><ele>348.0</ele><time>2026-04-19T09:51:12Z</time></trkpt><trkpt lat="42.10407528583595" lon="11.92651324134556"><ele>350.59999999999997</ele><time>2026-04-19T09:51:14Z</time></trkpt><trkpt lat="42.10408881919695" lon="11.92664208953078"><ele>353.2</ele><time>2026-04-19T09:51:16Z</time></trkpt><trkpt lat="42.104097843700835" lon="11.926771704424056"><ele>355.8</ele><time>2026-04-19T09:51:18Z</time></trkpt><trkpt lat="42.10409960439395" lon="11.926895631837567"><ele>358.4</ele><time>2026-04-19T09:51:20Z</time></trkpt><trkpt lat="42.104106463806694" lon="11.927021094256231"><ele>361.0</ele><time>2026-04-19T09:51:22Z</time></trkpt><trkpt lat="42.10411904343929" lon="11.927145464943566"><ele>361.0</ele><time>2026-04-19T09:51:24Z</time></trkpt><trkpt lat="42.10414653058297" lon="11.9272683936139"><ele>361.0</ele><time>2026-04-19T09:51:26Z</time></trkpt><trkpt lat="42.10418159067698" lon="11.927394704008242"><ele>361.0</ele><time>2026-04-19T09:51:28Z</time></trkpt><trkpt lat="42.10420834476929" lon="11.927516725509959"><ele>361.0</ele><time>2026-04-19T09:51:30Z</time></trkpt><trkpt lat="42.104245181459575" lon="11.92764016528802"><ele>361.0</ele><time>2026-04-19T09:51:32Z</time></trkpt><trkpt lat="42.10429282970545" lon="11.927746450320374"><ele>360.5</ele><time>2026-04-19T09:51:34Z</time></trkpt><trkpt lat="42.104316101139744" lon="11.927864059742728"><ele>360.0</ele><time>2026-04-19T09:51:36Z</time></trkpt><trkpt lat="42.10434110796293" lon="11.927966043034399"><ele>359.5</ele><time>2026-04-19T09:51:38Z</time></trkpt><trkpt lat="42.10438382415937" lon="11.928060477237118"><ele>359.0</ele><time>2026-04-19T09:51:40Z</time></trkpt><trkpt lat="42.104418096241965" lon="11.928155230285789"><ele>358.5</ele><time>2026-04-19T09:51:42Z</time></trkpt><trkpt lat="42.10443788051146" lon="11.928266598240354"><ele>358.0</ele><time>2026-04-19T09:51:44Z</time></trkpt><trkpt lat="42.10446651943157" lon="11.928373817059423"><ele>358.5714285714286</ele><time>2026-04-19T09:51:46Z</time></trkpt><trkpt lat="42.104491197367935" lon="11.92847367917383"><ele>359.14285714285717</ele><time>2026-04-19T09:51:48Z</time></trkpt><trkpt lat="42.10451591924076" lon="11.928567640639006"><ele>359.7142857142857</ele><time>2026-04-19T09:51:50Z</time></trkpt><trkpt lat="42.10453662301812" lon="11.928653295777828"><ele>360.28571428571433</ele><time>2026-04-19T09:51:52Z</time></trkpt><trkpt lat="42.10457610404576" lon="11.928766195783625"><ele>360.85714285714283</ele><time>2026-04-19T09:51:55Z</time></trkpt><trkpt lat="42.10459444037517" lon="11.928856122399258"><ele>361.42857142857144</ele><time>2026-04-19T09:51:57Z</time></trkpt><trkpt lat="42.104619147317536" lon="11.928935256044593"><ele>362.0</ele><time>2026-04-19T09:51:59Z</time></trkpt><trkpt lat="42.10465195146503" lon="11.929041389474206"><ele>362.0</ele><time>2026-04-19T09:52:02Z</time></trkpt><trkpt lat="42.10466338712247" lon="11.92914883481535"><ele>362.0</ele><time>2026-04-19T09:52:05Z</time></trkpt><trkpt lat="42.1046511171154" lon="11.929245562994318"><ele>362.0</ele><time>2026-04-19T09:52:08Z</time></trkpt><trkpt lat="42.104637991773735" lon="11.929349420075884"><ele>362.0</ele><time>2026-04-19T09:52:11Z</time></trkpt><trkpt lat="42.10461804862927" lon="11.929452913224269"><ele>362.0</ele><time>2026-04-19T09:52:14Z</time></trkpt><trkpt lat="42.104606799757626" lon="11.92955805607345"><ele>362.0</ele><time>2026-04-19T09:52:17Z</time></trkpt><trkpt lat="42.10460174401925" lon="11.929666977021636"><ele>363.5</ele><time>2026-04-19T09:52:20Z</time></trkpt><trkpt lat="42.10456096141799" lon="11.929770215155857"><ele>365.0</ele><time>2026-04-19T09:52:23Z</time></trkpt><trkpt lat="42.10451783677598" lon="11.929844670505908"><ele>366.5</ele><time>2026-04-19T09:52:25Z</time></trkpt><trkpt lat="42.10447154571382" lon="11.929927391924682"><ele>368.0</ele><time>2026-04-19T09:52:27Z</time></trkpt><trkpt lat="42.10441514607573" lon="11.92999507835286"><ele>369.5</ele><time>2026-04-19T09:52:29Z</time></trkpt><trkpt lat="42.104363571003624" lon="11.930064381061664"><ele>371.0</ele><time>2026-04-19T09:52:31Z</time></trkpt><trkpt lat="42.10432473144477" lon="11.930142947829813"><ele>371.6666666666667</ele><time>2026-04-19T09:52:33Z</time></trkpt><trkpt lat="42.104282100809016" lon="11.930223503197707"><ele>372.33333333333337</ele><time>2026-04-19T09:52:35Z</time></trkpt><trkpt lat="42.10423800442657" lon="11.930288921485754"><ele>373.0</ele><time>2026-04-19T09:52:37Z</time></trkpt><trkpt lat="42.10417641615102" lon="11.930383144345853"><ele>373.6666666666667</ele><time>2026-04-19T09:52:40Z</time></trkpt><trkpt lat="42.10412982482508" lon="11.93045637063656"><ele>374.3333333333333</ele><time>2026-04-19T09:52:43Z</time></trkpt><trkpt lat="42.10408259880016" lon="11.930543467349922"><ele>375.0</ele><time>2026-04-19T09:52:45Z</time></trkpt><trkpt lat="42.10404576126721" lon="11.930631505994414"><ele>375.6</ele><time>2026-04-19T09:52:48Z</time></trkpt><trkpt lat="42.10407058432369" lon="11.930744746100453"><ele>376.2</ele><time>2026-04-19T09:52:50Z</time></trkpt><trkpt lat="42.10407487851097" lon="11.930866372221262"><ele>376.79999999999995</ele><time>2026-04-19T09:52:52Z</time></trkpt><trkpt lat="42.10410264848246" lon="11.931009910078286"><ele>377.4</ele><time>2026-04-19T09:52:54Z</time></trkpt><trkpt lat="42.104182222983596" lon="11.931032291764243"><ele>378.0</ele><time>2026-04-19T09:52:55Z</time></trkpt><trkpt lat="42.10418697890899" lon="11.931152969377582"><ele>376.3333333333333</ele><time>2026-04-19T09:52:56Z</time></trkpt><trkpt lat="42.10422741903995" lon="11.931263722710455"><ele>374.6666666666667</ele><time>2026-04-19T09:52:57Z</time></trkpt><trkpt lat="42.104288537778785" lon="11.931310381139422"><ele>373.0</ele><time>2026-04-19T09:52:58Z</time></trkpt><trkpt lat="42.10432776105739" lon="11.931424935581106"><ele>371.33333333333337</ele><time>2026-04-19T09:52:59Z</time></trkpt><trkpt lat="42.10440830683468" lon="11.93141550638314"><ele>369.6666666666667</ele><time>2026-04-19T09:53:00Z</time></trkpt><trkpt lat="42.104476136349845" lon="11.931491181154405"><ele>368.0</ele><time>2026-04-19T09:53:01Z</time></trkpt><trkpt lat="42.10455051342649" lon="11.931573492424985"><ele>368.0</ele><time>2026-04-19T09:53:02Z</time></trkpt><trkpt lat="42.1046237826239" lon="11.93165338832683"><ele>368.0</ele><time>2026-04-19T09:53:03Z</time></trkpt><trkpt lat="42.104700974039105" lon="11.931739731692536"><ele>368.0</ele><time>2026-04-19T09:53:04Z</time></trkpt><trkpt lat="42.1047788148292" lon="11.931814562288386"><ele>368.0</ele><time>2026-04-19T09:53:05Z</time></trkpt><trkpt lat="42.104852226312644" lon="11.931897291050074"><ele>368.0</ele><time>2026-04-19T09:53:06Z</time></trkpt><trkpt lat="42.1049336365505" lon="11.931976243787213"><ele>366.79999999999995</ele><time>2026-04-19T09:53:07Z</time></trkpt><trkpt lat="42.10502651227422" lon="11.932032310161114"><ele>365.6</ele><time>2026-04-19T09:53:08Z</time></trkpt><trkpt lat="42.10511740667668" lon="11.932074687568496"><ele>364.4</ele><time>2026-04-19T09:53:09Z</time></trkpt><trkpt lat="42.10521399253678" lon="11.932099301662916"><ele>363.20000000000005</ele><time>2026-04-19T09:53:10Z</time></trkpt><trkpt lat="42.10531051518816" lon="11.932102248620739"><ele>362.0</ele><time>2026-04-19T09:53:11Z</time></trkpt><trkpt lat="42.1053997021023" lon="11.932106747892893"><ele>362.0</ele><time>2026-04-19T09:53:12Z</time></trkpt><trkpt lat="42.1054977018609" lon="11.932108477791628"><ele>362.0</ele><time>2026-04-19T09:53:13Z</time></trkpt><trkpt lat="42.1055957993586" lon="11.932111677784983"><ele>362.0</ele><time>2026-04-19T09:53:14Z</time></trkpt><trkpt lat="42.10570170352103" lon="11.932109841327108"><ele>362.0</ele><time>2026-04-19T09:53:15Z</time></trkpt><trkpt lat="42.105811975228406" lon="11.932115660259036"><ele>362.0</ele><time>2026-04-19T09:53:16Z</time></trkpt><trkpt lat="42.10592635030683" lon="11.932113267928239"><ele>360.25</ele><time>2026-04-19T09:53:17Z</time></trkpt><trkpt lat="42.10604106925485" lon="11.932121504381136"><ele>358.5</ele><time>2026-04-19T09:53:18Z</time></trkpt><trkpt lat="42.10615648469965" lon="11.932121735294738"><ele>356.75</ele><time>2026-04-19T09:53:19Z</time></trkpt><trkpt lat="42.10627701615568" lon="11.932113340799578"><ele>355.0</ele><time>2026-04-19T09:53:20Z</time></trkpt><trkpt lat="42.10639749234876" lon="11.93210825229914"><ele>355.0</ele><time>2026-04-19T09:53:21Z</time></trkpt><trkpt lat="42.10650513602337" lon="11.932115013564008"><ele>355.0</ele><time>2026-04-19T09:53:22Z</time></trkpt><trkpt lat="42.10660840728105" lon="11.932127721972856"><ele>355.0</ele><time>2026-04-19T09:53:23Z</time></trkpt><trkpt lat="42.10670184426779" lon="11.93213809145781"><ele>355.0</ele><time>2026-04-19T09:53:24Z</time></trkpt><trkpt lat="42.10679009774413" lon="11.932139913240164"><ele>355.0</ele><time>2026-04-19T09:53:25Z</time></trkpt><trkpt lat="42.106872420753604" lon="11.932173243434914"><ele>354.5</ele><time>2026-04-19T09:53:26Z</time></trkpt><trkpt lat="42.10694884157224" lon="11.932202087335554"><ele>354.0</ele><time>2026-04-19T09:53:27Z</time></trkpt><trkpt lat="42.10702118482276" lon="11.932232229540464"><ele>353.5</ele><time>2026-04-19T09:53:28Z</time></trkpt><trkpt lat="42.10708613943002" lon="11.932265632627884"><ele>353.0</ele><time>2026-04-19T09:53:29Z</time></trkpt><trkpt lat="42.107145076037575" lon="11.93229957887124"><ele>352.5</ele><time>2026-04-19T09:53:30Z</time></trkpt><trkpt lat="42.1072418685216" lon="11.932365517489766"><ele>352.0</ele><time>2026-04-19T09:53:32Z</time></trkpt><trkpt lat="42.10730965778034" lon="11.93241744926085"><ele>352.0</ele><time>2026-04-19T09:53:34Z</time></trkpt><trkpt lat="42.107377869196704" lon="11.932471576873928"><ele>352.0</ele><time>2026-04-19T09:53:36Z</time></trkpt><trkpt lat="42.10744138605536" lon="11.932516213833054"><ele>352.0</ele><time>2026-04-19T09:53:38Z</time></trkpt><trkpt lat="42.10750399472308" lon="11.932531748070156"><ele>352.0</ele><time>2026-04-19T09:53:40Z</time></trkpt><trkpt lat="42.10756451696209" lon="11.932578756408882"><ele>352.0</ele><time>2026-04-19T09:53:42Z</time></trkpt><trkpt lat="42.10764218115199" lon="11.932646009714702"><ele>352.0</ele><time>2026-04-19T09:53:45Z</time></trkpt><trkpt lat="42.107715841542806" lon="11.932696806743667"><ele>353.0</ele><time>2026-04-19T09:53:48Z</time></trkpt><trkpt lat="42.1077885763059" lon="11.932747262151198"><ele>354.0</ele><time>2026-04-19T09:53:51Z</time></trkpt><trkpt lat="42.10785965125337" lon="11.932796566154328"><ele>355.0</ele><time>2026-04-19T09:53:54Z</time></trkpt><trkpt lat="42.107929214548584" lon="11.932844341529576"><ele>356.0</ele><time>2026-04-19T09:53:57Z</time></trkpt><trkpt lat="42.10801577383971" lon="11.932849923611908"><ele>357.0</ele><time>2026-04-19T09:54:00Z</time></trkpt><trkpt lat="42.1080991977994" lon="11.932905999219503"><ele>358.0</ele><time>2026-04-19T09:54:03Z</time></trkpt><trkpt lat="42.10816527326333" lon="11.932905747224094"><ele>358.0</ele><time>2026-04-19T09:54:05Z</time></trkpt><trkpt lat="42.108233380165714" lon="11.932909915541734"><ele>358.0</ele><time>2026-04-19T09:54:07Z</time></trkpt><trkpt lat="42.108306659350625" lon="11.932918614411777"><ele>358.0</ele><time>2026-04-19T09:54:09Z</time></trkpt><trkpt lat="42.10837734339517" lon="11.932916922739262"><ele>358.0</ele><time>2026-04-19T09:54:11Z</time></trkpt><trkpt lat="42.10846413175569" lon="11.932892339438597"><ele>358.0</ele><time>2026-04-19T09:54:14Z</time></trkpt><trkpt lat="42.10854782361362" lon="11.932848017322721"><ele>358.0</ele><time>2026-04-19T09:54:17Z</time></trkpt><trkpt lat="42.10862899721352" lon="11.93279855203889"><ele>360.0</ele><time>2026-04-19T09:54:20Z</time></trkpt><trkpt lat="42.10870813682333" lon="11.932747656303308"><ele>362.0</ele><time>2026-04-19T09:54:23Z</time></trkpt><trkpt lat="42.10878291188732" lon="11.932680617562868"><ele>364.0</ele><time>2026-04-19T09:54:26Z</time></trkpt><trkpt lat="42.10883830453218" lon="11.932636398130917"><ele>366.0</ele><time>2026-04-19T09:54:28Z</time></trkpt><trkpt lat="42.10891125594874" lon="11.932569012577531"><ele>368.0</ele><time>2026-04-19T09:54:31Z</time></trkpt><trkpt lat="42.108991805404806" lon="11.93250411532607"><ele>370.0</ele><time>2026-04-19T09:54:34Z</time></trkpt><trkpt lat="42.10907504134742" lon="11.932452661859344"><ele>372.3333333333333</ele><time>2026-04-19T09:54:37Z</time></trkpt><trkpt lat="42.10915525705551" lon="11.93240555017"><ele>374.66666666666663</ele><time>2026-04-19T09:54:40Z</time></trkpt><trkpt lat="42.10921867687012" lon="11.93236801698831"><ele>377.0</ele><time>2026-04-19T09:54:42Z</time></trkpt><trkpt lat="42.109294481657926" lon="11.932311134485927"><ele>379.3333333333333</ele><time>2026-04-19T09:54:45Z</time></trkpt><trkpt lat="42.10937925733227" lon="11.93225876502967"><ele>381.6666666666667</ele><time>2026-04-19T09:54:48Z</time></trkpt><trkpt lat="42.10943776959742" lon="11.93221710616109"><ele>384.0</ele><time>2026-04-19T09:54:50Z</time></trkpt><trkpt lat="42.10950515920351" lon="11.932135121182599"><ele>384.0</ele><time>2026-04-19T09:54:53Z</time></trkpt><trkpt lat="42.10955649458588" lon="11.932085512945871"><ele>384.0</ele><time>2026-04-19T09:54:55Z</time></trkpt><trkpt lat="42.109638714851094" lon="11.932044757057808"><ele>384.0</ele><time>2026-04-19T09:54:58Z</time></trkpt><trkpt lat="42.10971324781759" lon="11.931983974030183"><ele>384.0</ele><time>2026-04-19T09:55:01Z</time></trkpt><trkpt lat="42.10979185168211" lon="11.93192406876385"><ele>384.0</ele><time>2026-04-19T09:55:04Z</time></trkpt><trkpt lat="42.10987613236701" lon="11.931872960769363"><ele>384.0</ele><time>2026-04-19T09:55:07Z</time></trkpt><trkpt lat="42.109962395153715" lon="11.931822196695082"><ele>385.0</ele><time>2026-04-19T09:55:10Z</time></trkpt><trkpt lat="42.11002495853863" lon="11.93180679071355"><ele>386.0</ele><time>2026-04-19T09:55:12Z</time></trkpt><trkpt lat="42.11011357973903" lon="11.931778139155716"><ele>387.0</ele><time>2026-04-19T09:55:15Z</time></trkpt><trkpt lat="42.11019236195963" lon="11.931762600741989"><ele>388.0</ele><time>2026-04-19T09:55:18Z</time></trkpt><trkpt lat="42.110271737165924" lon="11.9317548719846"><ele>389.0</ele><time>2026-04-19T09:55:21Z</time></trkpt><trkpt lat="42.110347141509855" lon="11.931725916726709"><ele>390.0</ele><time>2026-04-19T09:55:24Z</time></trkpt><trkpt lat="42.11042037738868" lon="11.931712628082522"><ele>390.85714285714283</ele><time>2026-04-19T09:55:27Z</time></trkpt><trkpt lat="42.11049884367794" lon="11.931700102646728"><ele>391.71428571428567</ele><time>2026-04-19T09:55:30Z</time></trkpt><trkpt lat="42.11057297473011" lon="11.931673442660216"><ele>392.57142857142856</ele><time>2026-04-19T09:55:33Z</time></trkpt><trkpt lat="42.11063835650104" lon="11.93166969552825"><ele>393.42857142857144</ele><time>2026-04-19T09:55:36Z</time></trkpt><trkpt lat="42.11069956877112" lon="11.93164558906988"><ele>394.2857142857143</ele><time>2026-04-19T09:55:39Z</time></trkpt><trkpt lat="42.11077348347804" lon="11.931641498733937"><ele>395.14285714285717</ele><time>2026-04-19T09:55:42Z</time></trkpt><trkpt lat="42.11084094758559" lon="11.931640459168309"><ele>396.0</ele><time>2026-04-19T09:55:45Z</time></trkpt><trkpt lat="42.11091179938663" lon="11.931628054951068"><ele>396.8333333333333</ele><time>2026-04-19T09:55:48Z</time></trkpt><trkpt lat="42.11098204229991" lon="11.931614887179913"><ele>397.66666666666663</ele><time>2026-04-19T09:55:51Z</time></trkpt><trkpt lat="42.111053411322715" lon="11.931637254440192"><ele>398.5</ele><time>2026-04-19T09:55:54Z</time></trkpt><trkpt lat="42.11110925045188" lon="11.931702979159816"><ele>399.3333333333333</ele><time>2026-04-19T09:55:57Z</time></trkpt><trkpt lat="42.11116147557228" lon="11.931787768135978"><ele>400.16666666666663</ele><time>2026-04-19T09:56:00Z</time></trkpt><trkpt lat="42.11121205197527" lon="11.931876904400715"><ele>401.0</ele><time>2026-04-19T09:56:03Z</time></trkpt><trkpt lat="42.111264615230226" lon="11.931964857107694"><ele>400.99999999999994</ele><time>2026-04-19T09:56:06Z</time></trkpt><trkpt lat="42.11131224814251" lon="11.932059569837302"><ele>401.0</ele><time>2026-04-19T09:56:09Z</time></trkpt><trkpt lat="42.1113622421364" lon="11.932147745978257"><ele>401.0</ele><time>2026-04-19T09:56:12Z</time></trkpt><trkpt lat="42.11141104752378" lon="11.932240998058042"><ele>401.0</ele><time>2026-04-19T09:56:15Z</time></trkpt><trkpt lat="42.11146153018619" lon="11.93232383158474"><ele>400.99999999999994</ele><time>2026-04-19T09:56:18Z</time></trkpt><trkpt lat="42.11150790380227" lon="11.932410052861984"><ele>401.0</ele><time>2026-04-19T09:56:21Z</time></trkpt><trkpt lat="42.111582911596486" lon="11.932468615246306"><ele>403.0</ele><time>2026-04-19T09:56:24Z</time></trkpt><trkpt lat="42.11165778089723" lon="11.932511377621204"><ele>405.0</ele><time>2026-04-19T09:56:27Z</time></trkpt><trkpt lat="42.11173439063361" lon="11.932519123332284"><ele>407.0</ele><time>2026-04-19T09:56:30Z</time></trkpt><trkpt lat="42.111806383257445" lon="11.9324905956162"><ele>409.0</ele><time>2026-04-19T09:56:33Z</time></trkpt><trkpt lat="42.11187025368047" lon="11.932451439109569"><ele>411.0</ele><time>2026-04-19T09:56:36Z</time></trkpt><trkpt lat="42.11192887223674" lon="11.932411134778908"><ele>413.0</ele><time>2026-04-19T09:56:39Z</time></trkpt><trkpt lat="42.11198924847283" lon="11.93237138608253"><ele>415.0</ele><time>2026-04-19T09:56:42Z</time></trkpt><trkpt lat="42.11204863394327" lon="11.93233567909681"><ele>415.0</ele><time>2026-04-19T09:56:45Z</time></trkpt><trkpt lat="42.11210810971779" lon="11.932294585277106"><ele>415.0</ele><time>2026-04-19T09:56:48Z</time></trkpt><trkpt lat="42.11217512149627" lon="11.932253774950695"><ele>415.0</ele><time>2026-04-19T09:56:51Z</time></trkpt><trkpt lat="42.112242615108705" lon="11.932205624943906"><ele>415.0</ele><time>2026-04-19T09:56:54Z</time></trkpt><trkpt lat="42.11230965051354" lon="11.932162689840798"><ele>415.0</ele><time>2026-04-19T09:56:57Z</time></trkpt><trkpt lat="42.11237607966709" lon="11.932125668465252"><ele>415.0</ele><time>2026-04-19T09:57:00Z</time></trkpt><trkpt lat="42.1124448993131" lon="11.932107177801047"><ele>415.0</ele><time>2026-04-19T09:57:03Z</time></trkpt><trkpt lat="42.11251428459115" lon="11.932130469071469"><ele>416.7142857142857</ele><time>2026-04-19T09:57:06Z</time></trkpt><trkpt lat="42.11258456840403" lon="11.932164094719212"><ele>418.42857142857144</ele><time>2026-04-19T09:57:09Z</time></trkpt><trkpt lat="42.1126493392774" lon="11.932205752253925"><ele>420.1428571428571</ele><time>2026-04-19T09:57:12Z</time></trkpt><trkpt lat="42.112713936815126" lon="11.932241883464924"><ele>421.8571428571429</ele><time>2026-04-19T09:57:15Z</time></trkpt><trkpt lat="42.11276686489941" lon="11.932293661620369"><ele>423.57142857142856</ele><time>2026-04-19T09:57:18Z</time></trkpt><trkpt lat="42.11282593133142" lon="11.932345907151676"><ele>425.2857142857143</ele><time>2026-04-19T09:57:21Z</time></trkpt><trkpt lat="42.11287718070443" lon="11.932400241004729"><ele>427.0</ele><time>2026-04-19T09:57:24Z</time></trkpt><trkpt lat="42.1129431188562" lon="11.93246420243384"><ele>427.00000000000006</ele><time>2026-04-19T09:57:28Z</time></trkpt><trkpt lat="42.11296796623318" lon="11.932548831851927"><ele>427.0</ele><time>2026-04-19T09:57:31Z</time></trkpt><trkpt lat="42.112947960669835" lon="11.932666851163717"><ele>427.0</ele><time>2026-04-19T09:57:34Z</time></trkpt><trkpt lat="42.11292261700308" lon="11.93278007294272"><ele>427.0</ele><time>2026-04-19T09:57:36Z</time></trkpt><trkpt lat="42.1128887629872" lon="11.93289579759835"><ele>427.00000000000006</ele><time>2026-04-19T09:57:38Z</time></trkpt><trkpt lat="42.11290218863566" lon="11.93301574223402"><ele>427.0</ele><time>2026-04-19T09:57:40Z</time></trkpt><trkpt lat="42.112882619548216" lon="11.933113064639386"><ele>426.57142857142856</ele><time>2026-04-19T09:57:41Z</time></trkpt><trkpt lat="42.112852321641725" lon="11.933188364415729"><ele>426.1428571428571</ele><time>2026-04-19T09:57:42Z</time></trkpt><trkpt lat="42.112825821979285" lon="11.933272756796327"><ele>425.7142857142857</ele><time>2026-04-19T09:57:43Z</time></trkpt><trkpt lat="42.11282082740148" lon="11.933362443016806"><ele>425.2857142857143</ele><time>2026-04-19T09:57:44Z</time></trkpt><trkpt lat="42.112799900678844" lon="11.933465567792593"><ele>424.85714285714283</ele><time>2026-04-19T09:57:45Z</time></trkpt><trkpt lat="42.11277730569776" lon="11.933568665902413"><ele>424.42857142857144</ele><time>2026-04-19T09:57:46Z</time></trkpt><trkpt lat="42.11275597479289" lon="11.933677222959775"><ele>424.0</ele><time>2026-04-19T09:57:47Z</time></trkpt><trkpt lat="42.11273038417265" lon="11.933784021694182"><ele>424.00000000000006</ele><time>2026-04-19T09:57:48Z</time></trkpt><trkpt lat="42.112708920221756" lon="11.933894671068733"><ele>424.0</ele><time>2026-04-19T09:57:49Z</time></trkpt><trkpt lat="42.112685705002846" lon="11.934007608179192"><ele>424.0</ele><time>2026-04-19T09:57:50Z</time></trkpt><trkpt lat="42.11265739010668" lon="11.934129674029192"><ele>424.0</ele><time>2026-04-19T09:57:51Z</time></trkpt><trkpt lat="42.1126270900293" lon="11.934250247113907"><ele>424.00000000000006</ele><time>2026-04-19T09:57:52Z</time></trkpt><trkpt lat="42.11259820543048" lon="11.934361421450081"><ele>424.0</ele><time>2026-04-19T09:57:53Z</time></trkpt><trkpt lat="42.11256650012073" lon="11.934467754401705"><ele>423.1666666666667</ele><time>2026-04-19T09:57:54Z</time></trkpt><trkpt lat="42.11254336813672" lon="11.93457089307099"><ele>422.33333333333337</ele><time>2026-04-19T09:57:55Z</time></trkpt><trkpt lat="42.11252834152242" lon="11.934674125751735"><ele>421.5</ele><time>2026-04-19T09:57:56Z</time></trkpt><trkpt lat="42.112524249223036" lon="11.934780972307541"><ele>420.66666666666663</ele><time>2026-04-19T09:57:57Z</time></trkpt><trkpt lat="42.11251470700216" lon="11.934894012901905"><ele>419.8333333333333</ele><time>2026-04-19T09:57:58Z</time></trkpt><trkpt lat="42.112495546626434" lon="11.935007914883714"><ele>419.0</ele><time>2026-04-19T09:57:59Z</time></trkpt><trkpt lat="42.1124780622999" lon="11.935133706678693"><ele>418.0</ele><time>2026-04-19T09:58:00Z</time></trkpt><trkpt lat="42.11245803896285" lon="11.93526652210257"><ele>417.0</ele><time>2026-04-19T09:58:01Z</time></trkpt><trkpt lat="42.11242524171883" lon="11.935397006670927"><ele>416.0</ele><time>2026-04-19T09:58:02Z</time></trkpt><trkpt lat="42.11240111529093" lon="11.935531886598987"><ele>415.0</ele><time>2026-04-19T09:58:03Z</time></trkpt><trkpt lat="42.112377107877876" lon="11.935668474185986"><ele>414.0</ele><time>2026-04-19T09:58:04Z</time></trkpt><trkpt lat="42.11235270419719" lon="11.935811835891256"><ele>411.2</ele><time>2026-04-19T09:58:05Z</time></trkpt><trkpt lat="42.11232882212438" lon="11.935957069407984"><ele>408.4</ele><time>2026-04-19T09:58:06Z</time></trkpt><trkpt lat="42.112306798253165" lon="11.936103675387434"><ele>405.6</ele><time>2026-04-19T09:58:07Z</time></trkpt><trkpt lat="42.1122845689797" lon="11.93625164862374"><ele>402.8</ele><time>2026-04-19T09:58:08Z</time></trkpt><trkpt lat="42.11227723617971" lon="11.936406721352062"><ele>400.0</ele><time>2026-04-19T09:58:09Z</time></trkpt><trkpt lat="42.112251353246215" lon="11.936553037491374"><ele>400.0</ele><time>2026-04-19T09:58:10Z</time></trkpt><trkpt lat="42.11222966361273" lon="11.936700060478893"><ele>400.0</ele><time>2026-04-19T09:58:11Z</time></trkpt><trkpt lat="42.11219543379677" lon="11.936829868289601"><ele>400.0</ele><time>2026-04-19T09:58:12Z</time></trkpt><trkpt lat="42.1121763298129" lon="11.93695392901467"><ele>400.0</ele><time>2026-04-19T09:58:13Z</time></trkpt><trkpt lat="42.1121360701711" lon="11.937057696005553"><ele>400.0</ele><time>2026-04-19T09:58:14Z</time></trkpt><trkpt lat="42.1121211116253" lon="11.937147838202188"><ele>399.8</ele><time>2026-04-19T09:58:15Z</time></trkpt><trkpt lat="42.11209845906901" lon="11.937314206740496"><ele>399.6</ele><time>2026-04-19T09:58:16Z</time></trkpt><trkpt lat="42.11212730729291" lon="11.93742695539033"><ele>399.4</ele><time>2026-04-19T09:58:17Z</time></trkpt><trkpt lat="42.11214057853499" lon="11.937522975960908"><ele>399.2</ele><time>2026-04-19T09:58:18Z</time></trkpt><trkpt lat="42.11215513420512" lon="11.93762605608243"><ele>399.0</ele><time>2026-04-19T09:58:19Z</time></trkpt><trkpt lat="42.11216749817027" lon="11.937786188504402"><ele>398.6</ele><time>2026-04-19T09:58:21Z</time></trkpt><trkpt lat="42.11219825574491" lon="11.937965130164464"><ele>398.2</ele><time>2026-04-19T09:58:23Z</time></trkpt><trkpt lat="42.11223013950623" lon="11.93807583274764"><ele>397.8</ele><time>2026-04-19T09:58:25Z</time></trkpt><trkpt lat="42.11224608897858" lon="11.938199224078911"><ele>397.40000000000003</ele><time>2026-04-19T09:58:28Z</time></trkpt><trkpt lat="42.11225892618475" lon="11.938305432201867"><ele>397.0</ele><time>2026-04-19T09:58:30Z</time></trkpt><trkpt lat="42.112266080566094" lon="11.938412256901394"><ele>396.8</ele><time>2026-04-19T09:58:32Z</time></trkpt><trkpt lat="42.112282049131366" lon="11.938522436257873"><ele>396.6</ele><time>2026-04-19T09:58:34Z</time></trkpt><trkpt lat="42.11229693865364" lon="11.93862517029968"><ele>396.40000000000003</ele><time>2026-04-19T09:58:36Z</time></trkpt><trkpt lat="42.11231316464345" lon="11.938737125639143"><ele>396.20000000000005</ele><time>2026-04-19T09:58:39Z</time></trkpt><trkpt lat="42.11248351771671" lon="11.938727767906657"><ele>396.0</ele><time>2026-04-19T09:58:40Z</time></trkpt><trkpt lat="42.112543061486846" lon="11.938783923913762"><ele>396.8</ele><time>2026-04-19T09:58:42Z</time></trkpt><trkpt lat="42.11261131970082" lon="11.938828915735067"><ele>397.6</ele><time>2026-04-19T09:58:44Z</time></trkpt><trkpt lat="42.11268731467229" lon="11.938885385216908"><ele>398.4</ele><time>2026-04-19T09:58:46Z</time></trkpt><trkpt lat="42.11277248215439" lon="11.938948367340823"><ele>399.2</ele><time>2026-04-19T09:58:48Z</time></trkpt><trkpt lat="42.112871701324146" lon="11.939007612296962"><ele>400.0</ele><time>2026-04-19T09:58:50Z</time></trkpt><trkpt lat="42.112974361770924" lon="11.939073630767913"><ele>400.0</ele><time>2026-04-19T09:58:52Z</time></trkpt><trkpt lat="42.113067891683265" lon="11.939145666146741"><ele>400.0</ele><time>2026-04-19T09:58:54Z</time></trkpt><trkpt lat="42.11316601350063" lon="11.93921497623436"><ele>400.0</ele><time>2026-04-19T09:58:56Z</time></trkpt><trkpt lat="42.11325394420796" lon="11.939284890050514"><ele>400.0</ele><time>2026-04-19T09:58:58Z</time></trkpt><trkpt lat="42.11335411287148" lon="11.939357365784439"><ele>400.0</ele><time>2026-04-19T09:59:00Z</time></trkpt><trkpt lat="42.11346429491701" lon="11.939435061474668"><ele>399.2</ele><time>2026-04-19T09:59:02Z</time></trkpt><trkpt lat="42.11358239219865" lon="11.939464402991874"><ele>398.4</ele><time>2026-04-19T09:59:04Z</time></trkpt><trkpt lat="42.11369201561284" lon="11.939459631406406"><ele>397.6</ele><time>2026-04-19T09:59:06Z</time></trkpt><trkpt lat="42.1138005087907" lon="11.939450774680186"><ele>396.8</ele><time>2026-04-19T09:59:08Z</time></trkpt><trkpt lat="42.1138864215762" lon="11.939514181015683"><ele>396.0</ele><time>2026-04-19T09:59:10Z</time></trkpt><trkpt lat="42.113935298413054" lon="11.939629391698038"><ele>396.0</ele><time>2026-04-19T09:59:12Z</time></trkpt><trkpt lat="42.11395210058678" lon="11.939757339053656"><ele>396.0</ele><time>2026-04-19T09:59:14Z</time></trkpt><trkpt lat="42.1139898940851" lon="11.939872034198439"><ele>396.0</ele><time>2026-04-19T09:59:16Z</time></trkpt><trkpt lat="42.1140193277651" lon="11.93998887171004"><ele>396.0</ele><time>2026-04-19T09:59:18Z</time></trkpt><trkpt lat="42.11404951160396" lon="11.940078257402996"><ele>396.0</ele><time>2026-04-19T09:59:20Z</time></trkpt><trkpt lat="42.11406067122554" lon="11.940172258801319"><ele>396.0</ele><time>2026-04-19T09:59:22Z</time></trkpt><trkpt lat="42.11405877817201" lon="11.940269728392822"><ele>397.5</ele><time>2026-04-19T09:59:24Z</time></trkpt><trkpt lat="42.11408727365243" lon="11.940359326959674"><ele>399.0</ele><time>2026-04-19T09:59:26Z</time></trkpt><trkpt lat="42.114146324331024" lon="11.940415217416271"><ele>400.5</ele><time>2026-04-19T09:59:28Z</time></trkpt><trkpt lat="42.11420959607811" lon="11.94049021128685"><ele>402.0</ele><time>2026-04-19T09:59:30Z</time></trkpt><trkpt lat="42.114233250904284" lon="11.940591558444973"><ele>403.5</ele><time>2026-04-19T09:59:32Z</time></trkpt><trkpt lat="42.11425549237259" lon="11.940705382746684"><ele>405.0</ele><time>2026-04-19T09:59:35Z</time></trkpt><trkpt lat="42.11429922943" lon="11.940796569241805"><ele>404.8333333333333</ele><time>2026-04-19T09:59:37Z</time></trkpt><trkpt lat="42.114337398381316" lon="11.94090175095466"><ele>404.66666666666663</ele><time>2026-04-19T09:59:39Z</time></trkpt><trkpt lat="42.114353511252496" lon="11.941005309061364"><ele>404.5</ele><time>2026-04-19T09:59:41Z</time></trkpt><trkpt lat="42.11437114447218" lon="11.941102489907129"><ele>404.3333333333333</ele><time>2026-04-19T09:59:43Z</time></trkpt><trkpt lat="42.114380989610304" lon="11.941194985702786"><ele>404.16666666666663</ele><time>2026-04-19T09:59:45Z</time></trkpt><trkpt lat="42.11439150941703" lon="11.941308888407915"><ele>404.0</ele><time>2026-04-19T09:59:47Z</time></trkpt><trkpt lat="42.11439453318192" lon="11.941411197929433"><ele>404.0</ele><time>2026-04-19T09:59:49Z</time></trkpt><trkpt lat="42.114399221570174" lon="11.941502996900574"><ele>404.0</ele><time>2026-04-19T09:59:51Z</time></trkpt><trkpt lat="42.1143999694162" lon="11.941594114688394"><ele>404.0</ele><time>2026-04-19T09:59:53Z</time></trkpt><trkpt lat="42.11440301367355" lon="11.94168193040586"><ele>404.0</ele><time>2026-04-19T09:59:55Z</time></trkpt><trkpt lat="42.11437664533679" lon="11.941803364014163"><ele>404.0</ele><time>2026-04-19T09:59:58Z</time></trkpt><trkpt lat="42.11433340281202" lon="11.94189912404744"><ele>404.0</ele><time>2026-04-19T10:00:00Z</time></trkpt><trkpt lat="42.11429625402603" lon="11.941968083632705"><ele>404.0</ele><time>2026-04-19T10:00:04Z</time></trkpt><trkpt lat="42.11426084783379" lon="11.94204325138697"><ele>404.3333333333333</ele><time>2026-04-19T10:00:06Z</time></trkpt><trkpt lat="42.114265078036965" lon="11.942140299171703"><ele>404.66666666666663</ele><time>2026-04-19T10:00:09Z</time></trkpt><trkpt lat="42.11423324435532" lon="11.942235077557205"><ele>405.0</ele><time>2026-04-19T10:00:12Z</time></trkpt><trkpt lat="42.114269896249155" lon="11.942329685895782"><ele>405.33333333333337</ele><time>2026-04-19T10:00:16Z</time></trkpt><trkpt lat="42.114314759485644" lon="11.942406028911318"><ele>405.6666666666667</ele><time>2026-04-19T10:00:20Z</time></trkpt><trkpt lat="42.11436470742219" lon="11.942490945190888"><ele>406.0</ele><time>2026-04-19T10:00:23Z</time></trkpt><trkpt lat="42.11444177886791" lon="11.942567717312402"><ele>404.6</ele><time>2026-04-19T10:00:25Z</time></trkpt><trkpt lat="42.11453852887353" lon="11.94265421322093"><ele>403.20000000000005</ele><time>2026-04-19T10:00:27Z</time></trkpt><trkpt lat="42.11461334699832" lon="11.942691386593284"><ele>401.79999999999995</ele><time>2026-04-19T10:00:28Z</time></trkpt><trkpt lat="42.11472034332689" lon="11.942704901199306"><ele>400.4</ele><time>2026-04-19T10:00:30Z</time></trkpt><trkpt lat="42.114805989393155" lon="11.94272849772372"><ele>399.0</ele><time>2026-04-19T10:00:32Z</time></trkpt><trkpt lat="42.11483198142431" lon="11.94286195375374"><ele>399.0</ele><time>2026-04-19T10:00:34Z</time></trkpt><trkpt lat="42.1147960630536" lon="11.943010529380821"><ele>399.0</ele><time>2026-04-19T10:00:36Z</time></trkpt><trkpt lat="42.1147580675343" lon="11.943084277974105"><ele>399.0</ele><time>2026-04-19T10:00:37Z</time></trkpt><trkpt lat="42.11473967843637" lon="11.943176723295807"><ele>399.0</ele><time>2026-04-19T10:00:38Z</time></trkpt><trkpt lat="42.114736397028054" lon="11.943285081412162"><ele>399.0</ele><time>2026-04-19T10:00:40Z</time></trkpt><trkpt lat="42.114720382624334" lon="11.94342509213035"><ele>399.0</ele><time>2026-04-19T10:00:42Z</time></trkpt><trkpt lat="42.114676506069365" lon="11.943591928834788"><ele>396.6</ele><time>2026-04-19T10:00:44Z</time></trkpt><trkpt lat="42.11462886702213" lon="11.943698690289475"><ele>394.2</ele><time>2026-04-19T10:00:46Z</time></trkpt><trkpt lat="42.11456131799391" lon="11.94379188110584"><ele>391.8</ele><time>2026-04-19T10:00:54Z</time></trkpt><trkpt lat="42.11453127305902" lon="11.94393453737719"><ele>389.40000000000003</ele><time>2026-04-19T10:00:56Z</time></trkpt><trkpt lat="42.114534848913934" lon="11.94407454624181"><ele>387.0</ele><time>2026-04-19T10:00:58Z</time></trkpt><trkpt lat="42.11454895944409" lon="11.944222112787035"><ele>384.40000000000003</ele><time>2026-04-19T10:01:00Z</time></trkpt><trkpt lat="42.114539478761095" lon="11.944333959289242"><ele>381.8</ele><time>2026-04-19T10:01:01Z</time></trkpt><trkpt lat="42.1145386759149" lon="11.944426330593819"><ele>379.2</ele><time>2026-04-19T10:01:02Z</time></trkpt><trkpt lat="42.11454407418467" lon="11.94451768952994"><ele>376.6</ele><time>2026-04-19T10:01:03Z</time></trkpt><trkpt lat="42.11453897838393" lon="11.944666356688058"><ele>374.0</ele><time>2026-04-19T10:01:05Z</time></trkpt><trkpt lat="42.114495738139794" lon="11.944837583975259"><ele>374.0</ele><time>2026-04-19T10:01:07Z</time></trkpt><trkpt lat="42.11451174398413" lon="11.944965210351805"><ele>374.0</ele><time>2026-04-19T10:01:09Z</time></trkpt><trkpt lat="42.11461043245036" lon="11.944975351165521"><ele>374.0</ele><time>2026-04-19T10:01:11Z</time></trkpt><trkpt lat="42.11469884169394" lon="11.944885108999923"><ele>374.0</ele><time>2026-04-19T10:01:13Z</time></trkpt><trkpt lat="42.11477873516659" lon="11.944935401002184"><ele>374.0</ele><time>2026-04-19T10:01:17Z</time></trkpt><trkpt lat="42.114760610256525" lon="11.945017282328392"><ele>372.1666666666667</ele><time>2026-04-19T10:01:20Z</time></trkpt><trkpt lat="42.11473974491046" lon="11.945098235497401"><ele>370.33333333333337</ele><time>2026-04-19T10:01:22Z</time></trkpt><trkpt lat="42.114706178859755" lon="11.945211426510069"><ele>368.5</ele><time>2026-04-19T10:01:25Z</time></trkpt><trkpt lat="42.11469662304867" lon="11.94533241745091"><ele>366.6666666666667</ele><time>2026-04-19T10:01:28Z</time></trkpt><trkpt lat="42.1147048488594" lon="11.945431635400144"><ele>364.8333333333333</ele><time>2026-04-19T10:01:31Z</time></trkpt><trkpt lat="42.114692571253045" lon="11.94554048983571"><ele>363.0</ele><time>2026-04-19T10:01:34Z</time></trkpt><trkpt lat="42.11468309928389" lon="11.945655960658616"><ele>363.0</ele><time>2026-04-19T10:01:37Z</time></trkpt><trkpt lat="42.11466476953711" lon="11.945742479297312"><ele>363.0</ele><time>2026-04-19T10:01:39Z</time></trkpt><trkpt lat="42.114661211751816" lon="11.94585600135441"><ele>363.0</ele><time>2026-04-19T10:01:42Z</time></trkpt><trkpt lat="42.11463945663143" lon="11.945968071686236"><ele>363.0</ele><time>2026-04-19T10:01:45Z</time></trkpt><trkpt lat="42.11463077116776" lon="11.94606787185764"><ele>363.0</ele><time>2026-04-19T10:01:48Z</time></trkpt><trkpt lat="42.11463605263622" lon="11.946188504776018"><ele>363.0</ele><time>2026-04-19T10:01:51Z</time></trkpt><trkpt lat="42.11463325751086" lon="11.946301076537107"><ele>362.1666666666667</ele><time>2026-04-19T10:01:55Z</time></trkpt><trkpt lat="42.11466497038693" lon="11.946403362825903"><ele>361.3333333333333</ele><time>2026-04-19T10:01:59Z</time></trkpt><trkpt lat="42.114695015127275" lon="11.9465116493031"><ele>360.5</ele><time>2026-04-19T10:02:03Z</time></trkpt><trkpt lat="42.11473122450945" lon="11.946598059227753"><ele>359.66666666666663</ele><time>2026-04-19T10:02:07Z</time></trkpt><trkpt lat="42.11475695335211" lon="11.94668285648646"><ele>358.8333333333333</ele><time>2026-04-19T10:02:10Z</time></trkpt><trkpt lat="42.1147952558565" lon="11.946768284025937"><ele>358.0</ele><time>2026-04-19T10:02:13Z</time></trkpt><trkpt lat="42.11485698638565" lon="11.946869404443966"><ele>360.16666666666663</ele><time>2026-04-19T10:02:15Z</time></trkpt><trkpt lat="42.114927614689435" lon="11.946956755114263"><ele>362.3333333333333</ele><time>2026-04-19T10:02:17Z</time></trkpt><trkpt lat="42.1149703449833" lon="11.947060009410961"><ele>364.5</ele><time>2026-04-19T10:02:19Z</time></trkpt><trkpt lat="42.11495407014742" lon="11.947150280628142"><ele>366.6666666666667</ele><time>2026-04-19T10:02:22Z</time></trkpt><trkpt lat="42.11497836383086" lon="11.947246668114758"><ele>368.83333333333337</ele><time>2026-04-19T10:02:25Z</time></trkpt><trkpt lat="42.11502414650966" lon="11.947323271526189"><ele>371.0</ele><time>2026-04-19T10:02:28Z</time></trkpt><trkpt lat="42.11505347896774" lon="11.947408590609548"><ele>371.0</ele><time>2026-04-19T10:02:31Z</time></trkpt><trkpt lat="42.11509596844749" lon="11.947481046019636"><ele>371.0</ele><time>2026-04-19T10:02:34Z</time></trkpt><trkpt lat="42.11515496515026" lon="11.947577674949377"><ele>371.0</ele><time>2026-04-19T10:02:37Z</time></trkpt><trkpt lat="42.11520166572244" lon="11.947668396449574"><ele>371.0</ele><time>2026-04-19T10:02:47Z</time></trkpt><trkpt lat="42.115227723604406" lon="11.947787456670637"><ele>371.0</ele><time>2026-04-19T10:02:50Z</time></trkpt><trkpt lat="42.11525375641001" lon="11.947875572040807"><ele>371.0</ele><time>2026-04-19T10:02:52Z</time></trkpt><trkpt lat="42.11529098777576" lon="11.947979332941461"><ele>370.6</ele><time>2026-04-19T10:02:54Z</time></trkpt><trkpt lat="42.11533021227007" lon="11.948101419822226"><ele>370.20000000000005</ele><time>2026-04-19T10:02:56Z</time></trkpt><trkpt lat="42.11537636761878" lon="11.948219338531386"><ele>369.79999999999995</ele><time>2026-04-19T10:02:58Z</time></trkpt><trkpt lat="42.11542648521435" lon="11.948331186653798"><ele>369.4</ele><time>2026-04-19T10:03:00Z</time></trkpt><trkpt lat="42.115484207863894" lon="11.948443396102713"><ele>369.0</ele><time>2026-04-19T10:03:02Z</time></trkpt><trkpt lat="42.115533238103936" lon="11.948547172836008"><ele>368.1666666666667</ele><time>2026-04-19T10:03:04Z</time></trkpt><trkpt lat="42.115554853574885" lon="11.948632167243117"><ele>367.3333333333333</ele><time>2026-04-19T10:03:05Z</time></trkpt><trkpt lat="42.115587632583896" lon="11.948779538327228"><ele>366.5</ele><time>2026-04-19T10:03:07Z</time></trkpt><trkpt lat="42.1156360458868" lon="11.948900261369664"><ele>365.66666666666663</ele><time>2026-04-19T10:03:09Z</time></trkpt><trkpt lat="42.11565242129832" lon="11.94898718458624"><ele>364.8333333333333</ele><time>2026-04-19T10:03:10Z</time></trkpt><trkpt lat="42.115652710838724" lon="11.949074158902159"><ele>364.0</ele><time>2026-04-19T10:03:11Z</time></trkpt><trkpt lat="42.115627483056684" lon="11.949223838593559"><ele>362.3333333333333</ele><time>2026-04-19T10:03:13Z</time></trkpt><trkpt lat="42.115636122799394" lon="11.949357713583682"><ele>360.66666666666663</ele><time>2026-04-19T10:03:15Z</time></trkpt><trkpt lat="42.11561783907465" lon="11.949473563611056"><ele>359.0</ele><time>2026-04-19T10:03:17Z</time></trkpt><trkpt lat="42.115603250006004" lon="11.949579114938862"><ele>357.3333333333333</ele><time>2026-04-19T10:03:19Z</time></trkpt><trkpt lat="42.11558695834639" lon="11.949691289835378"><ele>355.6666666666667</ele><time>2026-04-19T10:03:21Z</time></trkpt><trkpt lat="42.11556614301642" lon="11.949795633252387"><ele>354.0</ele><time>2026-04-19T10:03:23Z</time></trkpt><trkpt lat="42.115550664283035" lon="11.94987878877295"><ele>354.0</ele><time>2026-04-19T10:03:25Z</time></trkpt><trkpt lat="42.115523008041045" lon="11.949983320120818"><ele>354.0</ele><time>2026-04-19T10:03:27Z</time></trkpt><trkpt lat="42.11550836965937" lon="11.950078590510742"><ele>354.0</ele><time>2026-04-19T10:03:29Z</time></trkpt><trkpt lat="42.115512544783456" lon="11.950195714118278"><ele>354.0</ele><time>2026-04-19T10:03:32Z</time></trkpt><trkpt lat="42.115584346359206" lon="11.950272678790755"><ele>354.0</ele><time>2026-04-19T10:03:35Z</time></trkpt><trkpt lat="42.11567383191026" lon="11.950314196971279"><ele>354.0</ele><time>2026-04-19T10:03:37Z</time></trkpt><trkpt lat="42.11578573080282" lon="11.950350924170708"><ele>355.0</ele><time>2026-04-19T10:03:39Z</time></trkpt><trkpt lat="42.115894434848315" lon="11.950409158338193"><ele>356.0</ele><time>2026-04-19T10:03:41Z</time></trkpt><trkpt lat="42.1159576627721" lon="11.950428958087837"><ele>357.0</ele><time>2026-04-19T10:03:42Z</time></trkpt><trkpt lat="42.11602313442264" lon="11.950452996651634"><ele>358.0</ele><time>2026-04-19T10:03:43Z</time></trkpt><trkpt lat="42.11615027406576" lon="11.950491693968662"><ele>359.0</ele><time>2026-04-19T10:03:45Z</time></trkpt><trkpt lat="42.11626667526549" lon="11.95047966098479"><ele>359.0</ele><time>2026-04-19T10:03:47Z</time></trkpt><trkpt lat="42.11632970946734" lon="11.95046246349147"><ele>359.0</ele><time>2026-04-19T10:03:48Z</time></trkpt><trkpt lat="42.11641355039081" lon="11.95047471847859"><ele>359.0</ele><time>2026-04-19T10:03:49Z</time></trkpt><trkpt lat="42.11654385386381" lon="11.950500457931032"><ele>359.0</ele><time>2026-04-19T10:03:51Z</time></trkpt><trkpt lat="42.116653747935736" lon="11.95051501898971"><ele>359.0</ele><time>2026-04-19T10:03:53Z</time></trkpt><trkpt lat="42.11677004266545" lon="11.950558071835822"><ele>359.1666666666667</ele><time>2026-04-19T10:03:55Z</time></trkpt><trkpt lat="42.116874402483056" lon="11.95061136037772"><ele>359.33333333333337</ele><time>2026-04-19T10:03:57Z</time></trkpt><trkpt lat="42.11695555202919" lon="11.950625334624963"><ele>359.5</ele><time>2026-04-19T10:03:59Z</time></trkpt><trkpt lat="42.11702555606475" lon="11.950623407530133"><ele>359.6666666666667</ele><time>2026-04-19T10:04:02Z</time></trkpt><trkpt lat="42.117110966344754" lon="11.950623225423262"><ele>359.8333333333333</ele><time>2026-04-19T10:04:05Z</time></trkpt><trkpt lat="42.11717597612615" lon="11.95065711586723"><ele>360.0</ele><time>2026-04-19T10:04:07Z</time></trkpt><trkpt lat="42.11726947973581" lon="11.950712144677723"><ele>360.0</ele><time>2026-04-19T10:04:10Z</time></trkpt><trkpt lat="42.117361101819455" lon="11.950722621008891"><ele>360.0</ele><time>2026-04-19T10:04:12Z</time></trkpt><trkpt lat="42.11745524627153" lon="11.950718341155794"><ele>360.0</ele><time>2026-04-19T10:04:14Z</time></trkpt><trkpt lat="42.117551222770174" lon="11.950783237783744"><ele>360.0</ele><time>2026-04-19T10:04:16Z</time></trkpt><trkpt lat="42.11759458281582" lon="11.950899053432266"><ele>360.0</ele><time>2026-04-19T10:04:18Z</time></trkpt><trkpt lat="42.117566726015625" lon="11.950983481146102"><ele>359.85714285714283</ele><time>2026-04-19T10:04:20Z</time></trkpt><trkpt lat="42.11755600482517" lon="11.951101659199438"><ele>359.7142857142857</ele><time>2026-04-19T10:04:23Z</time></trkpt><trkpt lat="42.11755048271597" lon="11.951189275541061"><ele>359.57142857142856</ele><time>2026-04-19T10:04:25Z</time></trkpt><trkpt lat="42.11755740061328" lon="11.951280068098836"><ele>359.42857142857144</ele><time>2026-04-19T10:04:27Z</time></trkpt><trkpt lat="42.117551870303444" lon="11.951367328716996"><ele>359.28571428571433</ele><time>2026-04-19T10:04:29Z</time></trkpt><trkpt lat="42.11758657547703" lon="11.951466962529063"><ele>359.14285714285717</ele><time>2026-04-19T10:04:32Z</time></trkpt><trkpt lat="42.11764122546315" lon="11.95152723259844"><ele>359.0</ele><time>2026-04-19T10:04:35Z</time></trkpt><trkpt lat="42.11771888448342" lon="11.951577464123321"><ele>359.0</ele><time>2026-04-19T10:04:38Z</time></trkpt><trkpt lat="42.11778267273883" lon="11.951613175903212"><ele>359.0</ele><time>2026-04-19T10:04:40Z</time></trkpt><trkpt lat="42.117851454053906" lon="11.951636578625756"><ele>359.0</ele><time>2026-04-19T10:04:42Z</time></trkpt><trkpt lat="42.11792644078626" lon="11.951669560987357"><ele>359.0</ele><time>2026-04-19T10:04:45Z</time></trkpt><trkpt lat="42.11798993190091" lon="11.951686810305194"><ele>359.0</ele><time>2026-04-19T10:04:47Z</time></trkpt><trkpt lat="42.11807683767487" lon="11.951707182955413"><ele>359.0</ele><time>2026-04-19T10:04:50Z</time></trkpt><trkpt lat="42.118144734221495" lon="11.951708827908554"><ele>359.0</ele><time>2026-04-19T10:04:53Z</time></trkpt><trkpt lat="42.1182153857567" lon="11.951737204920253"><ele>359.2</ele><time>2026-04-19T10:04:56Z</time></trkpt><trkpt lat="42.11828733414552" lon="11.951772464827012"><ele>359.4</ele><time>2026-04-19T10:04:59.001Z</time></trkpt><trkpt lat="42.11837646951314" lon="11.951813557491663"><ele>359.6</ele><time>2026-04-19T10:05:02.001Z</time></trkpt><trkpt lat="42.11845926021094" lon="11.95187557643934"><ele>359.8</ele><time>2026-04-19T10:05:04.001Z</time></trkpt><trkpt lat="42.11855657208657" lon="11.951942790516537"><ele>360.0</ele><time>2026-04-19T10:05:06.001Z</time></trkpt><trkpt lat="42.118676877626754" lon="11.95202264197335"><ele>360.0</ele><time>2026-04-19T10:05:08.001Z</time></trkpt><trkpt lat="42.11873600422535" lon="11.952081767648723"><ele>360.0</ele><time>2026-04-19T10:05:09.001Z</time></trkpt><trkpt lat="42.118792628702984" lon="11.952143514554704"><ele>360.0</ele><time>2026-04-19T10:05:10.001Z</time></trkpt><trkpt lat="42.11885018727387" lon="11.9522170458817"><ele>360.0</ele><time>2026-04-19T10:05:11.001Z</time></trkpt><trkpt lat="42.11889712185777" lon="11.952298582029337"><ele>360.0</ele><time>2026-04-19T10:05:12.001Z</time></trkpt><trkpt lat="42.11893149203975" lon="11.952380152386548"><ele>360.0</ele><time>2026-04-19T10:05:13.001Z</time></trkpt><trkpt lat="42.11896614520025" lon="11.952458744895354"><ele>360.0</ele><time>2026-04-19T10:05:14.001Z</time></trkpt><trkpt lat="42.11900200495468" lon="11.952539929968598"><ele>360.0</ele><time>2026-04-19T10:05:15.001Z</time></trkpt><trkpt lat="42.11903698299782" lon="11.95261999946576"><ele>360.0</ele><time>2026-04-19T10:05:16.001Z</time></trkpt><trkpt lat="42.11909700280256" lon="11.952759461106213"><ele>360.0</ele><time>2026-04-19T10:05:18.001Z</time></trkpt><trkpt lat="42.1191208579026" lon="11.952891797177191"><ele>360.0</ele><time>2026-04-19T10:05:20.001Z</time></trkpt><trkpt lat="42.119101392333604" lon="11.953016123417687"><ele>360.0</ele><time>2026-04-19T10:05:22.001Z</time></trkpt><trkpt lat="42.119033801608786" lon="11.953064592801882"><ele>360.0</ele><time>2026-04-19T10:05:24.001Z</time></trkpt><trkpt lat="42.118965248758954" lon="11.953121241559806"><ele>360.0</ele><time>2026-04-19T10:05:26.001Z</time></trkpt><trkpt lat="42.11889196903359" lon="11.9531647947571"><ele>360.0</ele><time>2026-04-19T10:05:28.001Z</time></trkpt><trkpt lat="42.11882471917874" lon="11.953190522603137"><ele>360.0</ele><time>2026-04-19T10:05:30.001Z</time></trkpt><trkpt lat="42.11876795619952" lon="11.953228860150114"><ele>360.0</ele><time>2026-04-19T10:05:32.001Z</time></trkpt><trkpt lat="42.118698922738076" lon="11.95321224379818"><ele>360.0</ele><time>2026-04-19T10:05:35.001Z</time></trkpt><trkpt lat="42.11861232397348" lon="11.953228265793008"><ele>360.0</ele><time>2026-04-19T10:05:37.001Z</time></trkpt><trkpt lat="42.11854984050815" lon="11.95327672187686"><ele>360.0</ele><time>2026-04-19T10:05:39.001Z</time></trkpt><trkpt lat="42.118465554598444" lon="11.953318638560644"><ele>360.0</ele><time>2026-04-19T10:05:42.001Z</time></trkpt><trkpt lat="42.11838932021693" lon="11.953384373487875"><ele>360.0</ele><time>2026-04-19T10:05:46Z</time></trkpt><trkpt lat="42.118329293222025" lon="11.953430132521946"><ele>360.0</ele><time>2026-04-19T10:05:48Z</time></trkpt><trkpt lat="42.11826598948094" lon="11.9535057136026"><ele>360.0</ele><time>2026-04-19T10:05:51Z</time></trkpt><trkpt lat="42.118203106200184" lon="11.953597257102572"><ele>360.5</ele><time>2026-04-19T10:05:54Z</time></trkpt><trkpt lat="42.11819503529696" lon="11.953716889476148"><ele>361.0</ele><time>2026-04-19T10:05:57Z</time></trkpt><trkpt lat="42.1181892481205" lon="11.953811258873882"><ele>361.5</ele><time>2026-04-19T10:05:59Z</time></trkpt><trkpt lat="42.11818068806148" lon="11.953896843305735"><ele>362.0</ele><time>2026-04-19T10:06:01Z</time></trkpt><trkpt lat="42.11815838462493" lon="11.953988334129564"><ele>362.5</ele><time>2026-04-19T10:06:03Z</time></trkpt><trkpt lat="42.11814870250741" lon="11.954091057559996"><ele>363.0</ele><time>2026-04-19T10:06:05Z</time></trkpt><trkpt lat="42.11815104197229" lon="11.954204879964896"><ele>363.3333333333333</ele><time>2026-04-19T10:06:07Z</time></trkpt><trkpt lat="42.11815045970956" lon="11.95429979175417"><ele>363.6666666666667</ele><time>2026-04-19T10:06:08Z</time></trkpt><trkpt lat="42.11815191298396" lon="11.954385851431061"><ele>364.0</ele><time>2026-04-19T10:06:09Z</time></trkpt><trkpt lat="42.11814311598849" lon="11.954567355277995"><ele>364.33333333333337</ele><time>2026-04-19T10:06:11Z</time></trkpt><trkpt lat="42.11816083599223" lon="11.954654670314936"><ele>364.6666666666667</ele><time>2026-04-19T10:06:12Z</time></trkpt><trkpt lat="42.11817600506984" lon="11.954737429520115"><ele>365.0</ele><time>2026-04-19T10:06:13Z</time></trkpt><trkpt lat="42.11819450565852" lon="11.954825918015255"><ele>365.0</ele><time>2026-04-19T10:06:14Z</time></trkpt><trkpt lat="42.11823042280419" lon="11.95498204162788"><ele>365.0</ele><time>2026-04-19T10:06:16Z</time></trkpt><trkpt lat="42.118273257270666" lon="11.95513288740494"><ele>365.0</ele><time>2026-04-19T10:06:18Z</time></trkpt><trkpt lat="42.11835762965658" lon="11.955233044814005"><ele>365.0</ele><time>2026-04-19T10:06:20Z</time></trkpt><trkpt lat="42.118443556085154" lon="11.955306674660745"><ele>364.14285714285717</ele><time>2026-04-19T10:06:22Z</time></trkpt><trkpt lat="42.11852084795567" lon="11.95534569748357"><ele>363.2857142857143</ele><time>2026-04-19T10:06:24Z</time></trkpt><trkpt lat="42.11857676706806" lon="11.955401528930324"><ele>362.42857142857144</ele><time>2026-04-19T10:06:27Z</time></trkpt><trkpt lat="42.1186338618048" lon="11.95544380922221"><ele>361.57142857142856</ele><time>2026-04-19T10:06:34Z</time></trkpt><trkpt lat="42.11869638139873" lon="11.955468221758766"><ele>360.7142857142857</ele><time>2026-04-19T10:06:41Z</time></trkpt><trkpt lat="42.11876081581422" lon="11.955524380174483"><ele>359.8571428571429</ele><time>2026-04-19T10:06:44Z</time></trkpt><trkpt lat="42.11882913065863" lon="11.955565543361615"><ele>359.0</ele><time>2026-04-19T10:06:47Z</time></trkpt><trkpt lat="42.118897835929154" lon="11.955618735963798"><ele>359.0</ele><time>2026-04-19T10:06:49Z</time></trkpt><trkpt lat="42.118965062868504" lon="11.955686538583409"><ele>359.0</ele><time>2026-04-19T10:06:51Z</time></trkpt><trkpt lat="42.11903219069076" lon="11.955742285333804"><ele>359.0</ele><time>2026-04-19T10:06:53Z</time></trkpt><trkpt lat="42.11910377006234" lon="11.955825573000217"><ele>359.0</ele><time>2026-04-19T10:06:55Z</time></trkpt><trkpt lat="42.119165934515145" lon="11.955896151380607"><ele>359.0</ele><time>2026-04-19T10:06:57Z</time></trkpt><trkpt lat="42.11925073028179" lon="11.955964404626641"><ele>359.0</ele><time>2026-04-19T10:06:59Z</time></trkpt><trkpt lat="42.11934705000789" lon="11.956023491609962"><ele>357.5</ele><time>2026-04-19T10:07:01Z</time></trkpt><trkpt lat="42.119451070097384" lon="11.956073968143235"><ele>356.0</ele><time>2026-04-19T10:07:03Z</time></trkpt><trkpt lat="42.1195196737526" lon="11.956093765283164"><ele>354.5</ele><time>2026-04-19T10:07:05.001Z</time></trkpt><trkpt lat="42.11958417835126" lon="11.956144988106395"><ele>353.0</ele><time>2026-04-19T10:07:07.001Z</time></trkpt><trkpt lat="42.11964323027436" lon="11.956185767415741"><ele>351.5</ele><time>2026-04-19T10:07:09.001Z</time></trkpt><trkpt lat="42.11970904674667" lon="11.956242471301223"><ele>350.0</ele><time>2026-04-19T10:07:12.001Z</time></trkpt><trkpt lat="42.11977396050329" lon="11.956288640620647"><ele>350.0</ele><time>2026-04-19T10:07:14.001Z</time></trkpt><trkpt lat="42.11984419532394" lon="11.956364885365279"><ele>350.0</ele><time>2026-04-19T10:07:16.001Z</time></trkpt><trkpt lat="42.11994177030321" lon="11.956440205432838"><ele>350.0</ele><time>2026-04-19T10:07:18.001Z</time></trkpt><trkpt lat="42.12005511526618" lon="11.956518396522943"><ele>350.0</ele><time>2026-04-19T10:07:20.001Z</time></trkpt><trkpt lat="42.12012377110638" lon="11.956563527987939"><ele>350.0</ele><time>2026-04-19T10:07:21.001Z</time></trkpt><trkpt lat="42.120196216244764" lon="11.956586965295655"><ele>347.6</ele><time>2026-04-19T10:07:22.001Z</time></trkpt><trkpt lat="42.120313503846056" lon="11.956610965348018"><ele>345.2</ele><time>2026-04-19T10:07:24.001Z</time></trkpt><trkpt lat="42.12043245686805" lon="11.956627086429059"><ele>342.79999999999995</ele><time>2026-04-19T10:07:26.001Z</time></trkpt><trkpt lat="42.12052618365401" lon="11.956697270360566"><ele>340.4</ele><time>2026-04-19T10:07:28.001Z</time></trkpt><trkpt lat="42.12057528935158" lon="11.956770905780143"><ele>338.0</ele><time>2026-04-19T10:07:30.001Z</time></trkpt><trkpt lat="42.120586148257324" lon="11.956864088516653"><ele>337.4</ele><time>2026-04-19T10:07:32.001Z</time></trkpt><trkpt lat="42.120559960948874" lon="11.956957093395772"><ele>336.79999999999995</ele><time>2026-04-19T10:07:35.001Z</time></trkpt><trkpt lat="42.1204971518612" lon="11.957049353220372"><ele>336.2</ele><time>2026-04-19T10:07:38.001Z</time></trkpt><trkpt lat="42.12047410490967" lon="11.957211908363622"><ele>335.6</ele><time>2026-04-19T10:07:40.001Z</time></trkpt><trkpt lat="42.12047375446083" lon="11.957313027452049"><ele>335.0</ele><time>2026-04-19T10:07:41.001Z</time></trkpt><trkpt lat="42.1204708370267" lon="11.957474090940368"><ele>335.0</ele><time>2026-04-19T10:07:43.001Z</time></trkpt><trkpt lat="42.12043420270928" lon="11.95761907190206"><ele>335.0</ele><time>2026-04-19T10:07:45.001Z</time></trkpt><trkpt lat="42.12042569914311" lon="11.957770240752016"><ele>335.0</ele><time>2026-04-19T10:07:47.001Z</time></trkpt><trkpt lat="42.120420848267734" lon="11.957856367826482"><ele>335.0</ele><time>2026-04-19T10:07:48.001Z</time></trkpt><trkpt lat="42.12040527420633" lon="11.958022255124883"><ele>335.0</ele><time>2026-04-19T10:07:50.001Z</time></trkpt><trkpt lat="42.12039771122165" lon="11.958107627509186"><ele>335.0</ele><time>2026-04-19T10:07:51.001Z</time></trkpt><trkpt lat="42.12039193301621" lon="11.958274914339023"><ele>335.0</ele><time>2026-04-19T10:07:53.001Z</time></trkpt><trkpt lat="42.12038807255473" lon="11.958444505554196"><ele>335.0</ele><time>2026-04-19T10:07:55.001Z</time></trkpt><trkpt lat="42.120412240842356" lon="11.958611681318438"><ele>335.0</ele><time>2026-04-19T10:07:57.001Z</time></trkpt><trkpt lat="42.120430821899106" lon="11.958693913477301"><ele>335.0</ele><time>2026-04-19T10:07:58.001Z</time></trkpt><trkpt lat="42.120495684154285" lon="11.958842225702153"><ele>335.85714285714283</ele><time>2026-04-19T10:08:00.001Z</time></trkpt><trkpt lat="42.12053687663943" lon="11.958916676800385"><ele>336.7142857142857</ele><time>2026-04-19T10:08:01.001Z</time></trkpt><trkpt lat="42.12057654988823" lon="11.958988540016872"><ele>337.57142857142856</ele><time>2026-04-19T10:08:02.001Z</time></trkpt><trkpt lat="42.12061482771396" lon="11.95906402807563"><ele>338.42857142857144</ele><time>2026-04-19T10:08:03.001Z</time></trkpt><trkpt lat="42.12065018223357" lon="11.959142144716386"><ele>339.2857142857143</ele><time>2026-04-19T10:08:04.001Z</time></trkpt><trkpt lat="42.120677756550855" lon="11.959227124540291"><ele>340.1428571428571</ele><time>2026-04-19T10:08:05.001Z</time></trkpt><trkpt lat="42.120691189055876" lon="11.959320353332473"><ele>341.0</ele><time>2026-04-19T10:08:06.001Z</time></trkpt><trkpt lat="42.12068486059173" lon="11.959416915205164"><ele>341.2857142857143</ele><time>2026-04-19T10:08:07.001Z</time></trkpt><trkpt lat="42.120668010038536" lon="11.959508728537475"><ele>341.57142857142856</ele><time>2026-04-19T10:08:08.001Z</time></trkpt><trkpt lat="42.120636144922635" lon="11.959596559175518"><ele>341.8571428571429</ele><time>2026-04-19T10:08:09Z</time></trkpt><trkpt lat="42.12060761327612" lon="11.959678480415814"><ele>342.1428571428571</ele><time>2026-04-19T10:08:10Z</time></trkpt><trkpt lat="42.120574582631534" lon="11.95976290958529"><ele>342.42857142857144</ele><time>2026-04-19T10:08:11Z</time></trkpt><trkpt lat="42.120539039859445" lon="11.959844511481347"><ele>342.7142857142857</ele><time>2026-04-19T10:08:12Z</time></trkpt><trkpt lat="42.120503936483566" lon="11.959925200832528"><ele>343.0</ele><time>2026-04-19T10:08:13Z</time></trkpt><trkpt lat="42.12047407333388" lon="11.960009175706533"><ele>341.7142857142857</ele><time>2026-04-19T10:08:14Z</time></trkpt><trkpt lat="42.1204555522573" lon="11.9600973844992"><ele>340.42857142857144</ele><time>2026-04-19T10:08:14.999Z</time></trkpt><trkpt lat="42.120456091488485" lon="11.96018862788377"><ele>339.1428571428571</ele><time>2026-04-19T10:08:15.999Z</time></trkpt><trkpt lat="42.12047215666371" lon="11.96028058346383"><ele>337.8571428571429</ele><time>2026-04-19T10:08:16.999Z</time></trkpt><trkpt lat="42.120496400571945" lon="11.960366446559199"><ele>336.57142857142856</ele><time>2026-04-19T10:08:17.999Z</time></trkpt><trkpt lat="42.120527572537405" lon="11.960441636374032"><ele>335.2857142857143</ele><time>2026-04-19T10:08:18.999Z</time></trkpt><trkpt lat="42.120553107237235" lon="11.960522676181764"><ele>334.0</ele><time>2026-04-19T10:08:19.999Z</time></trkpt><trkpt lat="42.120593668571495" lon="11.960681906786082"><ele>334.0</ele><time>2026-04-19T10:08:21.999Z</time></trkpt><trkpt lat="42.12060130467352" lon="11.960766846858887"><ele>334.0</ele><time>2026-04-19T10:08:22.999Z</time></trkpt><trkpt lat="42.120573843070794" lon="11.960929267884298"><ele>334.0</ele><time>2026-04-19T10:08:24.999Z</time></trkpt><trkpt lat="42.120486054784" lon="11.961042201913424"><ele>334.0</ele><time>2026-04-19T10:08:26.999Z</time></trkpt><trkpt lat="42.12038319593681" lon="11.961106554206518"><ele>334.0</ele><time>2026-04-19T10:08:28.999Z</time></trkpt><trkpt lat="42.120279276798975" lon="11.961143379317841"><ele>332.6</ele><time>2026-04-19T10:08:30.999Z</time></trkpt><trkpt lat="42.12018576780314" lon="11.961176671499167"><ele>331.2</ele><time>2026-04-19T10:08:32.999Z</time></trkpt><trkpt lat="42.12010012132827" lon="11.961210556944504"><ele>329.8</ele><time>2026-04-19T10:08:34.999Z</time></trkpt><trkpt lat="42.12003004571667" lon="11.96128023065831"><ele>328.40000000000003</ele><time>2026-04-19T10:08:36.999Z</time></trkpt><trkpt lat="42.119972252484686" lon="11.96136715115317"><ele>327.0</ele><time>2026-04-19T10:08:38.999Z</time></trkpt><trkpt lat="42.119946816294785" lon="11.961487045721208"><ele>327.0</ele><time>2026-04-19T10:08:40.999Z</time></trkpt><trkpt lat="42.11995613439049" lon="11.961609281260976"><ele>327.0</ele><time>2026-04-19T10:08:42.999Z</time></trkpt><trkpt lat="42.11998499181143" lon="11.961718288359847"><ele>327.0</ele><time>2026-04-19T10:08:44.999Z</time></trkpt><trkpt lat="42.12002591539345" lon="11.961826288232023"><ele>327.0</ele><time>2026-04-19T10:08:46.999Z</time></trkpt><trkpt lat="42.12005587632656" lon="11.96193505246322"><ele>327.0</ele><time>2026-04-19T10:08:48.999Z</time></trkpt><trkpt lat="42.12007649477828" lon="11.962044302585142"><ele>327.0</ele><time>2026-04-19T10:08:50.999Z</time></trkpt><trkpt lat="42.12007275715092" lon="11.96215488933385"><ele>326.5</ele><time>2026-04-19T10:08:52.999Z</time></trkpt><trkpt lat="42.12004357683867" lon="11.962259174975035"><ele>326.0</ele><time>2026-04-19T10:08:54.999Z</time></trkpt><trkpt lat="42.11999405274903" lon="11.962348050366542"><ele>325.5</ele><time>2026-04-19T10:08:56.999Z</time></trkpt><trkpt lat="42.11992535006102" lon="11.962412284078813"><ele>325.0</ele><time>2026-04-19T10:08:58.999Z</time></trkpt><trkpt lat="42.11986426554384" lon="11.96247708668372"><ele>324.5</ele><time>2026-04-19T10:09:00.999Z</time></trkpt><trkpt lat="42.11979860346467" lon="11.962524068806182"><ele>324.0</ele><time>2026-04-19T10:09:02.999Z</time></trkpt><trkpt lat="42.11973426322482" lon="11.962573987695189"><ele>326.42857142857144</ele><time>2026-04-19T10:09:04.999Z</time></trkpt><trkpt lat="42.11967220504208" lon="11.962624918630025"><ele>328.85714285714283</ele><time>2026-04-19T10:09:06.999Z</time></trkpt><trkpt lat="42.11962584766594" lon="11.962698537095298"><ele>331.2857142857143</ele><time>2026-04-19T10:09:08.999Z</time></trkpt><trkpt lat="42.11958097296033" lon="11.962779019559855"><ele>333.7142857142857</ele><time>2026-04-19T10:09:11Z</time></trkpt><trkpt lat="42.11954194242044" lon="11.962866780331522"><ele>336.14285714285717</ele><time>2026-04-19T10:09:13Z</time></trkpt><trkpt lat="42.119511877363" lon="11.962960476596697"><ele>338.57142857142856</ele><time>2026-04-19T10:09:15Z</time></trkpt><trkpt lat="42.11949169108363" lon="11.963057224117785"><ele>341.0</ele><time>2026-04-19T10:09:17Z</time></trkpt><trkpt lat="42.11948729182813" lon="11.963154947090775"><ele>341.0</ele><time>2026-04-19T10:09:19Z</time></trkpt><trkpt lat="42.11948530670462" lon="11.963248409256211"><ele>341.0</ele><time>2026-04-19T10:09:21Z</time></trkpt><trkpt lat="42.119493057443194" lon="11.963344596730714"><ele>341.0</ele><time>2026-04-19T10:09:23Z</time></trkpt><trkpt lat="42.11951146777665" lon="11.963444165094586"><ele>341.0</ele><time>2026-04-19T10:09:25Z</time></trkpt><trkpt lat="42.119528612591765" lon="11.963542852692688"><ele>341.0</ele><time>2026-04-19T10:09:27Z</time></trkpt><trkpt lat="42.11954808717292" lon="11.96363460068156"><ele>341.0</ele><time>2026-04-19T10:09:29Z</time></trkpt><trkpt lat="42.11957554289174" lon="11.963725502499495"><ele>341.0</ele><time>2026-04-19T10:09:31Z</time></trkpt><trkpt lat="42.11959962150411" lon="11.963823352916084"><ele>342.1666666666667</ele><time>2026-04-19T10:09:33Z</time></trkpt><trkpt lat="42.11963032672871" lon="11.963914643492979"><ele>343.33333333333337</ele><time>2026-04-19T10:09:35Z</time></trkpt><trkpt lat="42.11966246145066" lon="11.964010014165344"><ele>344.5</ele><time>2026-04-19T10:09:37Z</time></trkpt><trkpt lat="42.119691807876386" lon="11.964105976987954"><ele>345.6666666666667</ele><time>2026-04-19T10:09:39Z</time></trkpt><trkpt lat="42.119719608960075" lon="11.96420245916559"><ele>346.8333333333333</ele><time>2026-04-19T10:09:41Z</time></trkpt><trkpt lat="42.11974922029905" lon="11.96429980687019"><ele>348.0</ele><time>2026-04-19T10:09:43Z</time></trkpt><trkpt lat="42.11978376343669" lon="11.964396999759721"><ele>347.1666666666667</ele><time>2026-04-19T10:09:45Z</time></trkpt><trkpt lat="42.11982370171736" lon="11.964492767694182"><ele>346.3333333333333</ele><time>2026-04-19T10:09:47Z</time></trkpt><trkpt lat="42.119871037474" lon="11.964583679018935"><ele>345.5</ele><time>2026-04-19T10:09:49Z</time></trkpt><trkpt lat="42.11991930002911" lon="11.964670160777116"><ele>344.66666666666663</ele><time>2026-04-19T10:09:51Z</time></trkpt><trkpt lat="42.11996703316049" lon="11.964763322954113"><ele>343.8333333333333</ele><time>2026-04-19T10:09:53Z</time></trkpt><trkpt lat="42.12001386788606" lon="11.964852896861478"><ele>343.0</ele><time>2026-04-19T10:09:55Z</time></trkpt><trkpt lat="42.120061917412855" lon="11.964940611374004"><ele>345.0</ele><time>2026-04-19T10:09:57Z</time></trkpt><trkpt lat="42.120103099589855" lon="11.965036072637842"><ele>347.0</ele><time>2026-04-19T10:09:59Z</time></trkpt><trkpt lat="42.12013661766159" lon="11.965136405347273"><ele>349.0</ele><time>2026-04-19T10:10:01Z</time></trkpt><trkpt lat="42.12015709695469" lon="11.965247983389528"><ele>351.0</ele><time>2026-04-19T10:10:03Z</time></trkpt><trkpt lat="42.120162867684044" lon="11.965362123112799"><ele>353.0</ele><time>2026-04-19T10:10:05Z</time></trkpt><trkpt lat="42.12015764800292" lon="11.965475078680335"><ele>355.0</ele><time>2026-04-19T10:10:07Z</time></trkpt><trkpt lat="42.12013779899347" lon="11.965583130247172"><ele>355.0</ele><time>2026-04-19T10:10:09Z</time></trkpt><trkpt lat="42.12013464767261" lon="11.965697279300876"><ele>355.0</ele><time>2026-04-19T10:10:11Z</time></trkpt><trkpt lat="42.120144682473125" lon="11.96581508720411"><ele>355.0</ele><time>2026-04-19T10:10:13Z</time></trkpt><trkpt lat="42.120178940075306" lon="11.965918285989693"><ele>355.0</ele><time>2026-04-19T10:10:15Z</time></trkpt><trkpt lat="42.12022629798745" lon="11.966020564454054"><ele>355.0</ele><time>2026-04-19T10:10:17Z</time></trkpt><trkpt lat="42.12028353536308" lon="11.966113409757892"><ele>355.0</ele><time>2026-04-19T10:10:19Z</time></trkpt><trkpt lat="42.12033576961744" lon="11.966202846242847"><ele>357.0</ele><time>2026-04-19T10:10:21Z</time></trkpt><trkpt lat="42.12039376864275" lon="11.966284285806369"><ele>359.0</ele><time>2026-04-19T10:10:23Z</time></trkpt><trkpt lat="42.12044340315872" lon="11.966366977307409"><ele>361.0</ele><time>2026-04-19T10:10:25Z</time></trkpt><trkpt lat="42.12048706972632" lon="11.966459448026244"><ele>363.0</ele><time>2026-04-19T10:10:27Z</time></trkpt><trkpt lat="42.12052784577573" lon="11.966541331733639"><ele>365.0</ele><time>2026-04-19T10:10:29Z</time></trkpt><trkpt lat="42.12056278951812" lon="11.966621728343696"><ele>367.0</ele><time>2026-04-19T10:10:31Z</time></trkpt><trkpt lat="42.120607581406134" lon="11.966708216880582"><ele>368.0</ele><time>2026-04-19T10:10:32.999Z</time></trkpt><trkpt lat="42.12065777375633" lon="11.96679082701047"><ele>369.0</ele><time>2026-04-19T10:10:34.999Z</time></trkpt><trkpt lat="42.120693628438175" lon="11.966882829999047"><ele>370.0</ele><time>2026-04-19T10:10:36.999Z</time></trkpt><trkpt lat="42.12072725048431" lon="11.966980430855978"><ele>371.0</ele><time>2026-04-19T10:10:38.999Z</time></trkpt><trkpt lat="42.12076427400846" lon="11.967075942129236"><ele>372.0</ele><time>2026-04-19T10:10:40.999Z</time></trkpt><trkpt lat="42.12077823636945" lon="11.967178667390568"><ele>373.0</ele><time>2026-04-19T10:10:42.999Z</time></trkpt><trkpt lat="42.12078057954271" lon="11.967278495468054"><ele>368.8333333333333</ele><time>2026-04-19T10:10:44.999Z</time></trkpt><trkpt lat="42.120787015976966" lon="11.967394753643267"><ele>364.66666666666663</ele><time>2026-04-19T10:10:46.999Z</time></trkpt><trkpt lat="42.120784259783" lon="11.967509036732048"><ele>360.5</ele><time>2026-04-19T10:10:48.999Z</time></trkpt><trkpt lat="42.12078771329003" lon="11.967622915767341"><ele>356.3333333333333</ele><time>2026-04-19T10:10:50.999Z</time></trkpt><trkpt lat="42.120798378824766" lon="11.96774643196666"><ele>352.1666666666667</ele><time>2026-04-19T10:10:52.999Z</time></trkpt><trkpt lat="42.12080228477304" lon="11.967870263802835"><ele>348.0</ele><time>2026-04-19T10:10:54.999Z</time></trkpt><trkpt lat="42.1208087511496" lon="11.967985449776032"><ele>347.59999999999997</ele><time>2026-04-19T10:10:56.999Z</time></trkpt><trkpt lat="42.120805994390345" lon="11.968101627026616"><ele>347.2</ele><time>2026-04-19T10:10:58.999Z</time></trkpt><trkpt lat="42.120797196617715" lon="11.968223291187845"><ele>346.8</ele><time>2026-04-19T10:11:00.999Z</time></trkpt><trkpt lat="42.120775510560605" lon="11.968349763189929"><ele>346.4</ele><time>2026-04-19T10:11:02.999Z</time></trkpt><trkpt lat="42.12073003671658" lon="11.968479173291492"><ele>346.0</ele><time>2026-04-19T10:11:04.999Z</time></trkpt><trkpt lat="42.12064834654018" lon="11.968596049331687"><ele>346.57142857142856</ele><time>2026-04-19T10:11:06.999Z</time></trkpt><trkpt lat="42.120599481005684" lon="11.968654057922855"><ele>347.14285714285717</ele><time>2026-04-19T10:11:07.999Z</time></trkpt><trkpt lat="42.120546685434725" lon="11.968710610149015"><ele>347.7142857142857</ele><time>2026-04-19T10:11:08.999Z</time></trkpt><trkpt lat="42.12048953921459" lon="11.96877118082544"><ele>348.2857142857143</ele><time>2026-04-19T10:11:09.999Z</time></trkpt><trkpt lat="42.1204309921551" lon="11.968837889968132"><ele>348.8571428571429</ele><time>2026-04-19T10:11:10.999Z</time></trkpt><trkpt lat="42.120371933340884" lon="11.968900412007555"><ele>349.42857142857144</ele><time>2026-04-19T10:11:11.999Z</time></trkpt><trkpt lat="42.12030696844935" lon="11.968968355319113"><ele>350.0</ele><time>2026-04-19T10:11:12.999Z</time></trkpt><trkpt lat="42.120241388850026" lon="11.969033720997867"><ele>350.0</ele><time>2026-04-19T10:11:13.999Z</time></trkpt><trkpt lat="42.12017573973191" lon="11.96909843521054"><ele>350.0</ele><time>2026-04-19T10:11:15Z</time></trkpt><trkpt lat="42.1201127538746" lon="11.969161988085949"><ele>350.0</ele><time>2026-04-19T10:11:16Z</time></trkpt><trkpt lat="42.1200466575683" lon="11.969229200597418"><ele>350.0</ele><time>2026-04-19T10:11:17Z</time></trkpt><trkpt lat="42.11998048392608" lon="11.969302124420386"><ele>350.0</ele><time>2026-04-19T10:11:18Z</time></trkpt><trkpt lat="42.11991270457351" lon="11.969374058168066"><ele>350.0</ele><time>2026-04-19T10:11:19Z</time></trkpt><trkpt lat="42.11984969714674" lon="11.969441674872163"><ele>349.6666666666667</ele><time>2026-04-19T10:11:20Z</time></trkpt><trkpt lat="42.11978560602805" lon="11.969520624208503"><ele>349.33333333333337</ele><time>2026-04-19T10:11:21Z</time></trkpt><trkpt lat="42.11972762771446" lon="11.969601491608156"><ele>349.0</ele><time>2026-04-19T10:11:22Z</time></trkpt><trkpt lat="42.11967349068972" lon="11.969688923142781"><ele>348.6666666666667</ele><time>2026-04-19T10:11:23Z</time></trkpt><trkpt lat="42.119622318099175" lon="11.969773154086816"><ele>348.3333333333333</ele><time>2026-04-19T10:11:24Z</time></trkpt><trkpt lat="42.11957189552638" lon="11.969853392772924"><ele>348.0</ele><time>2026-04-19T10:11:25Z</time></trkpt><trkpt lat="42.119524916336395" lon="11.96993766817066"><ele>348.0</ele><time>2026-04-19T10:11:26Z</time></trkpt><trkpt lat="42.11948092943198" lon="11.97001907708645"><ele>348.0</ele><time>2026-04-19T10:11:27Z</time></trkpt><trkpt lat="42.11944573771635" lon="11.970109624230632"><ele>348.0</ele><time>2026-04-19T10:11:28Z</time></trkpt><trkpt lat="42.119416574392474" lon="11.970196810644424"><ele>348.0</ele><time>2026-04-19T10:11:29Z</time></trkpt><trkpt lat="42.11938610786359" lon="11.970282328905917"><ele>348.0</ele><time>2026-04-19T10:11:30Z</time></trkpt><trkpt lat="42.11935686239537" lon="11.970365599395155"><ele>348.0</ele><time>2026-04-19T10:11:31Z</time></trkpt><trkpt lat="42.11932428988505" lon="11.970448096224986"><ele>348.0</ele><time>2026-04-19T10:11:32Z</time></trkpt><trkpt lat="42.119292309698245" lon="11.970526695279274"><ele>346.85714285714283</ele><time>2026-04-19T10:11:33Z</time></trkpt><trkpt lat="42.119260194558635" lon="11.970605119383647"><ele>345.7142857142857</ele><time>2026-04-19T10:11:34Z</time></trkpt><trkpt lat="42.11922694522933" lon="11.970687913554626"><ele>344.57142857142856</ele><time>2026-04-19T10:11:35Z</time></trkpt><trkpt lat="42.119188618978775" lon="11.97076510991354"><ele>343.42857142857144</ele><time>2026-04-19T10:11:36Z</time></trkpt><trkpt lat="42.11914639200259" lon="11.970836203793978"><ele>342.2857142857143</ele><time>2026-04-19T10:11:37Z</time></trkpt><trkpt lat="42.119095954300164" lon="11.97090445307446"><ele>341.14285714285717</ele><time>2026-04-19T10:11:38Z</time></trkpt><trkpt lat="42.119046576726724" lon="11.970970556211636"><ele>340.0</ele><time>2026-04-19T10:11:39Z</time></trkpt><trkpt lat="42.11899574142259" lon="11.971030522430862"><ele>339.8333333333333</ele><time>2026-04-19T10:11:40Z</time></trkpt><trkpt lat="42.11894200871623" lon="11.971077324080273"><ele>339.66666666666663</ele><time>2026-04-19T10:11:41Z</time></trkpt><trkpt lat="42.11888246913203" lon="11.971120087052858"><ele>339.5</ele><time>2026-04-19T10:11:42Z</time></trkpt><trkpt lat="42.11882371217292" lon="11.971155058996684"><ele>339.3333333333333</ele><time>2026-04-19T10:11:43Z</time></trkpt><trkpt lat="42.11871373710492" lon="11.971214413142507"><ele>339.1666666666667</ele><time>2026-04-19T10:11:45Z</time></trkpt><trkpt lat="42.118614135297896" lon="11.97126453334019"><ele>339.0</ele><time>2026-04-19T10:11:47Z</time></trkpt><trkpt lat="42.1185199049286" lon="11.971299583029182"><ele>339.0</ele><time>2026-04-19T10:11:49Z</time></trkpt><trkpt lat="42.11842798438458" lon="11.971315430372238"><ele>339.0</ele><time>2026-04-19T10:11:51Z</time></trkpt><trkpt lat="42.1183389827243" lon="11.971337808589565"><ele>339.0</ele><time>2026-04-19T10:11:53Z</time></trkpt><trkpt lat="42.118247380851614" lon="11.97136922936077"><ele>339.0</ele><time>2026-04-19T10:11:55Z</time></trkpt><trkpt lat="42.1181617907999" lon="11.971398726352644"><ele>339.0</ele><time>2026-04-19T10:11:57Z</time></trkpt><trkpt lat="42.11807835622367" lon="11.971457325509835"><ele>339.1666666666667</ele><time>2026-04-19T10:11:59Z</time></trkpt><trkpt lat="42.11799770452919" lon="11.97150722319609"><ele>339.3333333333333</ele><time>2026-04-19T10:12:01Z</time></trkpt><trkpt lat="42.11792395585622" lon="11.971569795416306"><ele>339.5</ele><time>2026-04-19T10:12:03Z</time></trkpt><trkpt lat="42.117854817794615" lon="11.971634819145997"><ele>339.66666666666663</ele><time>2026-04-19T10:12:05Z</time></trkpt><trkpt lat="42.11778995494867" lon="11.97170174417908"><ele>339.8333333333333</ele><time>2026-04-19T10:12:07Z</time></trkpt><trkpt lat="42.11771661518489" lon="11.971770634229353"><ele>340.0</ele><time>2026-04-19T10:12:09Z</time></trkpt><trkpt lat="42.117649504022594" lon="11.97184054519108"><ele>340.0</ele><time>2026-04-19T10:12:11Z</time></trkpt><trkpt lat="42.11757545216211" lon="11.971905857715907"><ele>340.0</ele><time>2026-04-19T10:12:13Z</time></trkpt><trkpt lat="42.117502498842846" lon="11.971971156592842"><ele>340.0</ele><time>2026-04-19T10:12:15Z</time></trkpt><trkpt lat="42.117427569795765" lon="11.972043858577493"><ele>340.0</ele><time>2026-04-19T10:12:17Z</time></trkpt><trkpt lat="42.1173539176151" lon="11.972111612816876"><ele>340.0</ele><time>2026-04-19T10:12:19Z</time></trkpt><trkpt lat="42.11727602196541" lon="11.972174584630945"><ele>340.0</ele><time>2026-04-19T10:12:21Z</time></trkpt><trkpt lat="42.11719848991286" lon="11.972246136334393"><ele>340.0</ele><time>2026-04-19T10:12:23Z</time></trkpt><trkpt lat="42.11711762721692" lon="11.972309698576666"><ele>340.0</ele><time>2026-04-19T10:12:25Z</time></trkpt><trkpt lat="42.11704544033421" lon="11.972386283894835"><ele>340.0</ele><time>2026-04-19T10:12:27Z</time></trkpt><trkpt lat="42.1169658905272" lon="11.97245043565521"><ele>340.0</ele><time>2026-04-19T10:12:29Z</time></trkpt><trkpt lat="42.11688485665682" lon="11.97251798474808"><ele>340.0</ele><time>2026-04-19T10:12:31Z</time></trkpt><trkpt lat="42.1167973209292" lon="11.972581960073445"><ele>340.0</ele><time>2026-04-19T10:12:33Z</time></trkpt><trkpt lat="42.11670845821341" lon="11.972662856614978"><ele>340.0</ele><time>2026-04-19T10:12:35Z</time></trkpt><trkpt lat="42.1166175932436" lon="11.972742898096586"><ele>340.0</ele><time>2026-04-19T10:12:37Z</time></trkpt><trkpt lat="42.11652519068446" lon="11.972824442464184"><ele>340.0</ele><time>2026-04-19T10:12:39Z</time></trkpt><trkpt lat="42.11644208563886" lon="11.972913936885668"><ele>340.0</ele><time>2026-04-19T10:12:41Z</time></trkpt><trkpt lat="42.11637406681061" lon="11.973015000649104"><ele>341.4</ele><time>2026-04-19T10:12:42.999Z</time></trkpt><trkpt lat="42.11631431216529" lon="11.97312099195288"><ele>342.8</ele><time>2026-04-19T10:12:44.999Z</time></trkpt><trkpt lat="42.116262913812825" lon="11.973232338796837"><ele>344.20000000000005</ele><time>2026-04-19T10:12:46.999Z</time></trkpt><trkpt lat="42.116217169998116" lon="11.973349154192531"><ele>345.6</ele><time>2026-04-19T10:12:48.999Z</time></trkpt><trkpt lat="42.11617422534255" lon="11.97346884045261"><ele>347.0</ele><time>2026-04-19T10:12:50.999Z</time></trkpt><trkpt lat="42.11612939893899" lon="11.973585697242656"><ele>347.0</ele><time>2026-04-19T10:12:52.999Z</time></trkpt><trkpt lat="42.11608263584477" lon="11.97369412753172"><ele>347.0</ele><time>2026-04-19T10:12:54.999Z</time></trkpt><trkpt lat="42.11602794336803" lon="11.973795097355264"><ele>347.0</ele><time>2026-04-19T10:12:56.999Z</time></trkpt><trkpt lat="42.11597473558324" lon="11.973897888722712"><ele>347.0</ele><time>2026-04-19T10:12:58.999Z</time></trkpt><trkpt lat="42.115910646018385" lon="11.973986380225387"><ele>347.0</ele><time>2026-04-19T10:13:00.999Z</time></trkpt><trkpt lat="42.11585620363971" lon="11.974061464144835"><ele>347.0</ele><time>2026-04-19T10:13:02.999Z</time></trkpt><trkpt lat="42.11579601019936" lon="11.974143747260259"><ele>346.0</ele><time>2026-04-19T10:13:07.999Z</time></trkpt><trkpt lat="42.1157401130094" lon="11.974218483221522"><ele>345.0</ele><time>2026-04-19T10:13:10.999Z</time></trkpt><trkpt lat="42.115920114438424" lon="11.974486953737655"><ele>344.0</ele><time>2026-04-19T10:16:14Z</time></trkpt><trkpt lat="42.11587141591206" lon="11.974429871842768"><ele>343.0</ele><time>2026-04-19T10:21:37.999Z</time></trkpt><trkpt lat="42.11581746103757" lon="11.974482372664037"><ele>343.0</ele><time>2026-04-19T10:21:47Z</time></trkpt><trkpt lat="42.11575300951713" lon="11.974508874330818"><ele>343.0</ele><time>2026-04-19T10:21:52Z</time></trkpt><trkpt lat="42.11569082771238" lon="11.97452756369392"><ele>343.0</ele><time>2026-04-19T10:21:57Z</time></trkpt><trkpt lat="42.115764927102845" lon="11.974516133521291"><ele>343.0</ele><time>2026-04-19T10:22:11Z</time></trkpt><trkpt lat="42.11582576618622" lon="11.974470300803436"><ele>343.0</ele><time>2026-04-19T10:22:16Z</time></trkpt><trkpt lat="42.115899803713795" lon="11.974459361219466"><ele>343.0</ele><time>2026-04-19T10:22:40Z</time></trkpt><trkpt lat="42.11596206975841" lon="11.97449299023306"><ele>343.0</ele><time>2026-04-19T10:22:47Z</time></trkpt><trkpt lat="42.115897690365" lon="11.97446436448123"><ele>343.0</ele><time>2026-04-19T10:32:11.999Z</time></trkpt><trkpt lat="42.11583503862273" lon="11.974423794789328"><ele>343.0</ele><time>2026-04-19T10:32:18.999Z</time></trkpt><trkpt lat="42.11577194229267" lon="11.974465587786046"><ele>343.0</ele><time>2026-04-19T10:35:03.999Z</time></trkpt><trkpt lat="42.115714287209975" lon="11.974501416138455"><ele>343.0</ele><time>2026-04-19T10:35:28.999Z</time></trkpt><trkpt lat="42.11586896480993" lon="11.974394994504703"><ele>343.0</ele><time>2026-04-19T10:37:56.999Z</time></trkpt><trkpt lat="42.1159174623206" lon="11.97433393674417"><ele>343.0</ele><time>2026-04-19T10:37:59.999Z</time></trkpt><trkpt lat="42.115930954605325" lon="11.974229862507176"><ele>343.57142857142856</ele><time>2026-04-19T10:38:03.999Z</time></trkpt><trkpt lat="42.11590075511355" lon="11.974136209447954"><ele>344.1428571428571</ele><time>2026-04-19T10:38:09.999Z</time></trkpt><trkpt lat="42.11594393976601" lon="11.974058093591019"><ele>344.7142857142857</ele><time>2026-04-19T10:38:12.999Z</time></trkpt><trkpt lat="42.115947096370036" lon="11.973969861610026"><ele>345.2857142857143</ele><time>2026-04-19T10:38:14.999Z</time></trkpt><trkpt lat="42.11600126982565" lon="11.973891020689198"><ele>345.85714285714283</ele><time>2026-04-19T10:38:16.999Z</time></trkpt><trkpt lat="42.11604470017303" lon="11.973805868312585"><ele>346.42857142857144</ele><time>2026-04-19T10:38:18.999Z</time></trkpt><trkpt lat="42.11608888040229" lon="11.97371703902933"><ele>347.0</ele><time>2026-04-19T10:38:20.999Z</time></trkpt><trkpt lat="42.1161312303652" lon="11.973628824199027"><ele>347.0</ele><time>2026-04-19T10:38:22.999Z</time></trkpt><trkpt lat="42.116172235047166" lon="11.973538494439499"><ele>347.0</ele><time>2026-04-19T10:38:24.999Z</time></trkpt><trkpt lat="42.116202909957764" lon="11.973423460241268"><ele>347.0</ele><time>2026-04-19T10:38:26.999Z</time></trkpt><trkpt lat="42.1162410464069" lon="11.973305385713976"><ele>347.0</ele><time>2026-04-19T10:38:28.999Z</time></trkpt><trkpt lat="42.116296802110945" lon="11.973200092545436"><ele>347.0</ele><time>2026-04-19T10:38:30.999Z</time></trkpt><trkpt lat="42.116359512180765" lon="11.97309684128018"><ele>348.25</ele><time>2026-04-19T10:38:32.999Z</time></trkpt><trkpt lat="42.116431471768806" lon="11.972983419385535"><ele>349.5</ele><time>2026-04-19T10:38:34.999Z</time></trkpt><trkpt lat="42.11651982050097" lon="11.97288791461722"><ele>350.75</ele><time>2026-04-19T10:38:36.999Z</time></trkpt><trkpt lat="42.11661336889286" lon="11.972792539268974"><ele>352.0</ele><time>2026-04-19T10:38:38.999Z</time></trkpt><trkpt lat="42.11671104561671" lon="11.972711176983848"><ele>351.75</ele><time>2026-04-19T10:38:40.999Z</time></trkpt><trkpt lat="42.116807093494366" lon="11.972628702035705"><ele>351.5</ele><time>2026-04-19T10:38:42.999Z</time></trkpt><trkpt lat="42.11690282847303" lon="11.972546217908304"><ele>351.25</ele><time>2026-04-19T10:38:44.999Z</time></trkpt><trkpt lat="42.11700267890852" lon="11.97245691620333"><ele>351.0</ele><time>2026-04-19T10:38:46.999Z</time></trkpt><trkpt lat="42.11710538505723" lon="11.972366901306618"><ele>351.0</ele><time>2026-04-19T10:38:48.999Z</time></trkpt><trkpt lat="42.11715946385468" lon="11.972319641820304"><ele>351.0</ele><time>2026-04-19T10:38:49.999Z</time></trkpt><trkpt lat="42.11720983435808" lon="11.972266746320607"><ele>351.0</ele><time>2026-04-19T10:38:50.999Z</time></trkpt><trkpt lat="42.117264930466476" lon="11.97222018263496"><ele>351.0</ele><time>2026-04-19T10:38:51.999Z</time></trkpt><trkpt lat="42.11732089606083" lon="11.972176303302959"><ele>351.0</ele><time>2026-04-19T10:38:52.999Z</time></trkpt><trkpt lat="42.11742056195266" lon="11.972084431243719"><ele>351.0</ele><time>2026-04-19T10:38:54.999Z</time></trkpt><trkpt lat="42.117519558795" lon="11.971993410891283"><ele>351.6</ele><time>2026-04-19T10:38:56.999Z</time></trkpt><trkpt lat="42.11761838010848" lon="11.97190211058925"><ele>352.20000000000005</ele><time>2026-04-19T10:38:58.999Z</time></trkpt><trkpt lat="42.11771811083538" lon="11.971808787174565"><ele>352.79999999999995</ele><time>2026-04-19T10:39:00.999Z</time></trkpt><trkpt lat="42.11781654640298" lon="11.971707152318816"><ele>353.4</ele><time>2026-04-19T10:39:02.999Z</time></trkpt><trkpt lat="42.11786883573634" lon="11.971658829248499"><ele>354.0</ele><time>2026-04-19T10:39:03.999Z</time></trkpt><trkpt lat="42.11792062120059" lon="11.971608854427732"><ele>354.0</ele><time>2026-04-19T10:39:04.999Z</time></trkpt><trkpt lat="42.117976797912085" lon="11.971558962123403"><ele>354.0</ele><time>2026-04-19T10:39:05.999Z</time></trkpt><trkpt lat="42.11803527109029" lon="11.971510130743177"><ele>354.0</ele><time>2026-04-19T10:39:06.999Z</time></trkpt><trkpt lat="42.118097783566455" lon="11.97147112674949"><ele>354.0</ele><time>2026-04-19T10:39:07.999Z</time></trkpt><trkpt lat="42.11816154746801" lon="11.971442549536228"><ele>354.0</ele><time>2026-04-19T10:39:08.999Z</time></trkpt><trkpt lat="42.11822386164687" lon="11.971416627229061"><ele>354.0</ele><time>2026-04-19T10:39:09.999Z</time></trkpt><trkpt lat="42.11828984507999" lon="11.9713984872287"><ele>354.0</ele><time>2026-04-19T10:39:10.999Z</time></trkpt><trkpt lat="42.118352981362406" lon="11.971379828413099"><ele>350.25</ele><time>2026-04-19T10:39:11.999Z</time></trkpt><trkpt lat="42.11847387627945" lon="11.971354826305369"><ele>346.5</ele><time>2026-04-19T10:39:13.999Z</time></trkpt><trkpt lat="42.11859213268237" lon="11.971313174469262"><ele>342.75</ele><time>2026-04-19T10:39:15.999Z</time></trkpt><trkpt lat="42.11870534130688" lon="11.971256935670667"><ele>339.0</ele><time>2026-04-19T10:39:17.999Z</time></trkpt><trkpt lat="42.11881411270255" lon="11.97119765285168"><ele>339.0</ele><time>2026-04-19T10:39:19.999Z</time></trkpt><trkpt lat="42.11891520351901" lon="11.971129664440898"><ele>339.0</ele><time>2026-04-19T10:39:21.999Z</time></trkpt><trkpt lat="42.119008264503684" lon="11.971052711603258"><ele>339.0</ele><time>2026-04-19T10:39:23.999Z</time></trkpt><trkpt lat="42.119081200852925" lon="11.97095818811903"><ele>339.0</ele><time>2026-04-19T10:39:25.999Z</time></trkpt><trkpt lat="42.11916046920443" lon="11.970874787171335"><ele>339.0</ele><time>2026-04-19T10:39:27.999Z</time></trkpt><trkpt lat="42.119221558279165" lon="11.970773735260908"><ele>339.2</ele><time>2026-04-19T10:39:29.999Z</time></trkpt><trkpt lat="42.119272829372946" lon="11.970667135540047"><ele>339.4</ele><time>2026-04-19T10:39:31.999Z</time></trkpt><trkpt lat="42.119319575446866" lon="11.970550313090577"><ele>339.6</ele><time>2026-04-19T10:39:33.999Z</time></trkpt><trkpt lat="42.11936311584076" lon="11.970440185083149"><ele>339.8</ele><time>2026-04-19T10:39:35.999Z</time></trkpt><trkpt lat="42.11940644604219" lon="11.97032627684931"><ele>340.0</ele><time>2026-04-19T10:39:37.999Z</time></trkpt><trkpt lat="42.119445988956805" lon="11.970221297433648"><ele>340.0</ele><time>2026-04-19T10:39:39.999Z</time></trkpt><trkpt lat="42.11947206688061" lon="11.97010749984611"><ele>340.0</ele><time>2026-04-19T10:39:41.999Z</time></trkpt><trkpt lat="42.11952635977818" lon="11.97002207952439"><ele>340.0</ele><time>2026-04-19T10:39:43.999Z</time></trkpt><trkpt lat="42.11957145181741" lon="11.96993087285032"><ele>340.0</ele><time>2026-04-19T10:39:45.999Z</time></trkpt><trkpt lat="42.11960731858153" lon="11.969828415393177"><ele>340.0</ele><time>2026-04-19T10:39:47.999Z</time></trkpt><trkpt lat="42.11966052155467" lon="11.969744955924877"><ele>340.0</ele><time>2026-04-19T10:39:49.999Z</time></trkpt><trkpt lat="42.11971657074296" lon="11.969664838708743"><ele>339.3333333333333</ele><time>2026-04-19T10:39:51.999Z</time></trkpt><trkpt lat="42.11977198197184" lon="11.969584246083057"><ele>338.66666666666663</ele><time>2026-04-19T10:39:53.999Z</time></trkpt><trkpt lat="42.11983240124323" lon="11.969508909889544"><ele>338.0</ele><time>2026-04-19T10:39:55.999Z</time></trkpt><trkpt lat="42.119895323190114" lon="11.969440823439424"><ele>337.3333333333333</ele><time>2026-04-19T10:39:57.999Z</time></trkpt><trkpt lat="42.11995509513467" lon="11.969374187312532"><ele>336.6666666666667</ele><time>2026-04-19T10:39:59.999Z</time></trkpt><trkpt lat="42.1200099338032" lon="11.969314784618739"><ele>336.0</ele><time>2026-04-19T10:40:01.999Z</time></trkpt><trkpt lat="42.12006348309244" lon="11.969262241545152"><ele>336.0</ele><time>2026-04-19T10:40:03.999Z</time></trkpt><trkpt lat="42.12011540427164" lon="11.96921163689434"><ele>336.0</ele><time>2026-04-19T10:40:05.999Z</time></trkpt><trkpt lat="42.12017073501702" lon="11.96915581014271"><ele>336.0</ele><time>2026-04-19T10:40:07.999Z</time></trkpt><trkpt lat="42.120227827087774" lon="11.96910241491802"><ele>336.0</ele><time>2026-04-19T10:40:09.999Z</time></trkpt><trkpt lat="42.12028127862795" lon="11.969045117735854"><ele>336.0</ele><time>2026-04-19T10:40:11.999Z</time></trkpt><trkpt lat="42.120350031145186" lon="11.96896402514831"><ele>336.0</ele><time>2026-04-19T10:40:14.999Z</time></trkpt><trkpt lat="42.12040182443696" lon="11.968908702204345"><ele>336.0</ele><time>2026-04-19T10:40:16.999Z</time></trkpt><trkpt lat="42.1204527800514" lon="11.968857113406347"><ele>336.42857142857144</ele><time>2026-04-19T10:40:18.999Z</time></trkpt><trkpt lat="42.120504717740324" lon="11.968801588619069"><ele>336.8571428571429</ele><time>2026-04-19T10:40:20.999Z</time></trkpt><trkpt lat="42.12055208704661" lon="11.96874118620312"><ele>337.2857142857143</ele><time>2026-04-19T10:40:22.999Z</time></trkpt><trkpt lat="42.12060422650754" lon="11.968686737731003"><ele>337.7142857142857</ele><time>2026-04-19T10:40:24.999Z</time></trkpt><trkpt lat="42.12065277911791" lon="11.968631509954617"><ele>338.14285714285717</ele><time>2026-04-19T10:40:26.999Z</time></trkpt><trkpt lat="42.12069465075968" lon="11.96856796329029"><ele>338.57142857142856</ele><time>2026-04-19T10:40:28.999Z</time></trkpt><trkpt lat="42.120766520107566" lon="11.968489450888582"><ele>339.0</ele><time>2026-04-19T10:40:31.999Z</time></trkpt><trkpt lat="42.12080363013183" lon="11.968409869968456"><ele>340.1666666666667</ele><time>2026-04-19T10:40:33.999Z</time></trkpt><trkpt lat="42.12082971628418" lon="11.968316619455244"><ele>341.3333333333333</ele><time>2026-04-19T10:40:35.999Z</time></trkpt><trkpt lat="42.12083784904143" lon="11.968212709692517"><ele>342.5</ele><time>2026-04-19T10:40:37.999Z</time></trkpt><trkpt lat="42.12084035440752" lon="11.968112909293486"><ele>343.66666666666663</ele><time>2026-04-19T10:40:39.999Z</time></trkpt><trkpt lat="42.12083760501137" lon="11.968000265701297"><ele>344.8333333333333</ele><time>2026-04-19T10:40:41.999Z</time></trkpt><trkpt lat="42.12083303884626" lon="11.967883596249495"><ele>346.0</ele><time>2026-04-19T10:40:43.999Z</time></trkpt><trkpt lat="42.12082822297003" lon="11.967763744482534"><ele>346.0</ele><time>2026-04-19T10:40:45.999Z</time></trkpt><trkpt lat="42.120823096225635" lon="11.967636156258717"><ele>346.0</ele><time>2026-04-19T10:40:47.999Z</time></trkpt><trkpt lat="42.12082052498796" lon="11.967513476190689"><ele>346.0</ele><time>2026-04-19T10:40:49.999Z</time></trkpt><trkpt lat="42.12081908650403" lon="11.967386170220884"><ele>346.0</ele><time>2026-04-19T10:40:51.999Z</time></trkpt><trkpt lat="42.12081771819902" lon="11.967250670304175"><ele>346.0</ele><time>2026-04-19T10:40:53.999Z</time></trkpt><trkpt lat="42.120807827072596" lon="11.96710941061314"><ele>346.4</ele><time>2026-04-19T10:40:55.999Z</time></trkpt><trkpt lat="42.12077369999427" lon="11.966963089116861"><ele>346.8</ele><time>2026-04-19T10:40:57.999Z</time></trkpt><trkpt lat="42.12069951610655" lon="11.966827826333926"><ele>347.2</ele><time>2026-04-19T10:40:59.999Z</time></trkpt><trkpt lat="42.120638071289655" lon="11.966682870983652"><ele>347.59999999999997</ele><time>2026-04-19T10:41:01.999Z</time></trkpt><trkpt lat="42.12060154163494" lon="11.966611297571719"><ele>348.0</ele><time>2026-04-19T10:41:02.999Z</time></trkpt><trkpt lat="42.12056216767122" lon="11.966539267455508"><ele>350.7142857142857</ele><time>2026-04-19T10:41:03.999Z</time></trkpt><trkpt lat="42.12052548111298" lon="11.966465885909098"><ele>353.42857142857144</ele><time>2026-04-19T10:41:04.999Z</time></trkpt><trkpt lat="42.12048415161025" lon="11.966390917948319"><ele>356.1428571428571</ele><time>2026-04-19T10:41:05.999Z</time></trkpt><trkpt lat="42.12044035686221" lon="11.96631453628327"><ele>358.8571428571429</ele><time>2026-04-19T10:41:06.999Z</time></trkpt><trkpt lat="42.120398845791264" lon="11.966231940458632"><ele>361.5714285714286</ele><time>2026-04-19T10:41:07.999Z</time></trkpt><trkpt lat="42.12034980270375" lon="11.966152618820956"><ele>364.2857142857143</ele><time>2026-04-19T10:41:08.999Z</time></trkpt><trkpt lat="42.12029985327746" lon="11.966072037154916"><ele>367.0</ele><time>2026-04-19T10:41:09.999Z</time></trkpt><trkpt lat="42.120246739918755" lon="11.965990854509707"><ele>367.0</ele><time>2026-04-19T10:41:10.999Z</time></trkpt><trkpt lat="42.12020287456918" lon="11.965902951039563"><ele>367.0</ele><time>2026-04-19T10:41:11.999Z</time></trkpt><trkpt lat="42.12017120581554" lon="11.965801268983121"><ele>367.0</ele><time>2026-04-19T10:41:12.999Z</time></trkpt><trkpt lat="42.120162208353754" lon="11.965688379853837"><ele>367.0</ele><time>2026-04-19T10:41:13.999Z</time></trkpt><trkpt lat="42.120168478696286" lon="11.965575917291718"><ele>367.0</ele><time>2026-04-19T10:41:14.999Z</time></trkpt><trkpt lat="42.120184252306466" lon="11.965465112713979"><ele>367.0</ele><time>2026-04-19T10:41:15.999Z</time></trkpt><trkpt lat="42.12019000934805" lon="11.96536324787073"><ele>365.0</ele><time>2026-04-19T10:41:16.999Z</time></trkpt><trkpt lat="42.12018899876971" lon="11.965256432084834"><ele>363.0</ele><time>2026-04-19T10:41:17.999Z</time></trkpt><trkpt lat="42.120190772785016" lon="11.965156121745917"><ele>361.0</ele><time>2026-04-19T10:41:18.999Z</time></trkpt><trkpt lat="42.12015088444796" lon="11.965059703928066"><ele>359.0</ele><time>2026-04-19T10:41:19.999Z</time></trkpt><trkpt lat="42.12011546046749" lon="11.964966854722553"><ele>357.0</ele><time>2026-04-19T10:41:20.999Z</time></trkpt><trkpt lat="42.12007057646937" lon="11.964879230340786"><ele>355.0</ele><time>2026-04-19T10:41:21.999Z</time></trkpt><trkpt lat="42.120023752974056" lon="11.9647928973466"><ele>356.66666666666663</ele><time>2026-04-19T10:41:22.999Z</time></trkpt><trkpt lat="42.11996704258485" lon="11.964705525280435"><ele>358.3333333333333</ele><time>2026-04-19T10:41:23.999Z</time></trkpt><trkpt lat="42.11991553486518" lon="11.964623772806975"><ele>360.0</ele><time>2026-04-19T10:41:24.999Z</time></trkpt><trkpt lat="42.11986056980834" lon="11.964526800739236"><ele>361.6666666666667</ele><time>2026-04-19T10:41:25.999Z</time></trkpt><trkpt lat="42.11981678160009" lon="11.964425227946345"><ele>363.33333333333337</ele><time>2026-04-19T10:41:26.999Z</time></trkpt><trkpt lat="42.11979243056062" lon="11.964313002254233"><ele>365.0</ele><time>2026-04-19T10:41:27.999Z</time></trkpt><trkpt lat="42.11976006120885" lon="11.964208027349253"><ele>362.1666666666667</ele><time>2026-04-19T10:41:28.999Z</time></trkpt><trkpt lat="42.11972792401064" lon="11.964099611290091"><ele>359.33333333333337</ele><time>2026-04-19T10:41:29.999Z</time></trkpt><trkpt lat="42.11969542115494" lon="11.963994004930552"><ele>356.5</ele><time>2026-04-19T10:41:30.999Z</time></trkpt><trkpt lat="42.11966351403017" lon="11.96389033418359"><ele>353.6666666666667</ele><time>2026-04-19T10:41:31.999Z</time></trkpt><trkpt lat="42.11963171309312" lon="11.963787008454851"><ele>350.8333333333333</ele><time>2026-04-19T10:41:32.999Z</time></trkpt><trkpt lat="42.11959921622372" lon="11.963681421558954"><ele>348.0</ele><time>2026-04-19T10:41:33.999Z</time></trkpt><trkpt lat="42.11957226204815" lon="11.963574234206677"><ele>348.0</ele><time>2026-04-19T10:41:34.999Z</time></trkpt><trkpt lat="42.11954867621132" lon="11.963465264111065"><ele>348.0</ele><time>2026-04-19T10:41:35.999Z</time></trkpt><trkpt lat="42.119528426591195" lon="11.963350356221707"><ele>348.0</ele><time>2026-04-19T10:41:36.999Z</time></trkpt><trkpt lat="42.119521072303925" lon="11.96323012075948"><ele>348.0</ele><time>2026-04-19T10:41:37.999Z</time></trkpt><trkpt lat="42.11952483648527" lon="11.963107564311544"><ele>348.0</ele><time>2026-04-19T10:41:38.999Z</time></trkpt><trkpt lat="42.11954112737433" lon="11.962991756133057"><ele>348.0</ele><time>2026-04-19T10:41:39.999Z</time></trkpt><trkpt lat="42.119560754190346" lon="11.962870592754523"><ele>346.59999999999997</ele><time>2026-04-19T10:41:40.999Z</time></trkpt><trkpt lat="42.119610428884" lon="11.96276732151096"><ele>345.2</ele><time>2026-04-19T10:41:41.999Z</time></trkpt><trkpt lat="42.119677726223514" lon="11.962680495863879"><ele>343.8</ele><time>2026-04-19T10:41:42.999Z</time></trkpt><trkpt lat="42.11975480248095" lon="11.962607079744306"><ele>342.4</ele><time>2026-04-19T10:41:43.999Z</time></trkpt><trkpt lat="42.119835822479665" lon="11.962543614243279"><ele>341.0</ele><time>2026-04-19T10:41:44.999Z</time></trkpt><trkpt lat="42.119917111514376" lon="11.962473755871551"><ele>337.6</ele><time>2026-04-19T10:41:45.999Z</time></trkpt><trkpt lat="42.11999410077474" lon="11.962394360912329"><ele>334.20000000000005</ele><time>2026-04-19T10:41:46.999Z</time></trkpt><trkpt lat="42.12005391829662" lon="11.962292558288953"><ele>330.79999999999995</ele><time>2026-04-19T10:41:47.999Z</time></trkpt><trkpt lat="42.12008505316546" lon="11.962171292078747"><ele>327.4</ele><time>2026-04-19T10:41:48.999Z</time></trkpt><trkpt lat="42.120095210961146" lon="11.962042950351293"><ele>324.0</ele><time>2026-04-19T10:41:49.999Z</time></trkpt><trkpt lat="42.120089384317396" lon="11.96191098575457"><ele>324.0</ele><time>2026-04-19T10:41:50.999Z</time></trkpt><trkpt lat="42.12004601500249" lon="11.961788731437366"><ele>324.0</ele><time>2026-04-19T10:41:51.999Z</time></trkpt><trkpt lat="42.120009995862766" lon="11.961674563482834"><ele>324.0</ele><time>2026-04-19T10:41:52.999Z</time></trkpt><trkpt lat="42.11998684684252" lon="11.961560969215057"><ele>324.0</ele><time>2026-04-19T10:41:53.999Z</time></trkpt><trkpt lat="42.119972699566034" lon="11.961447941496152"><ele>324.0</ele><time>2026-04-19T10:41:54.999Z</time></trkpt><trkpt lat="42.12001711076265" lon="11.961342880883768"><ele>324.5</ele><time>2026-04-19T10:41:55.999Z</time></trkpt><trkpt lat="42.120089857087045" lon="11.961272837071572"><ele>325.0</ele><time>2026-04-19T10:41:56.999Z</time></trkpt><trkpt lat="42.12016496198897" lon="11.961221082170178"><ele>325.5</ele><time>2026-04-19T10:41:57.999Z</time></trkpt><trkpt lat="42.12024218775572" lon="11.961182795899838"><ele>326.0</ele><time>2026-04-19T10:41:58.999Z</time></trkpt><trkpt lat="42.12031834467596" lon="11.961162389879268"><ele>326.5</ele><time>2026-04-19T10:41:59.999Z</time></trkpt><trkpt lat="42.12039253120365" lon="11.961133024846626"><ele>327.0</ele><time>2026-04-19T10:42:00.999Z</time></trkpt><trkpt lat="42.12046011613874" lon="11.961092728359919"><ele>327.0</ele><time>2026-04-19T10:42:01.999Z</time></trkpt><trkpt lat="42.12051847825933" lon="11.961043540038029"><ele>327.0</ele><time>2026-04-19T10:42:02.999Z</time></trkpt><trkpt lat="42.1205642978265" lon="11.960979021706288"><ele>327.0</ele><time>2026-04-19T10:42:03.999Z</time></trkpt><trkpt lat="42.12059470044377" lon="11.960898282431767"><ele>327.0</ele><time>2026-04-19T10:42:04.999Z</time></trkpt><trkpt lat="42.120614195141684" lon="11.960816898284307"><ele>327.0</ele><time>2026-04-19T10:42:05.999Z</time></trkpt><trkpt lat="42.12061388610406" lon="11.960658858660713"><ele>327.0</ele><time>2026-04-19T10:42:07.999Z</time></trkpt><trkpt lat="42.12057461841617" lon="11.960512491093438"><ele>328.75</ele><time>2026-04-19T10:42:09.999Z</time></trkpt><trkpt lat="42.12052542428821" lon="11.96036790633865"><ele>330.5</ele><time>2026-04-19T10:42:11.999Z</time></trkpt><trkpt lat="42.120491517908114" lon="11.960213056127524"><ele>332.25</ele><time>2026-04-19T10:42:13.999Z</time></trkpt><trkpt lat="42.12049748216694" lon="11.960053252275985"><ele>334.0</ele><time>2026-04-19T10:42:15.999Z</time></trkpt><trkpt lat="42.12054391257345" lon="11.959912239536598"><ele>335.79999999999995</ele><time>2026-04-19T10:42:17.999Z</time></trkpt><trkpt lat="42.12059857302078" lon="11.959784392156298"><ele>337.59999999999997</ele><time>2026-04-19T10:42:19.999Z</time></trkpt><trkpt lat="42.12064663147679" lon="11.959657570101884"><ele>339.4</ele><time>2026-04-19T10:42:21.999Z</time></trkpt><trkpt lat="42.12068692784732" lon="11.95952964295933"><ele>341.2</ele><time>2026-04-19T10:42:23.999Z</time></trkpt><trkpt lat="42.12070594590893" lon="11.959405355468757"><ele>343.0</ele><time>2026-04-19T10:42:25.999Z</time></trkpt><trkpt lat="42.120704327517" lon="11.959280596278388"><ele>342.59999999999997</ele><time>2026-04-19T10:42:27.999Z</time></trkpt><trkpt lat="42.120677380070944" lon="11.959160705514122"><ele>342.2</ele><time>2026-04-19T10:42:29.999Z</time></trkpt><trkpt lat="42.120632411838336" lon="11.959053062842136"><ele>341.8</ele><time>2026-04-19T10:42:31.999Z</time></trkpt><trkpt lat="42.12058019032807" lon="11.958954722312653"><ele>341.4</ele><time>2026-04-19T10:42:33.999Z</time></trkpt><trkpt lat="42.12052268999207" lon="11.958849558386447"><ele>341.0</ele><time>2026-04-19T10:42:35.999Z</time></trkpt><trkpt lat="42.12047119333343" lon="11.958730017746054"><ele>341.0</ele><time>2026-04-19T10:42:37.999Z</time></trkpt><trkpt lat="42.120428680978335" lon="11.958595876217489"><ele>341.0</ele><time>2026-04-19T10:42:39.999Z</time></trkpt><trkpt lat="42.12041153035147" lon="11.958444613457942"><ele>341.0</ele><time>2026-04-19T10:42:41.999Z</time></trkpt><trkpt lat="42.120407538980196" lon="11.95828594517432"><ele>341.0</ele><time>2026-04-19T10:42:43.999Z</time></trkpt><trkpt lat="42.12041723523303" lon="11.958127833811263"><ele>339.5</ele><time>2026-04-19T10:42:45.999Z</time></trkpt><trkpt lat="42.12043046613481" lon="11.957963355612748"><ele>338.0</ele><time>2026-04-19T10:42:47.999Z</time></trkpt><trkpt lat="42.12044254549285" lon="11.957805133622122"><ele>336.5</ele><time>2026-04-19T10:42:49.999Z</time></trkpt><trkpt lat="42.120449868368475" lon="11.957654325419847"><ele>335.0</ele><time>2026-04-19T10:42:51.999Z</time></trkpt><trkpt lat="42.12046235244627" lon="11.957513036633038"><ele>335.0</ele><time>2026-04-19T10:42:53.999Z</time></trkpt><trkpt lat="42.12050064306591" lon="11.957386888720555"><ele>335.0</ele><time>2026-04-19T10:42:55.999Z</time></trkpt><trkpt lat="42.12049398984272" lon="11.957269900012186"><ele>335.0</ele><time>2026-04-19T10:42:59.999Z</time></trkpt><trkpt lat="42.12055770752284" lon="11.957283088106411"><ele>335.0</ele><time>2026-04-19T10:43:04.999Z</time></trkpt><trkpt lat="42.120492120041575" lon="11.957129997422644"><ele>335.0</ele><time>2026-04-19T10:43:07.999Z</time></trkpt><trkpt lat="42.120515054178" lon="11.957030709787484"><ele>334.99999999999994</ele><time>2026-04-19T10:43:11.999Z</time></trkpt><trkpt lat="42.12054658660507" lon="11.956953468371585"><ele>335.0</ele><time>2026-04-19T10:43:15Z</time></trkpt><trkpt lat="42.12056981436482" lon="11.956862733300932"><ele>335.0</ele><time>2026-04-19T10:43:19Z</time></trkpt><trkpt lat="42.12057621423841" lon="11.956761365706361"><ele>335.0</ele><time>2026-04-19T10:43:23Z</time></trkpt><trkpt lat="42.120576871197486" lon="11.956667740660986"><ele>335.0</ele><time>2026-04-19T10:43:27Z</time></trkpt><trkpt lat="42.12059110605793" lon="11.956573939772506"><ele>334.99999999999994</ele><time>2026-04-19T10:43:30Z</time></trkpt><trkpt lat="42.12060150192601" lon="11.956486975233773"><ele>335.0</ele><time>2026-04-19T10:43:33Z</time></trkpt><trkpt lat="42.120629919959306" lon="11.95639560492979"><ele>335.2857142857143</ele><time>2026-04-19T10:43:36Z</time></trkpt><trkpt lat="42.12066117568144" lon="11.956321384737333"><ele>335.57142857142856</ele><time>2026-04-19T10:43:39Z</time></trkpt><trkpt lat="42.120704907584226" lon="11.956233795706504"><ele>335.8571428571429</ele><time>2026-04-19T10:43:43Z</time></trkpt><trkpt lat="42.12071890696893" lon="11.956130043743613"><ele>336.1428571428571</ele><time>2026-04-19T10:43:47Z</time></trkpt><trkpt lat="42.12075805955549" lon="11.956056619883139"><ele>336.42857142857144</ele><time>2026-04-19T10:43:50Z</time></trkpt><trkpt lat="42.12080869195058" lon="11.955985518529754"><ele>336.7142857142857</ele><time>2026-04-19T10:43:53Z</time></trkpt><trkpt lat="42.120855971421335" lon="11.955909748687553"><ele>337.0</ele><time>2026-04-19T10:43:56Z</time></trkpt><trkpt lat="42.120882558719245" lon="11.955821132396308"><ele>337.0</ele><time>2026-04-19T10:43:59Z</time></trkpt><trkpt lat="42.120906591476704" lon="11.955716539826298"><ele>337.0</ele><time>2026-04-19T10:44:04Z</time></trkpt><trkpt lat="42.1209179589244" lon="11.95562679185537"><ele>337.0</ele><time>2026-04-19T10:44:07Z</time></trkpt><trkpt lat="42.12095193012946" lon="11.955506585098483"><ele>337.0</ele><time>2026-04-19T10:44:10Z</time></trkpt><trkpt lat="42.12097841973651" lon="11.955405353044227"><ele>337.0</ele><time>2026-04-19T10:44:12.999Z</time></trkpt><trkpt lat="42.121012958881174" lon="11.95529314731964"><ele>337.0</ele><time>2026-04-19T10:44:15.999Z</time></trkpt><trkpt lat="42.12106598574967" lon="11.955215741216415"><ele>337.0</ele><time>2026-04-19T10:44:18.999Z</time></trkpt><trkpt lat="42.12111023092376" lon="11.955150603560618"><ele>337.0</ele><time>2026-04-19T10:44:20.999Z</time></trkpt><trkpt lat="42.12114954635617" lon="11.9550408274467"><ele>337.0</ele><time>2026-04-19T10:44:23.999Z</time></trkpt><trkpt lat="42.12120332203062" lon="11.95494390252673"><ele>337.0</ele><time>2026-04-19T10:44:26.999Z</time></trkpt><trkpt lat="42.121244912847914" lon="11.954870705495361"><ele>337.0</ele><time>2026-04-19T10:44:28.999Z</time></trkpt><trkpt lat="42.121286105833185" lon="11.95480100664406"><ele>337.0</ele><time>2026-04-19T10:44:30.999Z</time></trkpt><trkpt lat="42.1213406487674" lon="11.954738345301358"><ele>337.3333333333333</ele><time>2026-04-19T10:44:32.999Z</time></trkpt><trkpt lat="42.12141439615672" lon="11.954670238630221"><ele>337.66666666666663</ele><time>2026-04-19T10:44:35.999Z</time></trkpt><trkpt lat="42.12149964590767" lon="11.95462422756358"><ele>338.0</ele><time>2026-04-19T10:44:38.999Z</time></trkpt><trkpt lat="42.12156409491769" lon="11.954608213737666"><ele>338.3333333333333</ele><time>2026-04-19T10:44:40.999Z</time></trkpt><trkpt lat="42.12162928083376" lon="11.954619788175913"><ele>338.6666666666667</ele><time>2026-04-19T10:44:42.999Z</time></trkpt><trkpt lat="42.12169856076456" lon="11.954619887627222"><ele>339.0</ele><time>2026-04-19T10:44:45.999Z</time></trkpt><trkpt lat="42.12178320929315" lon="11.954597433963263"><ele>339.0</ele><time>2026-04-19T10:44:48.999Z</time></trkpt><trkpt lat="42.121848880359046" lon="11.954606725781904"><ele>339.0</ele><time>2026-04-19T10:44:52Z</time></trkpt><trkpt lat="42.12192684868633" lon="11.954622114676233"><ele>339.0</ele><time>2026-04-19T10:44:55Z</time></trkpt><trkpt lat="42.12200483621938" lon="11.954635223671685"><ele>339.0</ele><time>2026-04-19T10:44:58Z</time></trkpt><trkpt lat="42.12207098407153" lon="11.954648750844001"><ele>339.0</ele><time>2026-04-19T10:45:01Z</time></trkpt><trkpt lat="42.122141536555816" lon="11.954670162453771"><ele>339.0</ele><time>2026-04-19T10:45:06Z</time></trkpt><trkpt lat="42.12221614291995" lon="11.954685074617084"><ele>339.0</ele><time>2026-04-19T10:45:11Z</time></trkpt><trkpt lat="42.1222918196591" lon="11.954694145608588"><ele>339.0</ele><time>2026-04-19T10:45:15Z</time></trkpt><trkpt lat="42.122372721803735" lon="11.95468035095924"><ele>339.0</ele><time>2026-04-19T10:45:19Z</time></trkpt><trkpt lat="42.12244839520287" lon="11.954689984969972"><ele>339.0</ele><time>2026-04-19T10:45:23Z</time></trkpt><trkpt lat="42.12251912973195" lon="11.954701470028201"><ele>339.0</ele><time>2026-04-19T10:45:27Z</time></trkpt><trkpt lat="42.12259220260485" lon="11.954735201141128"><ele>339.0</ele><time>2026-04-19T10:45:31Z</time></trkpt><trkpt lat="42.12265552733177" lon="11.954756926819082"><ele>339.0</ele><time>2026-04-19T10:45:34Z</time></trkpt><trkpt lat="42.12271675208372" lon="11.954795918813536"><ele>339.0</ele><time>2026-04-19T10:45:37Z</time></trkpt><trkpt lat="42.12278003982349" lon="11.954850360370804"><ele>339.8333333333333</ele><time>2026-04-19T10:45:41Z</time></trkpt><trkpt lat="42.12283007502093" lon="11.954904221981945"><ele>340.6666666666667</ele><time>2026-04-19T10:45:45Z</time></trkpt><trkpt lat="42.122903796300655" lon="11.954957514295513"><ele>341.5</ele><time>2026-04-19T10:45:50Z</time></trkpt><trkpt lat="42.12296509369169" lon="11.955010230448439"><ele>342.33333333333337</ele><time>2026-04-19T10:45:54Z</time></trkpt><trkpt lat="42.12302796636072" lon="11.955060778936774"><ele>343.1666666666667</ele><time>2026-04-19T10:45:57Z</time></trkpt><trkpt lat="42.12311332490118" lon="11.95509806857061"><ele>344.0</ele><time>2026-04-19T10:46:01Z</time></trkpt><trkpt lat="42.123180036660905" lon="11.955102456788174"><ele>343.33333333333337</ele><time>2026-04-19T10:46:03Z</time></trkpt><trkpt lat="42.12325560487265" lon="11.955075484614039"><ele>342.6666666666667</ele><time>2026-04-19T10:46:06Z</time></trkpt><trkpt lat="42.12333690230679" lon="11.955039444049275"><ele>342.0</ele><time>2026-04-19T10:46:09Z</time></trkpt><trkpt lat="42.123403395210616" lon="11.954970279249512"><ele>341.3333333333333</ele><time>2026-04-19T10:46:12Z</time></trkpt><trkpt lat="42.123460477453" lon="11.954873362840596"><ele>340.66666666666663</ele><time>2026-04-19T10:46:15Z</time></trkpt><trkpt lat="42.123501773235915" lon="11.954798079910669"><ele>340.0</ele><time>2026-04-19T10:46:18Z</time></trkpt><trkpt lat="42.1235279180445" lon="11.954697978314538"><ele>342.0</ele><time>2026-04-19T10:46:21Z</time></trkpt><trkpt lat="42.12356268477794" lon="11.954593976647773"><ele>344.0</ele><time>2026-04-19T10:46:24Z</time></trkpt><trkpt lat="42.123571055318294" lon="11.95446872070326"><ele>346.0</ele><time>2026-04-19T10:46:27Z</time></trkpt><trkpt lat="42.12355896137491" lon="11.954344371527066"><ele>348.0</ele><time>2026-04-19T10:46:30Z</time></trkpt><trkpt lat="42.12354863585869" lon="11.95425995879723"><ele>350.0</ele><time>2026-04-19T10:46:32Z</time></trkpt><trkpt lat="42.12352745744644" lon="11.954176816118705"><ele>352.0</ele><time>2026-04-19T10:46:34Z</time></trkpt><trkpt lat="42.12352893661927" lon="11.954080147740786"><ele>353.66666666666663</ele><time>2026-04-19T10:46:36Z</time></trkpt><trkpt lat="42.123538193558126" lon="11.953990028968008"><ele>355.3333333333333</ele><time>2026-04-19T10:46:38Z</time></trkpt><trkpt lat="42.12354850442121" lon="11.953875352486167"><ele>357.0</ele><time>2026-04-19T10:46:41Z</time></trkpt><trkpt lat="42.12355680465661" lon="11.953773504246499"><ele>358.6666666666667</ele><time>2026-04-19T10:46:44Z</time></trkpt><trkpt lat="42.12357004330941" lon="11.953687787451194"><ele>360.33333333333337</ele><time>2026-04-19T10:46:46Z</time></trkpt><trkpt lat="42.12356868444115" lon="11.953576572903879"><ele>362.0</ele><time>2026-04-19T10:46:49Z</time></trkpt><trkpt lat="42.12358496255921" lon="11.953475722179098"><ele>363.1666666666667</ele><time>2026-04-19T10:46:52Z</time></trkpt><trkpt lat="42.12358345560757" lon="11.95336174557321"><ele>364.33333333333337</ele><time>2026-04-19T10:46:55Z</time></trkpt><trkpt lat="42.12360213480053" lon="11.953273475787299"><ele>365.5</ele><time>2026-04-19T10:46:58Z</time></trkpt><trkpt lat="42.12364312290803" lon="11.95317299610941"><ele>366.6666666666667</ele><time>2026-04-19T10:47:01Z</time></trkpt><trkpt lat="42.123682171542214" lon="11.953104032776702"><ele>367.8333333333333</ele><time>2026-04-19T10:47:03Z</time></trkpt><trkpt lat="42.12371648301026" lon="11.953017872553556"><ele>369.0</ele><time>2026-04-19T10:47:06Z</time></trkpt><trkpt lat="42.12373326256739" lon="11.95291540977047"><ele>369.0</ele><time>2026-04-19T10:47:10Z</time></trkpt><trkpt lat="42.12377081637779" lon="11.952812402973137"><ele>369.0</ele><time>2026-04-19T10:47:13Z</time></trkpt><trkpt lat="42.123796139379095" lon="11.952702694631762"><ele>369.0</ele><time>2026-04-19T10:47:17Z</time></trkpt><trkpt lat="42.123821941052455" lon="11.952599713146794"><ele>369.0</ele><time>2026-04-19T10:47:20Z</time></trkpt><trkpt lat="42.12383510256508" lon="11.952493607363664"><ele>369.0</ele><time>2026-04-19T10:47:23Z</time></trkpt><trkpt lat="42.12386149177883" lon="11.952395822670137"><ele>369.0</ele><time>2026-04-19T10:47:26Z</time></trkpt><trkpt lat="42.12387822110763" lon="11.95228972348421"><ele>370.3333333333333</ele><time>2026-04-19T10:47:29Z</time></trkpt><trkpt lat="42.12390237135461" lon="11.952186661242028"><ele>371.6666666666667</ele><time>2026-04-19T10:47:32Z</time></trkpt><trkpt lat="42.12392162813683" lon="11.95208693879249"><ele>373.0</ele><time>2026-04-19T10:47:35Z</time></trkpt><trkpt lat="42.1239302973362" lon="11.95198329918746"><ele>374.33333333333337</ele><time>2026-04-19T10:47:38Z</time></trkpt><trkpt lat="42.12392956441101" lon="11.951861928573555"><ele>375.6666666666667</ele><time>2026-04-19T10:47:41Z</time></trkpt><trkpt lat="42.1239290405463" lon="11.9517704422525"><ele>377.0</ele><time>2026-04-19T10:47:44Z</time></trkpt><trkpt lat="42.123922466999005" lon="11.951664999189104"><ele>377.0</ele><time>2026-04-19T10:47:47Z</time></trkpt><trkpt lat="42.12389894539451" lon="11.951585224848024"><ele>377.0</ele><time>2026-04-19T10:47:49Z</time></trkpt><trkpt lat="42.12385404185186" lon="11.951522214862969"><ele>377.0</ele><time>2026-04-19T10:47:51Z</time></trkpt><trkpt lat="42.1237926693169" lon="11.951437897551632"><ele>377.0</ele><time>2026-04-19T10:47:54Z</time></trkpt><trkpt lat="42.12372566998997" lon="11.951352052414368"><ele>377.0</ele><time>2026-04-19T10:47:57Z</time></trkpt><trkpt lat="42.123648189874025" lon="11.951279227691957"><ele>377.0</ele><time>2026-04-19T10:48:00Z</time></trkpt><trkpt lat="42.12358369862556" lon="11.95125001235481"><ele>377.0</ele><time>2026-04-19T10:48:02Z</time></trkpt><trkpt lat="42.12350315861548" lon="11.95121939919548"><ele>377.0</ele><time>2026-04-19T10:48:04Z</time></trkpt><trkpt lat="42.123410878889494" lon="11.951217041692264"><ele>377.0</ele><time>2026-04-19T10:48:06Z</time></trkpt><trkpt lat="42.12333691919401" lon="11.951167845173108"><ele>377.0</ele><time>2026-04-19T10:48:08Z</time></trkpt><trkpt lat="42.12328921919227" lon="11.951087216114676"><ele>377.0</ele><time>2026-04-19T10:48:10Z</time></trkpt><trkpt lat="42.12328899311197" lon="11.950981366592737"><ele>377.0</ele><time>2026-04-19T10:48:12Z</time></trkpt><trkpt lat="42.12327616461877" lon="11.950871632775488"><ele>376.5</ele><time>2026-04-19T10:48:14Z</time></trkpt><trkpt lat="42.12326216756218" lon="11.950781924168696"><ele>376.0</ele><time>2026-04-19T10:48:16Z</time></trkpt><trkpt lat="42.12324942880553" lon="11.950663279075409"><ele>375.5</ele><time>2026-04-19T10:48:19Z</time></trkpt><trkpt lat="42.12323991113054" lon="11.950557813143842"><ele>375.0</ele><time>2026-04-19T10:48:22Z</time></trkpt><trkpt lat="42.12323040214937" lon="11.950456886522952"><ele>374.5</ele><time>2026-04-19T10:48:25Z</time></trkpt><trkpt lat="42.12322027209956" lon="11.950353596979934"><ele>374.0</ele><time>2026-04-19T10:48:28Z</time></trkpt><trkpt lat="42.1231990851367" lon="11.950247275172295"><ele>375.5</ele><time>2026-04-19T10:48:31Z</time></trkpt><trkpt lat="42.123153372508966" lon="11.950163246394135"><ele>377.0</ele><time>2026-04-19T10:48:34Z</time></trkpt><trkpt lat="42.12307711142633" lon="11.950129968325436"><ele>378.5</ele><time>2026-04-19T10:48:37Z</time></trkpt><trkpt lat="42.12301652748612" lon="11.950160372572046"><ele>380.0</ele><time>2026-04-19T10:48:39Z</time></trkpt><trkpt lat="42.122958344246435" lon="11.950111856255617"><ele>381.5</ele><time>2026-04-19T10:48:42Z</time></trkpt><trkpt lat="42.12289746084993" lon="11.95001942802168"><ele>383.0</ele><time>2026-04-19T10:48:45Z</time></trkpt><trkpt lat="42.12286873422084" lon="11.949904873626437"><ele>383.0</ele><time>2026-04-19T10:48:48Z</time></trkpt><trkpt lat="42.12285985666837" lon="11.949807903614476"><ele>383.0</ele><time>2026-04-19T10:48:51Z</time></trkpt><trkpt lat="42.12284570329289" lon="11.94971880603029"><ele>383.0</ele><time>2026-04-19T10:48:53Z</time></trkpt><trkpt lat="42.12279944860296" lon="11.949610240865322"><ele>383.0</ele><time>2026-04-19T10:48:56Z</time></trkpt><trkpt lat="42.122734297688574" lon="11.949525902826966"><ele>383.0</ele><time>2026-04-19T10:48:59Z</time></trkpt><trkpt lat="42.122666850874" lon="11.949481379771479"><ele>383.0</ele><time>2026-04-19T10:49:01Z</time></trkpt><trkpt lat="42.122585215676125" lon="11.949434525277335"><ele>383.0</ele><time>2026-04-19T10:49:03Z</time></trkpt><trkpt lat="42.12251286521963" lon="11.9494102428544"><ele>383.0</ele><time>2026-04-19T10:49:05Z</time></trkpt><trkpt lat="42.122438925537885" lon="11.949349448702046"><ele>383.0</ele><time>2026-04-19T10:49:07Z</time></trkpt><trkpt lat="42.122389807984675" lon="11.949252725663657"><ele>383.0</ele><time>2026-04-19T10:49:09Z</time></trkpt><trkpt lat="42.122358168947976" lon="11.949147409012522"><ele>383.0</ele><time>2026-04-19T10:49:11Z</time></trkpt><trkpt lat="42.12232615766292" lon="11.949038238183714"><ele>383.0</ele><time>2026-04-19T10:49:13Z</time></trkpt><trkpt lat="42.12229847437335" lon="11.948939340367097"><ele>384.2857142857143</ele><time>2026-04-19T10:49:15Z</time></trkpt><trkpt lat="42.122262910258485" lon="11.948857229848905"><ele>385.57142857142856</ele><time>2026-04-19T10:49:17Z</time></trkpt><trkpt lat="42.122229143267774" lon="11.948774724689367"><ele>386.8571428571429</ele><time>2026-04-19T10:49:19Z</time></trkpt><trkpt lat="42.12219866070863" lon="11.948700333161089"><ele>388.1428571428571</ele><time>2026-04-19T10:49:22Z</time></trkpt><trkpt lat="42.12216298563901" lon="11.948612854702107"><ele>389.42857142857144</ele><time>2026-04-19T10:49:26Z</time></trkpt><trkpt lat="42.12211447541782" lon="11.948514379666431"><ele>390.7142857142857</ele><time>2026-04-19T10:49:29Z</time></trkpt><trkpt lat="42.12209068212045" lon="11.948424893634433"><ele>392.0</ele><time>2026-04-19T10:49:32Z</time></trkpt><trkpt lat="42.12206153524962" lon="11.948335098760651"><ele>391.99999999999994</ele><time>2026-04-19T10:49:35Z</time></trkpt><trkpt lat="42.12201751032876" lon="11.948232169781729"><ele>392.0</ele><time>2026-04-19T10:49:38Z</time></trkpt><trkpt lat="42.12197249715327" lon="11.948144065504001"><ele>392.0</ele><time>2026-04-19T10:49:41Z</time></trkpt><trkpt lat="42.12192836618639" lon="11.948079492760684"><ele>392.0</ele><time>2026-04-19T10:49:43Z</time></trkpt><trkpt lat="42.12189348799353" lon="11.947976545806274"><ele>391.99999999999994</ele><time>2026-04-19T10:49:46Z</time></trkpt><trkpt lat="42.121877930650555" lon="11.947865312687343"><ele>392.0</ele><time>2026-04-19T10:49:49Z</time></trkpt><trkpt lat="42.121870767493434" lon="11.94774588498951"><ele>392.0</ele><time>2026-04-19T10:49:52Z</time></trkpt><trkpt lat="42.121882249665845" lon="11.947629990895587"><ele>392.0</ele><time>2026-04-19T10:49:56Z</time></trkpt><trkpt lat="42.12188026219428" lon="11.947544714328203"><ele>392.0</ele><time>2026-04-19T10:49:58Z</time></trkpt><trkpt lat="42.12187963610299" lon="11.947445074360882"><ele>392.0</ele><time>2026-04-19T10:50:00Z</time></trkpt><trkpt lat="42.1219039291872" lon="11.947359800595645"><ele>392.0</ele><time>2026-04-19T10:50:02Z</time></trkpt><trkpt lat="42.12195449188239" lon="11.94727586024533"><ele>392.0</ele><time>2026-04-19T10:50:04Z</time></trkpt><trkpt lat="42.12200828500546" lon="11.947201313209646"><ele>392.0</ele><time>2026-04-19T10:50:06Z</time></trkpt><trkpt lat="42.12206279896387" lon="11.947121658262674"><ele>391.99999999999994</ele><time>2026-04-19T10:50:08Z</time></trkpt><trkpt lat="42.12211422331913" lon="11.947025016960707"><ele>392.0</ele><time>2026-04-19T10:50:11Z</time></trkpt><trkpt lat="42.12217964564023" lon="11.946955970088547"><ele>392.0</ele><time>2026-04-19T10:50:14Z</time></trkpt><trkpt lat="42.122227477038635" lon="11.946865674863057"><ele>392.0</ele><time>2026-04-19T10:50:19Z</time></trkpt><trkpt lat="42.12227811122337" lon="11.946786553910506"><ele>391.99999999999994</ele><time>2026-04-19T10:50:23Z</time></trkpt><trkpt lat="42.12232589499814" lon="11.946715195555155"><ele>392.0</ele><time>2026-04-19T10:50:26Z</time></trkpt><trkpt lat="42.1223801410963" lon="11.946648383746295"><ele>390.3333333333333</ele><time>2026-04-19T10:50:30Z</time></trkpt><trkpt lat="42.12242654880863" lon="11.946585779137077"><ele>388.66666666666663</ele><time>2026-04-19T10:50:34Z</time></trkpt><trkpt lat="42.12247063087269" lon="11.946521867170139"><ele>387.0</ele><time>2026-04-19T10:50:38Z</time></trkpt><trkpt lat="42.12250604921535" lon="11.946434241507715"><ele>385.3333333333333</ele><time>2026-04-19T10:50:42Z</time></trkpt><trkpt lat="42.1225314479469" lon="11.946324796846577"><ele>383.66666666666663</ele><time>2026-04-19T10:50:46Z</time></trkpt><trkpt lat="42.12253232312899" lon="11.946210489588742"><ele>382.0</ele><time>2026-04-19T10:50:49Z</time></trkpt><trkpt lat="42.122531021566246" lon="11.94608395798477"><ele>382.0</ele><time>2026-04-19T10:50:52Z</time></trkpt><trkpt lat="42.12252909683832" lon="11.945966609625547"><ele>382.0</ele><time>2026-04-19T10:50:55Z</time></trkpt><trkpt lat="42.12255108907258" lon="11.945842996337648"><ele>382.0</ele><time>2026-04-19T10:50:58Z</time></trkpt><trkpt lat="42.12258004879814" lon="11.945755913652256"><ele>382.0</ele><time>2026-04-19T10:51:00Z</time></trkpt><trkpt lat="42.12260553701319" lon="11.945676812240288"><ele>382.0</ele><time>2026-04-19T10:51:02Z</time></trkpt><trkpt lat="42.1226394183351" lon="11.945567260618247"><ele>382.0</ele><time>2026-04-19T10:51:05Z</time></trkpt><trkpt lat="42.122677395547726" lon="11.94547032317345"><ele>384.2857142857143</ele><time>2026-04-19T10:51:08.001Z</time></trkpt><trkpt lat="42.12271242748391" lon="11.94537050931318"><ele>386.57142857142856</ele><time>2026-04-19T10:51:11.001Z</time></trkpt><trkpt lat="42.12273463661305" lon="11.945290644450827"><ele>388.85714285714283</ele><time>2026-04-19T10:51:13.001Z</time></trkpt><trkpt lat="42.122770179024606" lon="11.945216674391961"><ele>391.1428571428571</ele><time>2026-04-19T10:51:15.001Z</time></trkpt><trkpt lat="42.122811005442834" lon="11.9451446035895"><ele>393.42857142857144</ele><time>2026-04-19T10:51:18.001Z</time></trkpt><trkpt lat="42.122878529408936" lon="11.945084440019897"><ele>395.71428571428567</ele><time>2026-04-19T10:51:23Z</time></trkpt><trkpt lat="42.12294717146029" lon="11.945063456985562"><ele>398.0</ele><time>2026-04-19T10:51:27Z</time></trkpt><trkpt lat="42.12302722232608" lon="11.945044670181876"><ele>396.57142857142856</ele><time>2026-04-19T10:51:30Z</time></trkpt><trkpt lat="42.123091197160875" lon="11.945020372930633"><ele>395.1428571428571</ele><time>2026-04-19T10:51:33Z</time></trkpt><trkpt lat="42.12315824959343" lon="11.945013596291032"><ele>393.71428571428567</ele><time>2026-04-19T10:51:36Z</time></trkpt><trkpt lat="42.12323766754814" lon="11.94502950538079"><ele>392.2857142857143</ele><time>2026-04-19T10:51:40Z</time></trkpt><trkpt lat="42.12330073627222" lon="11.944961222811187"><ele>390.8571428571429</ele><time>2026-04-19T10:51:43Z</time></trkpt><trkpt lat="42.12332842562149" lon="11.944866144299064"><ele>389.4285714285714</ele><time>2026-04-19T10:51:46Z</time></trkpt><trkpt lat="42.123299433144" lon="11.944768703820225"><ele>388.0</ele><time>2026-04-19T10:51:49Z</time></trkpt><trkpt lat="42.12326732765164" lon="11.944672997144302"><ele>388.0</ele><time>2026-04-19T10:51:53Z</time></trkpt><trkpt lat="42.12324163449275" lon="11.944556416136042"><ele>388.0</ele><time>2026-04-19T10:51:56Z</time></trkpt><trkpt lat="42.123228796478976" lon="11.944447209074022"><ele>388.0</ele><time>2026-04-19T10:51:59Z</time></trkpt><trkpt lat="42.12321209440071" lon="11.944361130900194"><ele>388.0</ele><time>2026-04-19T10:52:01Z</time></trkpt><trkpt lat="42.12320357566249" lon="11.94427534105962"><ele>388.0</ele><time>2026-04-19T10:52:03Z</time></trkpt><trkpt lat="42.12319791746683" lon="11.9441865250932"><ele>388.0</ele><time>2026-04-19T10:52:05Z</time></trkpt><trkpt lat="42.123190252689" lon="11.944100716087556"><ele>388.0</ele><time>2026-04-19T10:52:07Z</time></trkpt><trkpt lat="42.12318066635384" lon="11.944011234035646"><ele>394.00000000000006</ele><time>2026-04-19T10:52:09Z</time></trkpt><trkpt lat="42.12315807568839" lon="11.943903807311534"><ele>400.0</ele><time>2026-04-19T10:52:12Z</time></trkpt><trkpt lat="42.12312973224945" lon="11.943805906320815"><ele>406.0</ele><time>2026-04-19T10:52:15Z</time></trkpt><trkpt lat="42.12311950108467" lon="11.94368265981359"><ele>412.0</ele><time>2026-04-19T10:52:18Z</time></trkpt><trkpt lat="42.12313795657849" lon="11.94358602530446"><ele>418.00000000000006</ele><time>2026-04-19T10:52:23Z</time></trkpt><trkpt lat="42.1231658880631" lon="11.943483191799444"><ele>424.0</ele><time>2026-04-19T10:52:27Z</time></trkpt><trkpt lat="42.123212083165036" lon="11.943421524401243"><ele>421.2857142857143</ele><time>2026-04-19T10:52:30Z</time></trkpt><trkpt lat="42.12327879992551" lon="11.943367271681993"><ele>418.57142857142856</ele><time>2026-04-19T10:52:34Z</time></trkpt><trkpt lat="42.12333566358129" lon="11.94332952875811"><ele>415.85714285714283</ele><time>2026-04-19T10:52:37Z</time></trkpt><trkpt lat="42.123394134285924" lon="11.943277765479333"><ele>413.1428571428571</ele><time>2026-04-19T10:52:40Z</time></trkpt><trkpt lat="42.12346006489276" lon="11.943212419186366"><ele>410.42857142857144</ele><time>2026-04-19T10:52:44Z</time></trkpt><trkpt lat="42.12352071442088" lon="11.943173058577736"><ele>407.71428571428567</ele><time>2026-04-19T10:52:47Z</time></trkpt><trkpt lat="42.123588963366636" lon="11.943128480659428"><ele>405.0</ele><time>2026-04-19T10:52:50Z</time></trkpt><trkpt lat="42.12365041691158" lon="11.943095265447214"><ele>404.99999999999994</ele><time>2026-04-19T10:52:53Z</time></trkpt><trkpt lat="42.12371028203199" lon="11.943060240484366"><ele>405.0</ele><time>2026-04-19T10:52:57Z</time></trkpt><trkpt lat="42.123767908519646" lon="11.943001275558524"><ele>405.0</ele><time>2026-04-19T10:53:01Z</time></trkpt><trkpt lat="42.12382741311872" lon="11.942965120920599"><ele>405.0</ele><time>2026-04-19T10:53:04Z</time></trkpt><trkpt lat="42.123863864783296" lon="11.942883167896454"><ele>405.0</ele><time>2026-04-19T10:53:07Z</time></trkpt><trkpt lat="42.12390839844383" lon="11.942777451115248"><ele>404.99999999999994</ele><time>2026-04-19T10:53:10Z</time></trkpt><trkpt lat="42.12390641038845" lon="11.942676457085605"><ele>405.0</ele><time>2026-04-19T10:53:13Z</time></trkpt><trkpt lat="42.12388300468313" lon="11.942593037318213"><ele>407.6666666666667</ele><time>2026-04-19T10:53:15.001Z</time></trkpt><trkpt lat="42.123834099033594" lon="11.942517095170647"><ele>410.33333333333337</ele><time>2026-04-19T10:53:17.001Z</time></trkpt><trkpt lat="42.123773400785524" lon="11.942438010793373"><ele>413.0</ele><time>2026-04-19T10:53:19.001Z</time></trkpt><trkpt lat="42.1237011063055" lon="11.942353452086104"><ele>415.6666666666667</ele><time>2026-04-19T10:53:21.001Z</time></trkpt><trkpt lat="42.123635044786305" lon="11.942270022087705"><ele>418.33333333333337</ele><time>2026-04-19T10:53:23.001Z</time></trkpt><trkpt lat="42.123616308948435" lon="11.942139678114524"><ele>421.0</ele><time>2026-04-19T10:53:25.001Z</time></trkpt><trkpt lat="42.12362121107876" lon="11.942005525958786"><ele>421.00000000000006</ele><time>2026-04-19T10:53:27.001Z</time></trkpt><trkpt lat="42.12369485214643" lon="11.94190629649945"><ele>421.0</ele><time>2026-04-19T10:53:29.001Z</time></trkpt><trkpt lat="42.12376527827653" lon="11.94182579005338"><ele>421.0</ele><time>2026-04-19T10:53:31.001Z</time></trkpt><trkpt lat="42.12383056510297" lon="11.941755085487202"><ele>421.0</ele><time>2026-04-19T10:53:33.001Z</time></trkpt><trkpt lat="42.12389784387226" lon="11.941731935133904"><ele>421.00000000000006</ele><time>2026-04-19T10:53:35.001Z</time></trkpt><trkpt lat="42.1239278729967" lon="11.94165204050695"><ele>421.0</ele><time>2026-04-19T10:53:37.001Z</time></trkpt><trkpt lat="42.12393560133486" lon="11.941541780948441"><ele>422.00000000000006</ele><time>2026-04-19T10:53:39.001Z</time></trkpt><trkpt lat="42.12393341207566" lon="11.941409445562012"><ele>423.0</ele><time>2026-04-19T10:53:41.001Z</time></trkpt><trkpt lat="42.12399404665904" lon="11.941302227200689"><ele>424.0</ele><time>2026-04-19T10:53:43.001Z</time></trkpt><trkpt lat="42.124071343122715" lon="11.941239259253251"><ele>425.0</ele><time>2026-04-19T10:53:45.001Z</time></trkpt><trkpt lat="42.124132065884055" lon="11.94117281888585"><ele>426.00000000000006</ele><time>2026-04-19T10:53:47.001Z</time></trkpt><trkpt lat="42.12420055554944" lon="11.941127737990497"><ele>427.0</ele><time>2026-04-19T10:53:49.001Z</time></trkpt><trkpt lat="42.1242712902723" lon="11.941124371245548"><ele>422.7142857142857</ele><time>2026-04-19T10:53:52.001Z</time></trkpt><trkpt lat="42.12435694973963" lon="11.941117910006703"><ele>418.42857142857144</ele><time>2026-04-19T10:53:55.001Z</time></trkpt><trkpt lat="42.12442172292933" lon="11.941121852417114"><ele>414.1428571428571</ele><time>2026-04-19T10:53:57.001Z</time></trkpt><trkpt lat="42.12448629790388" lon="11.941115519878686"><ele>409.8571428571429</ele><time>2026-04-19T10:53:59.001Z</time></trkpt><trkpt lat="42.1245540849431" lon="11.941137203252506"><ele>405.57142857142856</ele><time>2026-04-19T10:54:01.001Z</time></trkpt><trkpt lat="42.124619625093246" lon="11.941159070742849"><ele>401.2857142857143</ele><time>2026-04-19T10:54:03.001Z</time></trkpt><trkpt lat="42.124693461765574" lon="11.941186276735657"><ele>397.0</ele><time>2026-04-19T10:54:05.001Z</time></trkpt><trkpt lat="42.12475988693727" lon="11.94122612715046"><ele>397.0</ele><time>2026-04-19T10:54:07.001Z</time></trkpt><trkpt lat="42.12482450617285" lon="11.94126096215851"><ele>397.0</ele><time>2026-04-19T10:54:09.001Z</time></trkpt><trkpt lat="42.12492321347796" lon="11.941291206880285"><ele>397.0</ele><time>2026-04-19T10:54:11.001Z</time></trkpt><trkpt lat="42.12502861434882" lon="11.941279914954961"><ele>397.0</ele><time>2026-04-19T10:54:13Z</time></trkpt><trkpt lat="42.12510059326374" lon="11.941182026949626"><ele>397.0</ele><time>2026-04-19T10:54:15Z</time></trkpt><trkpt lat="42.125099728790204" lon="11.941049511039296"><ele>398.0</ele><time>2026-04-19T10:54:17Z</time></trkpt><trkpt lat="42.12509220307752" lon="11.940897482711435"><ele>399.0</ele><time>2026-04-19T10:54:19Z</time></trkpt><trkpt lat="42.12516661342602" lon="11.940759799941269"><ele>400.0</ele><time>2026-04-19T10:54:21Z</time></trkpt><trkpt lat="42.1251687367179" lon="11.940649018787258"><ele>401.0</ele><time>2026-04-19T10:54:23Z</time></trkpt><trkpt lat="42.12517065237156" lon="11.940549071019"><ele>402.0</ele><time>2026-04-19T10:54:25Z</time></trkpt><trkpt lat="42.12517413845913" lon="11.940410290360997"><ele>402.0</ele><time>2026-04-19T10:54:28Z</time></trkpt><trkpt lat="42.12518151050415" lon="11.940270221709785"><ele>402.0</ele><time>2026-04-19T10:54:30Z</time></trkpt><trkpt lat="42.12520705980949" lon="11.940134493878999"><ele>402.0</ele><time>2026-04-19T10:54:32Z</time></trkpt><trkpt lat="42.12519556933796" lon="11.939993685515619"><ele>402.0</ele><time>2026-04-19T10:54:34Z</time></trkpt><trkpt lat="42.12525691797749" lon="11.939896762115767"><ele>402.0</ele><time>2026-04-19T10:54:36Z</time></trkpt><trkpt lat="42.12526396868638" lon="11.939783516670584"><ele>403.8</ele><time>2026-04-19T10:54:38Z</time></trkpt><trkpt lat="42.1252465765927" lon="11.939654904995395"><ele>405.6</ele><time>2026-04-19T10:54:40Z</time></trkpt><trkpt lat="42.12521213160885" lon="11.939531448956924"><ele>407.40000000000003</ele><time>2026-04-19T10:54:42Z</time></trkpt><trkpt lat="42.12526053343664" lon="11.939410652320039"><ele>409.20000000000005</ele><time>2026-04-19T10:54:44Z</time></trkpt><trkpt lat="42.125325413331126" lon="11.939309246346811"><ele>411.0</ele><time>2026-04-19T10:54:46Z</time></trkpt><trkpt lat="42.12537852718328" lon="11.93922196904489"><ele>411.1666666666667</ele><time>2026-04-19T10:54:48Z</time></trkpt><trkpt lat="42.125429666018555" lon="11.939120676986194"><ele>411.33333333333337</ele><time>2026-04-19T10:54:50Z</time></trkpt><trkpt lat="42.12545696235514" lon="11.939007342711406"><ele>411.5</ele><time>2026-04-19T10:54:52Z</time></trkpt><trkpt lat="42.12544002926409" lon="11.938913172872217"><ele>411.6666666666667</ele><time>2026-04-19T10:54:54Z</time></trkpt><trkpt lat="42.12539363780171" lon="11.938830037459656"><ele>411.83333333333337</ele><time>2026-04-19T10:54:56Z</time></trkpt><trkpt lat="42.12532636869217" lon="11.938733133460897"><ele>412.0</ele><time>2026-04-19T10:54:58Z</time></trkpt><trkpt lat="42.12526766703764" lon="11.938645326762401"><ele>412.00000000000006</ele><time>2026-04-19T10:55:00Z</time></trkpt><trkpt lat="42.12520388204091" lon="11.938574765391861"><ele>412.0</ele><time>2026-04-19T10:55:02Z</time></trkpt><trkpt lat="42.12512015523783" lon="11.93851075462584"><ele>412.0</ele><time>2026-04-19T10:55:04Z</time></trkpt><trkpt lat="42.12504887304295" lon="11.93843718604306"><ele>412.0</ele><time>2026-04-19T10:55:06Z</time></trkpt><trkpt lat="42.12496771832072" lon="11.938358034942397"><ele>412.00000000000006</ele><time>2026-04-19T10:55:09Z</time></trkpt><trkpt lat="42.12492542691905" lon="11.938270836914201"><ele>412.0</ele><time>2026-04-19T10:55:11Z</time></trkpt><trkpt lat="42.124903997593606" lon="11.938153752248295"><ele>411.0</ele><time>2026-04-19T10:55:13Z</time></trkpt><trkpt lat="42.1249147642577" lon="11.937990262298737"><ele>410.0</ele><time>2026-04-19T10:55:16Z</time></trkpt><trkpt lat="42.124989112716555" lon="11.937886574189148"><ele>409.0</ele><time>2026-04-19T10:55:18Z</time></trkpt><trkpt lat="42.12505839263055" lon="11.93781993415787"><ele>408.0</ele><time>2026-04-19T10:55:20.001Z</time></trkpt><trkpt lat="42.12512946448569" lon="11.937737572482833"><ele>407.0</ele><time>2026-04-19T10:55:22.001Z</time></trkpt><trkpt lat="42.12517205763013" lon="11.937650664713031"><ele>407.99999999999994</ele><time>2026-04-19T10:55:24.001Z</time></trkpt><trkpt lat="42.12516727832953" lon="11.937527069706375"><ele>409.0</ele><time>2026-04-19T10:55:26.001Z</time></trkpt><trkpt lat="42.12520506703094" lon="11.937445997746899"><ele>410.0</ele><time>2026-04-19T10:55:28.001Z</time></trkpt><trkpt lat="42.125252260591466" lon="11.937338617664954"><ele>411.0</ele><time>2026-04-19T10:55:30.001Z</time></trkpt><trkpt lat="42.125287058897555" lon="11.9372456096209"><ele>411.99999999999994</ele><time>2026-04-19T10:55:32.001Z</time></trkpt><trkpt lat="42.12532490918151" lon="11.937144771670873"><ele>413.0</ele><time>2026-04-19T10:55:34.001Z</time></trkpt><trkpt lat="42.12536642871666" lon="11.937026409274116"><ele>412.99999999999994</ele><time>2026-04-19T10:55:36.001Z</time></trkpt><trkpt lat="42.12540858785551" lon="11.936937203431794"><ele>413.0</ele><time>2026-04-19T10:55:38.001Z</time></trkpt><trkpt lat="42.125435376768046" lon="11.936854490856224"><ele>413.0</ele><time>2026-04-19T10:55:40.001Z</time></trkpt><trkpt lat="42.12546463961522" lon="11.936764629270805"><ele>413.0</ele><time>2026-04-19T10:55:42Z</time></trkpt><trkpt lat="42.125463687439265" lon="11.936666298533945"><ele>412.99999999999994</ele><time>2026-04-19T10:55:44Z</time></trkpt><trkpt lat="42.125469081279626" lon="11.936536530818534"><ele>413.0</ele><time>2026-04-19T10:55:46Z</time></trkpt><trkpt lat="42.1254686633119" lon="11.936398882649048"><ele>415.79999999999995</ele><time>2026-04-19T10:55:48Z</time></trkpt><trkpt lat="42.12549710927953" lon="11.936267398843173"><ele>418.6</ele><time>2026-04-19T10:55:51Z</time></trkpt><trkpt lat="42.12552895519538" lon="11.936154288569295"><ele>421.40000000000003</ele><time>2026-04-19T10:55:53Z</time></trkpt><trkpt lat="42.125600984587926" lon="11.936058949676651"><ele>424.20000000000005</ele><time>2026-04-19T10:55:55Z</time></trkpt><trkpt lat="42.12567449498023" lon="11.936026161064442"><ele>427.0</ele><time>2026-04-19T10:55:57Z</time></trkpt><trkpt lat="42.12573416108941" lon="11.935949202239046"><ele>422.6666666666667</ele><time>2026-04-19T10:55:59Z</time></trkpt><trkpt lat="42.12578188662602" lon="11.93585845927988"><ele>418.33333333333337</ele><time>2026-04-19T10:56:01Z</time></trkpt><trkpt lat="42.12580944466347" lon="11.93576334836791"><ele>414.0</ele><time>2026-04-19T10:56:03Z</time></trkpt><trkpt lat="42.12583338734238" lon="11.9356459115709"><ele>409.66666666666663</ele><time>2026-04-19T10:56:05Z</time></trkpt><trkpt lat="42.12584736457107" lon="11.935541370875766"><ele>405.3333333333333</ele><time>2026-04-19T10:56:07Z</time></trkpt><trkpt lat="42.12583031309913" lon="11.935448685838086"><ele>401.0</ele><time>2026-04-19T10:56:09Z</time></trkpt><trkpt lat="42.125803491286845" lon="11.935346258384836"><ele>400.99999999999994</ele><time>2026-04-19T10:56:11Z</time></trkpt><trkpt lat="42.12578938689354" lon="11.935239249240261"><ele>401.0</ele><time>2026-04-19T10:56:13Z</time></trkpt><trkpt lat="42.12576091696556" lon="11.93515949972177"><ele>401.0</ele><time>2026-04-19T10:56:15Z</time></trkpt><trkpt lat="42.12573809258242" lon="11.935052088557931"><ele>401.0</ele><time>2026-04-19T10:56:17Z</time></trkpt><trkpt lat="42.125716208560426" lon="11.934953839996668"><ele>400.99999999999994</ele><time>2026-04-19T10:56:19Z</time></trkpt><trkpt lat="42.12568458232731" lon="11.934853277529603"><ele>401.0</ele><time>2026-04-19T10:56:21Z</time></trkpt><trkpt lat="42.12563884151678" lon="11.934740694378998"><ele>405.3333333333333</ele><time>2026-04-19T10:56:24Z</time></trkpt><trkpt lat="42.1255863878035" lon="11.93466968646717"><ele>409.66666666666663</ele><time>2026-04-19T10:56:26Z</time></trkpt><trkpt lat="42.12551483071606" lon="11.934623805695136"><ele>414.0</ele><time>2026-04-19T10:56:28Z</time></trkpt><trkpt lat="42.12544957769199" lon="11.934547590372688"><ele>418.33333333333337</ele><time>2026-04-19T10:56:30Z</time></trkpt><trkpt lat="42.12541018808135" lon="11.934429998103301"><ele>422.6666666666667</ele><time>2026-04-19T10:56:32Z</time></trkpt><trkpt lat="42.125380796664054" lon="11.93433858191822"><ele>427.0</ele><time>2026-04-19T10:56:34Z</time></trkpt><trkpt lat="42.125430560332546" lon="11.93423363210938"><ele>425.42857142857144</ele><time>2026-04-19T10:56:37Z</time></trkpt><trkpt lat="42.12548325598452" lon="11.934160433339994"><ele>423.8571428571429</ele><time>2026-04-19T10:56:39Z</time></trkpt><trkpt lat="42.12553779210666" lon="11.934091771667813"><ele>422.2857142857143</ele><time>2026-04-19T10:56:40.999Z</time></trkpt><trkpt lat="42.1255856011791" lon="11.934015545313652"><ele>420.7142857142857</ele><time>2026-04-19T10:56:42.999Z</time></trkpt><trkpt lat="42.125629926832914" lon="11.933938383985339"><ele>419.14285714285717</ele><time>2026-04-19T10:56:44.999Z</time></trkpt><trkpt lat="42.12566067632422" lon="11.933845904624345"><ele>417.57142857142856</ele><time>2026-04-19T10:56:46.999Z</time></trkpt><trkpt lat="42.125645733690355" lon="11.93374374430324"><ele>416.0</ele><time>2026-04-19T10:56:48.999Z</time></trkpt><trkpt lat="42.125620168286595" lon="11.933645764495838"><ele>416.0</ele><time>2026-04-19T10:56:50.999Z</time></trkpt><trkpt lat="42.125561831476354" lon="11.93354919595733"><ele>416.0</ele><time>2026-04-19T10:56:53.999Z</time></trkpt><trkpt lat="42.125534580173806" lon="11.93342196490759"><ele>416.0</ele><time>2026-04-19T10:56:56.999Z</time></trkpt><trkpt lat="42.12549255709791" lon="11.933323895785003"><ele>416.0</ele><time>2026-04-19T10:56:58.999Z</time></trkpt><trkpt lat="42.12543396820283" lon="11.933214328743906"><ele>416.0</ele><time>2026-04-19T10:57:00.999Z</time></trkpt><trkpt lat="42.1253856947478" lon="11.933111758804326"><ele>415.16666666666663</ele><time>2026-04-19T10:57:02.999Z</time></trkpt><trkpt lat="42.12533320572416" lon="11.933015528563821"><ele>414.3333333333333</ele><time>2026-04-19T10:57:04.999Z</time></trkpt><trkpt lat="42.12529165412111" lon="11.932931554918964"><ele>413.5</ele><time>2026-04-19T10:57:10.999Z</time></trkpt><trkpt lat="42.125290519632806" lon="11.932821243845753"><ele>412.66666666666663</ele><time>2026-04-19T10:57:15.999Z</time></trkpt><trkpt lat="42.12526195787614" lon="11.932718450026144"><ele>411.8333333333333</ele><time>2026-04-19T10:57:18.999Z</time></trkpt><trkpt lat="42.125205873694966" lon="11.932622627653448"><ele>411.0</ele><time>2026-04-19T10:57:22.999Z</time></trkpt><trkpt lat="42.12514584694984" lon="11.932562583400049"><ele>410.1666666666667</ele><time>2026-04-19T10:57:26Z</time></trkpt><trkpt lat="42.12510633588054" lon="11.932478797977566"><ele>409.33333333333337</ele><time>2026-04-19T10:57:30Z</time></trkpt><trkpt lat="42.12505464991821" lon="11.93240111197597"><ele>408.5</ele><time>2026-04-19T10:57:34Z</time></trkpt><trkpt lat="42.125067387720094" lon="11.932291605024874"><ele>407.6666666666667</ele><time>2026-04-19T10:57:37Z</time></trkpt><trkpt lat="42.12512069568178" lon="11.932188419669014"><ele>406.83333333333337</ele><time>2026-04-19T10:57:40Z</time></trkpt><trkpt lat="42.12514249821788" lon="11.93207560215196"><ele>406.0</ele><time>2026-04-19T10:57:43Z</time></trkpt><trkpt lat="42.125186940410785" lon="11.931997937676282"><ele>406.0</ele><time>2026-04-19T10:57:47Z</time></trkpt><trkpt lat="42.12522002601362" lon="11.931919802815687"><ele>406.0</ele><time>2026-04-19T10:57:50Z</time></trkpt><trkpt lat="42.12524106678337" lon="11.931832064197375"><ele>406.0</ele><time>2026-04-19T10:57:52Z</time></trkpt><trkpt lat="42.12526160433922" lon="11.93171418210807"><ele>406.0</ele><time>2026-04-19T10:57:55Z</time></trkpt><trkpt lat="42.125283074326326" lon="11.931616526962749"><ele>406.0</ele><time>2026-04-19T10:57:57Z</time></trkpt><trkpt lat="42.125302890168065" lon="11.931528155263743"><ele>406.0</ele><time>2026-04-19T10:57:59Z</time></trkpt><trkpt lat="42.12533653388695" lon="11.93144270407408"><ele>406.0</ele><time>2026-04-19T10:58:01Z</time></trkpt><trkpt lat="42.12536533447897" lon="11.931364525998786"><ele>406.6666666666667</ele><time>2026-04-19T10:58:03Z</time></trkpt><trkpt lat="42.12538807362508" lon="11.93128082972219"><ele>407.33333333333337</ele><time>2026-04-19T10:58:05Z</time></trkpt><trkpt lat="42.125376717172436" lon="11.931160095743467"><ele>408.0</ele><time>2026-04-19T10:58:08Z</time></trkpt><trkpt lat="42.125370475952934" lon="11.931061642258982"><ele>408.66666666666663</ele><time>2026-04-19T10:58:11Z</time></trkpt><trkpt lat="42.12535674887918" lon="11.930969874680118"><ele>409.3333333333333</ele><time>2026-04-19T10:58:15Z</time></trkpt><trkpt lat="42.12536355172302" lon="11.930859755935579"><ele>410.0</ele><time>2026-04-19T10:58:19Z</time></trkpt><trkpt lat="42.125394376756816" lon="11.930764181427959"><ele>411.16666666666663</ele><time>2026-04-19T10:58:22Z</time></trkpt><trkpt lat="42.12542900887506" lon="11.93068081812009"><ele>412.3333333333333</ele><time>2026-04-19T10:58:25Z</time></trkpt><trkpt lat="42.125467285247254" lon="11.930578260523914"><ele>413.5</ele><time>2026-04-19T10:58:28Z</time></trkpt><trkpt lat="42.12551551963049" lon="11.930467819363562"><ele>414.66666666666663</ele><time>2026-04-19T10:58:31Z</time></trkpt><trkpt lat="42.12556191295989" lon="11.930362052641058"><ele>415.8333333333333</ele><time>2026-04-19T10:58:34Z</time></trkpt><trkpt lat="42.12562308575536" lon="11.930278956460599"><ele>417.0</ele><time>2026-04-19T10:58:37Z</time></trkpt><trkpt lat="42.12566457815583" lon="11.930177947524793"><ele>417.0</ele><time>2026-04-19T10:58:40Z</time></trkpt><trkpt lat="42.12568657692956" lon="11.930076762230573"><ele>417.0</ele><time>2026-04-19T10:58:42Z</time></trkpt><trkpt lat="42.12568297368348" lon="11.92995088324031"><ele>417.0</ele><time>2026-04-19T10:58:46Z</time></trkpt><trkpt lat="42.12567075956277" lon="11.929834753101108"><ele>417.0</ele><time>2026-04-19T10:58:49Z</time></trkpt><trkpt lat="42.12568654904537" lon="11.929747421753715"><ele>417.0</ele><time>2026-04-19T10:58:51Z</time></trkpt><trkpt lat="42.12571192417725" lon="11.929634333123245"><ele>417.0</ele><time>2026-04-19T10:58:54Z</time></trkpt><trkpt lat="42.12571970088406" lon="11.929539269384426"><ele>418.7142857142857</ele><time>2026-04-19T10:58:56.999Z</time></trkpt><trkpt lat="42.125726067832076" lon="11.929428617934336"><ele>420.4285714285714</ele><time>2026-04-19T10:58:59.999Z</time></trkpt><trkpt lat="42.125730856958434" lon="11.929321538774493"><ele>422.1428571428571</ele><time>2026-04-19T10:59:02.999Z</time></trkpt><trkpt lat="42.12572525306525" lon="11.929230521039063"><ele>423.8571428571429</ele><time>2026-04-19T10:59:04.999Z</time></trkpt><trkpt lat="42.12570348078417" lon="11.92914500997936"><ele>425.57142857142856</ele><time>2026-04-19T10:59:06.999Z</time></trkpt><trkpt lat="42.125669268946815" lon="11.929073006860666"><ele>427.2857142857143</ele><time>2026-04-19T10:59:08.999Z</time></trkpt><trkpt lat="42.1256065256668" lon="11.928996372052485"><ele>429.0</ele><time>2026-04-19T10:59:11.999Z</time></trkpt><trkpt lat="42.12555280419986" lon="11.928922114352533"><ele>428.8571428571429</ele><time>2026-04-19T10:59:14.999Z</time></trkpt><trkpt lat="42.12550327473303" lon="11.92886404676148"><ele>428.7142857142857</ele><time>2026-04-19T10:59:17.999Z</time></trkpt><trkpt lat="42.12546748571896" lon="11.928777315849034"><ele>428.57142857142856</ele><time>2026-04-19T10:59:20.999Z</time></trkpt><trkpt lat="42.125441484635644" lon="11.928684576333437"><ele>428.42857142857144</ele><time>2026-04-19T10:59:24.999Z</time></trkpt><trkpt lat="42.12542333332549" lon="11.928575453459967"><ele>428.2857142857143</ele><time>2026-04-19T10:59:27.999Z</time></trkpt><trkpt lat="42.12541372009792" lon="11.92846778356562"><ele>428.14285714285717</ele><time>2026-04-19T10:59:32Z</time></trkpt><trkpt lat="42.12541542002713" lon="11.928376857871738"><ele>428.0</ele><time>2026-04-19T10:59:35Z</time></trkpt><trkpt lat="42.12540652113387" lon="11.928269655812098"><ele>427.99999999999994</ele><time>2026-04-19T10:59:39Z</time></trkpt><trkpt lat="42.12536292183544" lon="11.928180323064101"><ele>428.0</ele><time>2026-04-19T10:59:43Z</time></trkpt><trkpt lat="42.12531495810215" lon="11.928106583899481"><ele>428.0</ele><time>2026-04-19T10:59:46Z</time></trkpt><trkpt lat="42.12524537434022" lon="11.928054039982294"><ele>428.0</ele><time>2026-04-19T10:59:49Z</time></trkpt><trkpt lat="42.12517478428113" lon="11.928010687605212"><ele>427.99999999999994</ele><time>2026-04-19T10:59:52Z</time></trkpt><trkpt lat="42.12509864442301" lon="11.927966057466856"><ele>428.0</ele><time>2026-04-19T10:59:55Z</time></trkpt><trkpt lat="42.12503190943604" lon="11.927901572657781"><ele>428.00000000000006</ele><time>2026-04-19T10:59:58Z</time></trkpt><trkpt lat="42.12499773729445" lon="11.927808008111828"><ele>428.0</ele><time>2026-04-19T11:00:02Z</time></trkpt><trkpt lat="42.12497465746097" lon="11.927725853023826"><ele>428.0</ele><time>2026-04-19T11:00:06Z</time></trkpt><trkpt lat="42.12495396206406" lon="11.927638599822101"><ele>428.0</ele><time>2026-04-19T11:00:10Z</time></trkpt><trkpt lat="42.12493181822304" lon="11.927548427402392"><ele>428.0</ele><time>2026-04-19T11:00:14Z</time></trkpt><trkpt lat="42.124883362572824" lon="11.9274710308186"><ele>428.00000000000006</ele><time>2026-04-19T11:00:18Z</time></trkpt><trkpt lat="42.12482366528813" lon="11.927415719244436"><ele>428.0</ele><time>2026-04-19T11:00:22Z</time></trkpt><trkpt lat="42.12476033776696" lon="11.927405492856446"><ele>427.00000000000006</ele><time>2026-04-19T11:00:25Z</time></trkpt><trkpt lat="42.124692889950936" lon="11.927412856126502"><ele>426.0</ele><time>2026-04-19T11:00:28Z</time></trkpt><trkpt lat="42.124620645545704" lon="11.927438903252295"><ele>425.0</ele><time>2026-04-19T11:00:31Z</time></trkpt><trkpt lat="42.124551159984456" lon="11.927462315127615"><ele>424.0</ele><time>2026-04-19T11:00:35Z</time></trkpt><trkpt lat="42.12448697290022" lon="11.927497063945438"><ele>423.0</ele><time>2026-04-19T11:00:38Z</time></trkpt><trkpt lat="42.12443030215403" lon="11.9275498066039"><ele>422.00000000000006</ele><time>2026-04-19T11:00:42Z</time></trkpt><trkpt lat="42.12436580184458" lon="11.927595459234249"><ele>421.0</ele><time>2026-04-19T11:00:46Z</time></trkpt><trkpt lat="42.1243056711902" lon="11.927628105442317"><ele>423.83333333333337</ele><time>2026-04-19T11:00:49Z</time></trkpt><trkpt lat="42.124230013019464" lon="11.927677522774186"><ele>426.6666666666667</ele><time>2026-04-19T11:00:52Z</time></trkpt><trkpt lat="42.124144686469165" lon="11.92779494771294"><ele>429.5</ele><time>2026-04-19T11:00:55Z</time></trkpt><trkpt lat="42.12407695032997" lon="11.927839857163278"><ele>432.33333333333337</ele><time>2026-04-19T11:01:02Z</time></trkpt><trkpt lat="42.1239969618833" lon="11.927829788001816"><ele>435.1666666666667</ele><time>2026-04-19T11:01:06Z</time></trkpt><trkpt lat="42.12392664953312" lon="11.927826577970144"><ele>438.0</ele><time>2026-04-19T11:01:10Z</time></trkpt><trkpt lat="42.12385880909368" lon="11.927784176519198"><ele>438.0</ele><time>2026-04-19T11:01:14Z</time></trkpt><trkpt lat="42.123804474583885" lon="11.927730383433708"><ele>438.0</ele><time>2026-04-19T11:01:18Z</time></trkpt><trkpt lat="42.123743271117085" lon="11.927697805469492"><ele>438.0</ele><time>2026-04-19T11:01:21Z</time></trkpt><trkpt lat="42.12368823238327" lon="11.92764792286091"><ele>438.0</ele><time>2026-04-19T11:01:24Z</time></trkpt><trkpt lat="42.123629957378" lon="11.92761023714296"><ele>438.0</ele><time>2026-04-19T11:01:27.999Z</time></trkpt><trkpt lat="42.12356707249802" lon="11.927561438323881"><ele>438.0</ele><time>2026-04-19T11:01:30.999Z</time></trkpt><trkpt lat="42.12349381100684" lon="11.927543855841787"><ele>438.0</ele><time>2026-04-19T11:01:33.999Z</time></trkpt><trkpt lat="42.123438814309" lon="11.927462534150601"><ele>438.0</ele><time>2026-04-19T11:01:37Z</time></trkpt><trkpt lat="42.1233814127161" lon="11.927397458456664"><ele>438.0</ele><time>2026-04-19T11:01:40Z</time></trkpt><trkpt lat="42.12334832920803" lon="11.927314393235818"><ele>438.0</ele><time>2026-04-19T11:01:43Z</time></trkpt><trkpt lat="42.12333929770257" lon="11.9272266261621"><ele>438.0</ele><time>2026-04-19T11:01:46Z</time></trkpt><trkpt lat="42.12334570926742" lon="11.92711846037271"><ele>438.0</ele><time>2026-04-19T11:01:50Z</time></trkpt><trkpt lat="42.12333623780443" lon="11.927030302994291"><ele>438.0</ele><time>2026-04-19T11:01:53Z</time></trkpt><trkpt lat="42.12330819962694" lon="11.926947910771961"><ele>438.0</ele><time>2026-04-19T11:01:56Z</time></trkpt><trkpt lat="42.12327116388474" lon="11.92686199419462"><ele>441.42857142857144</ele><time>2026-04-19T11:01:59Z</time></trkpt><trkpt lat="42.12321275676739" lon="11.926822281003677"><ele>444.85714285714283</ele><time>2026-04-19T11:02:02Z</time></trkpt><trkpt lat="42.12315022275915" lon="11.926787067799886"><ele>448.2857142857143</ele><time>2026-04-19T11:02:05Z</time></trkpt><trkpt lat="42.12308732465364" lon="11.926759738527904"><ele>451.7142857142857</ele><time>2026-04-19T11:02:08Z</time></trkpt><trkpt lat="42.12300609079776" lon="11.926743793122617"><ele>455.1428571428571</ele><time>2026-04-19T11:02:12Z</time></trkpt><trkpt lat="42.12293498344213" lon="11.926751110477925"><ele>458.57142857142856</ele><time>2026-04-19T11:02:15Z</time></trkpt><trkpt lat="42.12285406780986" lon="11.92675566468813"><ele>462.0</ele><time>2026-04-19T11:02:19Z</time></trkpt><trkpt lat="42.12278198656166" lon="11.92676073898206"><ele>462.0</ele><time>2026-04-19T11:02:23Z</time></trkpt><trkpt lat="42.12269952426754" lon="11.926768751416402"><ele>462.0</ele><time>2026-04-19T11:02:27Z</time></trkpt><trkpt lat="42.122621817429646" lon="11.926741568374569"><ele>462.0</ele><time>2026-04-19T11:02:31Z</time></trkpt><trkpt lat="42.12256200599937" lon="11.92668943684825"><ele>462.0</ele><time>2026-04-19T11:02:35Z</time></trkpt><trkpt lat="42.12249095427349" lon="11.926635477586501"><ele>462.0</ele><time>2026-04-19T11:02:39Z</time></trkpt><trkpt lat="42.12241780805556" lon="11.926627174288864"><ele>462.0</ele><time>2026-04-19T11:02:43Z</time></trkpt><trkpt lat="42.12235437411029" lon="11.926653998074828"><ele>460.42857142857144</ele><time>2026-04-19T11:02:47Z</time></trkpt><trkpt lat="42.122289303579706" lon="11.926707806708478"><ele>458.8571428571429</ele><time>2026-04-19T11:02:51Z</time></trkpt><trkpt lat="42.12222897398495" lon="11.92676113519695"><ele>457.2857142857143</ele><time>2026-04-19T11:02:55Z</time></trkpt><trkpt lat="42.122167342078576" lon="11.92680152443775"><ele>455.7142857142857</ele><time>2026-04-19T11:02:59Z</time></trkpt><trkpt lat="42.122092977580245" lon="11.926826145194486"><ele>454.14285714285717</ele><time>2026-04-19T11:03:04Z</time></trkpt><trkpt lat="42.12202400601075" lon="11.92681403033012"><ele>452.57142857142856</ele><time>2026-04-19T11:03:07Z</time></trkpt><trkpt lat="42.121965654261324" lon="11.926847923331007"><ele>451.0</ele><time>2026-04-19T11:03:10Z</time></trkpt><trkpt lat="42.12190934629067" lon="11.926899967665294"><ele>451.00000000000006</ele><time>2026-04-19T11:03:14Z</time></trkpt><trkpt lat="42.121852713844696" lon="11.926944425884278"><ele>451.0</ele><time>2026-04-19T11:03:17Z</time></trkpt><trkpt lat="42.12179274562198" lon="11.92698902651547"><ele>451.0</ele><time>2026-04-19T11:03:20Z</time></trkpt><trkpt lat="42.121722856081206" lon="11.927056006366106"><ele>451.0</ele><time>2026-04-19T11:03:23Z</time></trkpt><trkpt lat="42.12165257283253" lon="11.927140934301915"><ele>451.00000000000006</ele><time>2026-04-19T11:03:26Z</time></trkpt><trkpt lat="42.12159783067626" lon="11.927216005533431"><ele>451.0</ele><time>2026-04-19T11:03:28Z</time></trkpt><trkpt lat="42.12154601648153" lon="11.92729598900191"><ele>451.00000000000006</ele><time>2026-04-19T11:03:30Z</time></trkpt><trkpt lat="42.12149373331385" lon="11.927370180763553"><ele>451.0</ele><time>2026-04-19T11:03:32Z</time></trkpt><trkpt lat="42.12142874872727" lon="11.927426932396875"><ele>451.0</ele><time>2026-04-19T11:03:34Z</time></trkpt><trkpt lat="42.121359547494464" lon="11.927520252957414"><ele>451.0</ele><time>2026-04-19T11:03:36Z</time></trkpt><trkpt lat="42.121303992068896" lon="11.92760257716849"><ele>451.00000000000006</ele><time>2026-04-19T11:03:38Z</time></trkpt><trkpt lat="42.12124633621856" lon="11.927697283228545"><ele>451.0</ele><time>2026-04-19T11:03:40Z</time></trkpt><trkpt lat="42.12118752963944" lon="11.92778835583506"><ele>451.00000000000006</ele><time>2026-04-19T11:03:42Z</time></trkpt><trkpt lat="42.121110512914804" lon="11.927875586032966"><ele>451.0</ele><time>2026-04-19T11:03:44Z</time></trkpt><trkpt lat="42.121029734619825" lon="11.927927620998547"><ele>451.0</ele><time>2026-04-19T11:03:46Z</time></trkpt><trkpt lat="42.12096384695239" lon="11.927967634733964"><ele>451.0</ele><time>2026-04-19T11:03:48Z</time></trkpt><trkpt lat="42.12088351404277" lon="11.928005325666957"><ele>451.00000000000006</ele><time>2026-04-19T11:03:50Z</time></trkpt><trkpt lat="42.12080562988786" lon="11.928035398076457"><ele>451.0</ele><time>2026-04-19T11:03:52Z</time></trkpt><trkpt lat="42.12072437670859" lon="11.928077440200536"><ele>452.1666666666667</ele><time>2026-04-19T11:03:54Z</time></trkpt><trkpt lat="42.12065350241057" lon="11.928129202925643"><ele>453.33333333333337</ele><time>2026-04-19T11:03:56Z</time></trkpt><trkpt lat="42.12058781466342" lon="11.928179572442096"><ele>454.5</ele><time>2026-04-19T11:03:58Z</time></trkpt><trkpt lat="42.120516996206746" lon="11.928153057556992"><ele>455.66666666666663</ele><time>2026-04-19T11:04:00Z</time></trkpt><trkpt lat="42.12049650044696" lon="11.92805656918846"><ele>456.8333333333333</ele><time>2026-04-19T11:04:02Z</time></trkpt><trkpt lat="42.12051356979081" lon="11.927939313268094"><ele>458.0</ele><time>2026-04-19T11:04:05Z</time></trkpt><trkpt lat="42.12053217292791" lon="11.927836238645376"><ele>458.0</ele><time>2026-04-19T11:04:08Z</time></trkpt><trkpt lat="42.120554554671706" lon="11.927747695924323"><ele>458.0</ele><time>2026-04-19T11:04:11Z</time></trkpt><trkpt lat="42.12059782996294" lon="11.927654118919323"><ele>458.0</ele><time>2026-04-19T11:04:15Z</time></trkpt><trkpt lat="42.12062591784164" lon="11.927571886217057"><ele>458.0</ele><time>2026-04-19T11:04:18Z</time></trkpt><trkpt lat="42.12064157416014" lon="11.927484602177174"><ele>458.0</ele><time>2026-04-19T11:04:21Z</time></trkpt><trkpt lat="42.1206508182491" lon="11.927389875453832"><ele>458.0</ele><time>2026-04-19T11:04:24Z</time></trkpt><trkpt lat="42.12064039009353" lon="11.927299699878924"><ele>458.0</ele><time>2026-04-19T11:04:27Z</time></trkpt><trkpt lat="42.12062946859101" lon="11.927204749658475"><ele>457.8333333333333</ele><time>2026-04-19T11:04:30Z</time></trkpt><trkpt lat="42.12061104281111" lon="11.927091239975793"><ele>457.66666666666663</ele><time>2026-04-19T11:04:34Z</time></trkpt><trkpt lat="42.12059639161269" lon="11.926982117001693"><ele>457.5</ele><time>2026-04-19T11:04:38Z</time></trkpt><trkpt lat="42.12057746517019" lon="11.926884231579228"><ele>457.33333333333337</ele><time>2026-04-19T11:04:42Z</time></trkpt><trkpt lat="42.120554651511455" lon="11.926784601974848"><ele>457.1666666666667</ele><time>2026-04-19T11:04:46Z</time></trkpt><trkpt lat="42.12052184627246" lon="11.926678491068758"><ele>457.0</ele><time>2026-04-19T11:04:49Z</time></trkpt><trkpt lat="42.12049126922297" lon="11.926597147905099"><ele>457.00000000000006</ele><time>2026-04-19T11:04:51Z</time></trkpt><trkpt lat="42.12045662592303" lon="11.926494731822531"><ele>457.0</ele><time>2026-04-19T11:04:53Z</time></trkpt><trkpt lat="42.120430784441766" lon="11.926389062615224"><ele>457.0</ele><time>2026-04-19T11:04:55Z</time></trkpt><trkpt lat="42.12039816985167" lon="11.926279819958202"><ele>457.0</ele><time>2026-04-19T11:04:57Z</time></trkpt><trkpt lat="42.120365068325086" lon="11.926170653022515"><ele>457.00000000000006</ele><time>2026-04-19T11:04:59Z</time></trkpt><trkpt lat="42.12032886518048" lon="11.926056015225353"><ele>457.0</ele><time>2026-04-19T11:05:01Z</time></trkpt><trkpt lat="42.12029208170514" lon="11.925960422676562"><ele>456.00000000000006</ele><time>2026-04-19T11:05:03Z</time></trkpt><trkpt lat="42.120267870133574" lon="11.925851367244102"><ele>455.0</ele><time>2026-04-19T11:05:05Z</time></trkpt><trkpt lat="42.12021450883248" lon="11.925739172817664"><ele>454.0</ele><time>2026-04-19T11:05:07Z</time></trkpt><trkpt lat="42.12016097977429" lon="11.925630934898463"><ele>453.0</ele><time>2026-04-19T11:05:09Z</time></trkpt><trkpt lat="42.120169812198604" lon="11.925503875759249"><ele>452.00000000000006</ele><time>2026-04-19T11:05:11Z</time></trkpt><trkpt lat="42.1201283998739" lon="11.925431506659754"><ele>451.0</ele><time>2026-04-19T11:05:15Z</time></trkpt><trkpt lat="42.12006130902477" lon="11.925349139599211"><ele>451.00000000000006</ele><time>2026-04-19T11:06:53Z</time></trkpt><trkpt lat="42.11998018050549" lon="11.925340198851849"><ele>451.0</ele><time>2026-04-19T11:06:56Z</time></trkpt><trkpt lat="42.11993823079085" lon="11.925423474920446"><ele>451.0</ele><time>2026-04-19T11:06:59Z</time></trkpt><trkpt lat="42.11988553393573" lon="11.925496613784379"><ele>451.0</ele><time>2026-04-19T11:07:02Z</time></trkpt><trkpt lat="42.1198222189011" lon="11.9255809570883"><ele>451.00000000000006</ele><time>2026-04-19T11:07:05Z</time></trkpt><trkpt lat="42.119760562747636" lon="11.925678444475459"><ele>451.0</ele><time>2026-04-19T11:07:08Z</time></trkpt><trkpt lat="42.11971386793212" lon="11.925739793255538"><ele>450.85714285714283</ele><time>2026-04-19T11:07:10Z</time></trkpt><trkpt lat="42.119668141505684" lon="11.925803677684078"><ele>450.7142857142858</ele><time>2026-04-19T11:07:12Z</time></trkpt><trkpt lat="42.119601781860766" lon="11.92589160872946"><ele>450.5714285714286</ele><time>2026-04-19T11:07:15Z</time></trkpt><trkpt lat="42.119557363860515" lon="11.925964363634424"><ele>450.42857142857144</ele><time>2026-04-19T11:07:17Z</time></trkpt><trkpt lat="42.1195121261699" lon="11.92603713422074"><ele>450.28571428571433</ele><time>2026-04-19T11:07:19Z</time></trkpt><trkpt lat="42.11947096878003" lon="11.926111665333819"><ele>450.1428571428572</ele><time>2026-04-19T11:07:21Z</time></trkpt><trkpt lat="42.11942603005443" lon="11.926178429430486"><ele>450.00000000000006</ele><time>2026-04-19T11:07:23Z</time></trkpt><trkpt lat="42.11938111026533" lon="11.92624906826347"><ele>449.8333333333333</ele><time>2026-04-19T11:07:25Z</time></trkpt><trkpt lat="42.11933476032914" lon="11.92632283439437"><ele>449.66666666666663</ele><time>2026-04-19T11:07:27Z</time></trkpt><trkpt lat="42.119288476593134" lon="11.926402984438683"><ele>449.5</ele><time>2026-04-19T11:07:29Z</time></trkpt><trkpt lat="42.11923882444359" lon="11.926494238475957"><ele>449.3333333333333</ele><time>2026-04-19T11:07:31Z</time></trkpt><trkpt lat="42.119168448193825" lon="11.92659513715318"><ele>449.16666666666663</ele><time>2026-04-19T11:07:33Z</time></trkpt><trkpt lat="42.11908582541483" lon="11.926703257793974"><ele>449.0</ele><time>2026-04-19T11:07:35Z</time></trkpt><trkpt lat="42.11898182479309" lon="11.926811345643811"><ele>448.3333333333333</ele><time>2026-04-19T11:07:37Z</time></trkpt><trkpt lat="42.11892245764995" lon="11.926862891781425"><ele>447.66666666666663</ele><time>2026-04-19T11:07:38Z</time></trkpt><trkpt lat="42.11886102660113" lon="11.926915302612498"><ele>447.0</ele><time>2026-04-19T11:07:39Z</time></trkpt><trkpt lat="42.11880132504529" lon="11.926968186900579"><ele>446.33333333333337</ele><time>2026-04-19T11:07:40Z</time></trkpt><trkpt lat="42.118742965838294" lon="11.927016625359743"><ele>445.6666666666667</ele><time>2026-04-19T11:07:41Z</time></trkpt><trkpt lat="42.118648865685756" lon="11.92710188644937"><ele>445.0</ele><time>2026-04-19T11:07:43Z</time></trkpt><trkpt lat="42.11855927256413" lon="11.927113657242481"><ele>445.0</ele><time>2026-04-19T11:07:45Z</time></trkpt><trkpt lat="42.11841261532008" lon="11.926918375552278"><ele>445.0</ele><time>2026-04-19T11:07:48Z</time></trkpt><trkpt lat="42.118347369054575" lon="11.926892648787812"><ele>445.0</ele><time>2026-04-19T11:07:49Z</time></trkpt><trkpt lat="42.11829505226016" lon="11.926838917242808"><ele>445.0</ele><time>2026-04-19T11:07:50Z</time></trkpt><trkpt lat="42.11824424028502" lon="11.926783533783546"><ele>445.0</ele><time>2026-04-19T11:07:51Z</time></trkpt><trkpt lat="42.11819305997489" lon="11.926727543817261"><ele>444.42857142857144</ele><time>2026-04-19T11:07:52Z</time></trkpt><trkpt lat="42.118145203956935" lon="11.92666560146237"><ele>443.85714285714283</ele><time>2026-04-19T11:07:53Z</time></trkpt><trkpt lat="42.11809805449906" lon="11.92659660208585"><ele>443.2857142857143</ele><time>2026-04-19T11:07:54Z</time></trkpt><trkpt lat="42.11805488069494" lon="11.926527347934616"><ele>442.7142857142857</ele><time>2026-04-19T11:07:55Z</time></trkpt><trkpt lat="42.11801231871777" lon="11.926458746236477"><ele>442.1428571428571</ele><time>2026-04-19T11:07:56Z</time></trkpt><trkpt lat="42.117971196019575" lon="11.926380203129716"><ele>441.57142857142856</ele><time>2026-04-19T11:07:57Z</time></trkpt><trkpt lat="42.11793536665739" lon="11.926296950135427"><ele>441.0</ele><time>2026-04-19T11:07:58Z</time></trkpt><trkpt lat="42.117906461768285" lon="11.926207529334235"><ele>441.0</ele><time>2026-04-19T11:07:59Z</time></trkpt><trkpt lat="42.11788049195115" lon="11.926118734307183"><ele>441.0</ele><time>2026-04-19T11:08:00Z</time></trkpt><trkpt lat="42.11784963441366" lon="11.926032100721658"><ele>441.0</ele><time>2026-04-19T11:08:01Z</time></trkpt><trkpt lat="42.11782435454591" lon="11.925944325190919"><ele>441.0</ele><time>2026-04-19T11:08:02Z</time></trkpt><trkpt lat="42.117823699016846" lon="11.92584398106177"><ele>441.0</ele><time>2026-04-19T11:08:03Z</time></trkpt><trkpt lat="42.11780978359746" lon="11.925671277919482"><ele>441.0</ele><time>2026-04-19T11:08:05Z</time></trkpt><trkpt lat="42.117790454648144" lon="11.925552976032757"><ele>439.6666666666667</ele><time>2026-04-19T11:08:06Z</time></trkpt><trkpt lat="42.11776917464566" lon="11.925471791195294"><ele>438.33333333333337</ele><time>2026-04-19T11:08:07Z</time></trkpt><trkpt lat="42.11772932049349" lon="11.925372543885489"><ele>437.0</ele><time>2026-04-19T11:08:08Z</time></trkpt><trkpt lat="42.117689006242145" lon="11.92529107157481"><ele>435.6666666666667</ele><time>2026-04-19T11:08:09Z</time></trkpt><trkpt lat="42.11763115964721" lon="11.92521237840468"><ele>434.33333333333337</ele><time>2026-04-19T11:08:10Z</time></trkpt><trkpt lat="42.11755778070663" lon="11.925132360594835"><ele>433.0</ele><time>2026-04-19T11:08:11Z</time></trkpt><trkpt lat="42.11747270077605" lon="11.925080214424499"><ele>432.83333333333337</ele><time>2026-04-19T11:08:12Z</time></trkpt><trkpt lat="42.11741041206543" lon="11.925028096051278"><ele>432.6666666666667</ele><time>2026-04-19T11:08:13Z</time></trkpt><trkpt lat="42.11734130266359" lon="11.925008367064468"><ele>432.5</ele><time>2026-04-19T11:08:14Z</time></trkpt><trkpt lat="42.117278841455025" lon="11.925048205656575"><ele>432.33333333333337</ele><time>2026-04-19T11:08:15Z</time></trkpt><trkpt lat="42.117186537472804" lon="11.925112809608542"><ele>432.1666666666667</ele><time>2026-04-19T11:08:17Z</time></trkpt><trkpt lat="42.11707634727097" lon="11.9251286465545"><ele>432.0</ele><time>2026-04-19T11:08:19Z</time></trkpt><trkpt lat="42.11697899821514" lon="11.925096072346571"><ele>430.3333333333333</ele><time>2026-04-19T11:08:21Z</time></trkpt><trkpt lat="42.11690599819155" lon="11.924992194250558"><ele>428.66666666666663</ele><time>2026-04-19T11:08:23Z</time></trkpt><trkpt lat="42.11680735304335" lon="11.9248901301152"><ele>427.0</ele><time>2026-04-19T11:08:25Z</time></trkpt><trkpt lat="42.11676705013421" lon="11.924820538655421"><ele>425.3333333333333</ele><time>2026-04-19T11:08:26Z</time></trkpt><trkpt lat="42.116716798621034" lon="11.924753776963607"><ele>423.66666666666663</ele><time>2026-04-19T11:08:27Z</time></trkpt><trkpt lat="42.1166707353458" lon="11.924689675504794"><ele>422.0</ele><time>2026-04-19T11:08:28Z</time></trkpt><trkpt lat="42.116624314374874" lon="11.924625454319756"><ele>421.5</ele><time>2026-04-19T11:08:29Z</time></trkpt><trkpt lat="42.11652962273662" lon="11.924506919908339"><ele>421.0</ele><time>2026-04-19T11:08:31Z</time></trkpt><trkpt lat="42.11646673747635" lon="11.924382420474345"><ele>420.5</ele><time>2026-04-19T11:08:33Z</time></trkpt><trkpt lat="42.116422034716734" lon="11.924222279344846"><ele>420.0</ele><time>2026-04-19T11:08:35Z</time></trkpt><trkpt lat="42.11638433756838" lon="11.924063911028083"><ele>419.4</ele><time>2026-04-19T11:08:37Z</time></trkpt><trkpt lat="42.11636456357089" lon="11.9239068890267"><ele>418.8</ele><time>2026-04-19T11:08:39Z</time></trkpt><trkpt lat="42.116379079376145" lon="11.923756355940084"><ele>418.20000000000005</ele><time>2026-04-19T11:08:41Z</time></trkpt><trkpt lat="42.11641251041977" lon="11.923629240408887"><ele>417.6</ele><time>2026-04-19T11:08:43Z</time></trkpt><trkpt lat="42.11644647007178" lon="11.923528133532098"><ele>417.0</ele><time>2026-04-19T11:08:45Z</time></trkpt><trkpt lat="42.116474801608604" lon="11.923451628211483"><ele>417.5</ele><time>2026-04-19T11:08:47Z</time></trkpt><trkpt lat="42.11650738903001" lon="11.923342467611375"><ele>418.0</ele><time>2026-04-19T11:08:50Z</time></trkpt><trkpt lat="42.116554391883184" lon="11.92325548639539"><ele>418.5</ele><time>2026-04-19T11:08:53Z</time></trkpt><trkpt lat="42.116591914587715" lon="11.923163678878105"><ele>419.0</ele><time>2026-04-19T11:08:56Z</time></trkpt><trkpt lat="42.11661810415124" lon="11.923071922991259"><ele>419.5</ele><time>2026-04-19T11:08:59Z</time></trkpt><trkpt lat="42.11666364723009" lon="11.922989035643415"><ele>420.0</ele><time>2026-04-19T11:09:02Z</time></trkpt><trkpt lat="42.11668537669507" lon="11.922892661211796"><ele>420.3333333333333</ele><time>2026-04-19T11:09:05Z</time></trkpt><trkpt lat="42.11672361089512" lon="11.922808373965896"><ele>420.66666666666663</ele><time>2026-04-19T11:09:08Z</time></trkpt><trkpt lat="42.11676772965947" lon="11.922727132977068"><ele>421.0</ele><time>2026-04-19T11:09:11Z</time></trkpt><trkpt lat="42.11678508845564" lon="11.922614541306865"><ele>421.3333333333333</ele><time>2026-04-19T11:09:14Z</time></trkpt><trkpt lat="42.11682053918765" lon="11.922521409292413"><ele>421.66666666666663</ele><time>2026-04-19T11:09:17Z</time></trkpt><trkpt lat="42.1168426274125" lon="11.922426861428912"><ele>422.0</ele><time>2026-04-19T11:09:20Z</time></trkpt><trkpt lat="42.116864848444074" lon="11.922332569332058"><ele>423.99999999999994</ele><time>2026-04-19T11:09:23Z</time></trkpt><trkpt lat="42.116885300075" lon="11.922239068523782"><ele>426.0</ele><time>2026-04-19T11:09:26Z</time></trkpt><trkpt lat="42.116904536127684" lon="11.922139750882597"><ele>428.0</ele><time>2026-04-19T11:09:29Z</time></trkpt><trkpt lat="42.116915557453765" lon="11.92204726430749"><ele>430.0</ele><time>2026-04-19T11:09:32Z</time></trkpt><trkpt lat="42.11687871671903" lon="11.92193156038546"><ele>431.99999999999994</ele><time>2026-04-19T11:09:35Z</time></trkpt><trkpt lat="42.11683502931031" lon="11.921850204687702"><ele>434.0</ele><time>2026-04-19T11:09:37Z</time></trkpt><trkpt lat="42.1167885871828" lon="11.921765119581845"><ele>434.14285714285717</ele><time>2026-04-19T11:09:39Z</time></trkpt><trkpt lat="42.116738767561635" lon="11.921671166213972"><ele>434.2857142857143</ele><time>2026-04-19T11:09:41Z</time></trkpt><trkpt lat="42.116705141364086" lon="11.921574081276372"><ele>434.42857142857144</ele><time>2026-04-19T11:09:43Z</time></trkpt><trkpt lat="42.1166714369805" lon="11.921494300106934"><ele>434.57142857142856</ele><time>2026-04-19T11:09:45Z</time></trkpt><trkpt lat="42.11662682603864" lon="11.921415010223747"><ele>434.7142857142857</ele><time>2026-04-19T11:09:47Z</time></trkpt><trkpt lat="42.11661443274007" lon="11.921319522986455"><ele>434.8571428571429</ele><time>2026-04-19T11:09:49Z</time></trkpt><trkpt lat="42.11658896580319" lon="11.921230886754984"><ele>435.0</ele><time>2026-04-19T11:09:51Z</time></trkpt><trkpt lat="42.11656297585727" lon="11.921136084497864"><ele>435.0</ele><time>2026-04-19T11:09:53Z</time></trkpt><trkpt lat="42.116544128440914" lon="11.92103101038992"><ele>435.0</ele><time>2026-04-19T11:09:55Z</time></trkpt><trkpt lat="42.116545631120964" lon="11.920908940772883"><ele>435.0</ele><time>2026-04-19T11:09:57Z</time></trkpt><trkpt lat="42.11655905964767" lon="11.92077558761099"><ele>435.0</ele><time>2026-04-19T11:09:59Z</time></trkpt><trkpt lat="42.116570552583596" lon="11.92062055293307"><ele>435.0</ele><time>2026-04-19T11:10:01Z</time></trkpt><trkpt lat="42.11658144942622" lon="11.920458344246075"><ele>435.0</ele><time>2026-04-19T11:10:03Z</time></trkpt><trkpt lat="42.116591049219096" lon="11.920296090963358"><ele>435.0</ele><time>2026-04-19T11:10:05Z</time></trkpt><trkpt lat="42.116599818042296" lon="11.920136542176802"><ele>435.0</ele><time>2026-04-19T11:10:07Z</time></trkpt><trkpt lat="42.11661048083237" lon="11.919969505394446"><ele>435.0</ele><time>2026-04-19T11:10:09Z</time></trkpt><trkpt lat="42.11660114569283" lon="11.919877694629138"><ele>435.0</ele><time>2026-04-19T11:10:10Z</time></trkpt><trkpt lat="42.11661360856315" lon="11.91979018350066"><ele>434.42857142857144</ele><time>2026-04-19T11:10:11Z</time></trkpt><trkpt lat="42.11662026422818" lon="11.919698268580541"><ele>433.8571428571429</ele><time>2026-04-19T11:10:12Z</time></trkpt><trkpt lat="42.11663373809176" lon="11.919613876517193"><ele>433.28571428571433</ele><time>2026-04-19T11:10:13Z</time></trkpt><trkpt lat="42.11664357173005" lon="11.919522984235478"><ele>432.7142857142857</ele><time>2026-04-19T11:10:14Z</time></trkpt><trkpt lat="42.11665016692826" lon="11.919436113788802"><ele>432.1428571428571</ele><time>2026-04-19T11:10:15Z</time></trkpt><trkpt lat="42.11666741134753" lon="11.919346802348649"><ele>431.5714285714286</ele><time>2026-04-19T11:10:16Z</time></trkpt><trkpt lat="42.11665810335145" lon="11.919259750271541"><ele>431.0</ele><time>2026-04-19T11:10:17Z</time></trkpt><trkpt lat="42.11667601466614" lon="11.919171685347166"><ele>430.49999999999994</ele><time>2026-04-19T11:10:18Z</time></trkpt><trkpt lat="42.11667294828752" lon="11.919077660915619"><ele>430.0</ele><time>2026-04-19T11:10:19Z</time></trkpt><trkpt lat="42.116653092612296" lon="11.918988461430352"><ele>429.5</ele><time>2026-04-19T11:10:20Z</time></trkpt><trkpt lat="42.11661312725143" lon="11.918905196136297"><ele>429.0</ele><time>2026-04-19T11:10:21Z</time></trkpt><trkpt lat="42.116559483652274" lon="11.918839810831022"><ele>428.49999999999994</ele><time>2026-04-19T11:10:22Z</time></trkpt><trkpt lat="42.11647324643527" lon="11.918718615308032"><ele>428.0</ele><time>2026-04-19T11:10:24Z</time></trkpt><trkpt lat="42.11642013139721" lon="11.918643472187508"><ele>427.3333333333333</ele><time>2026-04-19T11:10:25Z</time></trkpt><trkpt lat="42.11637317783181" lon="11.918578247347883"><ele>426.66666666666663</ele><time>2026-04-19T11:10:26Z</time></trkpt><trkpt lat="42.116317980305396" lon="11.91850214812278"><ele>426.0</ele><time>2026-04-19T11:10:27Z</time></trkpt><trkpt lat="42.116265931495015" lon="11.918430643391535"><ele>425.33333333333337</ele><time>2026-04-19T11:10:28Z</time></trkpt><trkpt lat="42.11620773987621" lon="11.918351751193384"><ele>424.6666666666667</ele><time>2026-04-19T11:10:29Z</time></trkpt><trkpt lat="42.11615219920857" lon="11.918276452970023"><ele>424.0</ele><time>2026-04-19T11:10:30Z</time></trkpt><trkpt lat="42.116093069385" lon="11.918195571046025"><ele>423.50000000000006</ele><time>2026-04-19T11:10:31Z</time></trkpt><trkpt lat="42.116036021958664" lon="11.918112360024624"><ele>423.0</ele><time>2026-04-19T11:10:32Z</time></trkpt><trkpt lat="42.11598093212694" lon="11.918028227790964"><ele>422.5</ele><time>2026-04-19T11:10:33Z</time></trkpt><trkpt lat="42.11592508052577" lon="11.91794072052269"><ele>422.0</ele><time>2026-04-19T11:10:34Z</time></trkpt><trkpt lat="42.11587173494808" lon="11.917857140755318"><ele>421.50000000000006</ele><time>2026-04-19T11:10:35Z</time></trkpt><trkpt lat="42.115815037720026" lon="11.917768308555749"><ele>421.0</ele><time>2026-04-19T11:10:36Z</time></trkpt><trkpt lat="42.11575667611865" lon="11.917681715100358"><ele>419.00000000000006</ele><time>2026-04-19T11:10:37Z</time></trkpt><trkpt lat="42.11568454758098" lon="11.917591185501712"><ele>417.0</ele><time>2026-04-19T11:10:38Z</time></trkpt><trkpt lat="42.11562290052149" lon="11.91748464585337"><ele>415.0</ele><time>2026-04-19T11:10:39Z</time></trkpt><trkpt lat="42.115562946880566" lon="11.917399138998455"><ele>413.0</ele><time>2026-04-19T11:10:40Z</time></trkpt><trkpt lat="42.115495732226776" lon="11.917333122895464"><ele>411.00000000000006</ele><time>2026-04-19T11:10:41Z</time></trkpt><trkpt lat="42.11545109171789" lon="11.917245565452848"><ele>409.0</ele><time>2026-04-19T11:10:42Z</time></trkpt><trkpt lat="42.115393832980715" lon="11.917168855198279"><ele>408.33333333333337</ele><time>2026-04-19T11:10:43Z</time></trkpt><trkpt lat="42.1153343453856" lon="11.917087415753779"><ele>407.6666666666667</ele><time>2026-04-19T11:10:44Z</time></trkpt><trkpt lat="42.11526510865849" lon="11.917012229202808"><ele>407.0</ele><time>2026-04-19T11:10:45Z</time></trkpt><trkpt lat="42.11522159518655" lon="11.91691410518146"><ele>406.33333333333337</ele><time>2026-04-19T11:10:46Z</time></trkpt><trkpt lat="42.115170435952415" lon="11.916825295451748"><ele>405.6666666666667</ele><time>2026-04-19T11:10:47Z</time></trkpt><trkpt lat="42.11512386400222" lon="11.916735403536189"><ele>405.0</ele><time>2026-04-19T11:10:48Z</time></trkpt><trkpt lat="42.11505923460207" lon="11.916641508346416"><ele>404.6666666666667</ele><time>2026-04-19T11:10:49Z</time></trkpt><trkpt lat="42.115026554082995" lon="11.916520128116582"><ele>404.33333333333337</ele><time>2026-04-19T11:10:50Z</time></trkpt><trkpt lat="42.11498676419024" lon="11.916422780504773"><ele>404.0</ele><time>2026-04-19T11:10:51Z</time></trkpt><trkpt lat="42.11494864710198" lon="11.916326184684321"><ele>403.6666666666667</ele><time>2026-04-19T11:10:52Z</time></trkpt><trkpt lat="42.11491256350593" lon="11.916232849079103"><ele>403.33333333333337</ele><time>2026-04-19T11:10:53Z</time></trkpt><trkpt lat="42.11487875701911" lon="11.916145403566741"><ele>403.0</ele><time>2026-04-19T11:10:54Z</time></trkpt><trkpt lat="42.11484566487128" lon="11.916059805817767"><ele>402.50000000000006</ele><time>2026-04-19T11:10:55Z</time></trkpt><trkpt lat="42.1148048358577" lon="11.915956377690765"><ele>402.0</ele><time>2026-04-19T11:10:56Z</time></trkpt><trkpt lat="42.11476366542619" lon="11.915854521386205"><ele>401.5</ele><time>2026-04-19T11:10:57Z</time></trkpt><trkpt lat="42.11472315386148" lon="11.915754295192702"><ele>401.0</ele><time>2026-04-19T11:10:58Z</time></trkpt><trkpt lat="42.11466481513223" lon="11.915656536816572"><ele>400.50000000000006</ele><time>2026-04-19T11:10:59Z</time></trkpt><trkpt lat="42.11462510081521" lon="11.915541863079678"><ele>400.0</ele><time>2026-04-19T11:11:00Z</time></trkpt><trkpt lat="42.11458378931887" lon="11.915443687749198"><ele>400.0</ele><time>2026-04-19T11:11:01Z</time></trkpt><trkpt lat="42.114562879759994" lon="11.915339446368039"><ele>400.0</ele><time>2026-04-19T11:11:02Z</time></trkpt><trkpt lat="42.11453696082639" lon="11.915178495771055"><ele>400.0</ele><time>2026-04-19T11:11:04Z</time></trkpt><trkpt lat="42.11452726101237" lon="11.915048321878077"><ele>400.0</ele><time>2026-04-19T11:11:06Z</time></trkpt><trkpt lat="42.11452569747179" lon="11.914930430077876"><ele>400.0</ele><time>2026-04-19T11:11:13Z</time></trkpt><trkpt lat="42.11453000635074" lon="11.914827919995949"><ele>399.2</ele><time>2026-04-19T11:11:15Z</time></trkpt><trkpt lat="42.1145354666506" lon="11.914709539087669"><ele>398.4</ele><time>2026-04-19T11:11:17Z</time></trkpt><trkpt lat="42.11454394483301" lon="11.914566620829351"><ele>397.6</ele><time>2026-04-19T11:11:19Z</time></trkpt><trkpt lat="42.11454065433824" lon="11.914410340669589"><ele>396.8</ele><time>2026-04-19T11:11:21Z</time></trkpt><trkpt lat="42.114489973868416" lon="11.914267670018951"><ele>396.0</ele><time>2026-04-19T11:11:23Z</time></trkpt><trkpt lat="42.114462309722704" lon="11.914104450666633"><ele>387.5</ele><time>2026-04-19T11:11:25Z</time></trkpt><trkpt lat="42.1143792996992" lon="11.9140398618647"><ele>379.0</ele><time>2026-04-19T11:11:27Z</time></trkpt><trkpt lat="42.11469782721201" lon="11.91366513967878"><ele>379.00000000000006</ele><time>2026-04-19T11:11:29Z</time></trkpt><trkpt lat="42.114708578811715" lon="11.9135724630658"><ele>379.0</ele><time>2026-04-19T11:11:30Z</time></trkpt><trkpt lat="42.11472027812916" lon="11.913478842307446"><ele>379.0</ele><time>2026-04-19T11:11:31Z</time></trkpt><trkpt lat="42.114726516665236" lon="11.913387158798315"><ele>379.0</ele><time>2026-04-19T11:11:32Z</time></trkpt><trkpt lat="42.114732389078405" lon="11.91329264232536"><ele>379.0</ele><time>2026-04-19T11:11:33Z</time></trkpt><trkpt lat="42.11474445385542" lon="11.913207105607595"><ele>379.00000000000006</ele><time>2026-04-19T11:11:34Z</time></trkpt><trkpt lat="42.11475451200726" lon="11.913117618256015"><ele>379.0</ele><time>2026-04-19T11:11:35Z</time></trkpt><trkpt lat="42.114761258062245" lon="11.913023935842286"><ele>376.8333333333333</ele><time>2026-04-19T11:11:36Z</time></trkpt><trkpt lat="42.11476695097314" lon="11.912935546434431"><ele>374.66666666666663</ele><time>2026-04-19T11:11:37Z</time></trkpt><trkpt lat="42.114755164455076" lon="11.912840439504611"><ele>372.5</ele><time>2026-04-19T11:11:38Z</time></trkpt><trkpt lat="42.11472282016561" lon="11.912745862653368"><ele>370.3333333333333</ele><time>2026-04-19T11:11:39Z</time></trkpt><trkpt lat="42.114683888681" lon="11.912653692685572"><ele>368.1666666666667</ele><time>2026-04-19T11:11:40Z</time></trkpt><trkpt lat="42.114640828179304" lon="11.912499685236927"><ele>366.0</ele><time>2026-04-19T11:11:42Z</time></trkpt><trkpt lat="42.11460918156007" lon="11.912327830523113"><ele>364.6</ele><time>2026-04-19T11:11:44Z</time></trkpt><trkpt lat="42.11458940421364" lon="11.912145081235206"><ele>363.20000000000005</ele><time>2026-04-19T11:11:46Z</time></trkpt><trkpt lat="42.11458419789656" lon="11.912036139145355"><ele>361.79999999999995</ele><time>2026-04-19T11:11:47Z</time></trkpt><trkpt lat="42.114583195545826" lon="11.911930541996528"><ele>360.4</ele><time>2026-04-19T11:11:48Z</time></trkpt><trkpt lat="42.114565407393606" lon="11.911781516741618"><ele>359.0</ele><time>2026-04-19T11:11:50Z</time></trkpt><trkpt lat="42.114504065736924" lon="11.911655752927649"><ele>357.2</ele><time>2026-04-19T11:11:52Z</time></trkpt><trkpt lat="42.11446245688071" lon="11.911591861501387"><ele>355.4</ele><time>2026-04-19T11:11:53Z</time></trkpt><trkpt lat="42.11435389199012" lon="11.911527480718417"><ele>353.6</ele><time>2026-04-19T11:11:55Z</time></trkpt><trkpt lat="42.114276026920315" lon="11.911579363355372"><ele>351.8</ele><time>2026-04-19T11:11:57Z</time></trkpt><trkpt lat="42.114186835781" lon="11.911599806446548"><ele>350.0</ele><time>2026-04-19T11:11:59Z</time></trkpt><trkpt lat="42.11407466319372" lon="11.911608435972951"><ele>349.83333333333337</ele><time>2026-04-19T11:12:01Z</time></trkpt><trkpt lat="42.11399340792895" lon="11.91163406056587"><ele>349.6666666666667</ele><time>2026-04-19T11:12:03Z</time></trkpt><trkpt lat="42.113906321610806" lon="11.911620646639319"><ele>349.5</ele><time>2026-04-19T11:12:06Z</time></trkpt><trkpt lat="42.1138299849315" lon="11.91162386624192"><ele>349.3333333333333</ele><time>2026-04-19T11:12:11Z</time></trkpt><trkpt lat="42.11375974358505" lon="11.911634146485799"><ele>349.16666666666663</ele><time>2026-04-19T11:12:15Z</time></trkpt><trkpt lat="42.113672704751224" lon="11.911661882436263"><ele>349.0</ele><time>2026-04-19T11:12:18Z</time></trkpt><trkpt lat="42.11360541011088" lon="11.911684144568492"><ele>349.0</ele><time>2026-04-19T11:12:20Z</time></trkpt><trkpt lat="42.113540793250706" lon="11.911709486660573"><ele>349.0</ele><time>2026-04-19T11:12:22Z</time></trkpt><trkpt lat="42.11347766508785" lon="11.911727163688006"><ele>349.0</ele><time>2026-04-19T11:12:24Z</time></trkpt><trkpt lat="42.11337841528294" lon="11.911740714458038"><ele>349.0</ele><time>2026-04-19T11:12:28Z</time></trkpt><trkpt lat="42.113309876344424" lon="11.911733970021649"><ele>349.0</ele><time>2026-04-19T11:12:30Z</time></trkpt><trkpt lat="42.113234702610875" lon="11.911712509611277"><ele>349.0</ele><time>2026-04-19T11:12:32Z</time></trkpt><trkpt lat="42.11315753723786" lon="11.911701297887928"><ele>350.0</ele><time>2026-04-19T11:12:34Z</time></trkpt><trkpt lat="42.11308219502033" lon="11.911676530614688"><ele>351.0</ele><time>2026-04-19T11:12:36Z</time></trkpt><trkpt lat="42.113009336096525" lon="11.911643527524129"><ele>352.0</ele><time>2026-04-19T11:12:38Z</time></trkpt><trkpt lat="42.112925253003226" lon="11.911597222712125"><ele>353.0</ele><time>2026-04-19T11:12:40Z</time></trkpt><trkpt lat="42.11284394386792" lon="11.91155207675824"><ele>354.0</ele><time>2026-04-19T11:12:42Z</time></trkpt><trkpt lat="42.11277190038219" lon="11.911494766352131"><ele>355.0</ele><time>2026-04-19T11:12:44Z</time></trkpt><trkpt lat="42.112714195762486" lon="11.911399903895434"><ele>355.0</ele><time>2026-04-19T11:12:46Z</time></trkpt><trkpt lat="42.112686184445096" lon="11.911287773321071"><ele>355.0</ele><time>2026-04-19T11:12:48Z</time></trkpt><trkpt lat="42.11266634042112" lon="11.911167891623725"><ele>355.0</ele><time>2026-04-19T11:12:50Z</time></trkpt><trkpt lat="42.11265004458979" lon="11.911077374700307"><ele>355.0</ele><time>2026-04-19T11:12:52Z</time></trkpt><trkpt lat="42.11261410184797" lon="11.910987287025097"><ele>355.0</ele><time>2026-04-19T11:12:54Z</time></trkpt><trkpt lat="42.11256249799311" lon="11.910902656324982"><ele>355.0</ele><time>2026-04-19T11:12:56Z</time></trkpt><trkpt lat="42.11247042761977" lon="11.910838662355228"><ele>352.66666666666663</ele><time>2026-04-19T11:12:58Z</time></trkpt><trkpt lat="42.11235191005707" lon="11.910806046553972"><ele>350.3333333333333</ele><time>2026-04-19T11:13:00Z</time></trkpt><trkpt lat="42.1122822788829" lon="11.910799347527025"><ele>348.0</ele><time>2026-04-19T11:13:01Z</time></trkpt><trkpt lat="42.11220623230636" lon="11.91079573551115"><ele>345.6666666666667</ele><time>2026-04-19T11:13:02Z</time></trkpt><trkpt lat="42.11212881614004" lon="11.91077900837996"><ele>343.33333333333337</ele><time>2026-04-19T11:13:03Z</time></trkpt><trkpt lat="42.11204224467651" lon="11.910769362552307"><ele>341.0</ele><time>2026-04-19T11:13:04Z</time></trkpt><trkpt lat="42.11196731352216" lon="11.910752898563535"><ele>341.0</ele><time>2026-04-19T11:13:05Z</time></trkpt><trkpt lat="42.11189531873501" lon="11.910728510280075"><ele>341.0</ele><time>2026-04-19T11:13:06Z</time></trkpt><trkpt lat="42.11182247391577" lon="11.910713611363036"><ele>341.0</ele><time>2026-04-19T11:13:07Z</time></trkpt><trkpt lat="42.111755894444755" lon="11.910722192372141"><ele>341.0</ele><time>2026-04-19T11:13:08Z</time></trkpt><trkpt lat="42.111691731138514" lon="11.910746448317392"><ele>341.0</ele><time>2026-04-19T11:13:09Z</time></trkpt><trkpt lat="42.11163276891534" lon="11.9107839008917"><ele>341.0</ele><time>2026-04-19T11:13:10Z</time></trkpt><trkpt lat="42.11152647318535" lon="11.91086066547952"><ele>341.6666666666667</ele><time>2026-04-19T11:13:12Z</time></trkpt><trkpt lat="42.11143038051693" lon="11.910929235068686"><ele>342.33333333333337</ele><time>2026-04-19T11:13:14Z</time></trkpt><trkpt lat="42.111324497430466" lon="11.910981227765973"><ele>343.0</ele><time>2026-04-19T11:13:16Z</time></trkpt><trkpt lat="42.11126091153984" lon="11.911010936146932"><ele>343.6666666666667</ele><time>2026-04-19T11:13:17Z</time></trkpt><trkpt lat="42.11119488791366" lon="11.911039623902482"><ele>344.3333333333333</ele><time>2026-04-19T11:13:18Z</time></trkpt><trkpt lat="42.11111177771237" lon="11.911073596020755"><ele>345.0</ele><time>2026-04-19T11:13:19Z</time></trkpt><trkpt lat="42.111036847329785" lon="11.911114899029476"><ele>345.0</ele><time>2026-04-19T11:13:20Z</time></trkpt><trkpt lat="42.11096547897256" lon="11.911163561729907"><ele>345.0</ele><time>2026-04-19T11:13:21Z</time></trkpt><trkpt lat="42.11089819851059" lon="11.911211607090598"><ele>345.0</ele><time>2026-04-19T11:13:22Z</time></trkpt><trkpt lat="42.1108254307126" lon="11.911239033262019"><ele>345.0</ele><time>2026-04-19T11:13:23Z</time></trkpt><trkpt lat="42.110750913310554" lon="11.911250154565927"><ele>345.0</ele><time>2026-04-19T11:13:24Z</time></trkpt><trkpt lat="42.11068548727082" lon="11.911241136427007"><ele>345.0</ele><time>2026-04-19T11:13:25Z</time></trkpt><trkpt lat="42.11064088012475" lon="11.91117724729141"><ele>345.0</ele><time>2026-04-19T11:13:28Z</time></trkpt><trkpt lat="42.1105913199197" lon="11.911121969751687"><ele>341.8</ele><time>2026-04-19T11:13:50Z</time></trkpt><trkpt lat="42.11052457698229" lon="11.911034800076768"><ele>338.6</ele><time>2026-04-19T11:15:19Z</time></trkpt><trkpt lat="42.110473152867165" lon="11.910941249046093"><ele>335.4</ele><time>2026-04-19T11:15:21Z</time></trkpt><trkpt lat="42.110420862727054" lon="11.910833180212554"><ele>332.2</ele><time>2026-04-19T11:15:23Z</time></trkpt><trkpt lat="42.11036296894531" lon="11.9107124781437"><ele>329.0</ele><time>2026-04-19T11:15:25Z</time></trkpt><trkpt lat="42.11030502756099" lon="11.910598780876112"><ele>328.4</ele><time>2026-04-19T11:15:27Z</time></trkpt><trkpt lat="42.11023775128874" lon="11.910474260865614"><ele>327.79999999999995</ele><time>2026-04-19T11:15:29Z</time></trkpt><trkpt lat="42.11016329884526" lon="11.910366236740877"><ele>327.20000000000005</ele><time>2026-04-19T11:15:31Z</time></trkpt><trkpt lat="42.11007215267849" lon="11.91025133715088"><ele>326.6</ele><time>2026-04-19T11:15:33Z</time></trkpt><trkpt lat="42.11004552523175" lon="11.910166123930669"><ele>326.0</ele><time>2026-04-19T11:15:34Z</time></trkpt><trkpt lat="42.10999664258707" lon="11.910072230273686"><ele>324.83333333333337</ele><time>2026-04-19T11:15:35Z</time></trkpt><trkpt lat="42.109943992962755" lon="11.909978838590916"><ele>323.6666666666667</ele><time>2026-04-19T11:15:36Z</time></trkpt><trkpt lat="42.10990088532278" lon="11.909886800724156"><ele>322.5</ele><time>2026-04-19T11:15:37Z</time></trkpt><trkpt lat="42.10984595806432" lon="11.90977619593302"><ele>321.3333333333333</ele><time>2026-04-19T11:15:38Z</time></trkpt><trkpt lat="42.109798363479335" lon="11.909675850047005"><ele>320.16666666666663</ele><time>2026-04-19T11:15:39Z</time></trkpt><trkpt lat="42.10975150893319" lon="11.909574719111701"><ele>319.0</ele><time>2026-04-19T11:15:40Z</time></trkpt><trkpt lat="42.10970013362504" lon="11.909472939733739"><ele>317.7142857142857</ele><time>2026-04-19T11:15:41Z</time></trkpt><trkpt lat="42.10965427616483" lon="11.90938326840909"><ele>316.4285714285714</ele><time>2026-04-19T11:15:42Z</time></trkpt><trkpt lat="42.109621441114925" lon="11.909295176594066"><ele>315.1428571428571</ele><time>2026-04-19T11:15:43Z</time></trkpt><trkpt lat="42.10959550608399" lon="11.909215743731048"><ele>313.8571428571429</ele><time>2026-04-19T11:15:44Z</time></trkpt><trkpt lat="42.10958856035001" lon="11.909123949188542"><ele>312.57142857142856</ele><time>2026-04-19T11:15:59Z</time></trkpt><trkpt lat="42.10962956220527" lon="11.90905008029546"><ele>311.2857142857143</ele><time>2026-04-19T11:16:04Z</time></trkpt><trkpt lat="42.1096934488712" lon="11.90905686159593"><ele>310.0</ele><time>2026-04-19T11:16:06Z</time></trkpt><trkpt lat="42.109792304940484" lon="11.909053030197002"><ele>309.2</ele><time>2026-04-19T11:16:08Z</time></trkpt><trkpt lat="42.10990838753506" lon="11.909049742104386"><ele>308.4</ele><time>2026-04-19T11:16:10Z</time></trkpt><trkpt lat="42.11001459005164" lon="11.909029337313104"><ele>307.6</ele><time>2026-04-19T11:16:12Z</time></trkpt><trkpt lat="42.11006584403681" lon="11.908938678895177"><ele>306.8</ele><time>2026-04-19T11:16:14Z</time></trkpt><trkpt lat="42.11009638983029" lon="11.908816041957277"><ele>306.0</ele><time>2026-04-19T11:16:16Z</time></trkpt><trkpt lat="42.110153426251145" lon="11.908706980616227"><ele>306.0</ele><time>2026-04-19T11:16:18Z</time></trkpt><trkpt lat="42.11021633723491" lon="11.90861606685053"><ele>306.0</ele><time>2026-04-19T11:16:21Z</time></trkpt><trkpt lat="42.11029061819626" lon="11.908536763722097"><ele>306.0</ele><time>2026-04-19T11:16:23Z</time></trkpt><trkpt lat="42.110381990169714" lon="11.90851986048938"><ele>306.0</ele><time>2026-04-19T11:16:25Z</time></trkpt><trkpt lat="42.11048956854821" lon="11.90852218736015"><ele>306.0</ele><time>2026-04-19T11:16:27Z</time></trkpt><trkpt lat="42.110559432065266" lon="11.908407684918883"><ele>303.2</ele><time>2026-04-19T11:16:29Z</time></trkpt><trkpt lat="42.11059900631438" lon="11.908285322720994"><ele>300.40000000000003</ele><time>2026-04-19T11:16:31Z</time></trkpt><trkpt lat="42.11064126537481" lon="11.908162914278956"><ele>297.6</ele><time>2026-04-19T11:16:33Z</time></trkpt><trkpt lat="42.11068420406788" lon="11.908023105139598"><ele>294.8</ele><time>2026-04-19T11:16:35Z</time></trkpt><trkpt lat="42.11074661734536" lon="11.907884711112512"><ele>292.0</ele><time>2026-04-19T11:16:37Z</time></trkpt><trkpt lat="42.11078700574217" lon="11.907810146800058"><ele>291.42857142857144</ele><time>2026-04-19T11:16:38Z</time></trkpt><trkpt lat="42.11080960150379" lon="11.907719730216717"><ele>290.8571428571429</ele><time>2026-04-19T11:16:39Z</time></trkpt><trkpt lat="42.11082817258321" lon="11.907632598044701"><ele>290.28571428571433</ele><time>2026-04-19T11:16:40Z</time></trkpt><trkpt lat="42.11085351559022" lon="11.90754921029181"><ele>289.7142857142857</ele><time>2026-04-19T11:16:41Z</time></trkpt><trkpt lat="42.11087530649457" lon="11.907460919554545"><ele>289.14285714285717</ele><time>2026-04-19T11:16:42Z</time></trkpt><trkpt lat="42.11088607318448" lon="11.907355841030899"><ele>288.5714285714286</ele><time>2026-04-19T11:16:43Z</time></trkpt><trkpt lat="42.11090163548351" lon="11.907272134382884"><ele>288.0</ele><time>2026-04-19T11:16:44Z</time></trkpt><trkpt lat="42.110923710915024" lon="11.907177916000736"><ele>285.8</ele><time>2026-04-19T11:16:45Z</time></trkpt><trkpt lat="42.11094951039939" lon="11.907091833966987"><ele>283.6</ele><time>2026-04-19T11:16:46Z</time></trkpt><trkpt lat="42.1110103369404" lon="11.906969831741653"><ele>281.4</ele><time>2026-04-19T11:16:48Z</time></trkpt><trkpt lat="42.11104769048547" lon="11.906892974294214"><ele>279.2</ele><time>2026-04-19T11:16:49Z</time></trkpt><trkpt lat="42.11106503060222" lon="11.906750393385591"><ele>277.0</ele><time>2026-04-19T11:16:51Z</time></trkpt><trkpt lat="42.111081475711146" lon="11.906577850317744"><ele>274.2</ele><time>2026-04-19T11:16:53Z</time></trkpt><trkpt lat="42.11108434064508" lon="11.906405765873929"><ele>271.4</ele><time>2026-04-19T11:16:55Z</time></trkpt><trkpt lat="42.111073845350425" lon="11.906311458809286"><ele>268.6</ele><time>2026-04-19T11:16:56Z</time></trkpt><trkpt lat="42.111053556512005" lon="11.906183543300415"><ele>265.8</ele><time>2026-04-19T11:16:58Z</time></trkpt><trkpt lat="42.11104862264083" lon="11.906085094776516"><ele>263.0</ele><time>2026-04-19T11:16:59Z</time></trkpt><trkpt lat="42.111039223886806" lon="11.905976844015322"><ele>261.5</ele><time>2026-04-19T11:17:00Z</time></trkpt><trkpt lat="42.11103120566916" lon="11.905864911505516"><ele>260.0</ele><time>2026-04-19T11:17:01Z</time></trkpt><trkpt lat="42.11102851056535" lon="11.905752033552975"><ele>258.5</ele><time>2026-04-19T11:17:02Z</time></trkpt><trkpt lat="42.11102628972468" lon="11.90564387316263"><ele>257.0</ele><time>2026-04-19T11:17:03Z</time></trkpt><trkpt lat="42.111013742973796" lon="11.905538840211046"><ele>255.50000000000003</ele><time>2026-04-19T11:17:04Z</time></trkpt><trkpt lat="42.11100314423237" lon="11.905450458320942"><ele>254.0</ele><time>2026-04-19T11:17:05Z</time></trkpt><trkpt lat="42.11098586451183" lon="11.905362885065095"><ele>254.00000000000003</ele><time>2026-04-19T11:17:06Z</time></trkpt><trkpt lat="42.11092284863284" lon="11.90523433621159"><ele>254.0</ele><time>2026-04-19T11:17:08Z</time></trkpt><trkpt lat="42.11089148684016" lon="11.905158427929374"><ele>254.0</ele><time>2026-04-19T11:17:09Z</time></trkpt><trkpt lat="42.11084825753142" lon="11.90509369722577"><ele>254.0</ele><time>2026-04-19T11:17:10Z</time></trkpt><trkpt lat="42.110756395658015" lon="11.905060999345416"><ele>254.00000000000003</ele><time>2026-04-19T11:17:12Z</time></trkpt><trkpt lat="42.11068362241287" lon="11.9051133211778"><ele>254.0</ele><time>2026-04-19T11:17:14Z</time></trkpt><trkpt lat="42.11061558368644" lon="11.905186640058137"><ele>252.2</ele><time>2026-04-19T11:17:16Z</time></trkpt><trkpt lat="42.11056723910288" lon="11.905283958501467"><ele>250.39999999999998</ele><time>2026-04-19T11:17:18Z</time></trkpt><trkpt lat="42.11049198950694" lon="11.905368070030123"><ele>248.6</ele><time>2026-04-19T11:17:20Z</time></trkpt><trkpt lat="42.11040502181007" lon="11.905456001559832"><ele>246.8</ele><time>2026-04-19T11:17:22Z</time></trkpt><trkpt lat="42.11030965643102" lon="11.905525523782464"><ele>245.0</ele><time>2026-04-19T11:17:24Z</time></trkpt><trkpt lat="42.11022657590027" lon="11.905564591211943"><ele>245.0</ele><time>2026-04-19T11:17:26Z</time></trkpt><trkpt lat="42.110139348436164" lon="11.905588439865854"><ele>245.0</ele><time>2026-04-19T11:17:28Z</time></trkpt><trkpt lat="42.11003560053151" lon="11.905578819550083"><ele>245.0</ele><time>2026-04-19T11:17:30Z</time></trkpt><trkpt lat="42.10995796038736" lon="11.905497099398819"><ele>245.0</ele><time>2026-04-19T11:17:32Z</time></trkpt><trkpt lat="42.10988897980403" lon="11.90538918806199"><ele>245.0</ele><time>2026-04-19T11:17:34Z</time></trkpt><trkpt lat="42.10982441965849" lon="11.905285495457088"><ele>245.00000000000003</ele><time>2026-04-19T11:17:36Z</time></trkpt><trkpt lat="42.109744296462075" lon="11.905225371849744"><ele>245.0</ele><time>2026-04-19T11:17:38Z</time></trkpt><trkpt lat="42.109643123712196" lon="11.905175455226976"><ele>245.0</ele><time>2026-04-19T11:17:40Z</time></trkpt><trkpt lat="42.109580826499446" lon="11.905156643208251"><ele>245.0</ele><time>2026-04-19T11:17:41Z</time></trkpt><trkpt lat="42.10951523701477" lon="11.905128184853954"><ele>245.00000000000003</ele><time>2026-04-19T11:17:42Z</time></trkpt><trkpt lat="42.10942389781144" lon="11.90503710296973"><ele>245.0</ele><time>2026-04-19T11:17:44Z</time></trkpt><trkpt lat="42.109357443957656" lon="11.904942260740988"><ele>243.0</ele><time>2026-04-19T11:17:46Z</time></trkpt><trkpt lat="42.10925176226338" lon="11.904876803346772"><ele>241.0</ele><time>2026-04-19T11:17:48Z</time></trkpt><trkpt lat="42.1091328653129" lon="11.904826186297111"><ele>239.0</ele><time>2026-04-19T11:17:50Z</time></trkpt><trkpt lat="42.109042488987434" lon="11.90479584034833"><ele>237.0</ele><time>2026-04-19T11:17:52Z</time></trkpt><trkpt lat="42.108975987379154" lon="11.904697173902097"><ele>235.0</ele><time>2026-04-19T11:17:54Z</time></trkpt><trkpt lat="42.108912101525426" lon="11.904591920437571"><ele>235.0</ele><time>2026-04-19T11:17:56Z</time></trkpt><trkpt lat="42.10885308023607" lon="11.904507082934362"><ele>235.0</ele><time>2026-04-19T11:17:58Z</time></trkpt><trkpt lat="42.10878215890515" lon="11.904425872204483"><ele>235.0</ele><time>2026-04-19T11:18:00Z</time></trkpt><trkpt lat="42.108721949478145" lon="11.904292092546385"><ele>235.0</ele><time>2026-04-19T11:18:02Z</time></trkpt><trkpt lat="42.10865230158148" lon="11.904193633504994"><ele>235.0</ele><time>2026-04-19T11:18:04Z</time></trkpt><trkpt lat="42.10859518977684" lon="11.90408691787731"><ele>232.0</ele><time>2026-04-19T11:18:06Z</time></trkpt><trkpt lat="42.1085256166053" lon="11.904008080423765"><ele>229.0</ele><time>2026-04-19T11:18:08Z</time></trkpt><trkpt lat="42.1084548161906" lon="11.903925440254104"><ele>226.0</ele><time>2026-04-19T11:18:10Z</time></trkpt><trkpt lat="42.10841005894345" lon="11.903799707999418"><ele>223.0</ele><time>2026-04-19T11:18:12Z</time></trkpt><trkpt lat="42.10837319752724" lon="11.903728916238334"><ele>220.0</ele><time>2026-04-19T11:18:13Z</time></trkpt><trkpt lat="42.108308163796295" lon="11.90362316236628"><ele>220.2</ele><time>2026-04-19T11:18:15Z</time></trkpt><trkpt lat="42.10821701228231" lon="11.903578645883234"><ele>220.4</ele><time>2026-04-19T11:18:17Z</time></trkpt><trkpt lat="42.10812074793227" lon="11.90359057761217"><ele>220.60000000000002</ele><time>2026-04-19T11:18:19Z</time></trkpt><trkpt lat="42.107992165950826" lon="11.903602296483054"><ele>220.8</ele><time>2026-04-19T11:18:21Z</time></trkpt><trkpt lat="42.107925237155385" lon="11.903595570632714"><ele>221.0</ele><time>2026-04-19T11:18:22Z</time></trkpt><trkpt lat="42.10781125466118" lon="11.90357340113589"><ele>221.0</ele><time>2026-04-19T11:18:24Z</time></trkpt><trkpt lat="42.107725625320334" lon="11.903630141219459"><ele>221.00000000000003</ele><time>2026-04-19T11:18:26Z</time></trkpt><trkpt lat="42.107642559638386" lon="11.9037029729957"><ele>221.00000000000003</ele><time>2026-04-19T11:18:28Z</time></trkpt><trkpt lat="42.10754373519218" lon="11.903761486368625"><ele>221.0</ele><time>2026-04-19T11:18:30Z</time></trkpt><trkpt lat="42.107471410560926" lon="11.903687352455119"><ele>221.0</ele><time>2026-04-19T11:18:32Z</time></trkpt><trkpt lat="42.10743897010365" lon="11.903566712334547"><ele>221.4</ele><time>2026-04-19T11:18:34Z</time></trkpt><trkpt lat="42.10739605416784" lon="11.90346732268327"><ele>221.8</ele><time>2026-04-19T11:18:36Z</time></trkpt><trkpt lat="42.107312977849546" lon="11.903373705164304"><ele>222.20000000000002</ele><time>2026-04-19T11:18:38Z</time></trkpt><trkpt lat="42.10725312693975" lon="11.903338359516107"><ele>222.60000000000002</ele><time>2026-04-19T11:18:39Z</time></trkpt><trkpt lat="42.10719845239182" lon="11.903188118507929"><ele>223.0</ele><time>2026-04-19T11:18:41Z</time></trkpt><trkpt lat="42.10718182597555" lon="11.903089333610994"><ele>219.83333333333331</ele><time>2026-04-19T11:18:42Z</time></trkpt><trkpt lat="42.107140033986454" lon="11.902998976399585"><ele>216.66666666666666</ele><time>2026-04-19T11:18:43Z</time></trkpt><trkpt lat="42.10703638777371" lon="11.902878658246435"><ele>213.5</ele><time>2026-04-19T11:18:45Z</time></trkpt><trkpt lat="42.10698436693949" lon="11.902812196746673"><ele>210.33333333333331</ele><time>2026-04-19T11:18:46Z</time></trkpt><trkpt lat="42.10693174531074" lon="11.90273634955633"><ele>207.16666666666666</ele><time>2026-04-19T11:18:47Z</time></trkpt><trkpt lat="42.10688804569187" lon="11.90265903192326"><ele>204.0</ele><time>2026-04-19T11:18:48Z</time></trkpt><trkpt lat="42.10684388079915" lon="11.902590539376002"><ele>202.16666666666666</ele><time>2026-04-19T11:18:49Z</time></trkpt><trkpt lat="42.106794906912405" lon="11.902529017632805"><ele>200.33333333333331</ele><time>2026-04-19T11:18:50Z</time></trkpt><trkpt lat="42.10674171507105" lon="11.902406842786172"><ele>198.5</ele><time>2026-04-19T11:18:52Z</time></trkpt><trkpt lat="42.10669244881423" lon="11.902332561445636"><ele>196.66666666666666</ele><time>2026-04-19T11:18:54Z</time></trkpt><trkpt lat="42.106656060477796" lon="11.90226177541176"><ele>194.83333333333331</ele><time>2026-04-19T11:18:56Z</time></trkpt><trkpt lat="42.106587244174236" lon="11.902207340984154"><ele>193.0</ele><time>2026-04-19T11:18:58Z</time></trkpt><trkpt lat="42.10649934297668" lon="11.902184938921875"><ele>191.99999999999997</ele><time>2026-04-19T11:19:00Z</time></trkpt><trkpt lat="42.10641647374582" lon="11.902212550006327"><ele>191.0</ele><time>2026-04-19T11:19:02Z</time></trkpt><trkpt lat="42.10634372581779" lon="11.902242675663759"><ele>190.0</ele><time>2026-04-19T11:19:04Z</time></trkpt><trkpt lat="42.106259237564515" lon="11.902293752850872"><ele>189.0</ele><time>2026-04-19T11:19:06Z</time></trkpt><trkpt lat="42.10618036272981" lon="11.902368126304935"><ele>188.0</ele><time>2026-04-19T11:19:08Z</time></trkpt><trkpt lat="42.10612515467517" lon="11.902444922140557"><ele>187.0</ele><time>2026-04-19T11:19:10Z</time></trkpt><trkpt lat="42.10604768007865" lon="11.902530485037708"><ele>187.0</ele><time>2026-04-19T11:19:12Z</time></trkpt><trkpt lat="42.10595112509" lon="11.902596777124792"><ele>187.0</ele><time>2026-04-19T11:19:14Z</time></trkpt><trkpt lat="42.10585560373033" lon="11.902618720906434"><ele>187.0</ele><time>2026-04-19T11:19:16Z</time></trkpt><trkpt lat="42.1057605281989" lon="11.902539015094701"><ele>187.0</ele><time>2026-04-19T11:19:18Z</time></trkpt><trkpt lat="42.105717915165144" lon="11.902475410691057"><ele>187.0</ele><time>2026-04-19T11:19:19Z</time></trkpt><trkpt lat="42.105654043157536" lon="11.902330444638787"><ele>188.0</ele><time>2026-04-19T11:19:21Z</time></trkpt><trkpt lat="42.10561816797987" lon="11.902257456660092"><ele>189.0</ele><time>2026-04-19T11:19:22Z</time></trkpt><trkpt lat="42.105575874344204" lon="11.902171643464605"><ele>190.0</ele><time>2026-04-19T11:19:23Z</time></trkpt><trkpt lat="42.105528985033395" lon="11.902097269824067"><ele>191.0</ele><time>2026-04-19T11:19:24Z</time></trkpt><trkpt lat="42.105476872689444" lon="11.901977959950859"><ele>191.99999999999997</ele><time>2026-04-19T11:19:26Z</time></trkpt><trkpt lat="42.10542301460629" lon="11.901854541564187"><ele>193.0</ele><time>2026-04-19T11:19:28Z</time></trkpt><trkpt lat="42.10534258691843" lon="11.901773188042336"><ele>190.16666666666666</ele><time>2026-04-19T11:19:30Z</time></trkpt><trkpt lat="42.105294179562506" lon="11.901687918488731"><ele>187.33333333333331</ele><time>2026-04-19T11:19:33Z</time></trkpt><trkpt lat="42.10526758844285" lon="11.901606561391006"><ele>184.5</ele><time>2026-04-19T11:19:48Z</time></trkpt><trkpt lat="42.10529413883823" lon="11.901486928712393"><ele>181.66666666666666</ele><time>2026-04-19T11:19:52Z</time></trkpt><trkpt lat="42.10536324333959" lon="11.901367944287639"><ele>178.83333333333331</ele><time>2026-04-19T11:19:54Z</time></trkpt><trkpt lat="42.1053609160125" lon="11.90123606249581"><ele>176.0</ele><time>2026-04-19T11:19:56Z</time></trkpt><trkpt lat="42.10527038967718" lon="11.901149640945368"><ele>176.0</ele><time>2026-04-19T11:19:58Z</time></trkpt><trkpt lat="42.1051760626299" lon="11.901090722022028"><ele>176.0</ele><time>2026-04-19T11:20:00Z</time></trkpt><trkpt lat="42.10509272238413" lon="11.901007642129095"><ele>176.0</ele><time>2026-04-19T11:20:02Z</time></trkpt><trkpt lat="42.10501066721749" lon="11.900910769950793"><ele>176.0</ele><time>2026-04-19T11:20:04Z</time></trkpt><trkpt lat="42.10495747277537" lon="11.900859164205553"><ele>176.0</ele><time>2026-04-19T11:20:05Z</time></trkpt><trkpt lat="42.10488751595668" lon="11.900835404391962"><ele>171.5</ele><time>2026-04-19T11:20:06Z</time></trkpt><trkpt lat="42.10475678732923" lon="11.90083062715461"><ele>167.0</ele><time>2026-04-19T11:20:08Z</time></trkpt><trkpt lat="42.10463523102501" lon="11.900793290821799"><ele>162.5</ele><time>2026-04-19T11:20:10Z</time></trkpt><trkpt lat="42.10451453117794" lon="11.900779644587677"><ele>158.0</ele><time>2026-04-19T11:20:12Z</time></trkpt><trkpt lat="42.10439738735026" lon="11.900801162341738"><ele>158.0</ele><time>2026-04-19T11:20:14Z</time></trkpt><trkpt lat="42.10428567368326" lon="11.90078764787109"><ele>158.0</ele><time>2026-04-19T11:20:16Z</time></trkpt><trkpt lat="42.10417931723253" lon="11.900791461381964"><ele>158.0</ele><time>2026-04-19T11:20:18Z</time></trkpt><trkpt lat="42.104080063512804" lon="11.900809488346784"><ele>158.0</ele><time>2026-04-19T11:20:20Z</time></trkpt><trkpt lat="42.10398448196807" lon="11.900823005512084"><ele>158.0</ele><time>2026-04-19T11:20:22Z</time></trkpt><trkpt lat="42.10388661409321" lon="11.900851835620804"><ele>158.0</ele><time>2026-04-19T11:20:24Z</time></trkpt><trkpt lat="42.10378740262635" lon="11.900901905558763"><ele>158.0</ele><time>2026-04-19T11:20:26Z</time></trkpt><trkpt lat="42.10370520262319" lon="11.900964465118191"><ele>158.0</ele><time>2026-04-19T11:20:28Z</time></trkpt><trkpt lat="42.10362593624172" lon="11.901028579555025"><ele>158.0</ele><time>2026-04-19T11:20:30Z</time></trkpt><trkpt lat="42.10354227997238" lon="11.901039345610235"><ele>158.0</ele><time>2026-04-19T11:20:32Z</time></trkpt><trkpt lat="42.10345943392487" lon="11.901006844339493"><ele>158.0</ele><time>2026-04-19T11:20:34Z</time></trkpt><trkpt lat="42.103385160923864" lon="11.900963118168796"><ele>158.0</ele><time>2026-04-19T11:20:36Z</time></trkpt><trkpt lat="42.10331119085925" lon="11.90090855910681"><ele>158.0</ele><time>2026-04-19T11:20:38.001Z</time></trkpt><trkpt lat="42.103235695449136" lon="11.900871108228175"><ele>158.0</ele><time>2026-04-19T11:20:41.001Z</time></trkpt><trkpt lat="42.10317791980126" lon="11.900807290455223"><ele>158.0</ele><time>2026-04-19T11:20:45.001Z</time></trkpt><trkpt lat="42.10314796179294" lon="11.900713463750625"><ele>158.0</ele><time>2026-04-19T11:20:47.001Z</time></trkpt><trkpt lat="42.103119824300634" lon="11.900637068301437"><ele>160.8</ele><time>2026-04-19T11:20:49.001Z</time></trkpt><trkpt lat="42.10307058717938" lon="11.900523116227436"><ele>163.60000000000002</ele><time>2026-04-19T11:20:52.001Z</time></trkpt><trkpt lat="42.10302795944912" lon="11.900422865989773"><ele>166.39999999999998</ele><time>2026-04-19T11:20:54Z</time></trkpt><trkpt lat="42.10298105046758" lon="11.900315867429363"><ele>169.2</ele><time>2026-04-19T11:20:56Z</time></trkpt><trkpt lat="42.10293873918183" lon="11.900209416010107"><ele>172.0</ele><time>2026-04-19T11:20:58Z</time></trkpt><trkpt lat="42.10289540221131" lon="11.900090079575243"><ele>169.2</ele><time>2026-04-19T11:21:00Z</time></trkpt><trkpt lat="42.10285625393638" lon="11.899963753784066"><ele>166.39999999999998</ele><time>2026-04-19T11:21:02Z</time></trkpt><trkpt lat="42.102819248917974" lon="11.899851838030566"><ele>163.60000000000002</ele><time>2026-04-19T11:21:04Z</time></trkpt><trkpt lat="42.10279364562451" lon="11.899731063424348"><ele>160.8</ele><time>2026-04-19T11:21:06Z</time></trkpt><trkpt lat="42.102767955342394" lon="11.899605378823049"><ele>158.0</ele><time>2026-04-19T11:21:08Z</time></trkpt><trkpt lat="42.102732174935355" lon="11.899488334181127"><ele>158.00000000000003</ele><time>2026-04-19T11:21:10Z</time></trkpt><trkpt lat="42.1026757802425" lon="11.899437072778747"><ele>158.0</ele><time>2026-04-19T11:21:12Z</time></trkpt><trkpt lat="42.10260761402061" lon="11.899396855985243"><ele>158.0</ele><time>2026-04-19T11:21:43Z</time></trkpt><trkpt lat="42.10254330516438" lon="11.899345049734654"><ele>158.0</ele><time>2026-04-19T11:21:46Z</time></trkpt><trkpt lat="42.10249463405261" lon="11.899257925837261"><ele>158.0</ele><time>2026-04-19T11:21:49Z</time></trkpt><trkpt lat="42.10246628840187" lon="11.899181394483117"><ele>158.00000000000003</ele><time>2026-04-19T11:21:51Z</time></trkpt><trkpt lat="42.10242704505177" lon="11.899109422536206"><ele>158.0</ele><time>2026-04-19T11:21:53Z</time></trkpt><trkpt lat="42.102373350063594" lon="11.89903766666109"><ele>158.5</ele><time>2026-04-19T11:21:55Z</time></trkpt><trkpt lat="42.102317689147" lon="11.898982696646382"><ele>159.0</ele><time>2026-04-19T11:21:58Z</time></trkpt><trkpt lat="42.10226919471449" lon="11.898926433682762"><ele>159.5</ele><time>2026-04-19T11:22:16Z</time></trkpt><trkpt lat="42.10221434349962" lon="11.89886870099554"><ele>160.0</ele><time>2026-04-19T11:22:20Z</time></trkpt><trkpt lat="42.10211539011266" lon="11.898857221095222"><ele>160.5</ele><time>2026-04-19T11:22:23Z</time></trkpt><trkpt lat="42.102029172354456" lon="11.898838459349902"><ele>161.0</ele><time>2026-04-19T11:22:25Z</time></trkpt><trkpt lat="42.10195246393679" lon="11.898800553573803"><ele>161.0</ele><time>2026-04-19T11:22:27Z</time></trkpt><trkpt lat="42.101888579603965" lon="11.898695355575146"><ele>161.0</ele><time>2026-04-19T11:22:29Z</time></trkpt><trkpt lat="42.10182857752578" lon="11.89859803773948"><ele>161.0</ele><time>2026-04-19T11:22:31Z</time></trkpt><trkpt lat="42.10177169487155" lon="11.89850927937715"><ele>161.0</ele><time>2026-04-19T11:22:33Z</time></trkpt><trkpt lat="42.10170304329024" lon="11.898433374675196"><ele>161.0</ele><time>2026-04-19T11:22:35Z</time></trkpt><trkpt lat="42.10163491560605" lon="11.898355178866952"><ele>159.8</ele><time>2026-04-19T11:22:37Z</time></trkpt><trkpt lat="42.1015559997784" lon="11.898291853570296"><ele>158.60000000000002</ele><time>2026-04-19T11:22:39Z</time></trkpt><trkpt lat="42.10145992586473" lon="11.898225193221181"><ele>157.4</ele><time>2026-04-19T11:22:41Z</time></trkpt><trkpt lat="42.10136251599544" lon="11.898167888789784"><ele>156.2</ele><time>2026-04-19T11:22:43Z</time></trkpt><trkpt lat="42.10127414990852" lon="11.898127913818014"><ele>155.0</ele><time>2026-04-19T11:22:45Z</time></trkpt><trkpt lat="42.101191763641715" lon="11.89805664801815"><ele>155.0</ele><time>2026-04-19T11:22:47Z</time></trkpt><trkpt lat="42.101139185796846" lon="11.898001803352873"><ele>155.0</ele><time>2026-04-19T11:22:48Z</time></trkpt><trkpt lat="42.101079930367014" lon="11.897948724392732"><ele>155.0</ele><time>2026-04-19T11:22:49Z</time></trkpt><trkpt lat="42.10102248187523" lon="11.897846383808742"><ele>155.0</ele><time>2026-04-19T11:22:51Z</time></trkpt><trkpt lat="42.10101735013661" lon="11.897717070936928"><ele>155.0</ele><time>2026-04-19T11:22:54Z</time></trkpt><trkpt lat="42.100971996096376" lon="11.897592473704123"><ele>155.0</ele><time>2026-04-19T11:22:56Z</time></trkpt><trkpt lat="42.10089970352357" lon="11.897440910596774"><ele>154.83333333333331</ele><time>2026-04-19T11:22:58Z</time></trkpt><trkpt lat="42.100851368378414" lon="11.897368610014219"><ele>154.66666666666666</ele><time>2026-04-19T11:22:59Z</time></trkpt><trkpt lat="42.100794032749576" lon="11.897313547108533"><ele>154.5</ele><time>2026-04-19T11:23:00Z</time></trkpt><trkpt lat="42.10073634053042" lon="11.89726052880126"><ele>154.33333333333334</ele><time>2026-04-19T11:23:01Z</time></trkpt><trkpt lat="42.100683218273325" lon="11.897210841363254"><ele>154.16666666666669</ele><time>2026-04-19T11:23:02Z</time></trkpt><trkpt lat="42.10059021648389" lon="11.897100842704422"><ele>154.0</ele><time>2026-04-19T11:23:04Z</time></trkpt><trkpt lat="42.100501020801566" lon="11.897012653224088"><ele>154.0</ele><time>2026-04-19T11:23:06Z</time></trkpt><trkpt lat="42.10040543336334" lon="11.89694570995149"><ele>154.0</ele><time>2026-04-19T11:23:08Z</time></trkpt><trkpt lat="42.10030736481943" lon="11.896870271339685"><ele>154.0</ele><time>2026-04-19T11:23:10Z</time></trkpt><trkpt lat="42.100211637504884" lon="11.896793333719662"><ele>154.0</ele><time>2026-04-19T11:23:12Z</time></trkpt><trkpt lat="42.10013022182852" lon="11.896709732982899"><ele>154.0</ele><time>2026-04-19T11:23:14Z</time></trkpt><trkpt lat="42.100055481156666" lon="11.896651552405563"><ele>153.42857142857142</ele><time>2026-04-19T11:23:16Z</time></trkpt><trkpt lat="42.0999770105706" lon="11.896586719356824"><ele>152.85714285714286</ele><time>2026-04-19T11:23:18Z</time></trkpt><trkpt lat="42.09991820198697" lon="11.896534553080672"><ele>152.28571428571428</ele><time>2026-04-19T11:23:20Z</time></trkpt><trkpt lat="42.099865503291916" lon="11.896478570291046"><ele>151.71428571428572</ele><time>2026-04-19T11:23:22Z</time></trkpt><trkpt lat="42.09981202162888" lon="11.89641461743912"><ele>151.14285714285714</ele><time>2026-04-19T11:23:24Z</time></trkpt><trkpt lat="42.09976447378722" lon="11.896352908198319"><ele>150.57142857142856</ele><time>2026-04-19T11:23:26Z</time></trkpt><trkpt lat="42.09972047807839" lon="11.89628813383258"><ele>150.0</ele><time>2026-04-19T11:23:28Z</time></trkpt><trkpt lat="42.09965820370131" lon="11.896187913833284"><ele>150.0</ele><time>2026-04-19T11:23:31Z</time></trkpt><trkpt lat="42.0996035018035" lon="11.89608574889014"><ele>150.0</ele><time>2026-04-19T11:23:33Z</time></trkpt><trkpt lat="42.09953251448123" lon="11.89599342850224"><ele>150.0</ele><time>2026-04-19T11:23:35Z</time></trkpt><trkpt lat="42.09946117411984" lon="11.895952599697512"><ele>150.0</ele><time>2026-04-19T11:23:37Z</time></trkpt><trkpt lat="42.099394804601275" lon="11.895952839684227"><ele>150.0</ele><time>2026-04-19T11:23:39Z</time></trkpt><trkpt lat="42.09931340788369" lon="11.89598647186336"><ele>150.0</ele><time>2026-04-19T11:23:42Z</time></trkpt><trkpt lat="42.099232881696445" lon="11.896035035704516"><ele>150.0</ele><time>2026-04-19T11:23:45Z</time></trkpt><trkpt lat="42.099155023026086" lon="11.896068279267428"><ele>150.0</ele><time>2026-04-19T11:23:48Z</time></trkpt><trkpt lat="42.099080951370254" lon="11.896052932665437"><ele>150.0</ele><time>2026-04-19T11:23:50Z</time></trkpt><trkpt lat="42.09902708362503" lon="11.896006952587078"><ele>150.0</ele><time>2026-04-19T11:23:53Z</time></trkpt><trkpt lat="42.09896664039444" lon="11.895967272679888"><ele>150.0</ele><time>2026-04-19T11:23:56Z</time></trkpt><trkpt lat="42.09891090308063" lon="11.89584980955455"><ele>150.0</ele><time>2026-04-19T11:23:59Z</time></trkpt><trkpt lat="42.09886702507038" lon="11.89569255409982"><ele>147.6</ele><time>2026-04-19T11:24:01Z</time></trkpt><trkpt lat="42.098832529074755" lon="11.895615901002461"><ele>145.2</ele><time>2026-04-19T11:24:02Z</time></trkpt><trkpt lat="42.098778117213634" lon="11.895471433775032"><ele>142.8</ele><time>2026-04-19T11:24:04Z</time></trkpt><trkpt lat="42.09872661694383" lon="11.895379723388173"><ele>140.4</ele><time>2026-04-19T11:24:05Z</time></trkpt><trkpt lat="42.09865956989624" lon="11.89526618565656"><ele>138.0</ele><time>2026-04-19T11:24:06Z</time></trkpt><trkpt lat="42.098595895097304" lon="11.895175046306184"><ele>138.0</ele><time>2026-04-19T11:24:07Z</time></trkpt><trkpt lat="42.09852664452904" lon="11.89509395930224"><ele>138.0</ele><time>2026-04-19T11:24:08Z</time></trkpt><trkpt lat="42.09845660364972" lon="11.89502115965422"><ele>138.0</ele><time>2026-04-19T11:24:09Z</time></trkpt><trkpt lat="42.098376300702135" lon="11.894988047259519"><ele>138.0</ele><time>2026-04-19T11:24:10Z</time></trkpt><trkpt lat="42.0982903560169" lon="11.894965353240643"><ele>138.0</ele><time>2026-04-19T11:24:11Z</time></trkpt><trkpt lat="42.09821411716722" lon="11.894952811464705"><ele>138.0</ele><time>2026-04-19T11:24:12Z</time></trkpt><trkpt lat="42.098150955236484" lon="11.894913349357177"><ele>137.4</ele><time>2026-04-19T11:24:13Z</time></trkpt><trkpt lat="42.09808776493391" lon="11.894870076053511"><ele>136.8</ele><time>2026-04-19T11:24:14Z</time></trkpt><trkpt lat="42.09796593354718" lon="11.89481277697478"><ele>136.2</ele><time>2026-04-19T11:24:16Z</time></trkpt><trkpt lat="42.0979004518601" lon="11.894785895501885"><ele>135.6</ele><time>2026-04-19T11:24:17Z</time></trkpt><trkpt lat="42.09779629319034" lon="11.894716728347886"><ele>135.0</ele><time>2026-04-19T11:24:19Z</time></trkpt><trkpt lat="42.09769509920864" lon="11.89464864879765"><ele>135.0</ele><time>2026-04-19T11:24:21Z</time></trkpt><trkpt lat="42.09758839417993" lon="11.894578331687516"><ele>135.0</ele><time>2026-04-19T11:24:23Z</time></trkpt><trkpt lat="42.09750296834895" lon="11.894512589474276"><ele>135.0</ele><time>2026-04-19T11:24:25Z</time></trkpt><trkpt lat="42.097416760607864" lon="11.894458252985643"><ele>135.0</ele><time>2026-04-19T11:24:27Z</time></trkpt><trkpt lat="42.097367806293505" lon="11.894397740728973"><ele>135.0</ele><time>2026-04-19T11:24:29Z</time></trkpt><trkpt lat="42.09732821543441" lon="11.894316917229837"><ele>134.5</ele><time>2026-04-19T11:24:31Z</time></trkpt><trkpt lat="42.09728016744229" lon="11.89420956090317"><ele>134.0</ele><time>2026-04-19T11:24:33Z</time></trkpt><trkpt lat="42.097213998772155" lon="11.894124190186858"><ele>133.5</ele><time>2026-04-19T11:24:35Z</time></trkpt><trkpt lat="42.097141657822114" lon="11.894039074823358"><ele>133.0</ele><time>2026-04-19T11:24:37Z</time></trkpt><trkpt lat="42.0970857759296" lon="11.893962677784796"><ele>132.5</ele><time>2026-04-19T11:24:39Z</time></trkpt><trkpt lat="42.097041813039475" lon="11.893894126199859"><ele>132.0</ele><time>2026-04-19T11:24:41Z</time></trkpt><trkpt lat="42.09696350326423" lon="11.8938316303274"><ele>132.0</ele><time>2026-04-19T11:24:44Z</time></trkpt><trkpt lat="42.096924833998465" lon="11.89372880563682"><ele>132.0</ele><time>2026-04-19T11:24:46Z</time></trkpt><trkpt lat="42.0968770675656" lon="11.893632673412098"><ele>132.0</ele><time>2026-04-19T11:24:48Z</time></trkpt><trkpt lat="42.09680910591244" lon="11.893539238638139"><ele>132.0</ele><time>2026-04-19T11:24:50Z</time></trkpt><trkpt lat="42.0967361845485" lon="11.893457300992686"><ele>132.0</ele><time>2026-04-19T11:24:52Z</time></trkpt><trkpt lat="42.09668273457518" lon="11.893363914780364"><ele>131.0</ele><time>2026-04-19T11:24:54Z</time></trkpt><trkpt lat="42.09662324715307" lon="11.893292259304706"><ele>130.0</ele><time>2026-04-19T11:24:56Z</time></trkpt><trkpt lat="42.0965429479069" lon="11.893240708588419"><ele>129.0</ele><time>2026-04-19T11:24:58Z</time></trkpt><trkpt lat="42.09647670768923" lon="11.893184934188717"><ele>128.0</ele><time>2026-04-19T11:25:00Z</time></trkpt><trkpt lat="42.09640882803926" lon="11.893158696087779"><ele>127.0</ele><time>2026-04-19T11:25:03Z</time></trkpt><trkpt lat="42.09633734042298" lon="11.893152457414143"><ele>126.0</ele><time>2026-04-19T11:25:06Z</time></trkpt><trkpt lat="42.09627467598141" lon="11.893129686759531"><ele>128.0</ele><time>2026-04-19T11:25:08Z</time></trkpt><trkpt lat="42.09620659593607" lon="11.893112647845342"><ele>130.0</ele><time>2026-04-19T11:25:10Z</time></trkpt><trkpt lat="42.096142552522245" lon="11.893086030936027"><ele>132.0</ele><time>2026-04-19T11:25:12Z</time></trkpt><trkpt lat="42.09608602124624" lon="11.89304701509831"><ele>134.0</ele><time>2026-04-19T11:25:14Z</time></trkpt><trkpt lat="42.0960368265558" lon="11.892980188720554"><ele>136.0</ele><time>2026-04-19T11:25:17Z</time></trkpt><trkpt lat="42.09601799947746" lon="11.892884528085455"><ele>138.0</ele><time>2026-04-19T11:25:20Z</time></trkpt><trkpt lat="42.09600885728689" lon="11.892788084250974"><ele>140.0</ele><time>2026-04-19T11:25:24Z</time></trkpt><trkpt lat="42.095968171752304" lon="11.89269890430787"><ele>140.0</ele><time>2026-04-19T11:25:27Z</time></trkpt><trkpt lat="42.09593040602732" lon="11.892631018744716"><ele>140.0</ele><time>2026-04-19T11:25:31Z</time></trkpt><trkpt lat="42.09588980612154" lon="11.892549677266754"><ele>140.0</ele><time>2026-04-19T11:25:38Z</time></trkpt><trkpt lat="42.09583680983961" lon="11.89250336529628"><ele>140.0</ele><time>2026-04-19T11:25:46Z</time></trkpt><trkpt lat="42.095786639299895" lon="11.8924429686594"><ele>140.0</ele><time>2026-04-19T11:25:49Z</time></trkpt><trkpt lat="42.09574288417695" lon="11.892372869366014"><ele>140.0</ele><time>2026-04-19T11:25:52Z</time></trkpt><trkpt lat="42.09568405270629" lon="11.892335720039782"><ele>140.0</ele><time>2026-04-19T11:25:56Z</time></trkpt><trkpt lat="42.09561902765171" lon="11.892305766790793"><ele>142.16666666666666</ele><time>2026-04-19T11:26:00Z</time></trkpt><trkpt lat="42.09554316652901" lon="11.89225173717644"><ele>144.33333333333331</ele><time>2026-04-19T11:27:31Z</time></trkpt><trkpt lat="42.095496788983596" lon="11.892169140259254"><ele>146.5</ele><time>2026-04-19T11:27:34Z</time></trkpt><trkpt lat="42.09545441482848" lon="11.892102609696057"><ele>148.66666666666666</ele><time>2026-04-19T11:27:36Z</time></trkpt><trkpt lat="42.09540800881651" lon="11.89204433822796"><ele>150.83333333333334</ele><time>2026-04-19T11:27:38Z</time></trkpt><trkpt lat="42.09534551596193" lon="11.891958692532555"><ele>153.0</ele><time>2026-04-19T11:27:41Z</time></trkpt><trkpt lat="42.09529367099604" lon="11.891866812350557"><ele>153.0</ele><time>2026-04-19T11:27:44Z</time></trkpt><trkpt lat="42.09523889461956" lon="11.891799294144905"><ele>153.0</ele><time>2026-04-19T11:27:47Z</time></trkpt><trkpt lat="42.095172158527745" lon="11.89177050206778"><ele>153.0</ele><time>2026-04-19T11:27:50Z</time></trkpt><trkpt lat="42.09509347340097" lon="11.891748019423277"><ele>153.0</ele><time>2026-04-19T11:27:54Z</time></trkpt><trkpt lat="42.095018883515486" lon="11.891719538364262"><ele>153.0</ele><time>2026-04-19T11:27:57Z</time></trkpt><trkpt lat="42.094938062788565" lon="11.891683949448709"><ele>153.0</ele><time>2026-04-19T11:28:00Z</time></trkpt><trkpt lat="42.0948552737557" lon="11.89165193051199"><ele>152.66666666666666</ele><time>2026-04-19T11:28:03Z</time></trkpt><trkpt lat="42.094780209796255" lon="11.891632341450672"><ele>152.33333333333334</ele><time>2026-04-19T11:28:06Z</time></trkpt><trkpt lat="42.09472055027956" lon="11.89159600593359"><ele>152.0</ele><time>2026-04-19T11:28:08Z</time></trkpt><trkpt lat="42.09468721678416" lon="11.891487400051144"><ele>151.66666666666669</ele><time>2026-04-19T11:28:11Z</time></trkpt><trkpt lat="42.09464380869877" lon="11.891391881232398"><ele>151.33333333333334</ele><time>2026-04-19T11:28:15Z</time></trkpt><trkpt lat="42.09459214986205" lon="11.891302709614179"><ele>151.0</ele><time>2026-04-19T11:28:18Z</time></trkpt><trkpt lat="42.09453449080455" lon="11.89122503928412"><ele>151.0</ele><time>2026-04-19T11:28:22Z</time></trkpt><trkpt lat="42.09446992935045" lon="11.891158702734323"><ele>151.0</ele><time>2026-04-19T11:28:25Z</time></trkpt><trkpt lat="42.09440121375733" lon="11.891123588906913"><ele>151.0</ele><time>2026-04-19T11:28:28Z</time></trkpt><trkpt lat="42.09432049590838" lon="11.891089258487744"><ele>151.0</ele><time>2026-04-19T11:28:31Z</time></trkpt><trkpt lat="42.09424107220342" lon="11.891048279791349"><ele>151.0</ele><time>2026-04-19T11:28:34Z</time></trkpt><trkpt lat="42.09415845038436" lon="11.891012996353462"><ele>151.0</ele><time>2026-04-19T11:28:37Z</time></trkpt><trkpt lat="42.09410047921171" lon="11.890964896616987"><ele>150.85714285714286</ele><time>2026-04-19T11:28:39Z</time></trkpt><trkpt lat="42.094045438562254" lon="11.890913757103158"><ele>150.71428571428572</ele><time>2026-04-19T11:28:41Z</time></trkpt><trkpt lat="42.09399909705375" lon="11.890851661032814"><ele>150.57142857142856</ele><time>2026-04-19T11:28:43Z</time></trkpt><trkpt lat="42.09394554129172" lon="11.89078723808539"><ele>150.42857142857144</ele><time>2026-04-19T11:28:45Z</time></trkpt><trkpt lat="42.09388565000413" lon="11.890727688549818"><ele>150.28571428571428</ele><time>2026-04-19T11:28:47Z</time></trkpt><trkpt lat="42.093821148843816" lon="11.890655181629059"><ele>150.14285714285714</ele><time>2026-04-19T11:28:50Z</time></trkpt><trkpt lat="42.09376637771606" lon="11.890591237064804"><ele>150.0</ele><time>2026-04-19T11:28:59Z</time></trkpt><trkpt lat="42.093691262431356" lon="11.890525534557918"><ele>149.99999999999997</ele><time>2026-04-19T11:29:02Z</time></trkpt><trkpt lat="42.09363113657594" lon="11.89046587928595"><ele>150.0</ele><time>2026-04-19T11:29:04Z</time></trkpt><trkpt lat="42.09356769923887" lon="11.890415063210002"><ele>150.0</ele><time>2026-04-19T11:29:06Z</time></trkpt><trkpt lat="42.093488841313274" lon="11.890361813788177"><ele>150.0</ele><time>2026-04-19T11:29:09Z</time></trkpt><trkpt lat="42.09343440476855" lon="11.890310142644019"><ele>150.0</ele><time>2026-04-19T11:29:12Z</time></trkpt><trkpt lat="42.093387486379456" lon="11.8902526473814"><ele>149.99999999999997</ele><time>2026-04-19T11:29:15Z</time></trkpt><trkpt lat="42.09332062721506" lon="11.890203338539736"><ele>150.0</ele><time>2026-04-19T11:29:19Z</time></trkpt><trkpt lat="42.093250682060905" lon="11.890169629195293"><ele>151.16666666666666</ele><time>2026-04-19T11:29:22Z</time></trkpt><trkpt lat="42.09319635990875" lon="11.890125879508522"><ele>152.33333333333334</ele><time>2026-04-19T11:29:24Z</time></trkpt><trkpt lat="42.09312106063523" lon="11.890083648611212"><ele>153.5</ele><time>2026-04-19T11:29:27Z</time></trkpt><trkpt lat="42.09305031767271" lon="11.89002847398602"><ele>154.66666666666669</ele><time>2026-04-19T11:29:30Z</time></trkpt><trkpt lat="42.09298431407882" lon="11.889976085383795"><ele>155.83333333333334</ele><time>2026-04-19T11:29:33Z</time></trkpt><trkpt lat="42.09290423685202" lon="11.889964637444002"><ele>157.0</ele><time>2026-04-19T11:29:36Z</time></trkpt><trkpt lat="42.09281647598468" lon="11.889997656566129"><ele>157.0</ele><time>2026-04-19T11:29:39Z</time></trkpt><trkpt lat="42.09275816267738" lon="11.890040481535587"><ele>157.0</ele><time>2026-04-19T11:29:41Z</time></trkpt><trkpt lat="42.09269400266116" lon="11.89008506696547"><ele>157.0</ele><time>2026-04-19T11:29:43Z</time></trkpt><trkpt lat="42.09262891599301" lon="11.890127076789199"><ele>157.0</ele><time>2026-04-19T11:29:45Z</time></trkpt><trkpt lat="42.092546213459485" lon="11.89016175667744"><ele>157.0</ele><time>2026-04-19T11:29:47Z</time></trkpt><trkpt lat="42.09246130950864" lon="11.890168941518818"><ele>157.0</ele><time>2026-04-19T11:29:49Z</time></trkpt><trkpt lat="42.09236889540797" lon="11.890144259255502"><ele>155.83333333333334</ele><time>2026-04-19T11:29:51Z</time></trkpt><trkpt lat="42.09228229582903" lon="11.890141868174878"><ele>154.66666666666669</ele><time>2026-04-19T11:29:53Z</time></trkpt><trkpt lat="42.0922004261887" lon="11.890126529844858"><ele>153.5</ele><time>2026-04-19T11:29:55Z</time></trkpt><trkpt lat="42.09212346293379" lon="11.890088484439742"><ele>152.33333333333334</ele><time>2026-04-19T11:29:57Z</time></trkpt><trkpt lat="42.09204445138404" lon="11.890055014488025"><ele>151.16666666666666</ele><time>2026-04-19T11:29:59Z</time></trkpt><trkpt lat="42.09197408868561" lon="11.890018792246591"><ele>150.0</ele><time>2026-04-19T11:30:01Z</time></trkpt><trkpt lat="42.09189467590844" lon="11.889988818708538"><ele>150.0</ele><time>2026-04-19T11:30:03Z</time></trkpt><trkpt lat="42.0917926733938" lon="11.889960989714359"><ele>150.0</ele><time>2026-04-19T11:30:05Z</time></trkpt><trkpt lat="42.091751705737934" lon="11.889875281170635"><ele>150.0</ele><time>2026-04-19T11:30:07Z</time></trkpt><trkpt lat="42.091794065299325" lon="11.889786211119368"><ele>150.0</ele><time>2026-04-19T11:30:10Z</time></trkpt><trkpt lat="42.09180472049331" lon="11.88969703790869"><ele>150.0</ele><time>2026-04-19T11:30:13Z</time></trkpt><trkpt lat="42.09179403895306" lon="11.889601095252411"><ele>150.0</ele><time>2026-04-19T11:30:16Z</time></trkpt><trkpt lat="42.091767325403744" lon="11.889490859333613"><ele>150.0</ele><time>2026-04-19T11:30:20Z</time></trkpt><trkpt lat="42.09173492726429" lon="11.889407007149172"><ele>150.0</ele><time>2026-04-19T11:30:23Z</time></trkpt><trkpt lat="42.09170332424244" lon="11.889303614882229"><ele>150.0</ele><time>2026-04-19T11:30:26Z</time></trkpt><trkpt lat="42.09167660259071" lon="11.88920875023012"><ele>150.0</ele><time>2026-04-19T11:30:29Z</time></trkpt><trkpt lat="42.09166413802534" lon="11.889109456249187"><ele>150.0</ele><time>2026-04-19T11:30:32Z</time></trkpt><trkpt lat="42.09163867412888" lon="11.889022042478269"><ele>150.0</ele><time>2026-04-19T11:30:35Z</time></trkpt><trkpt lat="42.09162079061675" lon="11.888906096327743"><ele>149.0</ele><time>2026-04-19T11:30:39Z</time></trkpt><trkpt lat="42.091597967026985" lon="11.888808769048218"><ele>148.0</ele><time>2026-04-19T11:30:42Z</time></trkpt><trkpt lat="42.09156777125823" lon="11.888712391777258"><ele>147.0</ele><time>2026-04-19T11:30:45Z</time></trkpt><trkpt lat="42.091533594711656" lon="11.888606815123875"><ele>146.0</ele><time>2026-04-19T11:30:48Z</time></trkpt><trkpt lat="42.09149499554287" lon="11.88850446052829"><ele>145.0</ele><time>2026-04-19T11:30:51Z</time></trkpt><trkpt lat="42.09144140543622" lon="11.888407094183313"><ele>144.0</ele><time>2026-04-19T11:30:54Z</time></trkpt><trkpt lat="42.091381831263234" lon="11.888317769453689"><ele>146.0</ele><time>2026-04-19T11:30:57Z</time></trkpt><trkpt lat="42.09132845274835" lon="11.888255701416016"><ele>148.0</ele><time>2026-04-19T11:31:00Z</time></trkpt><trkpt lat="42.09125912958196" lon="11.888197448241916"><ele>150.0</ele><time>2026-04-19T11:31:03Z</time></trkpt><trkpt lat="42.09118591000861" lon="11.888126221176632"><ele>152.0</ele><time>2026-04-19T11:31:06Z</time></trkpt><trkpt lat="42.09110999367967" lon="11.888066901053284"><ele>154.0</ele><time>2026-04-19T11:31:09Z</time></trkpt><trkpt lat="42.09103663494918" lon="11.88801541639042"><ele>156.0</ele><time>2026-04-19T11:31:12Z</time></trkpt><trkpt lat="42.09096097085091" lon="11.887990886276965"><ele>156.0</ele><time>2026-04-19T11:31:15Z</time></trkpt><trkpt lat="42.09090428938372" lon="11.887915271329968"><ele>156.0</ele><time>2026-04-19T11:31:44Z</time></trkpt><trkpt lat="42.09086062930335" lon="11.887850558572762"><ele>156.0</ele><time>2026-04-19T11:31:47Z</time></trkpt><trkpt lat="42.090864782172694" lon="11.887747562782307"><ele>156.0</ele><time>2026-04-19T11:31:50Z</time></trkpt><trkpt lat="42.09085356190601" lon="11.88764780254809"><ele>156.0</ele><time>2026-04-19T11:31:54Z</time></trkpt><trkpt lat="42.09080621369392" lon="11.88755831905041"><ele>156.0</ele><time>2026-04-19T11:31:58Z</time></trkpt><trkpt lat="42.090762065392724" lon="11.887488990521158"><ele>156.0</ele><time>2026-04-19T11:32:01Z</time></trkpt><trkpt lat="42.09070551645168" lon="11.887404381432153"><ele>153.85714285714286</ele><time>2026-04-19T11:32:05Z</time></trkpt><trkpt lat="42.09066754173194" lon="11.887318532675518"><ele>151.7142857142857</ele><time>2026-04-19T11:32:09Z</time></trkpt><trkpt lat="42.090626601116924" lon="11.887246598224332"><ele>149.57142857142856</ele><time>2026-04-19T11:32:12Z</time></trkpt><trkpt lat="42.09059794673462" lon="11.887167067767079"><ele>147.42857142857144</ele><time>2026-04-19T11:32:14Z</time></trkpt><trkpt lat="42.090570846354844" lon="11.88706276686375"><ele>145.28571428571428</ele><time>2026-04-19T11:32:17Z</time></trkpt><trkpt lat="42.09052783714207" lon="11.886980765985435"><ele>143.14285714285714</ele><time>2026-04-19T11:32:20Z</time></trkpt><trkpt lat="42.09049342498247" lon="11.88690493285431"><ele>141.0</ele><time>2026-04-19T11:32:25Z</time></trkpt><trkpt lat="42.0904653194791" lon="11.886822792232163"><ele>137.0</ele><time>2026-04-19T11:32:31Z</time></trkpt><trkpt lat="42.09041984826753" lon="11.886749610337645"><ele>133.0</ele><time>2026-04-19T11:32:34Z</time></trkpt><trkpt lat="42.09037843502756" lon="11.886661369073916"><ele>129.0</ele><time>2026-04-19T11:32:37Z</time></trkpt><trkpt lat="42.09033535265183" lon="11.886530513977869"><ele>125.0</ele><time>2026-04-19T11:32:39Z</time></trkpt><trkpt lat="42.09030375777131" lon="11.88644776544352"><ele>121.0</ele><time>2026-04-19T11:32:40Z</time></trkpt><trkpt lat="42.090275345032374" lon="11.886356815753208"><ele>117.0</ele><time>2026-04-19T11:32:41Z</time></trkpt><trkpt lat="42.09023981003232" lon="11.886268573983966"><ele>117.0</ele><time>2026-04-19T11:32:42Z</time></trkpt><trkpt lat="42.09020643382302" lon="11.886187499685864"><ele>116.99999999999999</ele><time>2026-04-19T11:32:43Z</time></trkpt><trkpt lat="42.09015402442272" lon="11.88607096923017"><ele>116.99999999999999</ele><time>2026-04-19T11:32:45Z</time></trkpt><trkpt lat="42.09012888743829" lon="11.885993004992038"><ele>117.0</ele><time>2026-04-19T11:32:46Z</time></trkpt><trkpt lat="42.090079186773124" lon="11.885850225838322"><ele>117.0</ele><time>2026-04-19T11:32:48Z</time></trkpt><trkpt lat="42.09001819866832" lon="11.885726704756806"><ele>116.0</ele><time>2026-04-19T11:32:50Z</time></trkpt><trkpt lat="42.089973567167156" lon="11.88560313156934"><ele>115.0</ele><time>2026-04-19T11:32:52Z</time></trkpt><trkpt lat="42.0899360159768" lon="11.885510930938633"><ele>114.0</ele><time>2026-04-19T11:32:54Z</time></trkpt><trkpt lat="42.08990353080189" lon="11.88543012843516"><ele>113.0</ele><time>2026-04-19T11:32:56Z</time></trkpt><trkpt lat="42.08986796949421" lon="11.88534226625481"><ele>112.0</ele><time>2026-04-19T11:33:09Z</time></trkpt><trkpt lat="42.08981330130735" lon="11.88527169765976"><ele>111.0</ele><time>2026-04-19T11:33:12Z</time></trkpt><trkpt lat="42.08973747796682" lon="11.885231394136355"><ele>111.0</ele><time>2026-04-19T11:33:14Z</time></trkpt><trkpt lat="42.08965573586143" lon="11.8851895506528"><ele>111.0</ele><time>2026-04-19T11:33:16Z</time></trkpt><trkpt lat="42.089576449410394" lon="11.885127268199538"><ele>111.0</ele><time>2026-04-19T11:33:18Z</time></trkpt><trkpt lat="42.089497532357164" lon="11.885057913021216"><ele>111.0</ele><time>2026-04-19T11:33:20Z</time></trkpt><trkpt lat="42.08940018758753" lon="11.885030862275705"><ele>111.0</ele><time>2026-04-19T11:33:22Z</time></trkpt><trkpt lat="42.089300655705465" lon="11.885013783340238"><ele>111.66666666666667</ele><time>2026-04-19T11:33:24Z</time></trkpt><trkpt lat="42.08921520794764" lon="11.885009159039356"><ele>112.33333333333334</ele><time>2026-04-19T11:33:26Z</time></trkpt><trkpt lat="42.08914743384698" lon="11.884956211480384"><ele>113.0</ele><time>2026-04-19T11:33:28Z</time></trkpt><trkpt lat="42.08908110729163" lon="11.884876635746682"><ele>113.66666666666667</ele><time>2026-04-19T11:33:30Z</time></trkpt><trkpt lat="42.089025265213564" lon="11.884798605947692"><ele>114.33333333333334</ele><time>2026-04-19T11:33:32Z</time></trkpt><trkpt lat="42.08896021060896" lon="11.884695535577391"><ele>115.0</ele><time>2026-04-19T11:33:35Z</time></trkpt><trkpt lat="42.08889430019581" lon="11.884605339821313"><ele>115.0</ele><time>2026-04-19T11:33:37Z</time></trkpt><trkpt lat="42.088810928261516" lon="11.884525010478212"><ele>115.0</ele><time>2026-04-19T11:33:39Z</time></trkpt><trkpt lat="42.08872641413406" lon="11.884446780161415"><ele>115.0</ele><time>2026-04-19T11:33:41Z</time></trkpt><trkpt lat="42.08863702547347" lon="11.884365985032355"><ele>115.0</ele><time>2026-04-19T11:33:43Z</time></trkpt><trkpt lat="42.088538717617254" lon="11.884283708548644"><ele>115.0</ele><time>2026-04-19T11:33:45Z</time></trkpt><trkpt lat="42.088482558008785" lon="11.884242894876834"><ele>113.83333333333334</ele><time>2026-04-19T11:33:46Z</time></trkpt><trkpt lat="42.08842788234998" lon="11.884199611285252"><ele>112.66666666666667</ele><time>2026-04-19T11:33:47Z</time></trkpt><trkpt lat="42.08831515611323" lon="11.88412337409497"><ele>111.5</ele><time>2026-04-19T11:33:49Z</time></trkpt><trkpt lat="42.08825871209326" lon="11.884082354046788"><ele>110.33333333333334</ele><time>2026-04-19T11:33:50Z</time></trkpt><trkpt lat="42.08814630717845" lon="11.88401411593924"><ele>109.16666666666667</ele><time>2026-04-19T11:33:52Z</time></trkpt><trkpt lat="42.08808814341659" lon="11.88397944609974"><ele>108.0</ele><time>2026-04-19T11:33:53Z</time></trkpt><trkpt lat="42.08802750644082" lon="11.883955996227442"><ele>108.0</ele><time>2026-04-19T11:33:54Z</time></trkpt><trkpt lat="42.087903699498476" lon="11.88392514053906"><ele>108.0</ele><time>2026-04-19T11:33:56Z</time></trkpt><trkpt lat="42.08778614194268" lon="11.883926223980918"><ele>108.0</ele><time>2026-04-19T11:33:58Z</time></trkpt><trkpt lat="42.08766210236561" lon="11.883916267920677"><ele>108.0</ele><time>2026-04-19T11:34:00Z</time></trkpt><trkpt lat="42.087541674751066" lon="11.883896388821187"><ele>108.0</ele><time>2026-04-19T11:34:02Z</time></trkpt><trkpt lat="42.08743056080785" lon="11.883851104391715"><ele>108.0</ele><time>2026-04-19T11:34:04Z</time></trkpt><trkpt lat="42.08732197054111" lon="11.883820010261978"><ele>108.0</ele><time>2026-04-19T11:34:06Z</time></trkpt><trkpt lat="42.08721126081599" lon="11.883787201815247"><ele>108.0</ele><time>2026-04-19T11:34:08Z</time></trkpt><trkpt lat="42.08709944255322" lon="11.883794484834757"><ele>107.80000000000001</ele><time>2026-04-19T11:34:10Z</time></trkpt><trkpt lat="42.08698850351618" lon="11.883804172171306"><ele>107.60000000000001</ele><time>2026-04-19T11:34:12Z</time></trkpt><trkpt lat="42.08687997772056" lon="11.883809759794989"><ele>107.39999999999999</ele><time>2026-04-19T11:34:14Z</time></trkpt><trkpt lat="42.0867692227219" lon="11.88378865493039"><ele>107.19999999999999</ele><time>2026-04-19T11:34:16Z</time></trkpt><trkpt lat="42.08666287576013" lon="11.883771875561454"><ele>107.0</ele><time>2026-04-19T11:34:18Z</time></trkpt><trkpt lat="42.08654940127401" lon="11.88374925836541"><ele>106.25</ele><time>2026-04-19T11:34:20Z</time></trkpt><trkpt lat="42.086436969991865" lon="11.883727696275102"><ele>105.5</ele><time>2026-04-19T11:34:22Z</time></trkpt><trkpt lat="42.086325448318995" lon="11.883700790583907"><ele>104.75</ele><time>2026-04-19T11:34:24Z</time></trkpt><trkpt lat="42.08621622810496" lon="11.883674212037516"><ele>104.0</ele><time>2026-04-19T11:34:26Z</time></trkpt><trkpt lat="42.08610284150781" lon="11.883671595216155"><ele>104.0</ele><time>2026-04-19T11:34:28Z</time></trkpt><trkpt lat="42.08599466762326" lon="11.883699358692049"><ele>104.0</ele><time>2026-04-19T11:34:30Z</time></trkpt><trkpt lat="42.08589533336371" lon="11.883769001480378"><ele>104.0</ele><time>2026-04-19T11:34:32Z</time></trkpt><trkpt lat="42.085787401462625" lon="11.883811137902162"><ele>104.0</ele><time>2026-04-19T11:34:34Z</time></trkpt><trkpt lat="42.08568222986953" lon="11.883801564677563"><ele>104.0</ele><time>2026-04-19T11:34:36Z</time></trkpt><trkpt lat="42.08558692387509" lon="11.883761109966834"><ele>103.2</ele><time>2026-04-19T11:34:38Z</time></trkpt><trkpt lat="42.085500873160534" lon="11.883714430845805"><ele>102.4</ele><time>2026-04-19T11:34:40Z</time></trkpt><trkpt lat="42.085406783067846" lon="11.883701486926231"><ele>101.6</ele><time>2026-04-19T11:34:42Z</time></trkpt><trkpt lat="42.08534614744761" lon="11.883725470417106"><ele>100.8</ele><time>2026-04-19T11:34:44Z</time></trkpt><trkpt lat="42.08525078264142" lon="11.88376266347259"><ele>100.0</ele><time>2026-04-19T11:34:47Z</time></trkpt><trkpt lat="42.085150962102404" lon="11.883788891484095"><ele>100.0</ele><time>2026-04-19T11:34:49Z</time></trkpt><trkpt lat="42.08503873390344" lon="11.883807439045851"><ele>100.0</ele><time>2026-04-19T11:34:51Z</time></trkpt><trkpt lat="42.08494055340855" lon="11.88386757252066"><ele>100.0</ele><time>2026-04-19T11:34:53Z</time></trkpt><trkpt lat="42.08485000893363" lon="11.883943760312095"><ele>100.0</ele><time>2026-04-19T11:34:55Z</time></trkpt><trkpt lat="42.08476326377491" lon="11.883893310702419"><ele>100.0</ele><time>2026-04-19T11:34:57Z</time></trkpt><trkpt lat="42.08468224361207" lon="11.883805046740184"><ele>98.8</ele><time>2026-04-19T11:34:59Z</time></trkpt><trkpt lat="42.08460619462399" lon="11.883698656688418"><ele>97.6</ele><time>2026-04-19T11:35:01Z</time></trkpt><trkpt lat="42.084541365966324" lon="11.88358767823492"><ele>96.4</ele><time>2026-04-19T11:35:03Z</time></trkpt><trkpt lat="42.08449451044628" lon="11.883473193421635"><ele>95.2</ele><time>2026-04-19T11:35:05Z</time></trkpt><trkpt lat="42.08445586769722" lon="11.883372148400301"><ele>94.0</ele><time>2026-04-19T11:35:07Z</time></trkpt><trkpt lat="42.084420008388165" lon="11.883265350009342"><ele>93.33333333333333</ele><time>2026-04-19T11:35:09Z</time></trkpt><trkpt lat="42.084445038170685" lon="11.883180683437216"><ele>92.66666666666666</ele><time>2026-04-19T11:35:24Z</time></trkpt><trkpt lat="42.08451049759854" lon="11.883120366343872"><ele>92.0</ele><time>2026-04-19T11:35:29Z</time></trkpt><trkpt lat="42.08459550231393" lon="11.883115710396497"><ele>91.33333333333333</ele><time>2026-04-19T11:35:32Z</time></trkpt><trkpt lat="42.084666561181365" lon="11.883113728620915"><ele>90.66666666666667</ele><time>2026-04-19T11:35:35Z</time></trkpt><trkpt lat="42.08472864211775" lon="11.883048118082042"><ele>90.0</ele><time>2026-04-19T11:35:42Z</time></trkpt><trkpt lat="42.08476834262992" lon="11.882973374601042"><ele>90.0</ele><time>2026-04-19T11:35:46Z</time></trkpt><trkpt lat="42.084810924253745" lon="11.882909173622192"><ele>90.0</ele><time>2026-04-19T11:36:05Z</time></trkpt><trkpt lat="42.08479747795358" lon="11.882797581253062"><ele>90.0</ele><time>2026-04-19T11:36:18Z</time></trkpt><trkpt lat="42.08476928010071" lon="11.882700954259171"><ele>90.0</ele><time>2026-04-19T11:36:21Z</time></trkpt><trkpt lat="42.08479776674277" lon="11.88260354386574"><ele>90.0</ele><time>2026-04-19T11:36:25Z</time></trkpt><trkpt lat="42.08484665706243" lon="11.882519094708382"><ele>90.0</ele><time>2026-04-19T11:36:28Z</time></trkpt><trkpt lat="42.08489863773826" lon="11.882434442998479"><ele>90.14285714285714</ele><time>2026-04-19T11:36:31Z</time></trkpt><trkpt lat="42.08493236886309" lon="11.88233884290195"><ele>90.28571428571429</ele><time>2026-04-19T11:36:34Z</time></trkpt><trkpt lat="42.08495745831067" lon="11.882251164861026"><ele>90.42857142857143</ele><time>2026-04-19T11:36:36Z</time></trkpt><trkpt lat="42.08499039679715" lon="11.882155364125971"><ele>90.57142857142857</ele><time>2026-04-19T11:36:38Z</time></trkpt><trkpt lat="42.08501979245274" lon="11.882058968222179"><ele>90.71428571428572</ele><time>2026-04-19T11:36:40Z</time></trkpt><trkpt lat="42.085040734258214" lon="11.881971243721116"><ele>90.85714285714286</ele><time>2026-04-19T11:36:42Z</time></trkpt><trkpt lat="42.08505496751279" lon="11.881882871441176"><ele>91.0</ele><time>2026-04-19T11:36:44Z</time></trkpt><trkpt lat="42.08508132025279" lon="11.881792647274406"><ele>91.14285714285714</ele><time>2026-04-19T11:36:46Z</time></trkpt><trkpt lat="42.08511289238416" lon="11.881703362822371"><ele>91.28571428571428</ele><time>2026-04-19T11:36:48Z</time></trkpt><trkpt lat="42.08515398941786" lon="11.88162361970266"><ele>91.42857142857143</ele><time>2026-04-19T11:36:51Z</time></trkpt><trkpt lat="42.08515017200115" lon="11.881537852037802"><ele>91.57142857142857</ele><time>2026-04-19T11:36:53Z</time></trkpt><trkpt lat="42.085155105983745" lon="11.881450703309019"><ele>91.71428571428571</ele><time>2026-04-19T11:36:55Z</time></trkpt><trkpt lat="42.085160684587706" lon="11.881345196947045"><ele>91.85714285714286</ele><time>2026-04-19T11:36:58Z</time></trkpt><trkpt lat="42.085156113154426" lon="11.881239032076635"><ele>92.0</ele><time>2026-04-19T11:37:02Z</time></trkpt><trkpt lat="42.08515948610947" lon="11.881153334600647"><ele>92.0</ele><time>2026-04-19T11:37:06Z</time></trkpt><trkpt lat="42.08518215974749" lon="11.881038685512229"><ele>92.0</ele><time>2026-04-19T11:37:10Z</time></trkpt><trkpt lat="42.08522370321361" lon="11.880950516607928"><ele>92.0</ele><time>2026-04-19T11:37:13Z</time></trkpt><trkpt lat="42.08526460696062" lon="11.88087473995281"><ele>92.0</ele><time>2026-04-19T11:37:16Z</time></trkpt><trkpt lat="42.085308907614106" lon="11.88078500477654"><ele>92.0</ele><time>2026-04-19T11:37:20Z</time></trkpt><trkpt lat="42.08532815988181" lon="11.880690322687165"><ele>92.0</ele><time>2026-04-19T11:37:23Z</time></trkpt><trkpt lat="42.085355582730564" lon="11.880592643902363"><ele>93.16666666666667</ele><time>2026-04-19T11:37:27Z</time></trkpt><trkpt lat="42.085384276672556" lon="11.880504612734805"><ele>94.33333333333334</ele><time>2026-04-19T11:37:31Z</time></trkpt><trkpt lat="42.08543315406972" lon="11.880422234135157"><ele>95.5</ele><time>2026-04-19T11:37:35Z</time></trkpt><trkpt lat="42.085488511568755" lon="11.880345235276918"><ele>96.66666666666667</ele><time>2026-04-19T11:37:39Z</time></trkpt><trkpt lat="42.08554558004604" lon="11.880273116431376"><ele>97.83333333333333</ele><time>2026-04-19T11:37:43Z</time></trkpt><trkpt lat="42.085603624379054" lon="11.880206784788896"><ele>99.0</ele><time>2026-04-19T11:37:47Z</time></trkpt><trkpt lat="42.085662795931604" lon="11.880145816093808"><ele>100.85714285714286</ele><time>2026-04-19T11:37:51Z</time></trkpt><trkpt lat="42.085722270579524" lon="11.880079658645109"><ele>102.71428571428571</ele><time>2026-04-19T11:37:55Z</time></trkpt><trkpt lat="42.08577165824973" lon="11.880015542335157"><ele>104.57142857142857</ele><time>2026-04-19T11:37:59Z</time></trkpt><trkpt lat="42.085812005347236" lon="11.879947587915304"><ele>106.42857142857143</ele><time>2026-04-19T11:38:03Z</time></trkpt><trkpt lat="42.08583707098158" lon="11.87986031852293"><ele>108.28571428571428</ele><time>2026-04-19T11:38:07Z</time></trkpt><trkpt lat="42.08585176853075" lon="11.879775876710108"><ele>110.14285714285714</ele><time>2026-04-19T11:38:11Z</time></trkpt><trkpt lat="42.085854105217415" lon="11.879684822077083"><ele>112.0</ele><time>2026-04-19T11:38:15Z</time></trkpt><trkpt lat="42.085848306181155" lon="11.879577278450675"><ele>112.57142857142857</ele><time>2026-04-19T11:38:19Z</time></trkpt><trkpt lat="42.08583315714855" lon="11.879473848726917"><ele>113.14285714285714</ele><time>2026-04-19T11:38:23Z</time></trkpt><trkpt lat="42.08581742313129" lon="11.87938977806669"><ele>113.71428571428572</ele><time>2026-04-19T11:38:26Z</time></trkpt><trkpt lat="42.08581563914891" lon="11.879295316263791"><ele>114.28571428571429</ele><time>2026-04-19T11:38:30Z</time></trkpt><trkpt lat="42.085816676766896" lon="11.879208871756816"><ele>114.85714285714286</ele><time>2026-04-19T11:38:33Z</time></trkpt><trkpt lat="42.08581961301919" lon="11.879106003878942"><ele>115.42857142857144</ele><time>2026-04-19T11:38:36Z</time></trkpt><trkpt lat="42.08583438688888" lon="11.879011348301269"><ele>116.00000000000001</ele><time>2026-04-19T11:38:39Z</time></trkpt><trkpt lat="42.08586083323494" lon="11.87890981402693"><ele>117.57142857142858</ele><time>2026-04-19T11:38:43Z</time></trkpt><trkpt lat="42.085881861823964" lon="11.87882706277593"><ele>119.14285714285714</ele><time>2026-04-19T11:38:46Z</time></trkpt><trkpt lat="42.085917555262526" lon="11.878742068631023"><ele>120.71428571428572</ele><time>2026-04-19T11:38:50Z</time></trkpt><trkpt lat="42.08594255194174" lon="11.87865630279518"><ele>122.28571428571429</ele><time>2026-04-19T11:38:53Z</time></trkpt><trkpt lat="42.085971345406094" lon="11.878562017861734"><ele>123.85714285714286</ele><time>2026-04-19T11:38:57Z</time></trkpt><trkpt lat="42.08598879531091" lon="11.878472095733226"><ele>125.42857142857143</ele><time>2026-04-19T11:39:00Z</time></trkpt><trkpt lat="42.0860285204206" lon="11.878389729670957"><ele>127.0</ele><time>2026-04-19T11:39:04Z</time></trkpt><trkpt lat="42.08606017843402" lon="11.87831399722182"><ele>128.5</ele><time>2026-04-19T11:39:07Z</time></trkpt><trkpt lat="42.086103523770966" lon="11.878214436648854"><ele>130.0</ele><time>2026-04-19T11:39:11Z</time></trkpt><trkpt lat="42.08615514419598" lon="11.878125022637423"><ele>131.5</ele><time>2026-04-19T11:39:15Z</time></trkpt><trkpt lat="42.086217505786394" lon="11.878059020794058"><ele>133.0</ele><time>2026-04-19T11:39:18Z</time></trkpt><trkpt lat="42.086262395224836" lon="11.877974005403317"><ele>134.5</ele><time>2026-04-19T11:39:21Z</time></trkpt><trkpt lat="42.08631438127312" lon="11.87788080677847"><ele>136.0</ele><time>2026-04-19T11:39:24Z</time></trkpt><trkpt lat="42.0863657469634" lon="11.877791080225995"><ele>135.99999999999997</ele><time>2026-04-19T11:39:27Z</time></trkpt><trkpt lat="42.08641045097884" lon="11.877727864136778"><ele>136.0</ele><time>2026-04-19T11:39:30Z</time></trkpt><trkpt lat="42.08643743122002" lon="11.877637313918216"><ele>136.0</ele><time>2026-04-19T11:39:33Z</time></trkpt><trkpt lat="42.08646433587596" lon="11.8775363617162"><ele>136.0</ele><time>2026-04-19T11:39:36Z</time></trkpt><trkpt lat="42.086497446244344" lon="11.877450472448535"><ele>136.0</ele><time>2026-04-19T11:39:39Z</time></trkpt><trkpt lat="42.08654040445106" lon="11.87737618927245"><ele>135.99999999999997</ele><time>2026-04-19T11:39:42Z</time></trkpt><trkpt lat="42.08659596615768" lon="11.877313546309521"><ele>136.0</ele><time>2026-04-19T11:39:45Z</time></trkpt><trkpt lat="42.08666643770796" lon="11.877272776755037"><ele>138.14285714285714</ele><time>2026-04-19T11:39:48Z</time></trkpt><trkpt lat="42.08673202121303" lon="11.877275176295822"><ele>140.28571428571428</ele><time>2026-04-19T11:39:51Z</time></trkpt><trkpt lat="42.0868016944139" lon="11.877261440594241"><ele>142.42857142857144</ele><time>2026-04-19T11:39:54Z</time></trkpt><trkpt lat="42.08686796852526" lon="11.877211467503553"><ele>144.57142857142856</ele><time>2026-04-19T11:39:57Z</time></trkpt><trkpt lat="42.08692361589822" lon="11.877142243820325"><ele>146.71428571428572</ele><time>2026-04-19T11:40:00Z</time></trkpt><trkpt lat="42.08695490302446" lon="11.877049000834798"><ele>148.85714285714286</ele><time>2026-04-19T11:40:03Z</time></trkpt><trkpt lat="42.0870021578142" lon="11.876978552912849"><ele>151.0</ele><time>2026-04-19T11:40:06Z</time></trkpt><trkpt lat="42.087048673736554" lon="11.876878164521747"><ele>151.00000000000003</ele><time>2026-04-19T11:40:10Z</time></trkpt><trkpt lat="42.087060391540284" lon="11.876780685080734"><ele>151.0</ele><time>2026-04-19T11:40:13Z</time></trkpt><trkpt lat="42.08705142781148" lon="11.876696618788207"><ele>151.0</ele><time>2026-04-19T11:40:16Z</time></trkpt><trkpt lat="42.08707825039931" lon="11.876611032344044"><ele>151.0</ele><time>2026-04-19T11:40:19Z</time></trkpt><trkpt lat="42.08710709661012" lon="11.876531149932763"><ele>151.0</ele><time>2026-04-19T11:40:22Z</time></trkpt><trkpt lat="42.08713963096011" lon="11.876452646303065"><ele>151.00000000000003</ele><time>2026-04-19T11:40:25Z</time></trkpt><trkpt lat="42.087166520736744" lon="11.876372609124891"><ele>151.0</ele><time>2026-04-19T11:40:28Z</time></trkpt><trkpt lat="42.087232778581736" lon="11.876326585180893"><ele>152.5</ele><time>2026-04-19T11:40:31Z</time></trkpt><trkpt lat="42.087298027432205" lon="11.876269658775655"><ele>154.0</ele><time>2026-04-19T11:40:36Z</time></trkpt><trkpt lat="42.08733740677037" lon="11.876178165799766"><ele>155.5</ele><time>2026-04-19T11:40:40Z</time></trkpt><trkpt lat="42.087360274171715" lon="11.876083843516708"><ele>157.0</ele><time>2026-04-19T11:40:44Z</time></trkpt><trkpt lat="42.08739926227339" lon="11.875983148551569"><ele>158.5</ele><time>2026-04-19T11:40:48Z</time></trkpt><trkpt lat="42.08745007643973" lon="11.875913127373234"><ele>160.0</ele><time>2026-04-19T11:40:51Z</time></trkpt><trkpt lat="42.087497979935556" lon="11.875815186588476"><ele>161.57142857142856</ele><time>2026-04-19T11:40:54Z</time></trkpt><trkpt lat="42.08752313611009" lon="11.875704879657818"><ele>163.14285714285714</ele><time>2026-04-19T11:40:57Z</time></trkpt><trkpt lat="42.0875365406761" lon="11.875619728086422"><ele>164.71428571428572</ele><time>2026-04-19T11:40:59Z</time></trkpt><trkpt lat="42.087559358343476" lon="11.875529511671536"><ele>166.28571428571428</ele><time>2026-04-19T11:41:01Z</time></trkpt><trkpt lat="42.08757137001854" lon="11.875442663593299"><ele>167.85714285714286</ele><time>2026-04-19T11:41:03Z</time></trkpt><trkpt lat="42.08759866318663" lon="11.875364809548996"><ele>169.42857142857142</ele><time>2026-04-19T11:41:05Z</time></trkpt><trkpt lat="42.08765820668355" lon="11.875291981634952"><ele>171.0</ele><time>2026-04-19T11:41:07Z</time></trkpt><trkpt lat="42.08771863405198" lon="11.875244957264306"><ele>171.0</ele><time>2026-04-19T11:41:09Z</time></trkpt><trkpt lat="42.087784334155295" lon="11.875208950314503"><ele>171.0</ele><time>2026-04-19T11:41:11Z</time></trkpt><trkpt lat="42.08785262199757" lon="11.875159151345617"><ele>171.0</ele><time>2026-04-19T11:41:13Z</time></trkpt><trkpt lat="42.087915366900646" lon="11.875102321794808"><ele>171.0</ele><time>2026-04-19T11:41:15Z</time></trkpt><trkpt lat="42.08796713602182" lon="11.875040992503797"><ele>171.0</ele><time>2026-04-19T11:41:17Z</time></trkpt><trkpt lat="42.08802503024288" lon="11.874993450137827"><ele>171.0</ele><time>2026-04-19T11:41:19Z</time></trkpt><trkpt lat="42.08810247171402" lon="11.874918222654559"><ele>171.83333333333334</ele><time>2026-04-19T11:41:22Z</time></trkpt><trkpt lat="42.088167739394635" lon="11.874873127094558"><ele>172.66666666666666</ele><time>2026-04-19T11:41:24Z</time></trkpt><trkpt lat="42.08822541693511" lon="11.87481794199282"><ele>173.5</ele><time>2026-04-19T11:41:26Z</time></trkpt><trkpt lat="42.088284977171725" lon="11.87475845751948"><ele>174.33333333333331</ele><time>2026-04-19T11:41:29Z</time></trkpt><trkpt lat="42.08834682971703" lon="11.87468877166295"><ele>175.16666666666666</ele><time>2026-04-19T11:41:32Z</time></trkpt><trkpt lat="42.08840247812785" lon="11.874615468390246"><ele>176.0</ele><time>2026-04-19T11:41:35Z</time></trkpt><trkpt lat="42.088454879610325" lon="11.87454196355325"><ele>176.0</ele><time>2026-04-19T11:41:38Z</time></trkpt><trkpt lat="42.088503019918335" lon="11.874480548999076"><ele>176.0</ele><time>2026-04-19T11:41:41Z</time></trkpt><trkpt lat="42.08855955616597" lon="11.874392562541251"><ele>176.0</ele><time>2026-04-19T11:41:45Z</time></trkpt><trkpt lat="42.08859445584876" lon="11.874308261821769"><ele>176.0</ele><time>2026-04-19T11:41:48Z</time></trkpt><trkpt lat="42.08863404434447" lon="11.874239929250521"><ele>176.0</ele><time>2026-04-19T11:41:51Z</time></trkpt><trkpt lat="42.08869566653428" lon="11.874196411334172"><ele>176.0</ele><time>2026-04-19T11:41:54Z</time></trkpt><trkpt lat="42.08876777174937" lon="11.874141211189261"><ele>176.0</ele><time>2026-04-19T11:41:58Z</time></trkpt><trkpt lat="42.08884211593062" lon="11.874098145610452"><ele>177.85714285714286</ele><time>2026-04-19T11:42:02Z</time></trkpt><trkpt lat="42.08889767395053" lon="11.874053607162738"><ele>179.71428571428572</ele><time>2026-04-19T11:42:05Z</time></trkpt><trkpt lat="42.08894809089299" lon="11.873999616850213"><ele>181.57142857142856</ele><time>2026-04-19T11:42:08Z</time></trkpt><trkpt lat="42.08898856348877" lon="11.873900273920034"><ele>183.42857142857144</ele><time>2026-04-19T11:42:12Z</time></trkpt><trkpt lat="42.089028704672835" lon="11.873821289793552"><ele>185.28571428571428</ele><time>2026-04-19T11:42:15Z</time></trkpt><trkpt lat="42.08906671921915" lon="11.87374510243581"><ele>187.14285714285714</ele><time>2026-04-19T11:42:18Z</time></trkpt><trkpt lat="42.08909916960444" lon="11.87367111806805"><ele>189.0</ele><time>2026-04-19T11:42:21Z</time></trkpt><trkpt lat="42.0891403085728" lon="11.873596708868016"><ele>189.0</ele><time>2026-04-19T11:42:24Z</time></trkpt><trkpt lat="42.08917567774025" lon="11.873517302836339"><ele>189.0</ele><time>2026-04-19T11:42:27Z</time></trkpt><trkpt lat="42.08921529633897" lon="11.873439347570459"><ele>189.0</ele><time>2026-04-19T11:42:30Z</time></trkpt><trkpt lat="42.08926289044365" lon="11.87336908022448"><ele>189.0</ele><time>2026-04-19T11:42:33Z</time></trkpt><trkpt lat="42.08931208141713" lon="11.87330350372812"><ele>189.0</ele><time>2026-04-19T11:42:36Z</time></trkpt><trkpt lat="42.089343559336356" lon="11.87321951074255"><ele>189.0</ele><time>2026-04-19T11:42:39Z</time></trkpt><trkpt lat="42.08938129072538" lon="11.87314353567702"><ele>189.0</ele><time>2026-04-19T11:42:42Z</time></trkpt><trkpt lat="42.08942303983805" lon="11.873047962913951"><ele>191.0</ele><time>2026-04-19T11:42:46Z</time></trkpt><trkpt lat="42.08946132952504" lon="11.872970880069802"><ele>193.0</ele><time>2026-04-19T11:42:49Z</time></trkpt><trkpt lat="42.089493989785176" lon="11.872887819834904"><ele>195.0</ele><time>2026-04-19T11:42:52Z</time></trkpt><trkpt lat="42.08952696348445" lon="11.872807620176749"><ele>197.0</ele><time>2026-04-19T11:42:55Z</time></trkpt><trkpt lat="42.089570018986535" lon="11.872726625134293"><ele>199.0</ele><time>2026-04-19T11:42:59Z</time></trkpt><trkpt lat="42.08961814111907" lon="11.872635824615099"><ele>201.0</ele><time>2026-04-19T11:43:03Z</time></trkpt><trkpt lat="42.089673750861564" lon="11.872595859237071"><ele>203.0</ele><time>2026-04-19T11:43:06Z</time></trkpt><trkpt lat="42.08972394289091" lon="11.872516175846256"><ele>205.28571428571428</ele><time>2026-04-19T11:43:10Z</time></trkpt><trkpt lat="42.08976392622388" lon="11.872443290149617"><ele>207.57142857142856</ele><time>2026-04-19T11:43:14Z</time></trkpt><trkpt lat="42.08981183700071" lon="11.87236785230617"><ele>209.85714285714286</ele><time>2026-04-19T11:43:19Z</time></trkpt><trkpt lat="42.08981393244952" lon="11.872262380071541"><ele>212.14285714285714</ele><time>2026-04-19T11:43:23Z</time></trkpt><trkpt lat="42.08979409976803" lon="11.872171091643194"><ele>214.42857142857142</ele><time>2026-04-19T11:43:27Z</time></trkpt><trkpt lat="42.089745764300744" lon="11.87209606225756"><ele>216.71428571428572</ele><time>2026-04-19T11:43:31Z</time></trkpt><trkpt lat="42.089682886625766" lon="11.872041089696118"><ele>219.0</ele><time>2026-04-19T11:43:35Z</time></trkpt><trkpt lat="42.089613575692304" lon="11.872022531580669"><ele>219.0</ele><time>2026-04-19T11:43:38.999Z</time></trkpt><trkpt lat="42.08953991847437" lon="11.871994014810262"><ele>219.0</ele><time>2026-04-19T11:43:43Z</time></trkpt><trkpt lat="42.089470127507944" lon="11.871977647811445"><ele>219.0</ele><time>2026-04-19T11:43:47Z</time></trkpt><trkpt lat="42.089400376039144" lon="11.872000624836858"><ele>219.0</ele><time>2026-04-19T11:43:51Z</time></trkpt><trkpt lat="42.08932491595869" lon="11.871997882655753"><ele>219.0</ele><time>2026-04-19T11:43:55Z</time></trkpt><trkpt lat="42.08925226122895" lon="11.871979255628416"><ele>219.0</ele><time>2026-04-19T11:43:59Z</time></trkpt><trkpt lat="42.08917511001717" lon="11.871947139068785"><ele>219.0</ele><time>2026-04-19T11:44:03Z</time></trkpt><trkpt lat="42.08911406022856" lon="11.871920474745458"><ele>219.2857142857143</ele><time>2026-04-19T11:44:06Z</time></trkpt><trkpt lat="42.0890466090602" lon="11.871912647833243"><ele>219.57142857142856</ele><time>2026-04-19T11:44:09Z</time></trkpt><trkpt lat="42.08898206115649" lon="11.871910882318668"><ele>219.85714285714286</ele><time>2026-04-19T11:44:12Z</time></trkpt><trkpt lat="42.08890189820403" lon="11.871888286733032"><ele>220.14285714285717</ele><time>2026-04-19T11:44:16Z</time></trkpt><trkpt lat="42.08883656166961" lon="11.871852952056182"><ele>220.42857142857144</ele><time>2026-04-19T11:44:19Z</time></trkpt><trkpt lat="42.08876938237537" lon="11.87183192848049"><ele>220.71428571428572</ele><time>2026-04-19T11:44:22Z</time></trkpt><trkpt lat="42.088710787985036" lon="11.871765949783805"><ele>221.0</ele><time>2026-04-19T11:44:25Z</time></trkpt><trkpt lat="42.08865201831192" lon="11.871702997799417"><ele>222.60000000000002</ele><time>2026-04-19T11:44:28Z</time></trkpt><trkpt lat="42.08856950541479" lon="11.871650240916933"><ele>224.20000000000002</ele><time>2026-04-19T11:44:31Z</time></trkpt><trkpt lat="42.08849096394497" lon="11.871622216644667"><ele>225.79999999999998</ele><time>2026-04-19T11:44:33Z</time></trkpt><trkpt lat="42.08841089010198" lon="11.871576529615716"><ele>227.39999999999998</ele><time>2026-04-19T11:44:35Z</time></trkpt><trkpt lat="42.088322415887056" lon="11.871537580949184"><ele>229.0</ele><time>2026-04-19T11:44:37Z</time></trkpt><trkpt lat="42.088227322302565" lon="11.871508782752986"><ele>229.39999999999998</ele><time>2026-04-19T11:44:39Z</time></trkpt><trkpt lat="42.08812976585815" lon="11.871491625004357"><ele>229.79999999999998</ele><time>2026-04-19T11:44:41Z</time></trkpt><trkpt lat="42.08802862245837" lon="11.871472628085145"><ele>230.20000000000002</ele><time>2026-04-19T11:44:43Z</time></trkpt><trkpt lat="42.08792907453762" lon="11.871484445571491"><ele>230.60000000000002</ele><time>2026-04-19T11:44:45Z</time></trkpt><trkpt lat="42.08782989024557" lon="11.87149731314006"><ele>231.0</ele><time>2026-04-19T11:44:47Z</time></trkpt><trkpt lat="42.08773532370143" lon="11.871533251256526"><ele>231.0</ele><time>2026-04-19T11:44:49Z</time></trkpt><trkpt lat="42.087664176596924" lon="11.871601861861874"><ele>231.0</ele><time>2026-04-19T11:44:51Z</time></trkpt><trkpt lat="42.08758759980561" lon="11.871621427042486"><ele>231.0</ele><time>2026-04-19T11:44:54Z</time></trkpt><trkpt lat="42.08750987313709" lon="11.871579009833484"><ele>231.0</ele><time>2026-04-19T11:44:56Z</time></trkpt><trkpt lat="42.087436772550205" lon="11.87155043278653"><ele>231.0</ele><time>2026-04-19T11:44:58Z</time></trkpt><trkpt lat="42.087356403454635" lon="11.87156657734521"><ele>231.0</ele><time>2026-04-19T11:45:00Z</time></trkpt><trkpt lat="42.08726801351823" lon="11.871590439048658"><ele>232.16666666666666</ele><time>2026-04-19T11:45:02Z</time></trkpt><trkpt lat="42.08719658345286" lon="11.871584866650887"><ele>233.33333333333331</ele><time>2026-04-19T11:45:04Z</time></trkpt><trkpt lat="42.087119292927895" lon="11.871601290410764"><ele>234.5</ele><time>2026-04-19T11:45:06Z</time></trkpt><trkpt lat="42.087021280986065" lon="11.8716248969913"><ele>235.66666666666666</ele><time>2026-04-19T11:45:09Z</time></trkpt><trkpt lat="42.086948214118635" lon="11.87162055581268"><ele>236.83333333333331</ele><time>2026-04-19T11:45:12Z</time></trkpt><trkpt lat="42.0868781328778" lon="11.87163496554481"><ele>238.0</ele><time>2026-04-19T11:45:15Z</time></trkpt><trkpt lat="42.08679112028305" lon="11.871616802705935"><ele>237.99999999999997</ele><time>2026-04-19T11:45:18Z</time></trkpt><trkpt lat="42.08671926146768" lon="11.87160359232498"><ele>238.0</ele><time>2026-04-19T11:45:21Z</time></trkpt><trkpt lat="42.086648960985535" lon="11.871561078890679"><ele>238.0</ele><time>2026-04-19T11:45:24Z</time></trkpt><trkpt lat="42.08657518857406" lon="11.871547359860868"><ele>238.0</ele><time>2026-04-19T11:45:27Z</time></trkpt><trkpt lat="42.086503660734245" lon="11.87152063360552"><ele>237.99999999999997</ele><time>2026-04-19T11:45:30Z</time></trkpt><trkpt lat="42.086430453477355" lon="11.871499718390629"><ele>238.0</ele><time>2026-04-19T11:45:33Z</time></trkpt><trkpt lat="42.08635789248022" lon="11.871456211411811"><ele>237.49999999999997</ele><time>2026-04-19T11:45:36Z</time></trkpt><trkpt lat="42.08627708637916" lon="11.871431058483283"><ele>237.0</ele><time>2026-04-19T11:45:39Z</time></trkpt><trkpt lat="42.086210972068336" lon="11.871445040028659"><ele>236.5</ele><time>2026-04-19T11:45:41Z</time></trkpt><trkpt lat="42.086150231819225" lon="11.871489121794072"><ele>236.0</ele><time>2026-04-19T11:45:43Z</time></trkpt><trkpt lat="42.08608747865166" lon="11.871577742530269"><ele>235.49999999999997</ele><time>2026-04-19T11:45:46Z</time></trkpt><trkpt lat="42.086024229524206" lon="11.871653720800861"><ele>235.0</ele><time>2026-04-19T11:45:49Z</time></trkpt><trkpt lat="42.08595317487609" lon="11.871742395970632"><ele>234.85714285714283</ele><time>2026-04-19T11:45:52Z</time></trkpt><trkpt lat="42.08590407361622" lon="11.87180936480037"><ele>234.7142857142857</ele><time>2026-04-19T11:45:54Z</time></trkpt><trkpt lat="42.08584784554677" lon="11.871856359167042"><ele>234.57142857142856</ele><time>2026-04-19T11:45:56Z</time></trkpt><trkpt lat="42.08577286662315" lon="11.87189867507745"><ele>234.42857142857144</ele><time>2026-04-19T11:45:59Z</time></trkpt><trkpt lat="42.08571888870167" lon="11.871961004341385"><ele>234.2857142857143</ele><time>2026-04-19T11:46:02Z</time></trkpt><trkpt lat="42.085655076288816" lon="11.872023875912262"><ele>234.14285714285717</ele><time>2026-04-19T11:46:05Z</time></trkpt><trkpt lat="42.085580107344235" lon="11.872066690960127"><ele>234.0</ele><time>2026-04-19T11:46:08Z</time></trkpt><trkpt lat="42.08550110066111" lon="11.87210415394398"><ele>234.0</ele><time>2026-04-19T11:46:11Z</time></trkpt><trkpt lat="42.08543574632261" lon="11.87214808263751"><ele>234.00000000000003</ele><time>2026-04-19T11:46:14Z</time></trkpt><trkpt lat="42.085368683634485" lon="11.872191073919332"><ele>234.0</ele><time>2026-04-19T11:46:17Z</time></trkpt><trkpt lat="42.08530966653578" lon="11.87223187930743"><ele>234.0</ele><time>2026-04-19T11:46:19Z</time></trkpt><trkpt lat="42.085236880714476" lon="11.872261357264769"><ele>234.00000000000003</ele><time>2026-04-19T11:46:21Z</time></trkpt><trkpt lat="42.08516813548863" lon="11.872308071341147"><ele>234.0</ele><time>2026-04-19T11:46:23Z</time></trkpt><trkpt lat="42.085095564160724" lon="11.87235904960336"><ele>234.0</ele><time>2026-04-19T11:46:25Z</time></trkpt><trkpt lat="42.08499960484156" lon="11.872410938450487"><ele>233.5</ele><time>2026-04-19T11:46:27Z</time></trkpt><trkpt lat="42.08489286091955" lon="11.872485834519013"><ele>233.0</ele><time>2026-04-19T11:46:29Z</time></trkpt><trkpt lat="42.08483644350949" lon="11.872547532554892"><ele>232.5</ele><time>2026-04-19T11:46:30Z</time></trkpt><trkpt lat="42.08477762768743" lon="11.872578656623602"><ele>232.0</ele><time>2026-04-19T11:46:31Z</time></trkpt><trkpt lat="42.0847187550942" lon="11.872620254572327"><ele>231.5</ele><time>2026-04-19T11:46:32Z</time></trkpt><trkpt lat="42.08465824094678" lon="11.87265991070297"><ele>231.0</ele><time>2026-04-19T11:46:33Z</time></trkpt><trkpt lat="42.08457692853604" lon="11.872707134139771"><ele>231.0</ele><time>2026-04-19T11:46:35Z</time></trkpt><trkpt lat="42.084500666995034" lon="11.872710453897687"><ele>231.0</ele><time>2026-04-19T11:46:38Z</time></trkpt><trkpt lat="42.08442411461881" lon="11.872723824739897"><ele>231.0</ele><time>2026-04-19T11:46:40Z</time></trkpt><trkpt lat="42.08428954873116" lon="11.87240865775787"><ele>231.0</ele><time>2026-04-19T11:46:42Z</time></trkpt><trkpt lat="42.08421925077497" lon="11.872360279437489"><ele>231.0</ele><time>2026-04-19T11:46:43Z</time></trkpt><trkpt lat="42.084142602362846" lon="11.872255350424211"><ele>231.00000000000003</ele><time>2026-04-19T11:46:45Z</time></trkpt><trkpt lat="42.084059136859494" lon="11.872129204966017"><ele>231.00000000000003</ele><time>2026-04-19T11:46:47Z</time></trkpt><trkpt lat="42.083947314221575" lon="11.872068441488455"><ele>231.0</ele><time>2026-04-19T11:46:49Z</time></trkpt><trkpt lat="42.08388846983098" lon="11.87201341153748"><ele>231.0</ele><time>2026-04-19T11:46:50Z</time></trkpt><trkpt lat="42.08383072293845" lon="11.871963050977014"><ele>231.28571428571428</ele><time>2026-04-19T11:46:51Z</time></trkpt><trkpt lat="42.08377567097086" lon="11.87190644682728"><ele>231.57142857142856</ele><time>2026-04-19T11:46:52Z</time></trkpt><trkpt lat="42.083727315594885" lon="11.871832517088313"><ele>231.85714285714286</ele><time>2026-04-19T11:46:53Z</time></trkpt><trkpt lat="42.083673712732676" lon="11.871765070175124"><ele>232.14285714285714</ele><time>2026-04-19T11:46:54Z</time></trkpt><trkpt lat="42.08361817242187" lon="11.8717079343843"><ele>232.42857142857142</ele><time>2026-04-19T11:46:55Z</time></trkpt><trkpt lat="42.083552823151116" lon="11.87164941440591"><ele>232.71428571428572</ele><time>2026-04-19T11:46:56Z</time></trkpt><trkpt lat="42.08348515529995" lon="11.871590940968886"><ele>233.0</ele><time>2026-04-19T11:46:57Z</time></trkpt><trkpt lat="42.083427705904185" lon="11.871527206400842"><ele>230.50000000000003</ele><time>2026-04-19T11:46:58Z</time></trkpt><trkpt lat="42.0833700909551" lon="11.871452956008232"><ele>228.0</ele><time>2026-04-19T11:46:59Z</time></trkpt><trkpt lat="42.0833153915841" lon="11.871388667054651"><ele>225.5</ele><time>2026-04-19T11:47:00Z</time></trkpt><trkpt lat="42.083249815912694" lon="11.871350160038682"><ele>223.0</ele><time>2026-04-19T11:47:01Z</time></trkpt><trkpt lat="42.08315758758373" lon="11.871277507262446"><ele>220.50000000000003</ele><time>2026-04-19T11:47:03Z</time></trkpt><trkpt lat="42.083067673810255" lon="11.871192745648857"><ele>218.0</ele><time>2026-04-19T11:47:05Z</time></trkpt><trkpt lat="42.08301206294731" lon="11.871150873712068"><ele>218.0</ele><time>2026-04-19T11:47:06Z</time></trkpt><trkpt lat="42.08294659396452" lon="11.871087406208153"><ele>218.0</ele><time>2026-04-19T11:47:08Z</time></trkpt><trkpt lat="42.08285558946508" lon="11.871036068294176"><ele>218.0</ele><time>2026-04-19T11:47:10Z</time></trkpt><trkpt lat="42.08274040682842" lon="11.87101831093932"><ele>218.0</ele><time>2026-04-19T11:47:12Z</time></trkpt><trkpt lat="42.08263140126179" lon="11.87098866328581"><ele>218.0</ele><time>2026-04-19T11:47:14Z</time></trkpt><trkpt lat="42.08256407616248" lon="11.870959342243667"><ele>216.00000000000003</ele><time>2026-04-19T11:47:15Z</time></trkpt><trkpt lat="42.08249618771491" lon="11.870920194951829"><ele>214.0</ele><time>2026-04-19T11:47:16Z</time></trkpt><trkpt lat="42.082428633843776" lon="11.870876706176194"><ele>212.0</ele><time>2026-04-19T11:47:16.999Z</time></trkpt><trkpt lat="42.082347218491904" lon="11.870831263289514"><ele>210.0</ele><time>2026-04-19T11:47:17.999Z</time></trkpt><trkpt lat="42.082283775414595" lon="11.870786137091594"><ele>208.00000000000003</ele><time>2026-04-19T11:47:18.999Z</time></trkpt><trkpt lat="42.08222595304671" lon="11.870747386554129"><ele>206.0</ele><time>2026-04-19T11:47:19.999Z</time></trkpt><trkpt lat="42.082116716802375" lon="11.870698420968594"><ele>206.0</ele><time>2026-04-19T11:47:21.999Z</time></trkpt><trkpt lat="42.08199360203658" lon="11.870653726959898"><ele>206.0</ele><time>2026-04-19T11:47:23.999Z</time></trkpt><trkpt lat="42.08190064564009" lon="11.870598216457143"><ele>206.0</ele><time>2026-04-19T11:47:25.999Z</time></trkpt><trkpt lat="42.08183080912394" lon="11.870558836845596"><ele>206.0</ele><time>2026-04-19T11:47:27.999Z</time></trkpt><trkpt lat="42.08175836439255" lon="11.870512097237846"><ele>206.0</ele><time>2026-04-19T11:47:29.999Z</time></trkpt><trkpt lat="42.08168899813291" lon="11.870489010892753"><ele>206.0</ele><time>2026-04-19T11:47:31.999Z</time></trkpt><trkpt lat="42.08161647181976" lon="11.87044710590405"><ele>206.0</ele><time>2026-04-19T11:47:33.999Z</time></trkpt><trkpt lat="42.08154263221523" lon="11.870430654412573"><ele>206.0</ele><time>2026-04-19T11:47:35.999Z</time></trkpt><trkpt lat="42.08145415843479" lon="11.870448498417025"><ele>206.0</ele><time>2026-04-19T11:47:37.999Z</time></trkpt><trkpt lat="42.081346042771074" lon="11.870455326191587"><ele>206.0</ele><time>2026-04-19T11:47:39.999Z</time></trkpt><trkpt lat="42.08123824949993" lon="11.870479753080305"><ele>206.16666666666669</ele><time>2026-04-19T11:47:41.999Z</time></trkpt><trkpt lat="42.08114713751396" lon="11.870532566494948"><ele>206.33333333333334</ele><time>2026-04-19T11:47:44Z</time></trkpt><trkpt lat="42.081066451719835" lon="11.870613374473079"><ele>206.5</ele><time>2026-04-19T11:47:46Z</time></trkpt><trkpt lat="42.08100265551146" lon="11.870679500894635"><ele>206.66666666666669</ele><time>2026-04-19T11:47:48Z</time></trkpt><trkpt lat="42.080941864568295" lon="11.870747149224782"><ele>206.83333333333334</ele><time>2026-04-19T11:47:49.999Z</time></trkpt><trkpt lat="42.08086386966124" lon="11.870807925425499"><ele>207.0</ele><time>2026-04-19T11:47:51.999Z</time></trkpt><trkpt lat="42.080794970765226" lon="11.870948450928937"><ele>208.39999999999998</ele><time>2026-04-19T11:47:53.999Z</time></trkpt><trkpt lat="42.08074870995451" lon="11.871031765705345"><ele>209.79999999999998</ele><time>2026-04-19T11:47:55.999Z</time></trkpt><trkpt lat="42.08066920460565" lon="11.870991903642741"><ele>211.2</ele><time>2026-04-19T11:47:57.999Z</time></trkpt><trkpt lat="42.080619461582" lon="11.870882070782837"><ele>212.6</ele><time>2026-04-19T11:47:59.999Z</time></trkpt><trkpt lat="42.080565804874624" lon="11.870755429143877"><ele>214.0</ele><time>2026-04-19T11:48:01.999Z</time></trkpt><trkpt lat="42.08048009308081" lon="11.870635115641328"><ele>210.0</ele><time>2026-04-19T11:48:03.999Z</time></trkpt><trkpt lat="42.08042193585903" lon="11.870586362331496"><ele>205.99999999999997</ele><time>2026-04-19T11:48:04.999Z</time></trkpt><trkpt lat="42.08035693842218" lon="11.87054140774239"><ele>202.0</ele><time>2026-04-19T11:48:05.999Z</time></trkpt><trkpt lat="42.08022327260499" lon="11.870522191052407"><ele>198.0</ele><time>2026-04-19T11:48:07.999Z</time></trkpt><trkpt lat="42.08014386943377" lon="11.870522824283174"><ele>194.0</ele><time>2026-04-19T11:48:08.999Z</time></trkpt><trkpt lat="42.08001618611914" lon="11.870525938119446"><ele>194.79999999999998</ele><time>2026-04-19T11:48:10.999Z</time></trkpt><trkpt lat="42.07992008848604" lon="11.870477633955602"><ele>195.6</ele><time>2026-04-19T11:48:12.999Z</time></trkpt><trkpt lat="42.079837334753485" lon="11.870402878364136"><ele>196.4</ele><time>2026-04-19T11:48:14.999Z</time></trkpt><trkpt lat="42.07973131357236" lon="11.870327667801076"><ele>197.2</ele><time>2026-04-19T11:48:16.999Z</time></trkpt><trkpt lat="42.079669767970856" lon="11.870296303918469"><ele>198.0</ele><time>2026-04-19T11:48:17.999Z</time></trkpt><trkpt lat="42.07955000843434" lon="11.870205997996495"><ele>198.0</ele><time>2026-04-19T11:48:20Z</time></trkpt><trkpt lat="42.079460303821385" lon="11.870131660760848"><ele>198.0</ele><time>2026-04-19T11:48:22Z</time></trkpt><trkpt lat="42.079360597945225" lon="11.870099309419833"><ele>198.0</ele><time>2026-04-19T11:48:24Z</time></trkpt><trkpt lat="42.079353451868705" lon="11.870002862645764"><ele>198.0</ele><time>2026-04-19T11:48:26Z</time></trkpt><trkpt lat="42.07937773726853" lon="11.869907863033024"><ele>198.0</ele><time>2026-04-19T11:48:28Z</time></trkpt><trkpt lat="42.07941688921376" lon="11.869838764187595"><ele>198.0</ele><time>2026-04-19T11:48:31Z</time></trkpt><trkpt lat="42.07947623115895" lon="11.869777157862151"><ele>194.66666666666666</ele><time>2026-04-19T11:48:41Z</time></trkpt><trkpt lat="42.079498458995275" lon="11.869694283860248"><ele>191.33333333333334</ele><time>2026-04-19T11:48:43Z</time></trkpt><trkpt lat="42.07953036627841" lon="11.869582082035423"><ele>188.0</ele><time>2026-04-19T11:48:45Z</time></trkpt><trkpt lat="42.07958794616336" lon="11.869465021268706"><ele>184.66666666666669</ele><time>2026-04-19T11:48:47Z</time></trkpt><trkpt lat="42.07964821882616" lon="11.86932928723059"><ele>181.33333333333334</ele><time>2026-04-19T11:48:49Z</time></trkpt><trkpt lat="42.07968037459985" lon="11.86925339426831"><ele>178.0</ele><time>2026-04-19T11:48:50Z</time></trkpt><trkpt lat="42.07971824765781" lon="11.869173741133144"><ele>176.33333333333334</ele><time>2026-04-19T11:48:51Z</time></trkpt><trkpt lat="42.079753623247186" lon="11.869091296321287"><ele>174.66666666666669</ele><time>2026-04-19T11:48:52Z</time></trkpt><trkpt lat="42.07978273806775" lon="11.868993483758858"><ele>173.0</ele><time>2026-04-19T11:48:53Z</time></trkpt><trkpt lat="42.079809127871094" lon="11.868900932176642"><ele>171.33333333333334</ele><time>2026-04-19T11:48:54Z</time></trkpt><trkpt lat="42.079844597720786" lon="11.86879836823405"><ele>169.66666666666666</ele><time>2026-04-19T11:48:55Z</time></trkpt><trkpt lat="42.07987849648447" lon="11.868708881008434"><ele>168.0</ele><time>2026-04-19T11:48:56Z</time></trkpt><trkpt lat="42.079911534441756" lon="11.868600143204887"><ele>167.0</ele><time>2026-04-19T11:48:57Z</time></trkpt><trkpt lat="42.07994352610353" lon="11.86849887628743"><ele>166.0</ele><time>2026-04-19T11:48:58Z</time></trkpt><trkpt lat="42.07997268311273" lon="11.868408996470242"><ele>165.0</ele><time>2026-04-19T11:48:59Z</time></trkpt><trkpt lat="42.080009359644045" lon="11.868333140345925"><ele>164.0</ele><time>2026-04-19T11:49:00Z</time></trkpt><trkpt lat="42.08005704165349" lon="11.86819954829621"><ele>163.0</ele><time>2026-04-19T11:49:02Z</time></trkpt><trkpt lat="42.08011398765766" lon="11.868062278146795"><ele>162.0</ele><time>2026-04-19T11:49:04Z</time></trkpt><trkpt lat="42.08017377211307" lon="11.867947666161022"><ele>161.4</ele><time>2026-04-19T11:49:06Z</time></trkpt><trkpt lat="42.08017414968589" lon="11.86781704205441"><ele>160.79999999999998</ele><time>2026-04-19T11:49:08Z</time></trkpt><trkpt lat="42.08016950887306" lon="11.867728753002632"><ele>160.2</ele><time>2026-04-19T11:49:09Z</time></trkpt><trkpt lat="42.080167494829304" lon="11.86758417128154"><ele>159.6</ele><time>2026-04-19T11:49:11Z</time></trkpt><trkpt lat="42.08016842089139" lon="11.867427668112281"><ele>159.0</ele><time>2026-04-19T11:49:13Z</time></trkpt><trkpt lat="42.080171669970305" lon="11.867338479743099"><ele>157.8</ele><time>2026-04-19T11:49:14Z</time></trkpt><trkpt lat="42.08017281020818" lon="11.867198103828148"><ele>156.60000000000002</ele><time>2026-04-19T11:49:16Z</time></trkpt><trkpt lat="42.080189651795294" lon="11.867068105273617"><ele>155.4</ele><time>2026-04-19T11:49:18Z</time></trkpt><trkpt lat="42.08020696150698" lon="11.866940074416167"><ele>154.20000000000002</ele><time>2026-04-19T11:49:20Z</time></trkpt><trkpt lat="42.08021151111757" lon="11.86680978770682"><ele>153.0</ele><time>2026-04-19T11:49:22Z</time></trkpt><trkpt lat="42.08018742144407" lon="11.86667366495098"><ele>151.4</ele><time>2026-04-19T11:49:24Z</time></trkpt><trkpt lat="42.08012241750125" lon="11.866567630233138"><ele>149.8</ele><time>2026-04-19T11:49:26Z</time></trkpt><trkpt lat="42.080074350130516" lon="11.866507782885154"><ele>148.2</ele><time>2026-04-19T11:49:27Z</time></trkpt><trkpt lat="42.07996751874499" lon="11.866475992080714"><ele>146.6</ele><time>2026-04-19T11:49:29Z</time></trkpt><trkpt lat="42.07985791017515" lon="11.866489986116246"><ele>145.0</ele><time>2026-04-19T11:49:31Z</time></trkpt><trkpt lat="42.07975243273378" lon="11.866475305785746"><ele>144.33333333333334</ele><time>2026-04-19T11:49:33Z</time></trkpt><trkpt lat="42.0796995834676" lon="11.866397214864609"><ele>143.66666666666669</ele><time>2026-04-19T11:49:35Z</time></trkpt><trkpt lat="42.07970550693686" lon="11.86629566830178"><ele>143.0</ele><time>2026-04-19T11:49:38Z</time></trkpt><trkpt lat="42.079713846944166" lon="11.866202617952158"><ele>142.33333333333334</ele><time>2026-04-19T11:49:40Z</time></trkpt><trkpt lat="42.07974198188802" lon="11.866121662110944"><ele>141.66666666666666</ele><time>2026-04-19T11:49:42Z</time></trkpt><trkpt lat="42.079775894459715" lon="11.866027398246372"><ele>141.0</ele><time>2026-04-19T11:49:44Z</time></trkpt><trkpt lat="42.07980983861664" lon="11.86590145723098"><ele>140.0</ele><time>2026-04-19T11:49:46Z</time></trkpt><trkpt lat="42.07987196838497" lon="11.865833734378958"><ele>139.0</ele><time>2026-04-19T11:49:48Z</time></trkpt><trkpt lat="42.07994462465605" lon="11.865842386778999"><ele>138.0</ele><time>2026-04-19T11:49:50Z</time></trkpt><trkpt lat="42.08002053006594" lon="11.86584765729235"><ele>137.0</ele><time>2026-04-19T11:49:53Z</time></trkpt><trkpt lat="42.08009415115179" lon="11.865841280970455"><ele>136.0</ele><time>2026-04-19T11:49:55Z</time></trkpt><trkpt lat="42.08022082686282" lon="11.865795130402542"><ele>135.0</ele><time>2026-04-19T11:49:57Z</time></trkpt><trkpt lat="42.080325000647036" lon="11.865776054934534"><ele>135.0</ele><time>2026-04-19T11:49:59Z</time></trkpt><trkpt lat="42.08043386117598" lon="11.865767443641708"><ele>135.0</ele><time>2026-04-19T11:50:01Z</time></trkpt><trkpt lat="42.08049958501849" lon="11.865755683547524"><ele>135.0</ele><time>2026-04-19T11:50:02Z</time></trkpt><trkpt lat="42.080618722838985" lon="11.865721010320684"><ele>135.0</ele><time>2026-04-19T11:50:04Z</time></trkpt><trkpt lat="42.0807242370677" lon="11.865670379261095"><ele>135.0</ele><time>2026-04-19T11:50:06Z</time></trkpt><trkpt lat="42.08079018500456" lon="11.865655088614643"><ele>133.75</ele><time>2026-04-19T11:50:07Z</time></trkpt><trkpt lat="42.080908177379285" lon="11.865644231877482"><ele>132.5</ele><time>2026-04-19T11:50:09Z</time></trkpt><trkpt lat="42.081028673834346" lon="11.865651013220397"><ele>131.25</ele><time>2026-04-19T11:50:11Z</time></trkpt><trkpt lat="42.08114244389341" lon="11.865625063494782"><ele>130.0</ele><time>2026-04-19T11:50:13Z</time></trkpt><trkpt lat="42.0812532953799" lon="11.865627635606618"><ele>130.0</ele><time>2026-04-19T11:50:15Z</time></trkpt><trkpt lat="42.08135912786198" lon="11.865629557630601"><ele>130.0</ele><time>2026-04-19T11:50:17Z</time></trkpt><trkpt lat="42.081442876403244" lon="11.865574669218667"><ele>130.0</ele><time>2026-04-19T11:50:19Z</time></trkpt><trkpt lat="42.08150013539904" lon="11.865493475348073"><ele>130.0</ele><time>2026-04-19T11:50:21Z</time></trkpt><trkpt lat="42.08158324753764" lon="11.865446288113876"><ele>130.0</ele><time>2026-04-19T11:50:24Z</time></trkpt><trkpt lat="42.081648232179084" lon="11.865467422946653"><ele>130.0</ele><time>2026-04-19T11:50:26Z</time></trkpt><trkpt lat="42.0817232385007" lon="11.865548173479919"><ele>129.0</ele><time>2026-04-19T11:50:29Z</time></trkpt><trkpt lat="42.08179605144891" lon="11.86561524172617"><ele>128.0</ele><time>2026-04-19T11:50:31Z</time></trkpt><trkpt lat="42.08188477094774" lon="11.865612733091446"><ele>127.0</ele><time>2026-04-19T11:50:33Z</time></trkpt><trkpt lat="42.08197056684687" lon="11.865575390790417"><ele>126.0</ele><time>2026-04-19T11:50:35Z</time></trkpt><trkpt lat="42.08203640162818" lon="11.8655723576849"><ele>125.00000000000001</ele><time>2026-04-19T11:50:37Z</time></trkpt><trkpt lat="42.0821081535399" lon="11.865644016914246"><ele>124.0</ele><time>2026-04-19T11:50:40Z</time></trkpt><trkpt lat="42.08214710501589" lon="11.86572485535257"><ele>124.00000000000001</ele><time>2026-04-19T11:50:43Z</time></trkpt><trkpt lat="42.082180630915815" lon="11.865827785534949"><ele>124.0</ele><time>2026-04-19T11:53:05Z</time></trkpt><trkpt lat="42.082167195963315" lon="11.865937512511882"><ele>124.0</ele><time>2026-04-19T11:53:08Z</time></trkpt><trkpt lat="42.08219071430525" lon="11.866021381106078"><ele>124.0</ele><time>2026-04-19T11:53:10Z</time></trkpt><trkpt lat="42.082225512179" lon="11.866097740657471"><ele>124.00000000000001</ele><time>2026-04-19T11:53:14Z</time></trkpt><trkpt lat="42.08223463303962" lon="11.866189065088204"><ele>124.0</ele><time>2026-04-19T11:53:18Z</time></trkpt><trkpt lat="42.08231971462164" lon="11.866262425100981"><ele>123.66666666666667</ele><time>2026-04-19T11:53:21Z</time></trkpt><trkpt lat="42.082393197363444" lon="11.866321573618938"><ele>123.33333333333334</ele><time>2026-04-19T11:53:23Z</time></trkpt><trkpt lat="42.08248926145702" lon="11.86633203166902"><ele>123.0</ele><time>2026-04-19T11:53:25Z</time></trkpt><trkpt lat="42.082578402053315" lon="11.866341618166711"><ele>122.66666666666666</ele><time>2026-04-19T11:53:27Z</time></trkpt><trkpt lat="42.0826452287761" lon="11.866369214564001"><ele>122.33333333333333</ele><time>2026-04-19T11:53:30Z</time></trkpt><trkpt lat="42.0827095728653" lon="11.866452168500969"><ele>122.0</ele><time>2026-04-19T11:53:34Z</time></trkpt><trkpt lat="42.0827717160048" lon="11.866526745646809"><ele>121.99999999999999</ele><time>2026-04-19T11:53:38Z</time></trkpt><trkpt lat="42.08285560666701" lon="11.86648458880647"><ele>122.0</ele><time>2026-04-19T11:53:42Z</time></trkpt><trkpt lat="42.08291539487431" lon="11.866432039823188"><ele>122.0</ele><time>2026-04-19T11:53:44Z</time></trkpt><trkpt lat="42.08296670233218" lon="11.866345288882012"><ele>122.0</ele><time>2026-04-19T11:53:46Z</time></trkpt><trkpt lat="42.08300301969184" lon="11.866273249634661"><ele>121.99999999999999</ele><time>2026-04-19T11:53:48Z</time></trkpt><trkpt lat="42.08306913381977" lon="11.866210770608442"><ele>122.0</ele><time>2026-04-19T11:53:50Z</time></trkpt><trkpt lat="42.083119370768216" lon="11.866122408260876"><ele>122.0</ele><time>2026-04-19T11:53:52Z</time></trkpt><trkpt lat="42.0831429454685" lon="11.866022322414953"><ele>121.99999999999999</ele><time>2026-04-19T11:53:54Z</time></trkpt><trkpt lat="42.083207487075455" lon="11.865883140802588"><ele>121.99999999999999</ele><time>2026-04-19T11:53:56Z</time></trkpt><trkpt lat="42.0832719018829" lon="11.865747480785199"><ele>122.0</ele><time>2026-04-19T11:53:58Z</time></trkpt><trkpt lat="42.083323927774664" lon="11.86562037410588"><ele>122.0</ele><time>2026-04-19T11:54:00Z</time></trkpt><trkpt lat="42.08336358832823" lon="11.865526466748996"><ele>118.33333333333333</ele><time>2026-04-19T11:54:02Z</time></trkpt><trkpt lat="42.08341128533469" lon="11.865431976284116"><ele>114.66666666666666</ele><time>2026-04-19T11:54:06Z</time></trkpt><trkpt lat="42.08347246042575" lon="11.865351922622724"><ele>111.0</ele><time>2026-04-19T11:54:10Z</time></trkpt><trkpt lat="42.083503485611246" lon="11.865269120273755"><ele>107.33333333333334</ele><time>2026-04-19T11:54:13Z</time></trkpt><trkpt lat="42.083447318411125" lon="11.865226134951934"><ele>103.66666666666667</ele><time>2026-04-19T11:54:25Z</time></trkpt><trkpt lat="42.08336090889291" lon="11.865147286138834"><ele>100.0</ele><time>2026-04-19T11:54:28Z</time></trkpt><trkpt lat="42.08330805171912" lon="11.865085561120054"><ele>99.57142857142858</ele><time>2026-04-19T11:54:38Z</time></trkpt><trkpt lat="42.08324422831955" lon="11.865061068526819"><ele>99.14285714285714</ele><time>2026-04-19T11:54:50Z</time></trkpt><trkpt lat="42.083175945635396" lon="11.865028029507325"><ele>98.71428571428572</ele><time>2026-04-19T11:54:55Z</time></trkpt><trkpt lat="42.083112844715544" lon="11.864991078139827"><ele>98.28571428571429</ele><time>2026-04-19T11:54:58Z</time></trkpt><trkpt lat="42.083072520141606" lon="11.86492224882322"><ele>97.85714285714286</ele><time>2026-04-19T11:55:01Z</time></trkpt><trkpt lat="42.08310448975011" lon="11.864837697453783"><ele>97.42857142857143</ele><time>2026-04-19T11:55:04Z</time></trkpt><trkpt lat="42.08311115963747" lon="11.86472355087229"><ele>97.0</ele><time>2026-04-19T11:55:11Z</time></trkpt><trkpt lat="42.0830884266087" lon="11.86463824137682"><ele>97.0</ele><time>2026-04-19T11:55:14Z</time></trkpt><trkpt lat="42.08305095175291" lon="11.864551414890798"><ele>97.0</ele><time>2026-04-19T11:55:18Z</time></trkpt><trkpt lat="42.083094143203205" lon="11.864470828229186"><ele>97.0</ele><time>2026-04-19T11:55:22Z</time></trkpt><trkpt lat="42.08315948804162" lon="11.864467689944696"><ele>97.0</ele><time>2026-04-19T11:55:25Z</time></trkpt><trkpt lat="42.08324001693474" lon="11.864468893637348"><ele>97.0</ele><time>2026-04-19T11:55:30Z</time></trkpt><trkpt lat="42.08331069545186" lon="11.864473914601671"><ele>97.0</ele><time>2026-04-19T11:55:52Z</time></trkpt><trkpt lat="42.08337242322488" lon="11.86442878788122"><ele>97.0</ele><time>2026-04-19T11:56:11Z</time></trkpt><trkpt lat="42.08338957488829" lon="11.864343024999348"><ele>97.42857142857143</ele><time>2026-04-19T11:56:15Z</time></trkpt><trkpt lat="42.08336251659252" lon="11.864239961410302"><ele>97.85714285714286</ele><time>2026-04-19T11:56:19Z</time></trkpt><trkpt lat="42.08334342112143" lon="11.864145296563132"><ele>98.28571428571429</ele><time>2026-04-19T11:56:23Z</time></trkpt><trkpt lat="42.083333763398905" lon="11.864051995308547"><ele>98.71428571428572</ele><time>2026-04-19T11:56:27Z</time></trkpt><trkpt lat="42.08332875441637" lon="11.863957316185108"><ele>99.14285714285714</ele><time>2026-04-19T11:56:31Z</time></trkpt><trkpt lat="42.083308485059675" lon="11.863874047481117"><ele>99.57142857142858</ele><time>2026-04-19T11:56:41Z</time></trkpt><trkpt lat="42.08327785148148" lon="11.863796501943185"><ele>100.0</ele><time>2026-04-19T11:56:52Z</time></trkpt><trkpt lat="42.0832548734421" lon="11.86371709875997"><ele>99.00000000000001</ele><time>2026-04-19T11:57:08Z</time></trkpt><trkpt lat="42.08325077531176" lon="11.863631310483425"><ele>98.0</ele><time>2026-04-19T11:57:19Z</time></trkpt><trkpt lat="42.0832377880139" lon="11.863538877768239"><ele>97.0</ele><time>2026-04-19T11:57:29Z</time></trkpt><trkpt lat="42.08320200177682" lon="11.863463944513734"><ele>96.0</ele><time>2026-04-19T11:57:37Z</time></trkpt><trkpt lat="42.0831977907041" lon="11.863366481264427"><ele>95.0</ele><time>2026-04-19T11:57:53Z</time></trkpt><trkpt lat="42.08319249396028" lon="11.863277497256524"><ele>94.00000000000001</ele><time>2026-04-19T11:57:58Z</time></trkpt><trkpt lat="42.083194813959096" lon="11.863170854769624"><ele>93.0</ele><time>2026-04-19T11:58:03Z</time></trkpt><trkpt lat="42.08317425980321" lon="11.86308076694188"><ele>93.0</ele><time>2026-04-19T11:58:08Z</time></trkpt><trkpt lat="42.08318947092806" lon="11.862998050125276"><ele>93.0</ele><time>2026-04-19T11:58:12Z</time></trkpt><trkpt lat="42.083193260981794" lon="11.862874639423158"><ele>93.0</ele><time>2026-04-19T11:58:16Z</time></trkpt><trkpt lat="42.083182108989156" lon="11.862744379364187"><ele>93.0</ele><time>2026-04-19T11:58:19Z</time></trkpt><trkpt lat="42.083180022822965" lon="11.862642095702096"><ele>93.0</ele><time>2026-04-19T11:58:21Z</time></trkpt><trkpt lat="42.08323192142878" lon="11.86258955329962"><ele>93.0</ele><time>2026-04-19T11:58:25Z</time></trkpt><trkpt lat="42.083298798564236" lon="11.862561637618173"><ele>96.5</ele><time>2026-04-19T11:58:28Z</time></trkpt><trkpt lat="42.0833578015518" lon="11.862519451130547"><ele>100.0</ele><time>2026-04-19T11:58:30Z</time></trkpt><trkpt lat="42.083447908862865" lon="11.86248357435208"><ele>103.5</ele><time>2026-04-19T11:58:33Z</time></trkpt><trkpt lat="42.083524210079155" lon="11.862450416929201"><ele>107.0</ele><time>2026-04-19T11:58:36Z</time></trkpt><trkpt lat="42.08359784021463" lon="11.862400961751197"><ele>110.5</ele><time>2026-04-19T11:58:39Z</time></trkpt><trkpt lat="42.08363867167718" lon="11.862295130795841"><ele>114.0</ele><time>2026-04-19T11:58:42Z</time></trkpt><trkpt lat="42.08369020940205" lon="11.862246279566886"><ele>114.0</ele><time>2026-04-19T11:58:45Z</time></trkpt><trkpt lat="42.08376141336193" lon="11.862221683469194"><ele>113.99999999999999</ele><time>2026-04-19T11:58:50Z</time></trkpt><trkpt lat="42.08383443333053" lon="11.862217089069937"><ele>114.0</ele><time>2026-04-19T11:58:54Z</time></trkpt><trkpt lat="42.08390413326679" lon="11.862192512320302"><ele>114.0</ele><time>2026-04-19T11:58:58Z</time></trkpt><trkpt lat="42.08396366817793" lon="11.862142006723468"><ele>113.99999999999999</ele><time>2026-04-19T11:59:01Z</time></trkpt><trkpt lat="42.084023106742876" lon="11.862073290747905"><ele>114.0</ele><time>2026-04-19T11:59:05Z</time></trkpt><trkpt lat="42.08408703522104" lon="11.862029946843606"><ele>114.0</ele><time>2026-04-19T11:59:09Z</time></trkpt><trkpt lat="42.084156328500114" lon="11.862028655550109"><ele>115.5</ele><time>2026-04-19T11:59:13Z</time></trkpt><trkpt lat="42.084232405839245" lon="11.862071224939623"><ele>117.0</ele><time>2026-04-19T11:59:17Z</time></trkpt><trkpt lat="42.084311473784034" lon="11.862103207697759"><ele>118.5</ele><time>2026-04-19T11:59:21Z</time></trkpt><trkpt lat="42.0843776501442" lon="11.862140298008716"><ele>120.0</ele><time>2026-04-19T11:59:24Z</time></trkpt><trkpt lat="42.0844417082028" lon="11.862156549808715"><ele>121.5</ele><time>2026-04-19T11:59:27Z</time></trkpt><trkpt lat="42.084504991985604" lon="11.862174719109637"><ele>123.0</ele><time>2026-04-19T11:59:30Z</time></trkpt><trkpt lat="42.084581984611106" lon="11.862221524697869"><ele>123.0</ele><time>2026-04-19T11:59:33Z</time></trkpt><trkpt lat="42.0846638091391" lon="11.862279277993489"><ele>123.0</ele><time>2026-04-19T11:59:36Z</time></trkpt><trkpt lat="42.08473214582352" lon="11.862354105272663"><ele>123.0</ele><time>2026-04-19T11:59:39Z</time></trkpt><trkpt lat="42.08480363728353" lon="11.862413187533722"><ele>123.0</ele><time>2026-04-19T11:59:42Z</time></trkpt><trkpt lat="42.084893173078314" lon="11.86241793484358"><ele>123.0</ele><time>2026-04-19T11:59:45Z</time></trkpt><trkpt lat="42.0849789210969" lon="11.8623969852902"><ele>123.0</ele><time>2026-04-19T11:59:48Z</time></trkpt><trkpt lat="42.08505494096929" lon="11.862404527930263"><ele>123.85714285714288</ele><time>2026-04-19T11:59:51Z</time></trkpt><trkpt lat="42.08511904155674" lon="11.862434194559839"><ele>124.71428571428572</ele><time>2026-04-19T11:59:54Z</time></trkpt><trkpt lat="42.08518206885018" lon="11.862464816044701"><ele>125.57142857142857</ele><time>2026-04-19T11:59:57Z</time></trkpt><trkpt lat="42.085251951805574" lon="11.86248255733332"><ele>126.42857142857143</ele><time>2026-04-19T12:00:00Z</time></trkpt><trkpt lat="42.085312910047676" lon="11.862510980856078"><ele>127.28571428571428</ele><time>2026-04-19T12:00:03Z</time></trkpt><trkpt lat="42.085368479584446" lon="11.862557149574364"><ele>128.14285714285714</ele><time>2026-04-19T12:00:06Z</time></trkpt><trkpt lat="42.08541740878583" lon="11.862616375034195"><ele>129.0</ele><time>2026-04-19T12:00:09Z</time></trkpt><trkpt lat="42.08545508768389" lon="11.862697915482503"><ele>129.0</ele><time>2026-04-19T12:00:12Z</time></trkpt><trkpt lat="42.08551367169468" lon="11.862765354213494"><ele>129.0</ele><time>2026-04-19T12:00:15Z</time></trkpt><trkpt lat="42.08558015385424" lon="11.862783962577426"><ele>129.0</ele><time>2026-04-19T12:00:18Z</time></trkpt><trkpt lat="42.08565263367699" lon="11.862776213677346"><ele>129.0</ele><time>2026-04-19T12:00:21Z</time></trkpt><trkpt lat="42.085736413234024" lon="11.862772037154352"><ele>129.0</ele><time>2026-04-19T12:00:25Z</time></trkpt><trkpt lat="42.085816731978156" lon="11.86277658783337"><ele>129.0</ele><time>2026-04-19T12:00:30Z</time></trkpt><trkpt lat="42.08589686325818" lon="11.862786533670137"><ele>130.28571428571428</ele><time>2026-04-19T12:00:34Z</time></trkpt><trkpt lat="42.08596638548563" lon="11.862782813469776"><ele>131.57142857142856</ele><time>2026-04-19T12:00:38Z</time></trkpt><trkpt lat="42.086034769406176" lon="11.862765508959166"><ele>132.85714285714286</ele><time>2026-04-19T12:00:42Z</time></trkpt><trkpt lat="42.08609555110189" lon="11.862714233053241"><ele>134.14285714285714</ele><time>2026-04-19T12:00:45Z</time></trkpt><trkpt lat="42.08614860933398" lon="11.862668504323272"><ele>135.42857142857144</ele><time>2026-04-19T12:00:49Z</time></trkpt><trkpt lat="42.08621131225281" lon="11.862715631251987"><ele>136.71428571428572</ele><time>2026-04-19T12:00:53Z</time></trkpt><trkpt lat="42.086184300543486" lon="11.862613276792743"><ele>138.0</ele><time>2026-04-19T12:04:05Z</time></trkpt><trkpt lat="42.086205249930664" lon="11.862525646904986"><ele>138.57142857142858</ele><time>2026-04-19T12:04:09Z</time></trkpt><trkpt lat="42.0862238698464" lon="11.862427627808165"><ele>139.14285714285717</ele><time>2026-04-19T12:04:13Z</time></trkpt><trkpt lat="42.08624010149003" lon="11.862338191883952"><ele>139.71428571428572</ele><time>2026-04-19T12:04:16Z</time></trkpt><trkpt lat="42.08624470839576" lon="11.862252723282998"><ele>140.28571428571428</ele><time>2026-04-19T12:04:19Z</time></trkpt><trkpt lat="42.086259492817746" lon="11.862155259102812"><ele>140.85714285714283</ele><time>2026-04-19T12:04:22Z</time></trkpt><trkpt lat="42.086271211897035" lon="11.862051971214406"><ele>141.42857142857142</ele><time>2026-04-19T12:04:25Z</time></trkpt><trkpt lat="42.086268957887526" lon="11.86194920417392"><ele>142.0</ele><time>2026-04-19T12:04:28Z</time></trkpt><trkpt lat="42.08625574243999" lon="11.861828383412266"><ele>143.5</ele><time>2026-04-19T12:04:31Z</time></trkpt><trkpt lat="42.086240826977864" lon="11.861744220283391"><ele>145.0</ele><time>2026-04-19T12:04:33Z</time></trkpt><trkpt lat="42.08619698097406" lon="11.861638148909996"><ele>146.5</ele><time>2026-04-19T12:04:36Z</time></trkpt><trkpt lat="42.08614905220613" lon="11.861535756220372"><ele>148.0</ele><time>2026-04-19T12:04:39Z</time></trkpt><trkpt lat="42.086096604121465" lon="11.86145554256731"><ele>149.5</ele><time>2026-04-19T12:04:42Z</time></trkpt><trkpt lat="42.08603194990318" lon="11.861377725686072"><ele>151.0</ele><time>2026-04-19T12:04:46Z</time></trkpt><trkpt lat="42.0859742740542" lon="11.861283076430196"><ele>151.0</ele><time>2026-04-19T12:04:49Z</time></trkpt><trkpt lat="42.08593363487936" lon="11.861210805731359"><ele>151.0</ele><time>2026-04-19T12:04:51Z</time></trkpt><trkpt lat="42.08588614034261" lon="11.861103710107205"><ele>151.0</ele><time>2026-04-19T12:04:54Z</time></trkpt><trkpt lat="42.08582428170449" lon="11.86101181721211"><ele>151.0</ele><time>2026-04-19T12:04:57Z</time></trkpt><trkpt lat="42.08577739108976" lon="11.860947177418925"><ele>151.0</ele><time>2026-04-19T12:04:59Z</time></trkpt><trkpt lat="42.08572847308374" lon="11.860889316263437"><ele>151.0</ele><time>2026-04-19T12:05:01Z</time></trkpt><trkpt lat="42.08566999167392" lon="11.860813649656016"><ele>151.71428571428572</ele><time>2026-04-19T12:05:04Z</time></trkpt><trkpt lat="42.08563470465657" lon="11.860730032335262"><ele>152.42857142857144</ele><time>2026-04-19T12:05:07Z</time></trkpt><trkpt lat="42.085589131989884" lon="11.860642789897314"><ele>153.14285714285717</ele><time>2026-04-19T12:05:11Z</time></trkpt><trkpt lat="42.08554346222905" lon="11.860575951622495"><ele>153.85714285714286</ele><time>2026-04-19T12:05:14Z</time></trkpt><trkpt lat="42.085497276528386" lon="11.860515201373138"><ele>154.57142857142856</ele><time>2026-04-19T12:05:17Z</time></trkpt><trkpt lat="42.08545108225803" lon="11.860440057884292"><ele>155.2857142857143</ele><time>2026-04-19T12:05:20Z</time></trkpt><trkpt lat="42.08540226861324" lon="11.860375751904298"><ele>156.0</ele><time>2026-04-19T12:05:23Z</time></trkpt><trkpt lat="42.085337936532206" lon="11.860317925246616"><ele>156.0</ele><time>2026-04-19T12:05:27Z</time></trkpt><trkpt lat="42.08526670743525" lon="11.860275608889609"><ele>156.0</ele><time>2026-04-19T12:05:30Z</time></trkpt><trkpt lat="42.08518449204148" lon="11.860253074005264"><ele>156.0</ele><time>2026-04-19T12:05:33Z</time></trkpt><trkpt lat="42.085094984427236" lon="11.860241028174114"><ele>156.0</ele><time>2026-04-19T12:05:36Z</time></trkpt><trkpt lat="42.08500538302851" lon="11.8602286207883"><ele>156.0</ele><time>2026-04-19T12:05:39Z</time></trkpt><trkpt lat="42.08492207870696" lon="11.860211046122908"><ele>156.0</ele><time>2026-04-19T12:05:42Z</time></trkpt><trkpt lat="42.084849931743484" lon="11.860196437964232"><ele>154.0</ele><time>2026-04-19T12:05:45Z</time></trkpt><trkpt lat="42.08477918620656" lon="11.860158101136314"><ele>152.0</ele><time>2026-04-19T12:05:48Z</time></trkpt><trkpt lat="42.08469464056341" lon="11.860137284279238"><ele>150.0</ele><time>2026-04-19T12:05:51Z</time></trkpt><trkpt lat="42.08461721590875" lon="11.86011794166884"><ele>148.0</ele><time>2026-04-19T12:05:54Z</time></trkpt><trkpt lat="42.084544211741765" lon="11.860087029338231"><ele>146.0</ele><time>2026-04-19T12:05:57Z</time></trkpt><trkpt lat="42.084477648101135" lon="11.860061989532275"><ele>144.0</ele><time>2026-04-19T12:06:00Z</time></trkpt><trkpt lat="42.08442506948607" lon="11.859975671833794"><ele>148.0</ele><time>2026-04-19T12:06:04Z</time></trkpt><trkpt lat="42.08440463469649" lon="11.859870746694707"><ele>152.0</ele><time>2026-04-19T12:06:08Z</time></trkpt><trkpt lat="42.08439908460091" lon="11.859752565292379"><ele>156.0</ele><time>2026-04-19T12:06:12Z</time></trkpt><trkpt lat="42.084394491773295" lon="11.859645370385545"><ele>160.0</ele><time>2026-04-19T12:06:15Z</time></trkpt><trkpt lat="42.084378612636336" lon="11.859539328557068"><ele>164.0</ele><time>2026-04-19T12:06:18Z</time></trkpt><trkpt lat="42.0843595878007" lon="11.85943916371134"><ele>168.0</ele><time>2026-04-19T12:06:21Z</time></trkpt><trkpt lat="42.084332118569016" lon="11.859335842705079"><ele>167.16666666666666</ele><time>2026-04-19T12:06:24Z</time></trkpt><trkpt lat="42.08427448702529" lon="11.859249456743276"><ele>166.33333333333334</ele><time>2026-04-19T12:06:27Z</time></trkpt><trkpt lat="42.08422065619114" lon="11.859150633229"><ele>165.5</ele><time>2026-04-19T12:06:30Z</time></trkpt><trkpt lat="42.08417343632795" lon="11.859078995857532"><ele>164.66666666666669</ele><time>2026-04-19T12:06:32Z</time></trkpt><trkpt lat="42.08412014456332" lon="11.859015327492799"><ele>163.83333333333334</ele><time>2026-04-19T12:06:34Z</time></trkpt><trkpt lat="42.08407053548618" lon="11.858954183251738"><ele>163.0</ele><time>2026-04-19T12:06:36Z</time></trkpt><trkpt lat="42.08402577500451" lon="11.858890044921196"><ele>163.0</ele><time>2026-04-19T12:06:38Z</time></trkpt><trkpt lat="42.08395640681938" lon="11.85881955510263"><ele>163.0</ele><time>2026-04-19T12:06:41Z</time></trkpt><trkpt lat="42.08388744866356" lon="11.858775711201261"><ele>163.0</ele><time>2026-04-19T12:06:44Z</time></trkpt><trkpt lat="42.08384874242236" lon="11.858702651123142"><ele>163.0</ele><time>2026-04-19T12:06:47Z</time></trkpt><trkpt lat="42.08385505298388" lon="11.858610195367682"><ele>163.0</ele><time>2026-04-19T12:06:50Z</time></trkpt><trkpt lat="42.083879619857115" lon="11.858519033963477"><ele>163.0</ele><time>2026-04-19T12:06:53Z</time></trkpt><trkpt lat="42.083914914520605" lon="11.858441478049613"><ele>163.0</ele><time>2026-04-19T12:06:56Z</time></trkpt><trkpt lat="42.083960926548485" lon="11.85834754389561"><ele>164.83333333333334</ele><time>2026-04-19T12:07:00Z</time></trkpt><trkpt lat="42.083987284130785" lon="11.858268324316047"><ele>166.66666666666669</ele><time>2026-04-19T12:07:03Z</time></trkpt><trkpt lat="42.08403775148034" lon="11.85818675046746"><ele>168.5</ele><time>2026-04-19T12:07:06Z</time></trkpt><trkpt lat="42.084082565154084" lon="11.858111155058163"><ele>170.33333333333334</ele><time>2026-04-19T12:07:09Z</time></trkpt><trkpt lat="42.08413674074986" lon="11.858022711208172"><ele>172.16666666666666</ele><time>2026-04-19T12:07:13Z</time></trkpt><trkpt lat="42.084178296819445" lon="11.857944513762504"><ele>174.0</ele><time>2026-04-19T12:07:16Z</time></trkpt><trkpt lat="42.08423420185323" lon="11.85784860463849"><ele>178.33333333333334</ele><time>2026-04-19T12:07:19Z</time></trkpt><trkpt lat="42.084282988041885" lon="11.857761884704317"><ele>182.66666666666669</ele><time>2026-04-19T12:07:21Z</time></trkpt><trkpt lat="42.08432242278582" lon="11.857685325153643"><ele>187.0</ele><time>2026-04-19T12:07:23Z</time></trkpt><trkpt lat="42.084347857016745" lon="11.857578563159759"><ele>191.33333333333334</ele><time>2026-04-19T12:07:26Z</time></trkpt><trkpt lat="42.08430412566138" lon="11.857468458713697"><ele>195.66666666666669</ele><time>2026-04-19T12:07:28Z</time></trkpt><trkpt lat="42.084226794223326" lon="11.857445644773067"><ele>200.0</ele><time>2026-04-19T12:07:30Z</time></trkpt><trkpt lat="42.08415898727326" lon="11.85745423745483"><ele>198.83333333333334</ele><time>2026-04-19T12:07:32Z</time></trkpt><trkpt lat="42.08406969904925" lon="11.857448168996683"><ele>197.66666666666669</ele><time>2026-04-19T12:07:35Z</time></trkpt><trkpt lat="42.08397282682585" lon="11.857418265346464"><ele>196.5</ele><time>2026-04-19T12:07:38Z</time></trkpt><trkpt lat="42.0838952884091" lon="11.857406897194771"><ele>195.33333333333331</ele><time>2026-04-19T12:07:40Z</time></trkpt><trkpt lat="42.08382734694686" lon="11.857368289922137"><ele>194.16666666666666</ele><time>2026-04-19T12:07:42Z</time></trkpt><trkpt lat="42.08373082476105" lon="11.857331892433397"><ele>193.0</ele><time>2026-04-19T12:07:45Z</time></trkpt><trkpt lat="42.08365870579626" lon="11.857328150347454"><ele>193.00000000000003</ele><time>2026-04-19T12:07:47Z</time></trkpt><trkpt lat="42.083593593312074" lon="11.85731998134977"><ele>193.0</ele><time>2026-04-19T12:07:49Z</time></trkpt><trkpt lat="42.083531402933396" lon="11.857305228183838"><ele>193.0</ele><time>2026-04-19T12:07:51Z</time></trkpt><trkpt lat="42.08347230817293" lon="11.857270349635662"><ele>193.0</ele><time>2026-04-19T12:07:53Z</time></trkpt><trkpt lat="42.08340337789583" lon="11.857203721861236"><ele>193.0</ele><time>2026-04-19T12:07:56Z</time></trkpt><trkpt lat="42.083335635139285" lon="11.857160024905868"><ele>193.00000000000003</ele><time>2026-04-19T12:07:59Z</time></trkpt><trkpt lat="42.08327092710497" lon="11.85709658970067"><ele>193.0</ele><time>2026-04-19T12:08:02Z</time></trkpt><trkpt lat="42.083204078565686" lon="11.857023962552176"><ele>192.99999999999997</ele><time>2026-04-19T12:08:05Z</time></trkpt><trkpt lat="42.0831496395281" lon="11.856979277647078"><ele>193.0</ele><time>2026-04-19T12:08:07Z</time></trkpt><trkpt lat="42.0830679741216" lon="11.856910455025261"><ele>193.0</ele><time>2026-04-19T12:08:10Z</time></trkpt><trkpt lat="42.08301092639001" lon="11.856867028063212"><ele>193.0</ele><time>2026-04-19T12:08:12Z</time></trkpt><trkpt lat="42.08296861753024" lon="11.856803551966449"><ele>192.99999999999997</ele><time>2026-04-19T12:08:14Z</time></trkpt><trkpt lat="42.08290613112058" lon="11.856713194951453"><ele>193.0</ele><time>2026-04-19T12:08:17Z</time></trkpt><trkpt lat="42.082865699760866" lon="11.856600757644324"><ele>192.99999999999997</ele><time>2026-04-19T12:08:20Z</time></trkpt><trkpt lat="42.08283168273808" lon="11.856493496874544"><ele>193.0</ele><time>2026-04-19T12:08:23Z</time></trkpt><trkpt lat="42.08280317613545" lon="11.856378023126416"><ele>193.0</ele><time>2026-04-19T12:08:26Z</time></trkpt><trkpt lat="42.082784152198634" lon="11.856263294961911"><ele>193.0</ele><time>2026-04-19T12:08:29Z</time></trkpt><trkpt lat="42.0827645517592" lon="11.856162142228005"><ele>192.99999999999997</ele><time>2026-04-19T12:08:32Z</time></trkpt><trkpt lat="42.08276102430873" lon="11.856056023061587"><ele>193.0</ele><time>2026-04-19T12:08:35Z</time></trkpt><trkpt lat="42.08277100189216" lon="11.855950283838421"><ele>193.99999999999997</ele><time>2026-04-19T12:08:38Z</time></trkpt><trkpt lat="42.08280025889762" lon="11.855849705015741"><ele>195.0</ele><time>2026-04-19T12:08:41Z</time></trkpt><trkpt lat="42.08284376945369" lon="11.855765632133627"><ele>196.0</ele><time>2026-04-19T12:08:44Z</time></trkpt><trkpt lat="42.08288800629135" lon="11.855672907107623"><ele>197.0</ele><time>2026-04-19T12:08:47Z</time></trkpt><trkpt lat="42.08292774849797" lon="11.855582446038815"><ele>197.99999999999997</ele><time>2026-04-19T12:08:50Z</time></trkpt><trkpt lat="42.08296166876743" lon="11.85546955089712"><ele>199.0</ele><time>2026-04-19T12:08:53Z</time></trkpt><trkpt lat="42.082989815067236" lon="11.855384058321619"><ele>198.99999999999997</ele><time>2026-04-19T12:08:55Z</time></trkpt><trkpt lat="42.083018623647405" lon="11.855290970103228"><ele>199.0</ele><time>2026-04-19T12:08:57Z</time></trkpt><trkpt lat="42.083045454151325" lon="11.855198673969001"><ele>199.0</ele><time>2026-04-19T12:08:59Z</time></trkpt><trkpt lat="42.083070193459456" lon="11.855104318336082"><ele>199.0</ele><time>2026-04-19T12:09:01Z</time></trkpt><trkpt lat="42.08310371764976" lon="11.854991177022885"><ele>198.99999999999997</ele><time>2026-04-19T12:09:04Z</time></trkpt><trkpt lat="42.08310963518652" lon="11.854901592880532"><ele>199.0</ele><time>2026-04-19T12:09:06Z</time></trkpt><trkpt lat="42.08309486487946" lon="11.854777937289832"><ele>199.83333333333331</ele><time>2026-04-19T12:09:09Z</time></trkpt><trkpt lat="42.0830994730557" lon="11.854671482940267"><ele>200.66666666666666</ele><time>2026-04-19T12:09:12Z</time></trkpt><trkpt lat="42.083109819392156" lon="11.854545860638682"><ele>201.5</ele><time>2026-04-19T12:09:15Z</time></trkpt><trkpt lat="42.083103597606346" lon="11.854424396068366"><ele>202.33333333333331</ele><time>2026-04-19T12:09:18Z</time></trkpt><trkpt lat="42.08311735036085" lon="11.854305684746581"><ele>203.16666666666666</ele><time>2026-04-19T12:09:21Z</time></trkpt><trkpt lat="42.08314255538353" lon="11.854192239947855"><ele>204.0</ele><time>2026-04-19T12:09:24Z</time></trkpt><trkpt lat="42.08315662437343" lon="11.854087769717895"><ele>205.83333333333334</ele><time>2026-04-19T12:09:27Z</time></trkpt><trkpt lat="42.08316734105365" lon="11.853980911818308"><ele>207.66666666666669</ele><time>2026-04-19T12:09:30Z</time></trkpt><trkpt lat="42.08318317369348" lon="11.853892399733532"><ele>209.5</ele><time>2026-04-19T12:09:32Z</time></trkpt><trkpt lat="42.08320203566855" lon="11.853783649489257"><ele>211.33333333333334</ele><time>2026-04-19T12:09:35Z</time></trkpt><trkpt lat="42.08323212633023" lon="11.853697520184776"><ele>213.16666666666669</ele><time>2026-04-19T12:09:38Z</time></trkpt><trkpt lat="42.083263066238054" lon="11.853605416383049"><ele>215.0</ele><time>2026-04-19T12:09:41Z</time></trkpt><trkpt lat="42.08327617883576" lon="11.853494271234513"><ele>216.16666666666669</ele><time>2026-04-19T12:09:45Z</time></trkpt><trkpt lat="42.083240274603114" lon="11.85342317164959"><ele>217.33333333333334</ele><time>2026-04-19T12:09:53Z</time></trkpt><trkpt lat="42.08324794082841" lon="11.85333762680274"><ele>218.5</ele><time>2026-04-19T12:10:01.001Z</time></trkpt><trkpt lat="42.083259153944006" lon="11.853251091780153"><ele>219.66666666666669</ele><time>2026-04-19T12:10:03.001Z</time></trkpt><trkpt lat="42.083256800217065" lon="11.853134815641146"><ele>220.83333333333334</ele><time>2026-04-19T12:10:05.001Z</time></trkpt><trkpt lat="42.08322453941978" lon="11.853020674486677"><ele>222.0</ele><time>2026-04-19T12:10:07.001Z</time></trkpt><trkpt lat="42.08317943343689" lon="11.852912912751943"><ele>222.0</ele><time>2026-04-19T12:10:09.001Z</time></trkpt><trkpt lat="42.08312561574539" lon="11.852807976131805"><ele>222.0</ele><time>2026-04-19T12:10:11.001Z</time></trkpt><trkpt lat="42.08306594008668" lon="11.85270212782543"><ele>222.0</ele><time>2026-04-19T12:10:13.001Z</time></trkpt><trkpt lat="42.08301534706964" lon="11.85259816697512"><ele>222.0</ele><time>2026-04-19T12:10:15.001Z</time></trkpt><trkpt lat="42.08297466969738" lon="11.85248870429648"><ele>222.0</ele><time>2026-04-19T12:10:17.001Z</time></trkpt><trkpt lat="42.08292472658137" lon="11.852390334617194"><ele>221.33333333333334</ele><time>2026-04-19T12:10:19.001Z</time></trkpt><trkpt lat="42.082871682620336" lon="11.852292706421848"><ele>220.66666666666669</ele><time>2026-04-19T12:10:21.001Z</time></trkpt><trkpt lat="42.082818854467426" lon="11.852201565156685"><ele>220.0</ele><time>2026-04-19T12:10:23.001Z</time></trkpt><trkpt lat="42.08277068975022" lon="11.852106579536958"><ele>219.33333333333334</ele><time>2026-04-19T12:10:25.001Z</time></trkpt><trkpt lat="42.08271383957028" lon="11.852018089510413"><ele>218.66666666666669</ele><time>2026-04-19T12:10:27.001Z</time></trkpt><trkpt lat="42.082667428170915" lon="11.851926899589499"><ele>218.0</ele><time>2026-04-19T12:10:29.001Z</time></trkpt><trkpt lat="42.08262544346563" lon="11.851819045478024"><ele>217.50000000000003</ele><time>2026-04-19T12:10:31.001Z</time></trkpt><trkpt lat="42.08257057223671" lon="11.851731951466814"><ele>217.0</ele><time>2026-04-19T12:10:33.001Z</time></trkpt><trkpt lat="42.08252178729701" lon="11.851645128572768"><ele>216.5</ele><time>2026-04-19T12:10:35.001Z</time></trkpt><trkpt lat="42.0824544055085" lon="11.85155908982446"><ele>216.0</ele><time>2026-04-19T12:10:37.001Z</time></trkpt><trkpt lat="42.08239441692703" lon="11.851478726079224"><ele>215.50000000000003</ele><time>2026-04-19T12:10:39.001Z</time></trkpt><trkpt lat="42.0823390978047" lon="11.85140639587089"><ele>215.0</ele><time>2026-04-19T12:10:41.001Z</time></trkpt><trkpt lat="42.082265064517685" lon="11.851342570273307"><ele>215.00000000000003</ele><time>2026-04-19T12:10:43.001Z</time></trkpt><trkpt lat="42.08218639993015" lon="11.851276998455955"><ele>215.0</ele><time>2026-04-19T12:10:45.001Z</time></trkpt><trkpt lat="42.082103395120065" lon="11.85121227431542"><ele>215.0</ele><time>2026-04-19T12:10:47.001Z</time></trkpt><trkpt lat="42.082037631355334" lon="11.85117108219042"><ele>215.0</ele><time>2026-04-19T12:10:49.001Z</time></trkpt><trkpt lat="42.0820091215063" lon="11.851073631967438"><ele>215.00000000000003</ele><time>2026-04-19T12:10:52.001Z</time></trkpt><trkpt lat="42.08208053436969" lon="11.851034156816482"><ele>215.0</ele><time>2026-04-19T12:10:55Z</time></trkpt><trkpt lat="42.08215845819154" lon="11.851082402492688"><ele>215.00000000000003</ele><time>2026-04-19T12:10:58Z</time></trkpt><trkpt lat="42.08223502349335" lon="11.85110277254282"><ele>215.0</ele><time>2026-04-19T12:11:01Z</time></trkpt><trkpt lat="42.0823167882552" lon="11.851140722895277"><ele>215.0</ele><time>2026-04-19T12:11:04Z</time></trkpt><trkpt lat="42.08240239193122" lon="11.851166314529857"><ele>215.0</ele><time>2026-04-19T12:11:07Z</time></trkpt><trkpt lat="42.08249370078103" lon="11.851191074831"><ele>215.00000000000003</ele><time>2026-04-19T12:11:10Z</time></trkpt><trkpt lat="42.08258234395163" lon="11.851232162268584"><ele>215.0</ele><time>2026-04-19T12:11:13Z</time></trkpt><trkpt lat="42.082653019797" lon="11.851250019098723"><ele>216.66666666666669</ele><time>2026-04-19T12:11:15Z</time></trkpt><trkpt lat="42.082722987528165" lon="11.851273287383544"><ele>218.33333333333334</ele><time>2026-04-19T12:11:17Z</time></trkpt><trkpt lat="42.08279218241321" lon="11.851296824156321"><ele>220.0</ele><time>2026-04-19T12:11:19Z</time></trkpt><trkpt lat="42.08287408807884" lon="11.851321306279221"><ele>221.66666666666669</ele><time>2026-04-19T12:11:21Z</time></trkpt><trkpt lat="42.082954004386885" lon="11.851352038392756"><ele>223.33333333333334</ele><time>2026-04-19T12:11:23Z</time></trkpt><trkpt lat="42.08302732479873" lon="11.851379632941642"><ele>225.0</ele><time>2026-04-19T12:11:25Z</time></trkpt><trkpt lat="42.08309738937097" lon="11.851414374348002"><ele>225.0</ele><time>2026-04-19T12:11:27Z</time></trkpt><trkpt lat="42.083174045953044" lon="11.851444616973952"><ele>225.0</ele><time>2026-04-19T12:11:29Z</time></trkpt><trkpt lat="42.083251891504915" lon="11.851490671108833"><ele>225.0</ele><time>2026-04-19T12:11:31Z</time></trkpt><trkpt lat="42.08332779228388" lon="11.851539953162664"><ele>225.0</ele><time>2026-04-19T12:11:33Z</time></trkpt><trkpt lat="42.083404716451895" lon="11.85160670960985"><ele>225.0</ele><time>2026-04-19T12:11:35Z</time></trkpt><trkpt lat="42.08348843430071" lon="11.85167485936573"><ele>225.0</ele><time>2026-04-19T12:11:37Z</time></trkpt><trkpt lat="42.0835766055942" lon="11.851752430644623"><ele>225.6</ele><time>2026-04-19T12:11:39.001Z</time></trkpt><trkpt lat="42.08366867731378" lon="11.851838252867916"><ele>226.2</ele><time>2026-04-19T12:11:41.001Z</time></trkpt><trkpt lat="42.083768420471976" lon="11.851911889783445"><ele>226.8</ele><time>2026-04-19T12:11:43.001Z</time></trkpt><trkpt lat="42.08385581593691" lon="11.85200066955378"><ele>227.4</ele><time>2026-04-19T12:11:45.001Z</time></trkpt><trkpt lat="42.0839390314658" lon="11.852076228312816"><ele>228.0</ele><time>2026-04-19T12:11:47.001Z</time></trkpt><trkpt lat="42.08401879465735" lon="11.852135534636357"><ele>228.0</ele><time>2026-04-19T12:11:49.001Z</time></trkpt><trkpt lat="42.08408910206117" lon="11.852192144330767"><ele>227.99999999999997</ele><time>2026-04-19T12:11:51.001Z</time></trkpt><trkpt lat="42.084154452241606" lon="11.85223093854892"><ele>228.0</ele><time>2026-04-19T12:11:53.001Z</time></trkpt><trkpt lat="42.08421943665935" lon="11.852272666207469"><ele>228.0</ele><time>2026-04-19T12:11:55.001Z</time></trkpt><trkpt lat="42.08428355730283" lon="11.852306001849538"><ele>227.99999999999997</ele><time>2026-04-19T12:11:57.001Z</time></trkpt><trkpt lat="42.0843453483463" lon="11.852341917279114"><ele>228.0</ele><time>2026-04-19T12:11:59.001Z</time></trkpt><trkpt lat="42.08440426251345" lon="11.852377494466149"><ele>228.0</ele><time>2026-04-19T12:12:01.001Z</time></trkpt><trkpt lat="42.084466540400385" lon="11.852423746654416"><ele>229.0</ele><time>2026-04-19T12:12:03.001Z</time></trkpt><trkpt lat="42.08453621915465" lon="11.852452940843705"><ele>229.99999999999997</ele><time>2026-04-19T12:12:05.001Z</time></trkpt><trkpt lat="42.084597027745794" lon="11.852503898420713"><ele>231.0</ele><time>2026-04-19T12:12:07.001Z</time></trkpt><trkpt lat="42.08465658814503" lon="11.85255499238335"><ele>232.0</ele><time>2026-04-19T12:12:09.001Z</time></trkpt><trkpt lat="42.0847208918356" lon="11.852590087973649"><ele>232.99999999999997</ele><time>2026-04-19T12:12:11.001Z</time></trkpt><trkpt lat="42.084779724179064" lon="11.852626066009282"><ele>234.0</ele><time>2026-04-19T12:12:13.001Z</time></trkpt><trkpt lat="42.084840923047494" lon="11.852658079359916"><ele>235.0</ele><time>2026-04-19T12:12:15.001Z</time></trkpt><trkpt lat="42.08490046744216" lon="11.852690222579012"><ele>236.66666666666666</ele><time>2026-04-19T12:12:17.001Z</time></trkpt><trkpt lat="42.08498962257054" lon="11.852731510806333"><ele>238.33333333333331</ele><time>2026-04-19T12:12:20.001Z</time></trkpt><trkpt lat="42.08505640724032" lon="11.852753092942995"><ele>240.0</ele><time>2026-04-19T12:12:22.001Z</time></trkpt><trkpt lat="42.08512255346845" lon="11.852773591464858"><ele>241.66666666666669</ele><time>2026-04-19T12:12:24.001Z</time></trkpt><trkpt lat="42.08519306288857" lon="11.852772652905138"><ele>243.33333333333334</ele><time>2026-04-19T12:12:26.001Z</time></trkpt><trkpt lat="42.0852680118541" lon="11.85276135624724"><ele>245.0</ele><time>2026-04-19T12:12:28.001Z</time></trkpt><trkpt lat="42.08534017725512" lon="11.852727908726589"><ele>245.00000000000003</ele><time>2026-04-19T12:12:30.001Z</time></trkpt><trkpt lat="42.08541221324044" lon="11.8526806410656"><ele>245.0</ele><time>2026-04-19T12:12:32.001Z</time></trkpt><trkpt lat="42.08548466603324" lon="11.852627682792468"><ele>245.0</ele><time>2026-04-19T12:12:34.001Z</time></trkpt><trkpt lat="42.08555605942968" lon="11.852571312686756"><ele>245.0</ele><time>2026-04-19T12:12:36.001Z</time></trkpt><trkpt lat="42.08562862151248" lon="11.852514735435035"><ele>245.00000000000003</ele><time>2026-04-19T12:12:38.001Z</time></trkpt><trkpt lat="42.08570220738017" lon="11.852462696826587"><ele>245.0</ele><time>2026-04-19T12:12:40.001Z</time></trkpt><trkpt lat="42.08577903279651" lon="11.852416044065382"><ele>246.50000000000003</ele><time>2026-04-19T12:12:42.001Z</time></trkpt><trkpt lat="42.08585489167447" lon="11.852370798419663"><ele>248.0</ele><time>2026-04-19T12:12:44.001Z</time></trkpt><trkpt lat="42.08593234204123" lon="11.852335054027446"><ele>249.5</ele><time>2026-04-19T12:12:46.001Z</time></trkpt><trkpt lat="42.08600728215092" lon="11.852302331634485"><ele>251.0</ele><time>2026-04-19T12:12:48.001Z</time></trkpt><trkpt lat="42.08607942788103" lon="11.852266339629852"><ele>252.50000000000003</ele><time>2026-04-19T12:12:50.001Z</time></trkpt><trkpt lat="42.086143263069815" lon="11.85224084140308"><ele>254.0</ele><time>2026-04-19T12:12:52.001Z</time></trkpt><trkpt lat="42.086208260363996" lon="11.852205769337651"><ele>254.00000000000003</ele><time>2026-04-19T12:12:54.001Z</time></trkpt><trkpt lat="42.086295137857235" lon="11.85216959614441"><ele>254.0</ele><time>2026-04-19T12:12:57.001Z</time></trkpt><trkpt lat="42.08637770910542" lon="11.852119389940937"><ele>254.0</ele><time>2026-04-19T12:13:00.001Z</time></trkpt><trkpt lat="42.08645759431352" lon="11.852100107529184"><ele>254.0</ele><time>2026-04-19T12:13:03.001Z</time></trkpt><trkpt lat="42.08653928718484" lon="11.852051820226889"><ele>254.00000000000003</ele><time>2026-04-19T12:13:06.001Z</time></trkpt><trkpt lat="42.086625219976604" lon="11.852017411551337"><ele>254.0</ele><time>2026-04-19T12:13:09.001Z</time></trkpt><trkpt lat="42.08670827305983" lon="11.851982870257723"><ele>255.66666666666669</ele><time>2026-04-19T12:13:12.001Z</time></trkpt><trkpt lat="42.0867887025701" lon="11.851933469622553"><ele>257.33333333333337</ele><time>2026-04-19T12:13:15Z</time></trkpt><trkpt lat="42.08686494400188" lon="11.851898045474806"><ele>259.0</ele><time>2026-04-19T12:13:18.001Z</time></trkpt><trkpt lat="42.08694058670442" lon="11.851866723715498"><ele>260.6666666666667</ele><time>2026-04-19T12:13:21.001Z</time></trkpt><trkpt lat="42.087008611049605" lon="11.851837898005485"><ele>262.3333333333333</ele><time>2026-04-19T12:13:24.001Z</time></trkpt><trkpt lat="42.0870863434704" lon="11.851803446259328"><ele>264.0</ele><time>2026-04-19T12:13:27.001Z</time></trkpt><trkpt lat="42.087158043248415" lon="11.851757701342121"><ele>265.1666666666667</ele><time>2026-04-19T12:13:30.001Z</time></trkpt><trkpt lat="42.08723338418207" lon="11.851729053689619"><ele>266.3333333333333</ele><time>2026-04-19T12:13:33.001Z</time></trkpt><trkpt lat="42.0873154672683" lon="11.851691026746995"><ele>267.5</ele><time>2026-04-19T12:13:36.001Z</time></trkpt><trkpt lat="42.087399163766634" lon="11.85164866173645"><ele>268.66666666666663</ele><time>2026-04-19T12:13:39.001Z</time></trkpt><trkpt lat="42.08748106624905" lon="11.851611329374922"><ele>269.8333333333333</ele><time>2026-04-19T12:13:42.001Z</time></trkpt><trkpt lat="42.087557815209706" lon="11.851559640131576"><ele>271.0</ele><time>2026-04-19T12:13:45.001Z</time></trkpt><trkpt lat="42.087639387612796" lon="11.851523888297024"><ele>272.3333333333333</ele><time>2026-04-19T12:13:48.001Z</time></trkpt><trkpt lat="42.087719767458466" lon="11.851502703372063"><ele>273.66666666666663</ele><time>2026-04-19T12:13:51.001Z</time></trkpt><trkpt lat="42.08780092445422" lon="11.851506065625884"><ele>275.0</ele><time>2026-04-19T12:13:54.001Z</time></trkpt><trkpt lat="42.08787900345251" lon="11.851514190277783"><ele>276.3333333333333</ele><time>2026-04-19T12:13:57.001Z</time></trkpt><trkpt lat="42.08796793904659" lon="11.851510104273274"><ele>277.6666666666667</ele><time>2026-04-19T12:14:00.001Z</time></trkpt><trkpt lat="42.0880316137849" lon="11.851506485306686"><ele>279.0</ele><time>2026-04-19T12:14:02Z</time></trkpt><trkpt lat="42.08809724260319" lon="11.851526290394617"><ele>279.0</ele><time>2026-04-19T12:14:04Z</time></trkpt><trkpt lat="42.08816109758198" lon="11.851548475984474"><ele>279.0</ele><time>2026-04-19T12:14:06Z</time></trkpt><trkpt lat="42.08822359206401" lon="11.851584327678083"><ele>279.0</ele><time>2026-04-19T12:14:08Z</time></trkpt><trkpt lat="42.08828938913102" lon="11.851618821701065"><ele>279.0</ele><time>2026-04-19T12:14:10Z</time></trkpt><trkpt lat="42.088347906992155" lon="11.851655432497648"><ele>279.0</ele><time>2026-04-19T12:14:12Z</time></trkpt><trkpt lat="42.088422501977846" lon="11.851725415297203"><ele>279.0</ele><time>2026-04-19T12:14:15Z</time></trkpt><trkpt lat="42.0884962260256" lon="11.851801102174239"><ele>279.85714285714283</ele><time>2026-04-19T12:14:18Z</time></trkpt><trkpt lat="42.08856200489444" lon="11.85188179879499"><ele>280.7142857142857</ele><time>2026-04-19T12:14:21Z</time></trkpt><trkpt lat="42.088607373795995" lon="11.851943550802375"><ele>281.57142857142856</ele><time>2026-04-19T12:14:23Z</time></trkpt><trkpt lat="42.08865904958631" lon="11.852010180207271"><ele>282.42857142857144</ele><time>2026-04-19T12:14:25Z</time></trkpt><trkpt lat="42.088713523833604" lon="11.852069203770553"><ele>283.2857142857143</ele><time>2026-04-19T12:14:27Z</time></trkpt><trkpt lat="42.08877578116005" lon="11.852126655843012"><ele>284.1428571428571</ele><time>2026-04-19T12:14:29Z</time></trkpt><trkpt lat="42.08883935182402" lon="11.8521846455361"><ele>285.0</ele><time>2026-04-19T12:14:31Z</time></trkpt><trkpt lat="42.0889030230629" lon="11.85224109505551"><ele>285.0</ele><time>2026-04-19T12:14:33Z</time></trkpt><trkpt lat="42.088962112980724" lon="11.852298344113033"><ele>285.0</ele><time>2026-04-19T12:14:35Z</time></trkpt><trkpt lat="42.08902073023402" lon="11.852357448719841"><ele>285.0</ele><time>2026-04-19T12:14:37Z</time></trkpt><trkpt lat="42.08907581819273" lon="11.852404131279252"><ele>285.0</ele><time>2026-04-19T12:14:39Z</time></trkpt><trkpt lat="42.08913317707881" lon="11.852439610419529"><ele>285.0</ele><time>2026-04-19T12:14:41Z</time></trkpt><trkpt lat="42.0892056714535" lon="11.852498561634269"><ele>285.0</ele><time>2026-04-19T12:14:44Z</time></trkpt><trkpt lat="42.0892763495346" lon="11.852507398306175"><ele>285.0</ele><time>2026-04-19T12:14:47Z</time></trkpt><trkpt lat="42.089343328094394" lon="11.852491573059488"><ele>288.0</ele><time>2026-04-19T12:15:17.999Z</time></trkpt><trkpt lat="42.08944036478968" lon="11.852456607717722"><ele>291.0</ele><time>2026-04-19T12:15:20.999Z</time></trkpt><trkpt lat="42.08952815477532" lon="11.852461674536821"><ele>294.0</ele><time>2026-04-19T12:15:22.999Z</time></trkpt><trkpt lat="42.08961779151993" lon="11.85247488256022"><ele>297.0</ele><time>2026-04-19T12:15:24.999Z</time></trkpt><trkpt lat="42.089708378768684" lon="11.852499658047181"><ele>300.0</ele><time>2026-04-19T12:15:26.999Z</time></trkpt><trkpt lat="42.08981332186897" lon="11.852510695002369"><ele>300.0</ele><time>2026-04-19T12:15:28.999Z</time></trkpt><trkpt lat="42.08992046744871" lon="11.852513777229868"><ele>300.0</ele><time>2026-04-19T12:15:30.999Z</time></trkpt><trkpt lat="42.0900215778889" lon="11.852527436228003"><ele>300.0</ele><time>2026-04-19T12:15:32.999Z</time></trkpt><trkpt lat="42.09013232016881" lon="11.85251280808366"><ele>300.0</ele><time>2026-04-19T12:15:34.999Z</time></trkpt><trkpt lat="42.090245900386144" lon="11.852489101804323"><ele>300.0</ele><time>2026-04-19T12:15:36.999Z</time></trkpt><trkpt lat="42.09036545583006" lon="11.852443446633373"><ele>300.71428571428567</ele><time>2026-04-19T12:15:38.999Z</time></trkpt><trkpt lat="42.09042895596727" lon="11.852416540455907"><ele>301.42857142857144</ele><time>2026-04-19T12:15:39.999Z</time></trkpt><trkpt lat="42.09049100260551" lon="11.852388559297971"><ele>302.1428571428571</ele><time>2026-04-19T12:15:40.999Z</time></trkpt><trkpt lat="42.09055193647139" lon="11.852350691007295"><ele>302.85714285714283</ele><time>2026-04-19T12:15:41.999Z</time></trkpt><trkpt lat="42.090612009108526" lon="11.852306342929571"><ele>303.57142857142856</ele><time>2026-04-19T12:15:42.999Z</time></trkpt><trkpt lat="42.09067054257482" lon="11.852264952648436"><ele>304.2857142857143</ele><time>2026-04-19T12:15:43.999Z</time></trkpt><trkpt lat="42.090727075455106" lon="11.852219304095048"><ele>305.0</ele><time>2026-04-19T12:15:44.999Z</time></trkpt><trkpt lat="42.09082556070363" lon="11.852116835446736"><ele>305.1666666666667</ele><time>2026-04-19T12:15:46.999Z</time></trkpt><trkpt lat="42.09088439260974" lon="11.852060207370723"><ele>305.33333333333337</ele><time>2026-04-19T12:15:47.999Z</time></trkpt><trkpt lat="42.09094304143155" lon="11.852019553329438"><ele>305.5</ele><time>2026-04-19T12:15:48.999Z</time></trkpt><trkpt lat="42.09100535047971" lon="11.85199155701457"><ele>305.6666666666667</ele><time>2026-04-19T12:15:49.999Z</time></trkpt><trkpt lat="42.09111078031886" lon="11.851931626112004"><ele>305.8333333333333</ele><time>2026-04-19T12:15:51.999Z</time></trkpt><trkpt lat="42.091223236861154" lon="11.851865236874549"><ele>306.0</ele><time>2026-04-19T12:15:53.999Z</time></trkpt><trkpt lat="42.09133122272001" lon="11.85180072419885"><ele>304.3333333333333</ele><time>2026-04-19T12:15:55.999Z</time></trkpt><trkpt lat="42.091389212732444" lon="11.851765965131158"><ele>302.6666666666667</ele><time>2026-04-19T12:15:56.999Z</time></trkpt><trkpt lat="42.09150766727135" lon="11.851699411334298"><ele>301.0</ele><time>2026-04-19T12:15:58.999Z</time></trkpt><trkpt lat="42.0915683849555" lon="11.851664220854689"><ele>299.33333333333337</ele><time>2026-04-19T12:15:59.999Z</time></trkpt><trkpt lat="42.091628832142725" lon="11.851624623506241"><ele>297.6666666666667</ele><time>2026-04-19T12:16:00.999Z</time></trkpt><trkpt lat="42.09169462148475" lon="11.851597825751695"><ele>296.0</ele><time>2026-04-19T12:16:01.999Z</time></trkpt><trkpt lat="42.09174735908348" lon="11.851546716906999"><ele>296.0</ele><time>2026-04-19T12:16:02.999Z</time></trkpt><trkpt lat="42.09180096492092" lon="11.85148048742282"><ele>296.0</ele><time>2026-04-19T12:16:04Z</time></trkpt><trkpt lat="42.09185421315607" lon="11.85140382753025"><ele>296.0</ele><time>2026-04-19T12:16:05Z</time></trkpt><trkpt lat="42.09189787089877" lon="11.851317207340152"><ele>296.0</ele><time>2026-04-19T12:16:06Z</time></trkpt><trkpt lat="42.09193840603352" lon="11.851242528121302"><ele>296.0</ele><time>2026-04-19T12:16:07Z</time></trkpt><trkpt lat="42.09198107457792" lon="11.851171374093234"><ele>296.0</ele><time>2026-04-19T12:16:08Z</time></trkpt><trkpt lat="42.09202490308912" lon="11.85108961688409"><ele>296.0</ele><time>2026-04-19T12:16:09Z</time></trkpt><trkpt lat="42.0920546136399" lon="11.850996674089838"><ele>294.33333333333337</ele><time>2026-04-19T12:16:10Z</time></trkpt><trkpt lat="42.09205926723575" lon="11.850873650153057"><ele>292.6666666666667</ele><time>2026-04-19T12:16:11Z</time></trkpt><trkpt lat="42.09206595765187" lon="11.850756600137323"><ele>291.0</ele><time>2026-04-19T12:16:12Z</time></trkpt><trkpt lat="42.09208532563278" lon="11.850660909372817"><ele>289.3333333333333</ele><time>2026-04-19T12:16:13Z</time></trkpt><trkpt lat="42.09212130142089" lon="11.850581120614837"><ele>287.66666666666663</ele><time>2026-04-19T12:16:14Z</time></trkpt><trkpt lat="42.09216984726842" lon="11.850518488139905"><ele>286.0</ele><time>2026-04-19T12:16:15Z</time></trkpt><trkpt lat="42.092228498378226" lon="11.850456554371908"><ele>286.0</ele><time>2026-04-19T12:16:16Z</time></trkpt><trkpt lat="42.092291260579394" lon="11.850400002592167"><ele>286.0</ele><time>2026-04-19T12:16:17Z</time></trkpt><trkpt lat="42.09234779891614" lon="11.850330709129075"><ele>286.0</ele><time>2026-04-19T12:16:18Z</time></trkpt><trkpt lat="42.09242212127679" lon="11.850282338329793"><ele>286.0</ele><time>2026-04-19T12:16:19Z</time></trkpt><trkpt lat="42.09249498213553" lon="11.850244441279463"><ele>286.0</ele><time>2026-04-19T12:16:20Z</time></trkpt><trkpt lat="42.09257480290112" lon="11.850218117163205"><ele>286.0</ele><time>2026-04-19T12:16:21Z</time></trkpt><trkpt lat="42.09265864455754" lon="11.850190655220487"><ele>286.6</ele><time>2026-04-19T12:16:22Z</time></trkpt><trkpt lat="42.092752841858726" lon="11.850158818699951"><ele>287.20000000000005</ele><time>2026-04-19T12:16:23Z</time></trkpt><trkpt lat="42.09284029474849" lon="11.850127822654985"><ele>287.79999999999995</ele><time>2026-04-19T12:16:24Z</time></trkpt><trkpt lat="42.0929298915972" lon="11.850103770580649"><ele>288.4</ele><time>2026-04-19T12:16:25Z</time></trkpt><trkpt lat="42.093018329917896" lon="11.85008329674772"><ele>289.0</ele><time>2026-04-19T12:16:26Z</time></trkpt><trkpt lat="42.09310190832082" lon="11.850067222149429"><ele>289.16666666666663</ele><time>2026-04-19T12:16:27Z</time></trkpt><trkpt lat="42.09318892863996" lon="11.850053670295136"><ele>289.3333333333333</ele><time>2026-04-19T12:16:28Z</time></trkpt><trkpt lat="42.09327076575827" lon="11.85004319953637"><ele>289.5</ele><time>2026-04-19T12:16:29Z</time></trkpt><trkpt lat="42.093351252799025" lon="11.850036683019008"><ele>289.6666666666667</ele><time>2026-04-19T12:16:30Z</time></trkpt><trkpt lat="42.09343182202218" lon="11.850033954288282"><ele>289.83333333333337</ele><time>2026-04-19T12:16:31Z</time></trkpt><trkpt lat="42.09350924105391" lon="11.85003021904809"><ele>290.0</ele><time>2026-04-19T12:16:32Z</time></trkpt><trkpt lat="42.09358333729305" lon="11.850023547086446"><ele>288.33333333333337</ele><time>2026-04-19T12:16:33Z</time></trkpt><trkpt lat="42.093663639745834" lon="11.850012242954651"><ele>286.6666666666667</ele><time>2026-04-19T12:16:34Z</time></trkpt><trkpt lat="42.09374530723684" lon="11.850005064350356"><ele>285.0</ele><time>2026-04-19T12:16:35Z</time></trkpt><trkpt lat="42.09383364782087" lon="11.85000434205526"><ele>283.3333333333333</ele><time>2026-04-19T12:16:36Z</time></trkpt><trkpt lat="42.0939190044952" lon="11.849999183238426"><ele>281.66666666666663</ele><time>2026-04-19T12:16:37Z</time></trkpt><trkpt lat="42.09398920669404" lon="11.849980121525856"><ele>280.0</ele><time>2026-04-19T12:16:38Z</time></trkpt><trkpt lat="42.09405978367603" lon="11.849953966508062"><ele>278.16666666666663</ele><time>2026-04-19T12:16:39Z</time></trkpt><trkpt lat="42.09411899037718" lon="11.849883389037265"><ele>276.3333333333333</ele><time>2026-04-19T12:16:40Z</time></trkpt><trkpt lat="42.09416353437272" lon="11.849797992912462"><ele>274.5</ele><time>2026-04-19T12:16:41Z</time></trkpt><trkpt lat="42.094204506950305" lon="11.849710764663628"><ele>272.6666666666667</ele><time>2026-04-19T12:16:42Z</time></trkpt><trkpt lat="42.09424387103035" lon="11.849616786357494"><ele>270.83333333333337</ele><time>2026-04-19T12:16:43Z</time></trkpt><trkpt lat="42.09427657216603" lon="11.849532655748362"><ele>269.0</ele><time>2026-04-19T12:16:44Z</time></trkpt><trkpt lat="42.094326156241245" lon="11.8493762262659"><ele>269.1666666666667</ele><time>2026-04-19T12:16:46Z</time></trkpt><trkpt lat="42.09433931637963" lon="11.849221083534506"><ele>269.33333333333337</ele><time>2026-04-19T12:16:48Z</time></trkpt><trkpt lat="42.09430325597405" lon="11.849127978717625"><ele>269.5</ele><time>2026-04-19T12:16:49Z</time></trkpt><trkpt lat="42.09422810548457" lon="11.84907119037589"><ele>269.6666666666667</ele><time>2026-04-19T12:16:50Z</time></trkpt><trkpt lat="42.09418106258158" lon="11.849009760888244"><ele>269.8333333333333</ele><time>2026-04-19T12:16:51Z</time></trkpt><trkpt lat="42.0941364100493" lon="11.8489434597964"><ele>270.0</ele><time>2026-04-19T12:16:52Z</time></trkpt><trkpt lat="42.0940565079219" lon="11.848811591520928"><ele>270.0</ele><time>2026-04-19T12:16:54Z</time></trkpt><trkpt lat="42.094014265084304" lon="11.848737284936341"><ele>270.0</ele><time>2026-04-19T12:16:55Z</time></trkpt><trkpt lat="42.093975590356635" lon="11.84865984482877"><ele>270.0</ele><time>2026-04-19T12:16:56Z</time></trkpt><trkpt lat="42.09393698513517" lon="11.848577962620395"><ele>270.0</ele><time>2026-04-19T12:16:57Z</time></trkpt><trkpt lat="42.09389764479609" lon="11.848483310363704"><ele>270.0</ele><time>2026-04-19T12:16:58Z</time></trkpt><trkpt lat="42.09386671073412" lon="11.848389428136931"><ele>270.0</ele><time>2026-04-19T12:16:59Z</time></trkpt><trkpt lat="42.09383491097315" lon="11.848284220772937"><ele>270.0</ele><time>2026-04-19T12:17:00Z</time></trkpt><trkpt lat="42.093800676364644" lon="11.848181236678368"><ele>270.0</ele><time>2026-04-19T12:17:01Z</time></trkpt><trkpt lat="42.09376592209752" lon="11.848076689483246"><ele>270.0</ele><time>2026-04-19T12:17:02Z</time></trkpt><trkpt lat="42.09373474248656" lon="11.847980839674335"><ele>270.0</ele><time>2026-04-19T12:17:03Z</time></trkpt><trkpt lat="42.09370563319584" lon="11.847885198068518"><ele>270.0</ele><time>2026-04-19T12:17:04Z</time></trkpt><trkpt lat="42.09367406996346" lon="11.847778930972629"><ele>270.0</ele><time>2026-04-19T12:17:05Z</time></trkpt><trkpt lat="42.0936343111398" lon="11.84766870798358"><ele>267.0</ele><time>2026-04-19T12:17:06Z</time></trkpt><trkpt lat="42.09358618611888" lon="11.847559729141823"><ele>264.0</ele><time>2026-04-19T12:17:07Z</time></trkpt><trkpt lat="42.09353978675735" lon="11.847455043935774"><ele>261.0</ele><time>2026-04-19T12:17:08Z</time></trkpt><trkpt lat="42.09349298633243" lon="11.847343198039052"><ele>258.0</ele><time>2026-04-19T12:17:09Z</time></trkpt><trkpt lat="42.093447078254954" lon="11.847234993324273"><ele>255.0</ele><time>2026-04-19T12:17:10Z</time></trkpt><trkpt lat="42.093395583628975" lon="11.847128075818699"><ele>255.0</ele><time>2026-04-19T12:17:11Z</time></trkpt><trkpt lat="42.09333306095228" lon="11.847019896508124"><ele>255.0</ele><time>2026-04-19T12:17:12Z</time></trkpt><trkpt lat="42.09326358494285" lon="11.846914779827133"><ele>255.0</ele><time>2026-04-19T12:17:12.999Z</time></trkpt><trkpt lat="42.093198713300744" lon="11.846818632350285"><ele>255.0</ele><time>2026-04-19T12:17:13.999Z</time></trkpt><trkpt lat="42.093129544140446" lon="11.846744995060098"><ele>255.0</ele><time>2026-04-19T12:17:14.999Z</time></trkpt><trkpt lat="42.09305259654017" lon="11.846697071966707"><ele>252.0</ele><time>2026-04-19T12:17:15.999Z</time></trkpt><trkpt lat="42.09296622843638" lon="11.846702478092435"><ele>249.0</ele><time>2026-04-19T12:17:16.999Z</time></trkpt><trkpt lat="42.09289286609343" lon="11.84669827066699"><ele>246.0</ele><time>2026-04-19T12:17:17.999Z</time></trkpt><trkpt lat="42.09281364773056" lon="11.846697315821233"><ele>243.0</ele><time>2026-04-19T12:17:18.999Z</time></trkpt><trkpt lat="42.09273050039372" lon="11.846711587201222"><ele>240.0</ele><time>2026-04-19T12:17:19.999Z</time></trkpt><trkpt lat="42.09265928199699" lon="11.846744078243143"><ele>237.0</ele><time>2026-04-19T12:17:20.999Z</time></trkpt><trkpt lat="42.09259098051558" lon="11.846785061181494"><ele>239.0</ele><time>2026-04-19T12:17:21.999Z</time></trkpt><trkpt lat="42.09251565436556" lon="11.846806793488511"><ele>241.0</ele><time>2026-04-19T12:17:22.999Z</time></trkpt><trkpt lat="42.092438076275855" lon="11.846846953692395"><ele>243.0</ele><time>2026-04-19T12:17:23.999Z</time></trkpt><trkpt lat="42.0923604448522" lon="11.846884757681012"><ele>245.0</ele><time>2026-04-19T12:17:24.999Z</time></trkpt><trkpt lat="42.09227290670655" lon="11.846912785172234"><ele>247.0</ele><time>2026-04-19T12:17:25.999Z</time></trkpt><trkpt lat="42.092179925037414" lon="11.846930269744258"><ele>249.0</ele><time>2026-04-19T12:17:26.999Z</time></trkpt><trkpt lat="42.092089703014196" lon="11.846944998688155"><ele>249.0</ele><time>2026-04-19T12:17:27.999Z</time></trkpt><trkpt lat="42.092013888756625" lon="11.84695377956554"><ele>249.0</ele><time>2026-04-19T12:17:28.999Z</time></trkpt><trkpt lat="42.09192293648257" lon="11.846891686283396"><ele>249.0</ele><time>2026-04-19T12:17:30.999Z</time></trkpt><trkpt lat="42.09187101257775" lon="11.846820745548127"><ele>249.0</ele><time>2026-04-19T12:17:31.999Z</time></trkpt><trkpt lat="42.091812457470326" lon="11.846744455272875"><ele>249.0</ele><time>2026-04-19T12:17:32.999Z</time></trkpt><trkpt lat="42.09175120719716" lon="11.84666169782904"><ele>249.0</ele><time>2026-04-19T12:17:33.999Z</time></trkpt><trkpt lat="42.09168832346448" lon="11.846571838694835"><ele>247.0</ele><time>2026-04-19T12:17:34.999Z</time></trkpt><trkpt lat="42.091627416193624" lon="11.846477927899295"><ele>244.99999999999997</ele><time>2026-04-19T12:17:35.999Z</time></trkpt><trkpt lat="42.0915667551658" lon="11.846384212145539"><ele>242.99999999999997</ele><time>2026-04-19T12:17:36.999Z</time></trkpt><trkpt lat="42.091496799706256" lon="11.84628897616176"><ele>241.0</ele><time>2026-04-19T12:17:37.999Z</time></trkpt><trkpt lat="42.09142956320169" lon="11.84620473753304"><ele>239.0</ele><time>2026-04-19T12:17:38.999Z</time></trkpt><trkpt lat="42.09135267778411" lon="11.846113387817331"><ele>239.00000000000003</ele><time>2026-04-19T12:17:39.999Z</time></trkpt><trkpt lat="42.09127941127555" lon="11.846029260490695"><ele>239.0</ele><time>2026-04-19T12:17:40.999Z</time></trkpt><trkpt lat="42.09120907526775" lon="11.845949318436283"><ele>239.0</ele><time>2026-04-19T12:17:41.999Z</time></trkpt><trkpt lat="42.091147168079175" lon="11.845871163001565"><ele>239.0</ele><time>2026-04-19T12:17:42.999Z</time></trkpt><trkpt lat="42.09109202916692" lon="11.845793533766757"><ele>239.00000000000003</ele><time>2026-04-19T12:17:43.999Z</time></trkpt><trkpt lat="42.091051774206235" lon="11.84571466378761"><ele>239.0</ele><time>2026-04-19T12:17:44.999Z</time></trkpt><trkpt lat="42.091025699749785" lon="11.845624080226951"><ele>236.79999999999998</ele><time>2026-04-19T12:17:45.999Z</time></trkpt><trkpt lat="42.091002680063234" lon="11.84549079723057"><ele>234.59999999999997</ele><time>2026-04-19T12:17:46.999Z</time></trkpt><trkpt lat="42.09096842922738" lon="11.84537084732487"><ele>232.4</ele><time>2026-04-19T12:17:47.999Z</time></trkpt><trkpt lat="42.090926516770715" lon="11.845251249231385"><ele>230.2</ele><time>2026-04-19T12:17:48.999Z</time></trkpt><trkpt lat="42.090879968643" lon="11.845129895544211"><ele>228.0</ele><time>2026-04-19T12:17:49.999Z</time></trkpt><trkpt lat="42.09083132815004" lon="11.845002507927122"><ele>225.4</ele><time>2026-04-19T12:17:50.999Z</time></trkpt><trkpt lat="42.09078926597995" lon="11.844881606444515"><ele>222.8</ele><time>2026-04-19T12:17:51.999Z</time></trkpt><trkpt lat="42.09074253518963" lon="11.844761965927264"><ele>220.2</ele><time>2026-04-19T12:17:52.999Z</time></trkpt><trkpt lat="42.09069324459582" lon="11.844668495457116"><ele>217.6</ele><time>2026-04-19T12:17:53.999Z</time></trkpt><trkpt lat="42.09063366485185" lon="11.844585394772936"><ele>215.0</ele><time>2026-04-19T12:17:54.999Z</time></trkpt><trkpt lat="42.09057620313007" lon="11.844502118351715"><ele>215.00000000000003</ele><time>2026-04-19T12:17:55.999Z</time></trkpt><trkpt lat="42.09052931314638" lon="11.844421853905683"><ele>215.0</ele><time>2026-04-19T12:17:56.999Z</time></trkpt><trkpt lat="42.09048017987133" lon="11.844331457997225"><ele>215.0</ele><time>2026-04-19T12:17:57.999Z</time></trkpt><trkpt lat="42.090432308888644" lon="11.844235923648707"><ele>215.0</ele><time>2026-04-19T12:17:58.999Z</time></trkpt><trkpt lat="42.09039250445747" lon="11.844137252467965"><ele>215.00000000000003</ele><time>2026-04-19T12:17:59.999Z</time></trkpt><trkpt lat="42.09036908983563" lon="11.844011669931707"><ele>215.0</ele><time>2026-04-19T12:18:00.999Z</time></trkpt><trkpt lat="42.09032733279621" lon="11.843889458140183"><ele>213.2</ele><time>2026-04-19T12:18:01.999Z</time></trkpt><trkpt lat="42.09026558318916" lon="11.843781056788218"><ele>211.4</ele><time>2026-04-19T12:18:02.999Z</time></trkpt><trkpt lat="42.09020252107214" lon="11.843694860556909"><ele>209.60000000000002</ele><time>2026-04-19T12:18:03.999Z</time></trkpt><trkpt lat="42.09014346785893" lon="11.843613282417811"><ele>207.8</ele><time>2026-04-19T12:18:05Z</time></trkpt><trkpt lat="42.09007545169457" lon="11.843541219087397"><ele>206.0</ele><time>2026-04-19T12:18:06Z</time></trkpt><trkpt lat="42.089973370392016" lon="11.843517371930162"><ele>204.00000000000003</ele><time>2026-04-19T12:18:07Z</time></trkpt><trkpt lat="42.08988994404182" lon="11.843481617572232"><ele>202.0</ele><time>2026-04-19T12:18:08Z</time></trkpt><trkpt lat="42.089801860967135" lon="11.843457716649402"><ele>200.0</ele><time>2026-04-19T12:18:09Z</time></trkpt><trkpt lat="42.08971654810244" lon="11.843467479656278"><ele>198.0</ele><time>2026-04-19T12:18:10Z</time></trkpt><trkpt lat="42.08963538415377" lon="11.843435849906303"><ele>196.00000000000003</ele><time>2026-04-19T12:18:11Z</time></trkpt><trkpt lat="42.089560217156816" lon="11.843420220265344"><ele>194.0</ele><time>2026-04-19T12:18:12Z</time></trkpt><trkpt lat="42.089491923107154" lon="11.843384153617356"><ele>193.83333333333334</ele><time>2026-04-19T12:18:13Z</time></trkpt><trkpt lat="42.08943340967797" lon="11.843326587716689"><ele>193.66666666666669</ele><time>2026-04-19T12:18:14Z</time></trkpt><trkpt lat="42.08944870141421" lon="11.843195027625836"><ele>193.5</ele><time>2026-04-19T12:18:15Z</time></trkpt><trkpt lat="42.0893980348694" lon="11.843088075487634"><ele>193.33333333333331</ele><time>2026-04-19T12:18:16Z</time></trkpt><trkpt lat="42.0893521765754" lon="11.842999410583918"><ele>193.16666666666666</ele><time>2026-04-19T12:18:17Z</time></trkpt><trkpt lat="42.08930266458611" lon="11.842903681357475"><ele>193.0</ele><time>2026-04-19T12:18:18Z</time></trkpt><trkpt lat="42.089251858981015" lon="11.842804635133037"><ele>192.99999999999997</ele><time>2026-04-19T12:18:19Z</time></trkpt><trkpt lat="42.08920072137899" lon="11.842696917470922"><ele>193.0</ele><time>2026-04-19T12:18:20Z</time></trkpt><trkpt lat="42.089164434797446" lon="11.842599283154088"><ele>193.0</ele><time>2026-04-19T12:18:21Z</time></trkpt><trkpt lat="42.089141143823596" lon="11.842496144022903"><ele>193.0</ele><time>2026-04-19T12:18:22Z</time></trkpt><trkpt lat="42.08912726643625" lon="11.842385843367945"><ele>192.99999999999997</ele><time>2026-04-19T12:18:23Z</time></trkpt><trkpt lat="42.08912042936627" lon="11.842267940798797"><ele>193.0</ele><time>2026-04-19T12:18:24Z</time></trkpt><trkpt lat="42.089113804580975" lon="11.842146624711171"><ele>192.16666666666666</ele><time>2026-04-19T12:18:25Z</time></trkpt><trkpt lat="42.0890973775957" lon="11.842023118004082"><ele>191.33333333333331</ele><time>2026-04-19T12:18:26Z</time></trkpt><trkpt lat="42.089069010458125" lon="11.84190456681002"><ele>190.5</ele><time>2026-04-19T12:18:27Z</time></trkpt><trkpt lat="42.08904401572219" lon="11.841786047134544"><ele>189.66666666666666</ele><time>2026-04-19T12:18:28Z</time></trkpt><trkpt lat="42.089028995767976" lon="11.841677496433178"><ele>188.83333333333331</ele><time>2026-04-19T12:18:29Z</time></trkpt><trkpt lat="42.08902067029463" lon="11.84156476137295"><ele>188.0</ele><time>2026-04-19T12:18:30Z</time></trkpt><trkpt lat="42.08906789273766" lon="11.841391187401268"><ele>187.33333333333331</ele><time>2026-04-19T12:18:32Z</time></trkpt><trkpt lat="42.08909829690042" lon="11.84128822594349"><ele>186.66666666666666</ele><time>2026-04-19T12:18:33Z</time></trkpt><trkpt lat="42.089124843415235" lon="11.841173908273442"><ele>186.0</ele><time>2026-04-19T12:18:34Z</time></trkpt><trkpt lat="42.08914323042704" lon="11.841065112562008"><ele>185.33333333333334</ele><time>2026-04-19T12:18:35Z</time></trkpt><trkpt lat="42.08915497832448" lon="11.840948508926582"><ele>184.66666666666669</ele><time>2026-04-19T12:18:36Z</time></trkpt><trkpt lat="42.089145801537434" lon="11.84082546408125"><ele>184.0</ele><time>2026-04-19T12:18:37Z</time></trkpt><trkpt lat="42.089144485942796" lon="11.840714293543188"><ele>183.16666666666669</ele><time>2026-04-19T12:18:38Z</time></trkpt><trkpt lat="42.08914524319085" lon="11.840596136435796"><ele>182.33333333333334</ele><time>2026-04-19T12:18:39Z</time></trkpt><trkpt lat="42.089150073841076" lon="11.840477980522934"><ele>181.5</ele><time>2026-04-19T12:18:40Z</time></trkpt><trkpt lat="42.08915926863093" lon="11.84036361628196"><ele>180.66666666666666</ele><time>2026-04-19T12:18:41Z</time></trkpt><trkpt lat="42.08917576533739" lon="11.840254341794633"><ele>179.83333333333331</ele><time>2026-04-19T12:18:42Z</time></trkpt><trkpt lat="42.08919700251051" lon="11.84014536038564"><ele>179.0</ele><time>2026-04-19T12:18:43Z</time></trkpt><trkpt lat="42.08921876827453" lon="11.840027187458093"><ele>178.33333333333331</ele><time>2026-04-19T12:18:44Z</time></trkpt><trkpt lat="42.08923691299231" lon="11.839914516184061"><ele>177.66666666666666</ele><time>2026-04-19T12:18:45Z</time></trkpt><trkpt lat="42.08925341313774" lon="11.839801338410737"><ele>177.0</ele><time>2026-04-19T12:18:46Z</time></trkpt><trkpt lat="42.08925475944168" lon="11.839671770071897"><ele>176.33333333333334</ele><time>2026-04-19T12:18:47Z</time></trkpt><trkpt lat="42.08924654625819" lon="11.839551012648133"><ele>175.66666666666669</ele><time>2026-04-19T12:18:48Z</time></trkpt><trkpt lat="42.089228613145025" lon="11.839438777838218"><ele>175.0</ele><time>2026-04-19T12:18:49Z</time></trkpt><trkpt lat="42.08921189974125" lon="11.839322996132502"><ele>174.16666666666669</ele><time>2026-04-19T12:18:50Z</time></trkpt><trkpt lat="42.089197586891956" lon="11.839207707883045"><ele>173.33333333333334</ele><time>2026-04-19T12:18:51Z</time></trkpt><trkpt lat="42.089183516607555" lon="11.839094373320105"><ele>172.5</ele><time>2026-04-19T12:18:52Z</time></trkpt><trkpt lat="42.08917056978221" lon="11.838980738772303"><ele>171.66666666666666</ele><time>2026-04-19T12:18:53Z</time></trkpt><trkpt lat="42.0891619103815" lon="11.838874568236285"><ele>170.83333333333331</ele><time>2026-04-19T12:18:54Z</time></trkpt><trkpt lat="42.08915467331289" lon="11.838765091104221"><ele>170.0</ele><time>2026-04-19T12:18:55Z</time></trkpt><trkpt lat="42.089149484095884" lon="11.838659075105921"><ele>170.0</ele><time>2026-04-19T12:18:56Z</time></trkpt><trkpt lat="42.089146431911914" lon="11.838555296498837"><ele>170.0</ele><time>2026-04-19T12:18:57Z</time></trkpt><trkpt lat="42.089149172520585" lon="11.838450502252035"><ele>170.0</ele><time>2026-04-19T12:18:58Z</time></trkpt><trkpt lat="42.08915580852594" lon="11.838345753796327"><ele>170.0</ele><time>2026-04-19T12:18:59Z</time></trkpt><trkpt lat="42.08916700773808" lon="11.838244192297626"><ele>170.0</ele><time>2026-04-19T12:19:00Z</time></trkpt><trkpt lat="42.08917706391835" lon="11.838133145258189"><ele>170.0</ele><time>2026-04-19T12:19:01Z</time></trkpt><trkpt lat="42.08918354735308" lon="11.83802853233036"><ele>169.85714285714286</ele><time>2026-04-19T12:19:02Z</time></trkpt><trkpt lat="42.089183848452805" lon="11.837923882668884"><ele>169.7142857142857</ele><time>2026-04-19T12:19:03Z</time></trkpt><trkpt lat="42.08917954273974" lon="11.837822509824738"><ele>169.57142857142856</ele><time>2026-04-19T12:19:04Z</time></trkpt><trkpt lat="42.0891706187532" lon="11.837728792005926"><ele>169.42857142857144</ele><time>2026-04-19T12:19:05Z</time></trkpt><trkpt lat="42.089155216640464" lon="11.837635067252863"><ele>169.28571428571428</ele><time>2026-04-19T12:19:06Z</time></trkpt><trkpt lat="42.08914086147132" lon="11.837545984680876"><ele>169.14285714285714</ele><time>2026-04-19T12:19:07Z</time></trkpt><trkpt lat="42.08912732484777" lon="11.837461981816254"><ele>169.0</ele><time>2026-04-19T12:19:08Z</time></trkpt><trkpt lat="42.08910334300555" lon="11.837303633185687"><ele>166.79999999999998</ele><time>2026-04-19T12:19:10Z</time></trkpt><trkpt lat="42.089080842346256" lon="11.837151063708285"><ele>164.6</ele><time>2026-04-19T12:19:12Z</time></trkpt><trkpt lat="42.08906191999892" lon="11.837016156253586"><ele>162.4</ele><time>2026-04-19T12:19:14Z</time></trkpt><trkpt lat="42.08904591959244" lon="11.836882957509342"><ele>160.2</ele><time>2026-04-19T12:19:16Z</time></trkpt><trkpt lat="42.08902993738653" lon="11.836749909913584"><ele>158.0</ele><time>2026-04-19T12:19:18Z</time></trkpt><trkpt lat="42.08901164527576" lon="11.836626353115268"><ele>158.0</ele><time>2026-04-19T12:19:20Z</time></trkpt><trkpt lat="42.08897480513125" lon="11.836487306172245"><ele>158.0</ele><time>2026-04-19T12:19:22Z</time></trkpt><trkpt lat="42.088942045091294" lon="11.836409709857161"><ele>158.0</ele><time>2026-04-19T12:19:23Z</time></trkpt><trkpt lat="42.0889098440513" lon="11.836330587251172"><ele>158.0</ele><time>2026-04-19T12:19:24Z</time></trkpt><trkpt lat="42.08887461613361" lon="11.83624313095483"><ele>158.0</ele><time>2026-04-19T12:19:25Z</time></trkpt><trkpt lat="42.08884038220726" lon="11.83615814239373"><ele>158.0</ele><time>2026-04-19T12:19:26Z</time></trkpt><trkpt lat="42.088807398630074" lon="11.836073007880255"><ele>158.00000000000003</ele><time>2026-04-19T12:19:27Z</time></trkpt><trkpt lat="42.088781860485454" lon="11.835989324548157"><ele>158.0</ele><time>2026-04-19T12:19:28Z</time></trkpt><trkpt lat="42.08876389108803" lon="11.83590654754119"><ele>158.0</ele><time>2026-04-19T12:19:29Z</time></trkpt><trkpt lat="42.08874867342812" lon="11.83581354308312"><ele>158.0</ele><time>2026-04-19T12:19:30Z</time></trkpt><trkpt lat="42.088739244265575" lon="11.835729142668322"><ele>158.0</ele><time>2026-04-19T12:19:31Z</time></trkpt><trkpt lat="42.08873102645427" lon="11.835635639190995"><ele>158.00000000000003</ele><time>2026-04-19T12:19:32Z</time></trkpt><trkpt lat="42.08872269080327" lon="11.835540792454974"><ele>158.0</ele><time>2026-04-19T12:19:33Z</time></trkpt><trkpt lat="42.0886964390387" lon="11.835429883595356"><ele>158.33333333333331</ele><time>2026-04-19T12:19:34Z</time></trkpt><trkpt lat="42.08866215836666" lon="11.835323895424526"><ele>158.66666666666666</ele><time>2026-04-19T12:19:35Z</time></trkpt><trkpt lat="42.088623271358166" lon="11.835226938471312"><ele>159.0</ele><time>2026-04-19T12:19:36Z</time></trkpt><trkpt lat="42.08858437009442" lon="11.83513341555354"><ele>159.33333333333334</ele><time>2026-04-19T12:19:37Z</time></trkpt><trkpt lat="42.088545781702095" lon="11.835036100421894"><ele>159.66666666666669</ele><time>2026-04-19T12:19:38Z</time></trkpt><trkpt lat="42.08850853191549" lon="11.834938852810591"><ele>160.0</ele><time>2026-04-19T12:19:39Z</time></trkpt><trkpt lat="42.08847100259114" lon="11.83483663671957"><ele>160.0</ele><time>2026-04-19T12:19:40Z</time></trkpt><trkpt lat="42.088434664737335" lon="11.834729341562904"><ele>160.0</ele><time>2026-04-19T12:19:41Z</time></trkpt><trkpt lat="42.08839872397232" lon="11.83461147472912"><ele>160.0</ele><time>2026-04-19T12:19:42Z</time></trkpt><trkpt lat="42.088368720782064" lon="11.834491489607347"><ele>160.0</ele><time>2026-04-19T12:19:43Z</time></trkpt><trkpt lat="42.08834180132591" lon="11.834360016428782"><ele>160.0</ele><time>2026-04-19T12:19:44Z</time></trkpt><trkpt lat="42.08831829503401" lon="11.834229402062979"><ele>159.5</ele><time>2026-04-19T12:19:45Z</time></trkpt><trkpt lat="42.08829073019582" lon="11.834084484066318"><ele>159.0</ele><time>2026-04-19T12:19:46Z</time></trkpt><trkpt lat="42.0882577893723" lon="11.83394178635731"><ele>158.5</ele><time>2026-04-19T12:19:47Z</time></trkpt><trkpt lat="42.088206531175565" lon="11.833796875520859"><ele>158.0</ele><time>2026-04-19T12:19:48Z</time></trkpt><trkpt lat="42.08815401299828" lon="11.833655443288194"><ele>156.0</ele><time>2026-04-19T12:19:49Z</time></trkpt><trkpt lat="42.08810259071538" lon="11.833531060730134"><ele>154.0</ele><time>2026-04-19T12:19:50Z</time></trkpt><trkpt lat="42.08804448149458" lon="11.833400131746876"><ele>152.0</ele><time>2026-04-19T12:19:51Z</time></trkpt><trkpt lat="42.087988065801376" lon="11.833274014116759"><ele>150.0</ele><time>2026-04-19T12:19:52Z</time></trkpt><trkpt lat="42.087927754954435" lon="11.83314308510822"><ele>148.0</ele><time>2026-04-19T12:19:53Z</time></trkpt><trkpt lat="42.08786875993461" lon="11.833015353533842"><ele>148.0</ele><time>2026-04-19T12:19:54Z</time></trkpt><trkpt lat="42.08780969720566" lon="11.832887231545373"><ele>148.0</ele><time>2026-04-19T12:19:55Z</time></trkpt><trkpt lat="42.08774981799669" lon="11.832756268272416"><ele>148.0</ele><time>2026-04-19T12:19:56Z</time></trkpt><trkpt lat="42.08768856674136" lon="11.832622305037734"><ele>148.0</ele><time>2026-04-19T12:19:57Z</time></trkpt><trkpt lat="42.08762979829138" lon="11.832490224305202"><ele>147.25</ele><time>2026-04-19T12:19:58Z</time></trkpt><trkpt lat="42.08757371077274" lon="11.832358354424462"><ele>146.5</ele><time>2026-04-19T12:19:59Z</time></trkpt><trkpt lat="42.08752347998499" lon="11.8322200103982"><ele>145.75</ele><time>2026-04-19T12:20:00Z</time></trkpt><trkpt lat="42.08747865206572" lon="11.83207921528096"><ele>145.0</ele><time>2026-04-19T12:20:01Z</time></trkpt><trkpt lat="42.08744032725535" lon="11.831941152587827"><ele>142.4</ele><time>2026-04-19T12:20:02Z</time></trkpt><trkpt lat="42.087407597002866" lon="11.83179818602531"><ele>139.8</ele><time>2026-04-19T12:20:03Z</time></trkpt><trkpt lat="42.08737941170224" lon="11.831660150304712"><ele>137.2</ele><time>2026-04-19T12:20:04Z</time></trkpt><trkpt lat="42.08735683563784" lon="11.831524851522175"><ele>134.6</ele><time>2026-04-19T12:20:05Z</time></trkpt><trkpt lat="42.08733713552671" lon="11.831388495610105"><ele>132.0</ele><time>2026-04-19T12:20:06Z</time></trkpt><trkpt lat="42.087319781224075" lon="11.831253811246103"><ele>132.0</ele><time>2026-04-19T12:20:07Z</time></trkpt><trkpt lat="42.08730873458033" lon="11.83112189499047"><ele>132.0</ele><time>2026-04-19T12:20:08Z</time></trkpt><trkpt lat="42.08730429228882" lon="11.830988164527186"><ele>132.0</ele><time>2026-04-19T12:20:09Z</time></trkpt><trkpt lat="42.08730229335113" lon="11.830850739489838"><ele>132.0</ele><time>2026-04-19T12:20:10Z</time></trkpt><trkpt lat="42.087289242595666" lon="11.830711725963582"><ele>132.0</ele><time>2026-04-19T12:20:11Z</time></trkpt><trkpt lat="42.08725794857608" lon="11.830573607843638"><ele>132.0</ele><time>2026-04-19T12:20:12Z</time></trkpt><trkpt lat="42.08722681810199" lon="11.830439292217608"><ele>132.0</ele><time>2026-04-19T12:20:13Z</time></trkpt><trkpt lat="42.087195818986444" lon="11.830301723413852"><ele>132.0</ele><time>2026-04-19T12:20:14Z</time></trkpt><trkpt lat="42.08716512178588" lon="11.830163647092219"><ele>132.0</ele><time>2026-04-19T12:20:15Z</time></trkpt><trkpt lat="42.08713778062655" lon="11.830025401901185"><ele>132.0</ele><time>2026-04-19T12:20:16Z</time></trkpt><trkpt lat="42.087119583341696" lon="11.82988091410912"><ele>132.0</ele><time>2026-04-19T12:20:17Z</time></trkpt><trkpt lat="42.08711381202277" lon="11.829734412999835"><ele>132.0</ele><time>2026-04-19T12:20:18Z</time></trkpt><trkpt lat="42.08712338641641" lon="11.829597680307652"><ele>132.0</ele><time>2026-04-19T12:20:19Z</time></trkpt><trkpt lat="42.08716118667243" lon="11.829465737958582"><ele>132.0</ele><time>2026-04-19T12:20:20Z</time></trkpt><trkpt lat="42.08721796920188" lon="11.82932677213317"><ele>132.0</ele><time>2026-04-19T12:20:21Z</time></trkpt><trkpt lat="42.087241017168516" lon="11.829154552127122"><ele>131.0</ele><time>2026-04-19T12:20:22Z</time></trkpt><trkpt lat="42.08724638422169" lon="11.82898171776584"><ele>130.0</ele><time>2026-04-19T12:20:23Z</time></trkpt><trkpt lat="42.087250408741085" lon="11.828800882932192"><ele>129.0</ele><time>2026-04-19T12:20:24Z</time></trkpt><trkpt lat="42.087262694640394" lon="11.828629121649673"><ele>128.0</ele><time>2026-04-19T12:20:25Z</time></trkpt><trkpt lat="42.087294948862336" lon="11.828452885365762"><ele>126.60000000000001</ele><time>2026-04-19T12:20:26Z</time></trkpt><trkpt lat="42.087326621915615" lon="11.828276911473212"><ele>125.20000000000002</ele><time>2026-04-19T12:20:27Z</time></trkpt><trkpt lat="42.08735371795762" lon="11.828125392223763"><ele>123.8</ele><time>2026-04-19T12:20:28Z</time></trkpt><trkpt lat="42.08737288931501" lon="11.828005491345204"><ele>122.4</ele><time>2026-04-19T12:20:29Z</time></trkpt><trkpt lat="42.087388686410264" lon="11.827907063893129"><ele>121.0</ele><time>2026-04-19T12:20:30Z</time></trkpt><trkpt lat="42.0874017195626" lon="11.827812263025427"><ele>121.0</ele><time>2026-04-19T12:20:31Z</time></trkpt><trkpt lat="42.08736936984783" lon="11.827698986826904"><ele>121.0</ele><time>2026-04-19T12:20:32Z</time></trkpt><trkpt lat="42.087297786248826" lon="11.827614535778647"><ele>121.0</ele><time>2026-04-19T12:20:33Z</time></trkpt><trkpt lat="42.08719773396562" lon="11.827599310974897"><ele>121.0</ele><time>2026-04-19T12:20:34Z</time></trkpt><trkpt lat="42.08710843979566" lon="11.827583624479683"><ele>121.0</ele><time>2026-04-19T12:20:35Z</time></trkpt><trkpt lat="42.08702031818009" lon="11.827555655049508"><ele>120.0</ele><time>2026-04-19T12:20:36Z</time></trkpt><trkpt lat="42.08693252437536" lon="11.827526167577332"><ele>119.0</ele><time>2026-04-19T12:20:37Z</time></trkpt><trkpt lat="42.08684752975746" lon="11.827469848444931"><ele>118.0</ele><time>2026-04-19T12:20:38Z</time></trkpt><trkpt lat="42.08679636115026" lon="11.827362714048174"><ele>117.0</ele><time>2026-04-19T12:20:39Z</time></trkpt><trkpt lat="42.08673083039666" lon="11.82725794084854"><ele>116.0</ele><time>2026-04-19T12:20:40Z</time></trkpt><trkpt lat="42.08669276125672" lon="11.827132516406225"><ele>116.0</ele><time>2026-04-19T12:20:41Z</time></trkpt><trkpt lat="42.08665491008174" lon="11.826996712452518"><ele>116.0</ele><time>2026-04-19T12:20:42Z</time></trkpt><trkpt lat="42.08662421809072" lon="11.826849541197767"><ele>116.0</ele><time>2026-04-19T12:20:43Z</time></trkpt><trkpt lat="42.08659332637259" lon="11.82669150591213"><ele>116.0</ele><time>2026-04-19T12:20:44Z</time></trkpt><trkpt lat="42.0865576596338" lon="11.826532695349414"><ele>114.0</ele><time>2026-04-19T12:20:45Z</time></trkpt><trkpt lat="42.08650496217512" lon="11.826375303149959"><ele>112.0</ele><time>2026-04-19T12:20:46Z</time></trkpt><trkpt lat="42.08641660991441" lon="11.826243323722673"><ele>110.0</ele><time>2026-04-19T12:20:47Z</time></trkpt><trkpt lat="42.08635228214" lon="11.826087278883138"><ele>108.0</ele><time>2026-04-19T12:20:48Z</time></trkpt><trkpt lat="42.08628779988184" lon="11.82592767917489"><ele>106.75</ele><time>2026-04-19T12:20:49Z</time></trkpt><trkpt lat="42.086247087931426" lon="11.825749051460054"><ele>105.5</ele><time>2026-04-19T12:20:50Z</time></trkpt><trkpt lat="42.086209061538774" lon="11.825560575999377"><ele>104.25</ele><time>2026-04-19T12:20:51Z</time></trkpt><trkpt lat="42.0861766143504" lon="11.825369202246787"><ele>103.0</ele><time>2026-04-19T12:20:52Z</time></trkpt><trkpt lat="42.08613425838407" lon="11.825171779188116"><ele>100.66666666666667</ele><time>2026-04-19T12:20:53Z</time></trkpt><trkpt lat="42.086109952324634" lon="11.824966649159956"><ele>98.33333333333334</ele><time>2026-04-19T12:20:54Z</time></trkpt><trkpt lat="42.08609739104377" lon="11.824758971530349"><ele>96.0</ele><time>2026-04-19T12:20:55Z</time></trkpt><trkpt lat="42.086067776200686" lon="11.824555632306208"><ele>96.0</ele><time>2026-04-19T12:20:56Z</time></trkpt><trkpt lat="42.08602376869298" lon="11.824354286765002"><ele>96.0</ele><time>2026-04-19T12:20:57Z</time></trkpt><trkpt lat="42.08595263224207" lon="11.824172056690555"><ele>96.0</ele><time>2026-04-19T12:20:58Z</time></trkpt><trkpt lat="42.0859005311822" lon="11.823992627300582"><ele>94.0</ele><time>2026-04-19T12:20:59Z</time></trkpt><trkpt lat="42.085863027182185" lon="11.823805815305318"><ele>92.0</ele><time>2026-04-19T12:21:00Z</time></trkpt><trkpt lat="42.08583180365565" lon="11.823623689584133"><ele>90.0</ele><time>2026-04-19T12:21:01Z</time></trkpt><trkpt lat="42.08581644740039" lon="11.823442035974036"><ele>88.0</ele><time>2026-04-19T12:21:02Z</time></trkpt><trkpt lat="42.08580891030522" lon="11.823253357252408"><ele>87.0</ele><time>2026-04-19T12:21:03Z</time></trkpt><trkpt lat="42.08580119278734" lon="11.823066400946763"><ele>86.0</ele><time>2026-04-19T12:21:04Z</time></trkpt><trkpt lat="42.085786847375935" lon="11.822873309871737"><ele>85.0</ele><time>2026-04-19T12:21:05Z</time></trkpt><trkpt lat="42.085769036645566" lon="11.822682948866523"><ele>84.0</ele><time>2026-04-19T12:21:06Z</time></trkpt><trkpt lat="42.08574701731754" lon="11.822484406663294"><ele>82.0</ele><time>2026-04-19T12:21:07Z</time></trkpt><trkpt lat="42.08572543014442" lon="11.822291729422714"><ele>80.0</ele><time>2026-04-19T12:21:08Z</time></trkpt><trkpt lat="42.08570257876061" lon="11.822099042262334"><ele>78.0</ele><time>2026-04-19T12:21:09Z</time></trkpt><trkpt lat="42.085681374074554" lon="11.821910531857533"><ele>76.0</ele><time>2026-04-19T12:21:10Z</time></trkpt><trkpt lat="42.085664375095035" lon="11.821721099413795"><ele>75.25</ele><time>2026-04-19T12:21:11Z</time></trkpt><trkpt lat="42.08564760054679" lon="11.821529417568504"><ele>74.5</ele><time>2026-04-19T12:21:12Z</time></trkpt><trkpt lat="42.08563100674153" lon="11.821339801037412"><ele>73.75</ele><time>2026-04-19T12:21:13Z</time></trkpt><trkpt lat="42.08561710999674" lon="11.821152826359882"><ele>73.0</ele><time>2026-04-19T12:21:14Z</time></trkpt><trkpt lat="42.08559976281198" lon="11.820963349159003"><ele>72.25</ele><time>2026-04-19T12:21:15Z</time></trkpt><trkpt lat="42.08556936896852" lon="11.820776164851791"><ele>71.5</ele><time>2026-04-19T12:21:16Z</time></trkpt><trkpt lat="42.085531166195224" lon="11.820594397578551"><ele>70.75</ele><time>2026-04-19T12:21:17Z</time></trkpt><trkpt lat="42.08548479007616" lon="11.820412309009228"><ele>70.0</ele><time>2026-04-19T12:21:18Z</time></trkpt><trkpt lat="42.08542194357353" lon="11.8202410823424"><ele>68.75</ele><time>2026-04-19T12:21:19Z</time></trkpt><trkpt lat="42.085339929199264" lon="11.820091913354783"><ele>67.5</ele><time>2026-04-19T12:21:20Z</time></trkpt><trkpt lat="42.08528502301267" lon="11.819916244778511"><ele>66.25</ele><time>2026-04-19T12:21:21Z</time></trkpt><trkpt lat="42.085229653238954" lon="11.819747721379697"><ele>65.0</ele><time>2026-04-19T12:21:22Z</time></trkpt><trkpt lat="42.08518635656518" lon="11.819577709374695"><ele>65.0</ele><time>2026-04-19T12:21:23Z</time></trkpt><trkpt lat="42.08514647792399" lon="11.819401780527844"><ele>65.0</ele><time>2026-04-19T12:21:24Z</time></trkpt><trkpt lat="42.0851061957167" lon="11.81922456005002"><ele>65.0</ele><time>2026-04-19T12:21:25Z</time></trkpt><trkpt lat="42.08506762830832" lon="11.819048648876862"><ele>65.0</ele><time>2026-04-19T12:21:26Z</time></trkpt><trkpt lat="42.085028078094815" lon="11.818874676381034"><ele>63.75</ele><time>2026-04-19T12:21:27Z</time></trkpt><trkpt lat="42.08498818971175" lon="11.818700620799929"><ele>62.5</ele><time>2026-04-19T12:21:28Z</time></trkpt><trkpt lat="42.084948547475776" lon="11.81852763918372"><ele>61.25</ele><time>2026-04-19T12:21:29Z</time></trkpt><trkpt lat="42.08490832964622" lon="11.818352089499534"><ele>60.0</ele><time>2026-04-19T12:21:30Z</time></trkpt><trkpt lat="42.08486931505789" lon="11.81818173455308"><ele>58.25</ele><time>2026-04-19T12:21:31Z</time></trkpt><trkpt lat="42.08483015971013" lon="11.818010763507933"><ele>56.5</ele><time>2026-04-19T12:21:32Z</time></trkpt><trkpt lat="42.08479056880869" lon="11.817839326962504"><ele>54.75</ele><time>2026-04-19T12:21:33Z</time></trkpt><trkpt lat="42.08475062573425" lon="11.817666142794513"><ele>53.0</ele><time>2026-04-19T12:21:34Z</time></trkpt><trkpt lat="42.08470505165145" lon="11.817497344491779"><ele>51.25</ele><time>2026-04-19T12:21:35Z</time></trkpt><trkpt lat="42.084646827436664" lon="11.817327175666861"><ele>49.5</ele><time>2026-04-19T12:21:36Z</time></trkpt><trkpt lat="42.084573605799854" lon="11.817163428403834"><ele>47.75</ele><time>2026-04-19T12:21:37Z</time></trkpt><trkpt lat="42.08449547567037" lon="11.817006715794172"><ele>46.0</ele><time>2026-04-19T12:21:38Z</time></trkpt><trkpt lat="42.084420327277776" lon="11.816850689660262"><ele>45.25</ele><time>2026-04-19T12:21:39Z</time></trkpt><trkpt lat="42.08434595456461" lon="11.8166878351276"><ele>44.5</ele><time>2026-04-19T12:21:40Z</time></trkpt><trkpt lat="42.0842843754887" lon="11.816524369609626"><ele>43.75</ele><time>2026-04-19T12:21:41Z</time></trkpt><trkpt lat="42.08424139862577" lon="11.816350981272137"><ele>43.0</ele><time>2026-04-19T12:21:42Z</time></trkpt><trkpt lat="42.08420425788383" lon="11.816172814362789"><ele>43.0</ele><time>2026-04-19T12:21:43Z</time></trkpt><trkpt lat="42.08416720961246" lon="11.815997763226887"><ele>43.0</ele><time>2026-04-19T12:21:44Z</time></trkpt><trkpt lat="42.08412876309254" lon="11.815822456844709"><ele>43.0</ele><time>2026-04-19T12:21:45Z</time></trkpt><trkpt lat="42.08408637859575" lon="11.815648484852991"><ele>43.0</ele><time>2026-04-19T12:21:46Z</time></trkpt><trkpt lat="42.08404715083331" lon="11.815489531743681"><ele>41.75</ele><time>2026-04-19T12:21:47Z</time></trkpt><trkpt lat="42.08401655925602" lon="11.81532732101118"><ele>40.5</ele><time>2026-04-19T12:21:48Z</time></trkpt><trkpt lat="42.084009944327654" lon="11.815168427061804"><ele>39.25</ele><time>2026-04-19T12:21:49Z</time></trkpt><trkpt lat="42.08400268993271" lon="11.815009755641903"><ele>38.0</ele><time>2026-04-19T12:21:50Z</time></trkpt><trkpt lat="42.08398032332467" lon="11.814861878242754"><ele>38.0</ele><time>2026-04-19T12:21:51Z</time></trkpt><trkpt lat="42.08390981696317" lon="11.814745040484143"><ele>38.0</ele><time>2026-04-19T12:21:52Z</time></trkpt><trkpt lat="42.08388338565979" lon="11.814628868029324"><ele>38.0</ele><time>2026-04-19T12:21:53Z</time></trkpt><trkpt lat="42.08384650540666" lon="11.81453225013244"><ele>38.0</ele><time>2026-04-19T12:21:54Z</time></trkpt><trkpt lat="42.08381022067429" lon="11.814437189702325"><ele>38.0</ele><time>2026-04-19T12:21:55Z</time></trkpt><trkpt lat="42.08377228791249" lon="11.8143461125096"><ele>38.0</ele><time>2026-04-19T12:21:56Z</time></trkpt><trkpt lat="42.083725554157894" lon="11.814265024676716"><ele>37.5</ele><time>2026-04-19T12:21:57Z</time></trkpt><trkpt lat="42.083687329819874" lon="11.814180842327671"><ele>37.0</ele><time>2026-04-19T12:21:58Z</time></trkpt><trkpt lat="42.083651092010825" lon="11.8140945613657"><ele>36.5</ele><time>2026-04-19T12:21:59Z</time></trkpt><trkpt lat="42.08361308710968" lon="11.814005433836904"><ele>36.0</ele><time>2026-04-19T12:22:00Z</time></trkpt><trkpt lat="42.08357748886078" lon="11.813917943076646"><ele>35.5</ele><time>2026-04-19T12:22:01Z</time></trkpt><trkpt lat="42.083537686850526" lon="11.81383091905941"><ele>35.0</ele><time>2026-04-19T12:22:02Z</time></trkpt><trkpt lat="42.083495480001325" lon="11.813742712982478"><ele>35.0</ele><time>2026-04-19T12:22:03Z</time></trkpt><trkpt lat="42.08345066161368" lon="11.813658430934032"><ele>35.0</ele><time>2026-04-19T12:22:04Z</time></trkpt><trkpt lat="42.08340764308292" lon="11.81357013086648"><ele>35.0</ele><time>2026-04-19T12:22:05Z</time></trkpt><trkpt lat="42.08336161451838" lon="11.813480529129173"><ele>35.0</ele><time>2026-04-19T12:22:06Z</time></trkpt><trkpt lat="42.08331418202795" lon="11.813394728756935"><ele>35.0</ele><time>2026-04-19T12:22:07Z</time></trkpt><trkpt lat="42.08327633792001" lon="11.813299909953273"><ele>35.0</ele><time>2026-04-19T12:22:08Z</time></trkpt><trkpt lat="42.083231551704564" lon="11.813211027936685"><ele>34.4</ele><time>2026-04-19T12:22:09Z</time></trkpt><trkpt lat="42.08318675930358" lon="11.813122937099902"><ele>33.8</ele><time>2026-04-19T12:22:10Z</time></trkpt><trkpt lat="42.083153607803055" lon="11.813046265674412"><ele>33.2</ele><time>2026-04-19T12:22:11Z</time></trkpt><trkpt lat="42.08309604347373" lon="11.812930963310992"><ele>32.6</ele><time>2026-04-19T12:22:13Z</time></trkpt><trkpt lat="42.083072803000995" lon="11.81279512765301"><ele>32.0</ele><time>2026-04-19T12:22:16Z</time></trkpt><trkpt lat="42.08310253418803" lon="11.812652881113165"><ele>31.400000000000002</ele><time>2026-04-19T12:22:18Z</time></trkpt><trkpt lat="42.083145841999546" lon="11.812534226981365"><ele>30.800000000000004</ele><time>2026-04-19T12:22:20Z</time></trkpt><trkpt lat="42.08304666931085" lon="11.812419575461718"><ele>30.2</ele><time>2026-04-19T12:22:21Z</time></trkpt><trkpt lat="42.08299238632157" lon="11.812301094736226"><ele>29.6</ele><time>2026-04-19T12:22:23Z</time></trkpt><trkpt lat="42.082947481362076" lon="11.81222304156108"><ele>29.0</ele><time>2026-04-19T12:22:25Z</time></trkpt><trkpt lat="42.08291145107146" lon="11.812140851493576"><ele>28.999999999999996</ele><time>2026-04-19T12:22:28Z</time></trkpt><trkpt lat="42.08285874269781" lon="11.81202428042183"><ele>29.0</ele><time>2026-04-19T12:22:31Z</time></trkpt><trkpt lat="42.08281066364619" lon="11.811920931524973"><ele>29.0</ele><time>2026-04-19T12:22:33Z</time></trkpt><trkpt lat="42.082749841733865" lon="11.81179378055155"><ele>29.0</ele><time>2026-04-19T12:22:35Z</time></trkpt><trkpt lat="42.08271497841487" lon="11.811723095826187"><ele>28.999999999999996</ele><time>2026-04-19T12:22:36Z</time></trkpt><trkpt lat="42.08268295009035" lon="11.811648406494404"><ele>29.0</ele><time>2026-04-19T12:22:37Z</time></trkpt><trkpt lat="42.0826457060122" lon="11.811576314002535"><ele>29.000000000000004</ele><time>2026-04-19T12:22:38Z</time></trkpt><trkpt lat="42.082611700404286" lon="11.811498056827645"><ele>29.0</ele><time>2026-04-19T12:22:39Z</time></trkpt><trkpt lat="42.082572945073395" lon="11.811424629357752"><ele>29.000000000000004</ele><time>2026-04-19T12:22:40Z</time></trkpt><trkpt lat="42.08253604119082" lon="11.811344812612552"><ele>29.000000000000004</ele><time>2026-04-19T12:22:41Z</time></trkpt><trkpt lat="42.08250189576009" lon="11.811261478659441"><ele>29.0</ele><time>2026-04-19T12:22:42Z</time></trkpt><trkpt lat="42.08246605510521" lon="11.811178006039215"><ele>29.000000000000004</ele><time>2026-04-19T12:22:43Z</time></trkpt><trkpt lat="42.08242940858987" lon="11.811094408100603"><ele>29.000000000000004</ele><time>2026-04-19T12:22:44Z</time></trkpt><trkpt lat="42.08238671543851" lon="11.811012198517846"><ele>27.999999999999996</ele><time>2026-04-19T12:22:45Z</time></trkpt><trkpt lat="42.08234858525677" lon="11.810923692710892"><ele>27.0</ele><time>2026-04-19T12:22:46Z</time></trkpt><trkpt lat="42.08230855585703" lon="11.810834751818705"><ele>26.0</ele><time>2026-04-19T12:22:47Z</time></trkpt><trkpt lat="42.08226604769509" lon="11.810743233824404"><ele>25.0</ele><time>2026-04-19T12:22:48Z</time></trkpt><trkpt lat="42.08222818956951" lon="11.810646323075556"><ele>24.0</ele><time>2026-04-19T12:22:49Z</time></trkpt><trkpt lat="42.08218376343772" lon="11.810554975584594"><ele>23.0</ele><time>2026-04-19T12:22:50Z</time></trkpt><trkpt lat="42.08213596628054" lon="11.810485293136948"><ele>23.0</ele><time>2026-04-19T12:22:51Z</time></trkpt><trkpt lat="42.08211459195892" lon="11.810402770509953"><ele>23.0</ele><time>2026-04-19T12:22:52Z</time></trkpt><trkpt lat="42.081965388156576" lon="11.810403994156182"><ele>23.0</ele><time>2026-04-19T12:22:54Z</time></trkpt><trkpt lat="42.0819104156558" lon="11.810478578135823"><ele>23.0</ele><time>2026-04-19T12:22:56Z</time></trkpt><trkpt lat="42.08184465537629" lon="11.810289590958972"><ele>23.0</ele><time>2026-04-19T12:22:57Z</time></trkpt><trkpt lat="42.0818117858447" lon="11.810215887473403"><ele>22.571428571428573</ele><time>2026-04-19T12:22:58Z</time></trkpt><trkpt lat="42.08176572707931" lon="11.810149649959278"><ele>22.142857142857142</ele><time>2026-04-19T12:22:59Z</time></trkpt><trkpt lat="42.081730176640484" lon="11.810069820570023"><ele>21.714285714285715</ele><time>2026-04-19T12:23:00Z</time></trkpt><trkpt lat="42.081691276591506" lon="11.809990432694093"><ele>21.285714285714285</ele><time>2026-04-19T12:23:01Z</time></trkpt><trkpt lat="42.08166647953203" lon="11.809898125595552"><ele>20.857142857142858</ele><time>2026-04-19T12:23:02Z</time></trkpt><trkpt lat="42.08162715334421" lon="11.809812031271992"><ele>20.428571428571427</ele><time>2026-04-19T12:23:03Z</time></trkpt><trkpt lat="42.08157336061415" lon="11.809733963279758"><ele>20.0</ele><time>2026-04-19T12:23:04Z</time></trkpt><trkpt lat="42.08153611179947" lon="11.809643094440634"><ele>19.5</ele><time>2026-04-19T12:23:05Z</time></trkpt><trkpt lat="42.08149470591362" lon="11.809555205650517"><ele>19.0</ele><time>2026-04-19T12:23:06Z</time></trkpt><trkpt lat="42.08145807166677" lon="11.809459377486993"><ele>18.5</ele><time>2026-04-19T12:23:07Z</time></trkpt><trkpt lat="42.08141282292952" lon="11.80937401233687"><ele>18.0</ele><time>2026-04-19T12:23:08Z</time></trkpt><trkpt lat="42.08137251936872" lon="11.80928155234891"><ele>17.5</ele><time>2026-04-19T12:23:09Z</time></trkpt><trkpt lat="42.08133365992065" lon="11.809190288996081"><ele>17.0</ele><time>2026-04-19T12:23:10Z</time></trkpt><trkpt lat="42.08129962789252" lon="11.809094771052122"><ele>16.857142857142854</ele><time>2026-04-19T12:23:11Z</time></trkpt><trkpt lat="42.08126256942178" lon="11.809006097796738"><ele>16.714285714285715</ele><time>2026-04-19T12:23:12Z</time></trkpt><trkpt lat="42.08122405034591" lon="11.808930022489587"><ele>16.57142857142857</ele><time>2026-04-19T12:23:13Z</time></trkpt><trkpt lat="42.08118758769977" lon="11.808823734316192"><ele>16.428571428571427</ele><time>2026-04-19T12:23:15Z</time></trkpt><trkpt lat="42.081155078805565" lon="11.808748982528597"><ele>16.285714285714285</ele><time>2026-04-19T12:23:18Z</time></trkpt><trkpt lat="42.081120032462195" lon="11.8086561355931"><ele>16.142857142857142</ele><time>2026-04-19T12:24:15Z</time></trkpt><trkpt lat="42.081084716693944" lon="11.808584872550906"><ele>16.0</ele><time>2026-04-19T12:24:17Z</time></trkpt><trkpt lat="42.08102810898619" lon="11.80849381708363"><ele>15.333333333333332</ele><time>2026-04-19T12:24:19Z</time></trkpt><trkpt lat="42.08104873043689" lon="11.80833162196965"><ele>14.666666666666666</ele><time>2026-04-19T12:24:21Z</time></trkpt><trkpt lat="42.08108421087697" lon="11.808257023207801"><ele>14.0</ele><time>2026-04-19T12:24:22Z</time></trkpt><trkpt lat="42.08112442238892" lon="11.8081783409962"><ele>13.333333333333332</ele><time>2026-04-19T12:24:23Z</time></trkpt><trkpt lat="42.08111939382711" lon="11.808074267422567"><ele>12.666666666666666</ele><time>2026-04-19T12:24:24Z</time></trkpt><trkpt lat="42.08112637575652" lon="11.80796879769273"><ele>12.0</ele><time>2026-04-19T12:24:25Z</time></trkpt><trkpt lat="42.0811334705328" lon="11.807858901059753"><ele>12.0</ele><time>2026-04-19T12:24:26Z</time></trkpt><trkpt lat="42.08114156706602" lon="11.807740275598963"><ele>12.0</ele><time>2026-04-19T12:24:27Z</time></trkpt><trkpt lat="42.0811476653718" lon="11.80761311725973"><ele>12.0</ele><time>2026-04-19T12:24:28Z</time></trkpt><trkpt lat="42.08114924162843" lon="11.807483397163484"><ele>12.0</ele><time>2026-04-19T12:24:29Z</time></trkpt><trkpt lat="42.081149804394656" lon="11.8073570213025"><ele>12.0</ele><time>2026-04-19T12:24:30Z</time></trkpt><trkpt lat="42.08114115529248" lon="11.807245377546025"><ele>11.333333333333334</ele><time>2026-04-19T12:24:31Z</time></trkpt><trkpt lat="42.081115634701526" lon="11.807110506679198"><ele>10.666666666666666</ele><time>2026-04-19T12:24:33Z</time></trkpt><trkpt lat="42.081180193295125" lon="11.807038103860258"><ele>10.0</ele><time>2026-04-19T12:24:35Z</time></trkpt><trkpt lat="42.08125835357311" lon="11.807002734514285"><ele>9.333333333333332</ele><time>2026-04-19T12:24:37Z</time></trkpt><trkpt lat="42.08134147377512" lon="11.806964962116119"><ele>8.666666666666666</ele><time>2026-04-19T12:24:39Z</time></trkpt><trkpt lat="42.08142003234921" lon="11.806916079836004"><ele>8.0</ele><time>2026-04-19T12:24:41Z</time></trkpt><trkpt lat="42.081491970283594" lon="11.806862074756179"><ele>7.999999999999999</ele><time>2026-04-19T12:24:43Z</time></trkpt><trkpt lat="42.08156258421176" lon="11.806782391699835"><ele>8.0</ele><time>2026-04-19T12:24:45Z</time></trkpt><trkpt lat="42.08165456011894" lon="11.806724849756016"><ele>8.0</ele><time>2026-04-19T12:24:47Z</time></trkpt><trkpt lat="42.0817647172844" lon="11.806673413851133"><ele>8.0</ele><time>2026-04-19T12:24:49Z</time></trkpt><trkpt lat="42.08182545164487" lon="11.806647039512285"><ele>7.999999999999999</ele><time>2026-04-19T12:24:50Z</time></trkpt><trkpt lat="42.08188578408473" lon="11.806615661638604"><ele>8.0</ele><time>2026-04-19T12:24:51Z</time></trkpt><trkpt lat="42.081947079863326" lon="11.806584805498419"><ele>7.999999999999999</ele><time>2026-04-19T12:24:52Z</time></trkpt><trkpt lat="42.082008181967794" lon="11.806555101656947"><ele>8.0</ele><time>2026-04-19T12:24:53Z</time></trkpt><trkpt lat="42.08207040625941" lon="11.806527041813245"><ele>8.0</ele><time>2026-04-19T12:24:54Z</time></trkpt><trkpt lat="42.082131271263336" lon="11.80649527293727"><ele>8.0</ele><time>2026-04-19T12:24:55Z</time></trkpt><trkpt lat="42.0821914450464" lon="11.806463831966559"><ele>7.999999999999999</ele><time>2026-04-19T12:24:56Z</time></trkpt><trkpt lat="42.082307709170514" lon="11.80640385483362"><ele>8.0</ele><time>2026-04-19T12:24:58Z</time></trkpt><trkpt lat="42.08241673042913" lon="11.806333119917381"><ele>8.5</ele><time>2026-04-19T12:25:00Z</time></trkpt><trkpt lat="42.082522922959775" lon="11.806249818358419"><ele>9.0</ele><time>2026-04-19T12:25:02Z</time></trkpt><trkpt lat="42.082577346611" lon="11.806203984848267"><ele>9.5</ele><time>2026-04-19T12:25:03Z</time></trkpt><trkpt lat="42.082628969357444" lon="11.806154332205823"><ele>10.0</ele><time>2026-04-19T12:25:04Z</time></trkpt><trkpt lat="42.0827358327397" lon="11.806065593301728"><ele>10.5</ele><time>2026-04-19T12:25:06Z</time></trkpt><trkpt lat="42.082785840577365" lon="11.806007479606912"><ele>11.0</ele><time>2026-04-19T12:25:07Z</time></trkpt><trkpt lat="42.08282926530971" lon="11.805945750048153"><ele>11.0</ele><time>2026-04-19T12:25:08Z</time></trkpt><trkpt lat="42.08289002739375" lon="11.805917845930741"><ele>11.0</ele><time>2026-04-19T12:25:09Z</time></trkpt><trkpt lat="42.08294396473859" lon="11.80587017402596"><ele>11.0</ele><time>2026-04-19T12:25:10Z</time></trkpt><trkpt lat="42.082997241537" lon="11.805823087154005"><ele>11.0</ele><time>2026-04-19T12:25:11Z</time></trkpt><trkpt lat="42.08305200150234" lon="11.805765464489298"><ele>11.0</ele><time>2026-04-19T12:25:12Z</time></trkpt><trkpt lat="42.083103047092365" lon="11.805709659037175"><ele>11.0</ele><time>2026-04-19T12:25:13Z</time></trkpt><trkpt lat="42.08315428780848" lon="11.805648514488697"><ele>11.0</ele><time>2026-04-19T12:25:14Z</time></trkpt><trkpt lat="42.08320284369515" lon="11.80558737502956"><ele>11.0</ele><time>2026-04-19T12:25:15Z</time></trkpt><trkpt lat="42.08319536063351" lon="11.805447051689018"><ele>11.0</ele><time>2026-04-19T12:25:16Z</time></trkpt><trkpt lat="42.08324062239907" lon="11.805382684179934"><ele>11.0</ele><time>2026-04-19T12:25:17Z</time></trkpt><trkpt lat="42.08328570596228" lon="11.805318624217529"><ele>11.0</ele><time>2026-04-19T12:25:18Z</time></trkpt><trkpt lat="42.08333000081988" lon="11.80525558132472"><ele>11.0</ele><time>2026-04-19T12:25:19Z</time></trkpt><trkpt lat="42.083375143896134" lon="11.805193851347235"><ele>11.0</ele><time>2026-04-19T12:25:20Z</time></trkpt><trkpt lat="42.083419450831975" lon="11.805133423638951"><ele>11.0</ele><time>2026-04-19T12:25:21Z</time></trkpt><trkpt lat="42.08346516188099" lon="11.805070703856755"><ele>11.142857142857142</ele><time>2026-04-19T12:25:22Z</time></trkpt><trkpt lat="42.0835120107225" lon="11.805007926996579"><ele>11.285714285714285</ele><time>2026-04-19T12:25:23Z</time></trkpt><trkpt lat="42.083559730678346" lon="11.804949712969368"><ele>11.428571428571427</ele><time>2026-04-19T12:25:24Z</time></trkpt><trkpt lat="42.08360464556557" lon="11.804886932559212"><ele>11.571428571428571</ele><time>2026-04-19T12:25:25Z</time></trkpt><trkpt lat="42.08365218752213" lon="11.804825631383958"><ele>11.714285714285714</ele><time>2026-04-19T12:25:26Z</time></trkpt><trkpt lat="42.08369729606984" lon="11.804761906211624"><ele>11.857142857142856</ele><time>2026-04-19T12:25:27Z</time></trkpt><trkpt lat="42.08374405201666" lon="11.804701126214797"><ele>12.0</ele><time>2026-04-19T12:25:28Z</time></trkpt><trkpt lat="42.0837937136253" lon="11.804641646466571"><ele>12.0</ele><time>2026-04-19T12:25:29Z</time></trkpt><trkpt lat="42.08388299451215" lon="11.804521271872325"><ele>12.0</ele><time>2026-04-19T12:25:31Z</time></trkpt><trkpt lat="42.08392864103941" lon="11.804459380166449"><ele>12.0</ele><time>2026-04-19T12:25:32Z</time></trkpt><trkpt lat="42.08401653403612" lon="11.804337589764774"><ele>12.0</ele><time>2026-04-19T12:25:34Z</time></trkpt><trkpt lat="42.084061212881416" lon="11.80427391922578"><ele>12.0</ele><time>2026-04-19T12:25:35Z</time></trkpt><trkpt lat="42.084107168450984" lon="11.80421473147701"><ele>12.0</ele><time>2026-04-19T12:25:36.001Z</time></trkpt><trkpt lat="42.084152040785526" lon="11.804154707927612"><ele>12.333333333333334</ele><time>2026-04-19T12:25:37.001Z</time></trkpt><trkpt lat="42.084241916507786" lon="11.8040338321019"><ele>12.666666666666668</ele><time>2026-04-19T12:25:39.001Z</time></trkpt><trkpt lat="42.08428784075056" lon="11.80396977662904"><ele>13.0</ele><time>2026-04-19T12:25:40.001Z</time></trkpt><trkpt lat="42.08432995066197" lon="11.803906230392322"><ele>13.333333333333334</ele><time>2026-04-19T12:25:41.001Z</time></trkpt><trkpt lat="42.08441969220895" lon="11.803785544453826"><ele>13.666666666666668</ele><time>2026-04-19T12:25:43.001Z</time></trkpt><trkpt lat="42.08446401443304" lon="11.803723304104174"><ele>14.0</ele><time>2026-04-19T12:25:44.001Z</time></trkpt><trkpt lat="42.08454920808344" lon="11.803602160270026"><ele>14.0</ele><time>2026-04-19T12:25:46Z</time></trkpt><trkpt lat="42.084595026614316" lon="11.803543238582622"><ele>14.0</ele><time>2026-04-19T12:25:47Z</time></trkpt><trkpt lat="42.0846414533618" lon="11.803483010992903"><ele>14.0</ele><time>2026-04-19T12:25:48Z</time></trkpt><trkpt lat="42.084686788121694" lon="11.803418904106843"><ele>14.0</ele><time>2026-04-19T12:25:49Z</time></trkpt><trkpt lat="42.084733299839854" lon="11.803352405511593"><ele>14.0</ele><time>2026-04-19T12:25:50Z</time></trkpt><trkpt lat="42.08478152497273" lon="11.803289366547068"><ele>14.0</ele><time>2026-04-19T12:25:51Z</time></trkpt><trkpt lat="42.08482689571487" lon="11.803219972094697"><ele>14.0</ele><time>2026-04-19T12:25:52Z</time></trkpt><trkpt lat="42.084875509143025" lon="11.803149873409854"><ele>13.833333333333334</ele><time>2026-04-19T12:25:53Z</time></trkpt><trkpt lat="42.08492664582184" lon="11.803080769605923"><ele>13.666666666666668</ele><time>2026-04-19T12:25:54Z</time></trkpt><trkpt lat="42.08497670631321" lon="11.803009745952094"><ele>13.5</ele><time>2026-04-19T12:25:55Z</time></trkpt><trkpt lat="42.08502832802505" lon="11.802935261324006"><ele>13.333333333333332</ele><time>2026-04-19T12:25:56Z</time></trkpt><trkpt lat="42.08507982576088" lon="11.80286126375268"><ele>13.166666666666666</ele><time>2026-04-19T12:25:57Z</time></trkpt><trkpt lat="42.08514436116546" lon="11.802800318050263"><ele>13.0</ele><time>2026-04-19T12:25:58Z</time></trkpt><trkpt lat="42.08518851057584" lon="11.802713138110315"><ele>12.999999999999998</ele><time>2026-04-19T12:25:59Z</time></trkpt><trkpt lat="42.08524606696432" lon="11.802645382161597"><ele>13.0</ele><time>2026-04-19T12:26:00Z</time></trkpt><trkpt lat="42.085305016242" lon="11.802580800049597"><ele>13.0</ele><time>2026-04-19T12:26:01Z</time></trkpt><trkpt lat="42.0853621001776" lon="11.80251371938678"><ele>13.0</ele><time>2026-04-19T12:26:02Z</time></trkpt><trkpt lat="42.08541331909301" lon="11.802437350485263"><ele>12.999999999999998</ele><time>2026-04-19T12:26:03Z</time></trkpt><trkpt lat="42.08546866810111" lon="11.80236730205347"><ele>13.0</ele><time>2026-04-19T12:26:04Z</time></trkpt><trkpt lat="42.08552419920864" lon="11.802297123006728"><ele>13.0</ele><time>2026-04-19T12:26:05Z</time></trkpt><trkpt lat="42.08557414678579" lon="11.802225940970969"><ele>13.0</ele><time>2026-04-19T12:26:06Z</time></trkpt><trkpt lat="42.08562305790355" lon="11.802151927798256"><ele>13.0</ele><time>2026-04-19T12:26:07Z</time></trkpt><trkpt lat="42.08567363893644" lon="11.8020768600856"><ele>13.0</ele><time>2026-04-19T12:26:08Z</time></trkpt><trkpt lat="42.085727525760504" lon="11.802010369136308"><ele>13.0</ele><time>2026-04-19T12:26:09Z</time></trkpt><trkpt lat="42.08577833274429" lon="11.801944112016844"><ele>13.0</ele><time>2026-04-19T12:26:10Z</time></trkpt><trkpt lat="42.08582813653115" lon="11.801876811493134"><ele>13.0</ele><time>2026-04-19T12:26:11Z</time></trkpt><trkpt lat="42.085878087341136" lon="11.801810662692407"><ele>12.857142857142856</ele><time>2026-04-19T12:26:12Z</time></trkpt><trkpt lat="42.08592964471548" lon="11.801741718041754"><ele>12.714285714285715</ele><time>2026-04-19T12:26:13Z</time></trkpt><trkpt lat="42.085979770809786" lon="11.801671380832136"><ele>12.571428571428571</ele><time>2026-04-19T12:26:14Z</time></trkpt><trkpt lat="42.08602803725849" lon="11.801598751760041"><ele>12.428571428571427</ele><time>2026-04-19T12:26:15Z</time></trkpt><trkpt lat="42.08608019372477" lon="11.801531564239848"><ele>12.285714285714285</ele><time>2026-04-19T12:26:16Z</time></trkpt><trkpt lat="42.0861242723099" lon="11.801453636386805"><ele>12.142857142857142</ele><time>2026-04-19T12:26:17Z</time></trkpt><trkpt lat="42.086165721277276" lon="11.801370161247679"><ele>12.0</ele><time>2026-04-19T12:26:18Z</time></trkpt><trkpt lat="42.086204286449096" lon="11.801287843839495"><ele>11.999999999999998</ele><time>2026-04-19T12:26:19Z</time></trkpt><trkpt lat="42.086242716591485" lon="11.801204666814781"><ele>12.0</ele><time>2026-04-19T12:26:20Z</time></trkpt><trkpt lat="42.08627745551733" lon="11.801121502284694"><ele>12.0</ele><time>2026-04-19T12:26:21Z</time></trkpt><trkpt lat="42.08631733275509" lon="11.801042519761864"><ele>12.0</ele><time>2026-04-19T12:26:22Z</time></trkpt><trkpt lat="42.086356082145365" lon="11.800963045591633"><ele>12.0</ele><time>2026-04-19T12:26:23Z</time></trkpt><trkpt lat="42.08639254010858" lon="11.80088226591798"><ele>11.999999999999998</ele><time>2026-04-19T12:26:24Z</time></trkpt><trkpt lat="42.08643134148679" lon="11.800801080073875"><ele>12.0</ele><time>2026-04-19T12:26:25Z</time></trkpt><trkpt lat="42.086470730208696" lon="11.800719571318744"><ele>11.285714285714285</ele><time>2026-04-19T12:26:26Z</time></trkpt><trkpt lat="42.08650789486797" lon="11.800639040046951"><ele>10.571428571428571</ele><time>2026-04-19T12:26:27Z</time></trkpt><trkpt lat="42.08654658981145" lon="11.80055683729296"><ele>9.857142857142858</ele><time>2026-04-19T12:26:28Z</time></trkpt><trkpt lat="42.08658390045024" lon="11.80047702865307"><ele>9.142857142857142</ele><time>2026-04-19T12:26:29Z</time></trkpt><trkpt lat="42.08662301597272" lon="11.800397108083788"><ele>8.428571428571429</ele><time>2026-04-19T12:26:30Z</time></trkpt><trkpt lat="42.086660772682535" lon="11.80031762837824"><ele>7.714285714285714</ele><time>2026-04-19T12:26:31Z</time></trkpt><trkpt lat="42.086696546103695" lon="11.800241270044394"><ele>7.0</ele><time>2026-04-19T12:26:32Z</time></trkpt><trkpt lat="42.08673175880148" lon="11.800166893250992"><ele>7.0</ele><time>2026-04-19T12:26:33Z</time></trkpt><trkpt lat="42.08676792796479" lon="11.800091643708114"><ele>7.0</ele><time>2026-04-19T12:26:34Z</time></trkpt><trkpt lat="42.08680454413879" lon="11.800010261631236"><ele>7.0</ele><time>2026-04-19T12:26:35Z</time></trkpt><trkpt lat="42.086842756563776" lon="11.799931661277524"><ele>7.0</ele><time>2026-04-19T12:26:36Z</time></trkpt><trkpt lat="42.086877137620675" lon="11.799856263895466"><ele>7.0</ele><time>2026-04-19T12:26:37Z</time></trkpt><trkpt lat="42.086910622577086" lon="11.799783893282093"><ele>7.0</ele><time>2026-04-19T12:26:38Z</time></trkpt><trkpt lat="42.08694599549831" lon="11.799708791357665"><ele>7.0</ele><time>2026-04-19T12:26:39Z</time></trkpt><trkpt lat="42.08698096842089" lon="11.799633715757787"><ele>7.0</ele><time>2026-04-19T12:26:40Z</time></trkpt><trkpt lat="42.08701351103902" lon="11.799558170178624"><ele>7.0</ele><time>2026-04-19T12:26:41Z</time></trkpt><trkpt lat="42.08704643685552" lon="11.799480320177734"><ele>7.0</ele><time>2026-04-19T12:26:42Z</time></trkpt><trkpt lat="42.08708066708469" lon="11.799404131294231"><ele>7.0</ele><time>2026-04-19T12:26:43Z</time></trkpt><trkpt lat="42.08711824177735" lon="11.799329352381617"><ele>7.0</ele><time>2026-04-19T12:26:44Z</time></trkpt><trkpt lat="42.087153678766555" lon="11.799255412927055"><ele>7.0</ele><time>2026-04-19T12:26:45Z</time></trkpt><trkpt lat="42.08718774177464" lon="11.799177398015852"><ele>7.0</ele><time>2026-04-19T12:26:46Z</time></trkpt><trkpt lat="42.087222825073" lon="11.799099397657498"><ele>6.714285714285714</ele><time>2026-04-19T12:26:47Z</time></trkpt><trkpt lat="42.08725120358618" lon="11.799019519839943"><ele>6.428571428571429</ele><time>2026-04-19T12:26:48Z</time></trkpt><trkpt lat="42.087280571071034" lon="11.798937232951866"><ele>6.142857142857142</ele><time>2026-04-19T12:26:49Z</time></trkpt><trkpt lat="42.087323248126495" lon="11.79886277892833"><ele>5.857142857142858</ele><time>2026-04-19T12:26:50Z</time></trkpt><trkpt lat="42.08736620356301" lon="11.798795262219985"><ele>5.571428571428571</ele><time>2026-04-19T12:26:51Z</time></trkpt><trkpt lat="42.08740651436585" lon="11.798724666450317"><ele>5.285714285714286</ele><time>2026-04-19T12:26:52Z</time></trkpt><trkpt lat="42.08744478221337" lon="11.798650831377504"><ele>5.0</ele><time>2026-04-19T12:26:53Z</time></trkpt><trkpt lat="42.08747984165066" lon="11.79857285121242"><ele>5.714285714285714</ele><time>2026-04-19T12:26:54Z</time></trkpt><trkpt lat="42.0875167909317" lon="11.79849635937822"><ele>6.428571428571429</ele><time>2026-04-19T12:26:55Z</time></trkpt><trkpt lat="42.08755396645658" lon="11.798421402768128"><ele>7.142857142857142</ele><time>2026-04-19T12:26:56Z</time></trkpt><trkpt lat="42.087588648759905" lon="11.798348647019573"><ele>7.857142857142858</ele><time>2026-04-19T12:26:57Z</time></trkpt><trkpt lat="42.08761961052771" lon="11.798273787563065"><ele>8.571428571428571</ele><time>2026-04-19T12:26:58Z</time></trkpt><trkpt lat="42.08765362860057" lon="11.798199265626742"><ele>9.285714285714285</ele><time>2026-04-19T12:26:59Z</time></trkpt><trkpt lat="42.08768891744502" lon="11.79812549565574"><ele>10.0</ele><time>2026-04-19T12:27:00Z</time></trkpt><trkpt lat="42.08772517317394" lon="11.79805355524081"><ele>10.0</ele><time>2026-04-19T12:27:01Z</time></trkpt><trkpt lat="42.08779150856861" lon="11.797908398170826"><ele>10.0</ele><time>2026-04-19T12:27:03Z</time></trkpt><trkpt lat="42.08782587391983" lon="11.797834971920587"><ele>10.0</ele><time>2026-04-19T12:27:04Z</time></trkpt><trkpt lat="42.087861313770915" lon="11.797763183437107"><ele>10.0</ele><time>2026-04-19T12:27:05Z</time></trkpt><trkpt lat="42.08789610312146" lon="11.797691516761748"><ele>10.0</ele><time>2026-04-19T12:27:06Z</time></trkpt><trkpt lat="42.08793077501475" lon="11.797617581236263"><ele>10.0</ele><time>2026-04-19T12:27:07Z</time></trkpt><trkpt lat="42.087966116991936" lon="11.797543689795832"><ele>10.0</ele><time>2026-04-19T12:27:08Z</time></trkpt><trkpt lat="42.08800005747952" lon="11.797469646572829"><ele>9.571428571428571</ele><time>2026-04-19T12:27:09Z</time></trkpt><trkpt lat="42.08803523307512" lon="11.797395839104745"><ele>9.142857142857142</ele><time>2026-04-19T12:27:10Z</time></trkpt><trkpt lat="42.08806801182053" lon="11.797318538028609"><ele>8.714285714285715</ele><time>2026-04-19T12:27:11Z</time></trkpt><trkpt lat="42.08810540217666" lon="11.79724380702333"><ele>8.285714285714285</ele><time>2026-04-19T12:27:12Z</time></trkpt><trkpt lat="42.088139519919615" lon="11.797168363542594"><ele>7.857142857142858</ele><time>2026-04-19T12:27:13Z</time></trkpt><trkpt lat="42.08817145764038" lon="11.797090594905612"><ele>7.428571428571429</ele><time>2026-04-19T12:27:14Z</time></trkpt><trkpt lat="42.08822940150719" lon="11.796960317741767"><ele>7.0</ele><time>2026-04-19T12:27:16Z</time></trkpt><trkpt lat="42.08826664416148" lon="11.796854737668173"><ele>6.6</ele><time>2026-04-19T12:27:18Z</time></trkpt><trkpt lat="42.08833343739652" lon="11.796753669507964"><ele>6.199999999999999</ele><time>2026-04-19T12:27:21Z</time></trkpt><trkpt lat="42.08837997015568" lon="11.79665547421303"><ele>5.8</ele><time>2026-04-19T12:27:23Z</time></trkpt><trkpt lat="42.088429069251895" lon="11.796551863389416"><ele>5.4</ele><time>2026-04-19T12:27:25Z</time></trkpt><trkpt lat="42.088492623487376" lon="11.796417748795093"><ele>5.0</ele><time>2026-04-19T12:27:27Z</time></trkpt><trkpt lat="42.08855863282131" lon="11.796277426197944"><ele>5.0</ele><time>2026-04-19T12:27:29Z</time></trkpt><trkpt lat="42.08835924176971" lon="11.796008315853216"><ele>5.0</ele><time>2026-04-19T12:27:30Z</time></trkpt><trkpt lat="42.08838328036701" lon="11.795928972234682"><ele>5.0</ele><time>2026-04-19T12:27:31Z</time></trkpt><trkpt lat="42.088404267887256" lon="11.795844444427853"><ele>5.0</ele><time>2026-04-19T12:27:32Z</time></trkpt><trkpt lat="42.08842244799803" lon="11.795757126231752"><ele>4.666666666666667</ele><time>2026-04-19T12:27:33Z</time></trkpt><trkpt lat="42.088441728426986" lon="11.795665853917338"><ele>4.333333333333334</ele><time>2026-04-19T12:27:34Z</time></trkpt><trkpt lat="42.088454842619186" lon="11.795572642879456"><ele>4.0</ele><time>2026-04-19T12:27:35Z</time></trkpt><trkpt lat="42.08846649648291" lon="11.795481951415073"><ele>3.666666666666667</ele><time>2026-04-19T12:27:36Z</time></trkpt><trkpt lat="42.0884797140914" lon="11.795385118181795"><ele>3.3333333333333335</ele><time>2026-04-19T12:27:37Z</time></trkpt><trkpt lat="42.08849675242071" lon="11.795292477674563"><ele>3.0</ele><time>2026-04-19T12:27:38Z</time></trkpt><trkpt lat="42.08844849926239" lon="11.795159314736148"><ele>2.6666666666666665</ele><time>2026-04-19T12:27:39Z</time></trkpt><trkpt lat="42.08847419482953" lon="11.795073147964835"><ele>2.3333333333333335</ele><time>2026-04-19T12:27:40Z</time></trkpt><trkpt lat="42.08849955925161" lon="11.79498809164348"><ele>2.0</ele><time>2026-04-19T12:27:41Z</time></trkpt><trkpt lat="42.088524183678" lon="11.794905516805422"><ele>1.6666666666666665</ele><time>2026-04-19T12:27:42.001Z</time></trkpt><trkpt lat="42.08867518068936" lon="11.794894857892231"><ele>1.3333333333333333</ele><time>2026-04-19T12:27:43.001Z</time></trkpt><trkpt lat="42.08870982746618" lon="11.79482309498651"><ele>1.0</ele><time>2026-04-19T12:27:44.001Z</time></trkpt><trkpt lat="42.08877135101115" lon="11.794682007557334"><ele>1.0</ele><time>2026-04-19T12:27:46Z</time></trkpt><trkpt lat="42.08883023550758" lon="11.79454307722018"><ele>1.0</ele><time>2026-04-19T12:27:48Z</time></trkpt><trkpt lat="42.08887391616117" lon="11.794394847528498"><ele>1.0</ele><time>2026-04-19T12:27:50Z</time></trkpt><trkpt lat="42.0889313995778" lon="11.794252636400147"><ele>1.0</ele><time>2026-04-19T12:27:52Z</time></trkpt><trkpt lat="42.088965239184105" lon="11.794180602901655"><ele>1.0</ele><time>2026-04-19T12:27:53Z</time></trkpt><trkpt lat="42.0890290539365" lon="11.794045385037164"><ele>1.4</ele><time>2026-04-19T12:27:55Z</time></trkpt><trkpt lat="42.089094470458335" lon="11.79391070588493"><ele>1.8</ele><time>2026-04-19T12:27:57Z</time></trkpt><trkpt lat="42.08914356927274" lon="11.793811994158274"><ele>2.1999999999999997</ele><time>2026-04-19T12:27:59Z</time></trkpt><trkpt lat="42.089194842826785" lon="11.793723510910112"><ele>2.6</ele><time>2026-04-19T12:28:02Z</time></trkpt><trkpt lat="42.089232568645215" lon="11.793636046913926"><ele>3.0</ele><time>2026-04-19T12:28:04Z</time></trkpt><trkpt lat="42.08929470206544" lon="11.793529819151853"><ele>2.8</ele><time>2026-04-19T12:28:06Z</time></trkpt><trkpt lat="42.08935622313087" lon="11.79340510938547"><ele>2.5999999999999996</ele><time>2026-04-19T12:28:08Z</time></trkpt><trkpt lat="42.08943068265927" lon="11.793286102721636"><ele>2.4000000000000004</ele><time>2026-04-19T12:28:10Z</time></trkpt><trkpt lat="42.089500949533445" lon="11.79314691249498"><ele>2.2</ele><time>2026-04-19T12:28:12Z</time></trkpt><trkpt lat="42.08953049908163" lon="11.793068309787342"><ele>2.0</ele><time>2026-04-19T12:28:13Z</time></trkpt><trkpt lat="42.08958988386334" lon="11.792926301875239"><ele>2.0</ele><time>2026-04-19T12:28:15Z</time></trkpt><trkpt lat="42.08961322036716" lon="11.792769889751526"><ele>2.0</ele><time>2026-04-19T12:28:17Z</time></trkpt><trkpt lat="42.089640529389236" lon="11.792635981426969"><ele>2.0</ele><time>2026-04-19T12:28:19Z</time></trkpt><trkpt lat="42.089663092763665" lon="11.792510598111898"><ele>2.0</ele><time>2026-04-19T12:28:21Z</time></trkpt><trkpt lat="42.08969430437995" lon="11.792404614814366"><ele>2.0</ele><time>2026-04-19T12:28:23Z</time></trkpt><trkpt lat="42.089726325086744" lon="11.792297437913229"><ele>1.9999999999999998</ele><time>2026-04-19T12:28:25Z</time></trkpt><trkpt lat="42.089746087468946" lon="11.792200654887147"><ele>2.0</ele><time>2026-04-19T12:28:27Z</time></trkpt><trkpt lat="42.08975641064211" lon="11.792079037756345"><ele>2.0</ele><time>2026-04-19T12:28:29Z</time></trkpt><trkpt lat="42.08975138183807" lon="11.791958654657101"><ele>2.0</ele><time>2026-04-19T12:28:31Z</time></trkpt><trkpt lat="42.089737622286314" lon="11.79185305517473"><ele>1.9999999999999998</ele><time>2026-04-19T12:28:33Z</time></trkpt><trkpt lat="42.089722841974464" lon="11.791754601959576"><ele>2.0</ele><time>2026-04-19T12:28:35Z</time></trkpt><trkpt lat="42.0897072951565" lon="11.791664969820195"><ele>2.0</ele><time>2026-04-19T12:28:39Z</time></trkpt><trkpt lat="42.08980187364881" lon="11.791648668763816"><ele>2.0</ele><time>2026-04-19T12:33:47Z</time></trkpt></trkseg></trk></gpx>